<?xml version='1.0' encoding='UTF-8'?><gpx version="1.1" creator="JPX - https://github.com/jenetics/jpx" xmlns="http://www.topografix.com/GPX/1/1"><trk><trkseg><trkpt lat="42.2203407" lon="12.7185271"><ele>239.00000000000003</ele><time>2026-04-26T16:27:26.623Z</time></trkpt><trkpt lat="42.2203609" lon="12.7184387"><ele>239.0</ele><time>2026-04-26T16:27:27.617Z</time></trkpt><trkpt lat="42.2203745" lon="12.7183478"><ele>239.00000000000003</ele><time>2026-04-26T16:27:28.623Z</time></trkpt><trkpt lat="42.2203941" lon="12.7182629"><ele>239.00000000000003</ele><time>2026-04-26T16:27:29.623Z</time></trkpt><trkpt lat="42.2204238" lon="12.7181781"><ele>239.0</ele><time>2026-04-26T16:27:30.619Z</time></trkpt><trkpt lat="42.2204571" lon="12.7180887"><ele>239.00000000000003</ele><time>2026-04-26T16:27:31.621Z</time></trkpt><trkpt lat="42.2204983" lon="12.7179803"><ele>239.00000000000003</ele><time>2026-04-26T16:27:32.622Z</time></trkpt><trkpt lat="42.2205513" lon="12.7178866"><ele>239.00000000000003</ele><time>2026-04-26T16:27:33.624Z</time></trkpt><trkpt lat="42.2206033" lon="12.7177995"><ele>239.0</ele><time>2026-04-26T16:27:34.624Z</time></trkpt><trkpt lat="42.2206542" lon="12.7177174"><ele>239.0</ele><time>2026-04-26T16:27:35.619Z</time></trkpt><trkpt lat="42.2207087" lon="12.7176337"><ele>239.0</ele><time>2026-04-26T16:27:36.623Z</time></trkpt><trkpt lat="42.2207533" lon="12.7175548"><ele>239.00000000000003</ele><time>2026-04-26T16:27:37.634Z</time></trkpt><trkpt lat="42.2207875" lon="12.717482"><ele>239.0</ele><time>2026-04-26T16:27:38.616Z</time></trkpt><trkpt lat="42.2207189" lon="12.7175912"><ele>239.0</ele><time>2026-04-26T16:27:46.615Z</time></trkpt><trkpt lat="42.220683" lon="12.7177241"><ele>238.99999999999997</ele><time>2026-04-26T16:27:48.617Z</time></trkpt><trkpt lat="42.2206514" lon="12.7178535"><ele>238.99999999999997</ele><time>2026-04-26T16:27:50.62Z</time></trkpt><trkpt lat="42.2205901" lon="12.7179869"><ele>239.0</ele><time>2026-04-26T16:27:52.616Z</time></trkpt><trkpt lat="42.2205312" lon="12.7180605"><ele>239.0</ele><time>2026-04-26T16:27:53.627Z</time></trkpt><trkpt lat="42.2204765" lon="12.7181448"><ele>239.00000000000003</ele><time>2026-04-26T16:27:54.618Z</time></trkpt><trkpt lat="42.2204389" lon="12.7182417"><ele>239.0</ele><time>2026-04-26T16:27:55.627Z</time></trkpt><trkpt lat="42.2203998" lon="12.7183294"><ele>239.0</ele><time>2026-04-26T16:27:56.62Z</time></trkpt><trkpt lat="42.2203779" lon="12.7184201"><ele>239.0</ele><time>2026-04-26T16:27:57.625Z</time></trkpt><trkpt lat="42.2203553" lon="12.7185675"><ele>239.00000000000003</ele><time>2026-04-26T16:27:59.628Z</time></trkpt><trkpt lat="42.2203329" lon="12.7186572"><ele>239.0</ele><time>2026-04-26T16:28:00.62Z</time></trkpt><trkpt lat="42.2203089" lon="12.7187659"><ele>238.83333333333334</ele><time>2026-04-26T16:28:01.664Z</time></trkpt><trkpt lat="42.2202907" lon="12.718871"><ele>238.66666666666669</ele><time>2026-04-26T16:28:02.622Z</time></trkpt><trkpt lat="42.2202794" lon="12.7189762"><ele>238.5</ele><time>2026-04-26T16:28:03.615Z</time></trkpt><trkpt lat="42.2202686" lon="12.7190859"><ele>238.33333333333331</ele><time>2026-04-26T16:28:04.614Z</time></trkpt><trkpt lat="42.2202554" lon="12.7191918"><ele>238.16666666666666</ele><time>2026-04-26T16:28:05.618Z</time></trkpt><trkpt lat="42.2202576" lon="12.7192925"><ele>238.0</ele><time>2026-04-26T16:28:06.622Z</time></trkpt><trkpt lat="42.220265" lon="12.7194108"><ele>238.0</ele><time>2026-04-26T16:28:07.616Z</time></trkpt><trkpt lat="42.2202828" lon="12.71956"><ele>238.0</ele><time>2026-04-26T16:28:08.646Z</time></trkpt><trkpt lat="42.2202924" lon="12.7197234"><ele>238.0</ele><time>2026-04-26T16:28:09.615Z</time></trkpt><trkpt lat="42.2202929" lon="12.7198711"><ele>238.0</ele><time>2026-04-26T16:28:10.623Z</time></trkpt><trkpt lat="42.2202752" lon="12.7200021"><ele>238.0</ele><time>2026-04-26T16:28:11.622Z</time></trkpt><trkpt lat="42.2202561" lon="12.7201435"><ele>237.60000000000002</ele><time>2026-04-26T16:28:12.697Z</time></trkpt><trkpt lat="42.2202167" lon="12.7202783"><ele>237.20000000000002</ele><time>2026-04-26T16:28:13.622Z</time></trkpt><trkpt lat="42.2201737" lon="12.7203991"><ele>236.8</ele><time>2026-04-26T16:28:14.62Z</time></trkpt><trkpt lat="42.2201381" lon="12.7204927"><ele>236.4</ele><time>2026-04-26T16:28:15.7Z</time></trkpt><trkpt lat="42.2200916" lon="12.7205802"><ele>236.0</ele><time>2026-04-26T16:28:16.804Z</time></trkpt><trkpt lat="42.220105" lon="12.7204641"><ele>236.0</ele><time>2026-04-26T16:28:22.622Z</time></trkpt><trkpt lat="42.2201212" lon="12.7203611"><ele>236.00000000000003</ele><time>2026-04-26T16:28:23.625Z</time></trkpt><trkpt lat="42.220155" lon="12.7202133"><ele>236.00000000000003</ele><time>2026-04-26T16:28:24.615Z</time></trkpt><trkpt lat="42.220192" lon="12.7200539"><ele>236.0</ele><time>2026-04-26T16:28:25.622Z</time></trkpt><trkpt lat="42.2202297" lon="12.7198918"><ele>236.0</ele><time>2026-04-26T16:28:26.627Z</time></trkpt><trkpt lat="42.2202494" lon="12.7197462"><ele>236.0</ele><time>2026-04-26T16:28:27.621Z</time></trkpt><trkpt lat="42.2202692" lon="12.7195966"><ele>236.00000000000003</ele><time>2026-04-26T16:28:28.624Z</time></trkpt><trkpt lat="42.2202762" lon="12.7194515"><ele>236.00000000000003</ele><time>2026-04-26T16:28:29.623Z</time></trkpt><trkpt lat="42.2202734" lon="12.7193057"><ele>236.0</ele><time>2026-04-26T16:28:30.697Z</time></trkpt><trkpt lat="42.2202639" lon="12.7191732"><ele>236.0</ele><time>2026-04-26T16:28:31.66Z</time></trkpt><trkpt lat="42.2202463" lon="12.7190654"><ele>236.00000000000003</ele><time>2026-04-26T16:28:32.617Z</time></trkpt><trkpt lat="42.2202348" lon="12.7189593"><ele>236.0</ele><time>2026-04-26T16:28:33.619Z</time></trkpt><trkpt lat="42.2202307" lon="12.7188698"><ele>236.0</ele><time>2026-04-26T16:28:34.622Z</time></trkpt><trkpt lat="42.2202396" lon="12.7187346"><ele>236.0</ele><time>2026-04-26T16:28:36.52Z</time></trkpt><trkpt lat="42.2202511" lon="12.7186116"><ele>236.00000000000003</ele><time>2026-04-26T16:28:38.521Z</time></trkpt><trkpt lat="42.2202854" lon="12.7184705"><ele>236.0</ele><time>2026-04-26T16:28:40.546Z</time></trkpt><trkpt lat="42.2203313" lon="12.7183501"><ele>236.00000000000003</ele><time>2026-04-26T16:28:42.521Z</time></trkpt><trkpt lat="42.2203615" lon="12.7182735"><ele>236.0</ele><time>2026-04-26T16:28:49.518Z</time></trkpt><trkpt lat="42.2203131" lon="12.7183359"><ele>236.0</ele><time>2026-04-26T16:29:04.523Z</time></trkpt><trkpt lat="42.2202791" lon="12.7184306"><ele>236.0</ele><time>2026-04-26T16:29:05.528Z</time></trkpt><trkpt lat="42.2202549" lon="12.7185444"><ele>236.00000000000003</ele><time>2026-04-26T16:29:06.521Z</time></trkpt><trkpt lat="42.2202146" lon="12.7187059"><ele>236.0</ele><time>2026-04-26T16:29:07.519Z</time></trkpt><trkpt lat="42.2202099" lon="12.7189493"><ele>236.0</ele><time>2026-04-26T16:29:08.531Z</time></trkpt><trkpt lat="42.2202159" lon="12.7191646"><ele>236.0</ele><time>2026-04-26T16:29:09.516Z</time></trkpt><trkpt lat="42.2202249" lon="12.7193654"><ele>236.0</ele><time>2026-04-26T16:29:10.559Z</time></trkpt><trkpt lat="42.2202372" lon="12.7195537"><ele>236.0</ele><time>2026-04-26T16:29:11.517Z</time></trkpt><trkpt lat="42.2202211" lon="12.7197351"><ele>236.0</ele><time>2026-04-26T16:29:12.52Z</time></trkpt><trkpt lat="42.2202054" lon="12.7199137"><ele>236.0</ele><time>2026-04-26T16:29:13.519Z</time></trkpt><trkpt lat="42.2201717" lon="12.7200965"><ele>236.0</ele><time>2026-04-26T16:29:14.522Z</time></trkpt><trkpt lat="42.2201365" lon="12.7202803"><ele>236.0</ele><time>2026-04-26T16:29:15.521Z</time></trkpt><trkpt lat="42.2201065" lon="12.7204691"><ele>236.0</ele><time>2026-04-26T16:29:16.514Z</time></trkpt><trkpt lat="42.2200818" lon="12.7206912"><ele>236.0</ele><time>2026-04-26T16:29:17.52Z</time></trkpt><trkpt lat="42.2200692" lon="12.7209015"><ele>236.0</ele><time>2026-04-26T16:29:18.515Z</time></trkpt><trkpt lat="42.2200719" lon="12.7211295"><ele>235.20000000000002</ele><time>2026-04-26T16:29:19.516Z</time></trkpt><trkpt lat="42.2201034" lon="12.7212919"><ele>234.40000000000003</ele><time>2026-04-26T16:29:20.523Z</time></trkpt><trkpt lat="42.2201108" lon="12.7214495"><ele>233.6</ele><time>2026-04-26T16:29:21.516Z</time></trkpt><trkpt lat="42.2200795" lon="12.7215742"><ele>232.8</ele><time>2026-04-26T16:29:22.528Z</time></trkpt><trkpt lat="42.2200538" lon="12.7217117"><ele>232.0</ele><time>2026-04-26T16:29:23.515Z</time></trkpt><trkpt lat="42.2200336" lon="12.7218075"><ele>232.0</ele><time>2026-04-26T16:29:24.678Z</time></trkpt><trkpt lat="42.2199503" lon="12.7218941"><ele>232.0</ele><time>2026-04-26T16:29:25.673Z</time></trkpt><trkpt lat="42.2198739" lon="12.7219721"><ele>232.0</ele><time>2026-04-26T16:29:26.676Z</time></trkpt><trkpt lat="42.2198096" lon="12.722033"><ele>232.0</ele><time>2026-04-26T16:29:27.673Z</time></trkpt><trkpt lat="42.2197487" lon="12.7220829"><ele>232.0</ele><time>2026-04-26T16:29:28.573Z</time></trkpt><trkpt lat="42.2196673" lon="12.7221805"><ele>233.2</ele><time>2026-04-26T16:29:30.518Z</time></trkpt><trkpt lat="42.2197068" lon="12.7222829"><ele>234.39999999999998</ele><time>2026-04-26T16:29:32.537Z</time></trkpt><trkpt lat="42.2197739" lon="12.7223203"><ele>235.60000000000002</ele><time>2026-04-26T16:29:33.568Z</time></trkpt><trkpt lat="42.21987" lon="12.7223376"><ele>236.8</ele><time>2026-04-26T16:29:34.521Z</time></trkpt><trkpt lat="42.2199858" lon="12.7223315"><ele>238.0</ele><time>2026-04-26T16:29:35.533Z</time></trkpt><trkpt lat="42.2200908" lon="12.722286"><ele>236.5</ele><time>2026-04-26T16:29:36.523Z</time></trkpt><trkpt lat="42.2201915" lon="12.7221995"><ele>235.0</ele><time>2026-04-26T16:29:37.519Z</time></trkpt><trkpt lat="42.2202845" lon="12.7220353"><ele>233.5</ele><time>2026-04-26T16:29:38.515Z</time></trkpt><trkpt lat="42.2203608" lon="12.721835"><ele>232.0</ele><time>2026-04-26T16:29:39.521Z</time></trkpt><trkpt lat="42.2204423" lon="12.7215504"><ele>232.0</ele><time>2026-04-26T16:29:40.517Z</time></trkpt><trkpt lat="42.2204952" lon="12.7212927"><ele>232.0</ele><time>2026-04-26T16:29:41.532Z</time></trkpt><trkpt lat="42.2205274" lon="12.7210519"><ele>232.0</ele><time>2026-04-26T16:29:42.51Z</time></trkpt><trkpt lat="42.2205558" lon="12.7208187"><ele>233.0</ele><time>2026-04-26T16:29:43.522Z</time></trkpt><trkpt lat="42.2205256" lon="12.7206239"><ele>234.0</ele><time>2026-04-26T16:29:44.539Z</time></trkpt><trkpt lat="42.2205188" lon="12.7204726"><ele>235.0</ele><time>2026-04-26T16:29:45.535Z</time></trkpt><trkpt lat="42.2205384" lon="12.7203299"><ele>236.0</ele><time>2026-04-26T16:29:46.539Z</time></trkpt><trkpt lat="42.2205287" lon="12.7202091"><ele>236.33333333333334</ele><time>2026-04-26T16:29:47.537Z</time></trkpt><trkpt lat="42.2205268" lon="12.7200921"><ele>236.66666666666669</ele><time>2026-04-26T16:29:48.539Z</time></trkpt><trkpt lat="42.2205286" lon="12.7199897"><ele>237.0</ele><time>2026-04-26T16:29:49.513Z</time></trkpt><trkpt lat="42.2205456" lon="12.7198845"><ele>237.33333333333331</ele><time>2026-04-26T16:29:50.538Z</time></trkpt><trkpt lat="42.2205603" lon="12.7197988"><ele>237.66666666666666</ele><time>2026-04-26T16:29:51.533Z</time></trkpt><trkpt lat="42.2205829" lon="12.7196815"><ele>238.0</ele><time>2026-04-26T16:29:53.531Z</time></trkpt><trkpt lat="42.2205935" lon="12.7195663"><ele>238.0</ele><time>2026-04-26T16:29:55.514Z</time></trkpt><trkpt lat="42.2206332" lon="12.719461"><ele>238.0</ele><time>2026-04-26T16:29:58.512Z</time></trkpt><trkpt lat="42.2206697" lon="12.7193302"><ele>238.0</ele><time>2026-04-26T16:30:08.53Z</time></trkpt><trkpt lat="42.2207215" lon="12.7191918"><ele>238.0</ele><time>2026-04-26T16:30:10.525Z</time></trkpt><trkpt lat="42.2207504" lon="12.7191143"><ele>238.0</ele><time>2026-04-26T16:30:14.515Z</time></trkpt><trkpt lat="42.220752" lon="12.719264"><ele>231.8</ele><time>2026-04-26T16:30:28.508Z</time></trkpt><trkpt lat="42.2207277" lon="12.7194632"><ele>225.60000000000002</ele><time>2026-04-26T16:30:30.513Z</time></trkpt><trkpt lat="42.2207301" lon="12.7195508"><ele>219.39999999999998</ele><time>2026-04-26T16:30:31.516Z</time></trkpt><trkpt lat="42.220766" lon="12.7197286"><ele>213.2</ele><time>2026-04-26T16:30:33.535Z</time></trkpt><trkpt lat="42.2207825" lon="12.7198387"><ele>207.0</ele><time>2026-04-26T16:30:34.509Z</time></trkpt><trkpt lat="42.2207963" lon="12.7199826"><ele>207.0</ele><time>2026-04-26T16:30:35.51Z</time></trkpt><trkpt lat="42.2208024" lon="12.7201346"><ele>207.0</ele><time>2026-04-26T16:30:36.515Z</time></trkpt><trkpt lat="42.2208278" lon="12.7202686"><ele>207.0</ele><time>2026-04-26T16:30:37.507Z</time></trkpt><trkpt lat="42.2208505" lon="12.7203863"><ele>207.0</ele><time>2026-04-26T16:30:38.516Z</time></trkpt><trkpt lat="42.2208765" lon="12.7205082"><ele>207.0</ele><time>2026-04-26T16:30:39.509Z</time></trkpt><trkpt lat="42.2208885" lon="12.720616"><ele>206.39999999999998</ele><time>2026-04-26T16:30:40.516Z</time></trkpt><trkpt lat="42.2208952" lon="12.7207152"><ele>205.79999999999998</ele><time>2026-04-26T16:30:41.827Z</time></trkpt><trkpt lat="42.2208835" lon="12.7209169"><ele>205.2</ele><time>2026-04-26T16:30:43.52Z</time></trkpt><trkpt lat="42.2208773" lon="12.721031"><ele>204.6</ele><time>2026-04-26T16:30:44.674Z</time></trkpt><trkpt lat="42.2208642" lon="12.7211576"><ele>204.0</ele><time>2026-04-26T16:30:45.669Z</time></trkpt><trkpt lat="42.2208341" lon="12.7212832"><ele>203.39999999999998</ele><time>2026-04-26T16:30:46.677Z</time></trkpt><trkpt lat="42.2207814" lon="12.7214766"><ele>202.8</ele><time>2026-04-26T16:30:48.763Z</time></trkpt><trkpt lat="42.2207091" lon="12.7214887"><ele>202.2</ele><time>2026-04-26T16:31:17.425Z</time></trkpt><trkpt lat="42.2207878" lon="12.7214557"><ele>201.60000000000002</ele><time>2026-04-26T16:31:26.408Z</time></trkpt><trkpt lat="42.220855" lon="12.7214482"><ele>201.0</ele><time>2026-04-26T16:31:39.432Z</time></trkpt><trkpt lat="42.2208684" lon="12.7215699"><ele>201.0</ele><time>2026-04-26T16:31:44.424Z</time></trkpt><trkpt lat="42.2208441" lon="12.7216713"><ele>201.0</ele><time>2026-04-26T16:31:45.437Z</time></trkpt><trkpt lat="42.220831" lon="12.7217913"><ele>201.0</ele><time>2026-04-26T16:31:46.428Z</time></trkpt><trkpt lat="42.220819" lon="12.7218843"><ele>201.0</ele><time>2026-04-26T16:31:47.426Z</time></trkpt><trkpt lat="42.2207842" lon="12.722002"><ele>201.0</ele><time>2026-04-26T16:31:49.445Z</time></trkpt><trkpt lat="42.220741" lon="12.7221057"><ele>201.0</ele><time>2026-04-26T16:31:52.427Z</time></trkpt><trkpt lat="42.220706" lon="12.7221839"><ele>199.75</ele><time>2026-04-26T16:31:54.427Z</time></trkpt><trkpt lat="42.2206749" lon="12.7222588"><ele>198.5</ele><time>2026-04-26T16:31:56.446Z</time></trkpt><trkpt lat="42.2205965" lon="12.7224197"><ele>197.25</ele><time>2026-04-26T16:31:59.445Z</time></trkpt><trkpt lat="42.2206633" lon="12.7222618"><ele>196.0</ele><time>2026-04-26T16:32:08.42Z</time></trkpt><trkpt lat="42.2206881" lon="12.7220624"><ele>196.0</ele><time>2026-04-26T16:32:10.416Z</time></trkpt><trkpt lat="42.2207041" lon="12.721936"><ele>196.0</ele><time>2026-04-26T16:32:11.413Z</time></trkpt><trkpt lat="42.2207188" lon="12.7217951"><ele>196.0</ele><time>2026-04-26T16:32:12.415Z</time></trkpt><trkpt lat="42.2207316" lon="12.7216381"><ele>196.0</ele><time>2026-04-26T16:32:13.419Z</time></trkpt><trkpt lat="42.2207479" lon="12.7214621"><ele>196.0</ele><time>2026-04-26T16:32:14.422Z</time></trkpt><trkpt lat="42.2207615" lon="12.7212983"><ele>197.0</ele><time>2026-04-26T16:32:15.433Z</time></trkpt><trkpt lat="42.2207858" lon="12.7211587"><ele>198.0</ele><time>2026-04-26T16:32:16.442Z</time></trkpt><trkpt lat="42.2208035" lon="12.7210409"><ele>199.0</ele><time>2026-04-26T16:32:17.418Z</time></trkpt><trkpt lat="42.2208155" lon="12.7209325"><ele>200.0</ele><time>2026-04-26T16:32:18.423Z</time></trkpt><trkpt lat="42.2208102" lon="12.7208345"><ele>201.0</ele><time>2026-04-26T16:32:19.421Z</time></trkpt><trkpt lat="42.2207868" lon="12.7206962"><ele>201.5</ele><time>2026-04-26T16:32:21.414Z</time></trkpt><trkpt lat="42.2207654" lon="12.7205977"><ele>202.0</ele><time>2026-04-26T16:32:23.416Z</time></trkpt><trkpt lat="42.220757" lon="12.720457"><ele>202.5</ele><time>2026-04-26T16:32:26.44Z</time></trkpt><trkpt lat="42.220756" lon="12.7203496"><ele>203.0</ele><time>2026-04-26T16:32:28.435Z</time></trkpt><trkpt lat="42.2207482" lon="12.7202011"><ele>203.5</ele><time>2026-04-26T16:32:30.412Z</time></trkpt><trkpt lat="42.2207307" lon="12.7201117"><ele>204.0</ele><time>2026-04-26T16:32:31.412Z</time></trkpt><trkpt lat="42.2207335" lon="12.7200224"><ele>204.5</ele><time>2026-04-26T16:32:32.41Z</time></trkpt><trkpt lat="42.2207574" lon="12.71994"><ele>205.0</ele><time>2026-04-26T16:32:33.409Z</time></trkpt><trkpt lat="42.2207722" lon="12.7198214"><ele>205.5</ele><time>2026-04-26T16:32:35.415Z</time></trkpt><trkpt lat="42.2207491" lon="12.7197357"><ele>206.0</ele><time>2026-04-26T16:32:37.431Z</time></trkpt><trkpt lat="42.2207647" lon="12.7196222"><ele>206.5</ele><time>2026-04-26T16:32:39.408Z</time></trkpt><trkpt lat="42.220744" lon="12.7194953"><ele>207.0</ele><time>2026-04-26T16:32:41.41Z</time></trkpt><trkpt lat="42.2207294" lon="12.7194027"><ele>207.66666666666666</ele><time>2026-04-26T16:32:43.432Z</time></trkpt><trkpt lat="42.220737" lon="12.719308"><ele>208.33333333333331</ele><time>2026-04-26T16:32:45.41Z</time></trkpt><trkpt lat="42.2207582" lon="12.7191793"><ele>209.0</ele><time>2026-04-26T16:32:47.417Z</time></trkpt><trkpt lat="42.2207934" lon="12.7190921"><ele>209.66666666666666</ele><time>2026-04-26T16:32:49.433Z</time></trkpt><trkpt lat="42.2208717" lon="12.7191365"><ele>210.33333333333331</ele><time>2026-04-26T16:32:56.411Z</time></trkpt><trkpt lat="42.220899" lon="12.7192228"><ele>211.0</ele><time>2026-04-26T16:32:58.414Z</time></trkpt><trkpt lat="42.2209015" lon="12.7193385"><ele>210.33333333333331</ele><time>2026-04-26T16:32:59.418Z</time></trkpt><trkpt lat="42.2209205" lon="12.7194719"><ele>209.66666666666666</ele><time>2026-04-26T16:33:01.409Z</time></trkpt><trkpt lat="42.2209589" lon="12.719641"><ele>209.0</ele><time>2026-04-26T16:33:03.41Z</time></trkpt><trkpt lat="42.2209663" lon="12.7197263"><ele>208.33333333333331</ele><time>2026-04-26T16:33:04.418Z</time></trkpt><trkpt lat="42.2209782" lon="12.7198136"><ele>207.66666666666666</ele><time>2026-04-26T16:33:05.407Z</time></trkpt><trkpt lat="42.2209981" lon="12.7199127"><ele>207.0</ele><time>2026-04-26T16:33:06.436Z</time></trkpt><trkpt lat="42.2210155" lon="12.7200084"><ele>207.0</ele><time>2026-04-26T16:33:07.412Z</time></trkpt><trkpt lat="42.2210379" lon="12.7200901"><ele>207.0</ele><time>2026-04-26T16:33:08.419Z</time></trkpt><trkpt lat="42.2210585" lon="12.7202314"><ele>207.0</ele><time>2026-04-26T16:33:10.416Z</time></trkpt><trkpt lat="42.2210518" lon="12.7203636"><ele>207.0</ele><time>2026-04-26T16:33:12.435Z</time></trkpt><trkpt lat="42.2210553" lon="12.7205077"><ele>207.0</ele><time>2026-04-26T16:33:14.422Z</time></trkpt><trkpt lat="42.2210348" lon="12.7206393"><ele>206.39999999999998</ele><time>2026-04-26T16:33:16.416Z</time></trkpt><trkpt lat="42.2209883" lon="12.7207544"><ele>205.79999999999998</ele><time>2026-04-26T16:33:18.574Z</time></trkpt><trkpt lat="42.2209517" lon="12.7206817"><ele>205.2</ele><time>2026-04-26T16:33:27.415Z</time></trkpt><trkpt lat="42.2209188" lon="12.7205624"><ele>204.6</ele><time>2026-04-26T16:33:29.415Z</time></trkpt><trkpt lat="42.2208594" lon="12.7204491"><ele>204.0</ele><time>2026-04-26T16:33:31.417Z</time></trkpt><trkpt lat="42.2208302" lon="12.720304"><ele>204.5</ele><time>2026-04-26T16:33:33.414Z</time></trkpt><trkpt lat="42.2208139" lon="12.7201516"><ele>205.0</ele><time>2026-04-26T16:33:35.416Z</time></trkpt><trkpt lat="42.2208029" lon="12.7200667"><ele>205.5</ele><time>2026-04-26T16:33:36.44Z</time></trkpt><trkpt lat="42.2207932" lon="12.7199186"><ele>206.0</ele><time>2026-04-26T16:33:38.412Z</time></trkpt><trkpt lat="42.2207862" lon="12.7198222"><ele>206.5</ele><time>2026-04-26T16:33:40.416Z</time></trkpt><trkpt lat="42.22083" lon="12.7197437"><ele>207.0</ele><time>2026-04-26T16:33:43.411Z</time></trkpt><trkpt lat="42.2208965" lon="12.7198206"><ele>207.0</ele><time>2026-04-26T16:33:45.416Z</time></trkpt><trkpt lat="42.2209887" lon="12.7198384"><ele>207.0</ele><time>2026-04-26T16:33:47.413Z</time></trkpt><trkpt lat="42.2211022" lon="12.7198134"><ele>207.0</ele><time>2026-04-26T16:33:49.411Z</time></trkpt><trkpt lat="42.2211711" lon="12.7197742"><ele>207.0</ele><time>2026-04-26T16:33:51.415Z</time></trkpt><trkpt lat="42.2212168" lon="12.7198609"><ele>207.0</ele><time>2026-04-26T16:33:57.415Z</time></trkpt><trkpt lat="42.2212196" lon="12.7200056"><ele>207.0</ele><time>2026-04-26T16:33:59.415Z</time></trkpt><trkpt lat="42.2212546" lon="12.7200901"><ele>207.0</ele><time>2026-04-26T16:34:00.414Z</time></trkpt><trkpt lat="42.2212884" lon="12.7201991"><ele>207.0</ele><time>2026-04-26T16:34:01.413Z</time></trkpt><trkpt lat="42.2213345" lon="12.7203244"><ele>207.0</ele><time>2026-04-26T16:34:02.421Z</time></trkpt><trkpt lat="42.2213732" lon="12.720476"><ele>207.0</ele><time>2026-04-26T16:34:03.415Z</time></trkpt><trkpt lat="42.2214171" lon="12.7206021"><ele>206.5</ele><time>2026-04-26T16:34:04.415Z</time></trkpt><trkpt lat="42.2214571" lon="12.7206862"><ele>206.0</ele><time>2026-04-26T16:34:05.436Z</time></trkpt><trkpt lat="42.2214792" lon="12.7207736"><ele>205.5</ele><time>2026-04-26T16:34:06.414Z</time></trkpt><trkpt lat="42.2215031" lon="12.7208713"><ele>205.0</ele><time>2026-04-26T16:34:07.412Z</time></trkpt><trkpt lat="42.2215264" lon="12.7209519"><ele>204.5</ele><time>2026-04-26T16:34:08.418Z</time></trkpt><trkpt lat="42.2215672" lon="12.7210949"><ele>204.0</ele><time>2026-04-26T16:34:10.412Z</time></trkpt><trkpt lat="42.2215589" lon="12.7212731"><ele>203.25</ele><time>2026-04-26T16:34:12.485Z</time></trkpt><trkpt lat="42.2215156" lon="12.7214068"><ele>202.5</ele><time>2026-04-26T16:34:13.576Z</time></trkpt><trkpt lat="42.2214713" lon="12.7215645"><ele>201.75</ele><time>2026-04-26T16:34:14.571Z</time></trkpt><trkpt lat="42.2214415" lon="12.7217223"><ele>201.0</ele><time>2026-04-26T16:34:15.573Z</time></trkpt><trkpt lat="42.2214221" lon="12.7218767"><ele>200.0</ele><time>2026-04-26T16:34:16.572Z</time></trkpt><trkpt lat="42.2213956" lon="12.7220196"><ele>199.0</ele><time>2026-04-26T16:34:17.5Z</time></trkpt><trkpt lat="42.2213604" lon="12.7221666"><ele>198.0</ele><time>2026-04-26T16:34:18.421Z</time></trkpt><trkpt lat="42.2213411" lon="12.7222811"><ele>197.0</ele><time>2026-04-26T16:34:19.423Z</time></trkpt><trkpt lat="42.2213471" lon="12.7223684"><ele>196.0</ele><time>2026-04-26T16:34:20.408Z</time></trkpt><trkpt lat="42.2213536" lon="12.7224719"><ele>196.0</ele><time>2026-04-26T16:34:23.44Z</time></trkpt><trkpt lat="42.2213641" lon="12.7225756"><ele>196.0</ele><time>2026-04-26T16:34:25.404Z</time></trkpt><trkpt lat="42.2214224" lon="12.7227048"><ele>196.0</ele><time>2026-04-26T16:34:27.45Z</time></trkpt><trkpt lat="42.2214722" lon="12.7228407"><ele>196.0</ele><time>2026-04-26T16:34:29.408Z</time></trkpt><trkpt lat="42.2215043" lon="12.7230125"><ele>196.0</ele><time>2026-04-26T16:34:31.411Z</time></trkpt><trkpt lat="42.2215231" lon="12.7231077"><ele>189.33333333333331</ele><time>2026-04-26T16:34:32.425Z</time></trkpt><trkpt lat="42.2215466" lon="12.7231956"><ele>182.66666666666666</ele><time>2026-04-26T16:34:33.564Z</time></trkpt><trkpt lat="42.221601" lon="12.7233782"><ele>176.0</ele><time>2026-04-26T16:34:35.412Z</time></trkpt><trkpt lat="42.2216003" lon="12.7234758"><ele>169.33333333333331</ele><time>2026-04-26T16:34:36.402Z</time></trkpt><trkpt lat="42.2215942" lon="12.7235854"><ele>162.66666666666666</ele><time>2026-04-26T16:34:37.41Z</time></trkpt><trkpt lat="42.2216035" lon="12.7236905"><ele>156.0</ele><time>2026-04-26T16:34:38.412Z</time></trkpt><trkpt lat="42.2216134" lon="12.7237918"><ele>153.6</ele><time>2026-04-26T16:34:39.568Z</time></trkpt><trkpt lat="42.2216368" lon="12.7238923"><ele>151.2</ele><time>2026-04-26T16:34:40.569Z</time></trkpt><trkpt lat="42.2216993" lon="12.7241063"><ele>148.8</ele><time>2026-04-26T16:34:42.47Z</time></trkpt><trkpt lat="42.2217264" lon="12.7242408"><ele>146.4</ele><time>2026-04-26T16:34:44.417Z</time></trkpt><trkpt lat="42.2217021" lon="12.7243617"><ele>144.0</ele><time>2026-04-26T16:34:46.42Z</time></trkpt><trkpt lat="42.2216674" lon="12.7245042"><ele>145.66666666666666</ele><time>2026-04-26T16:34:48.492Z</time></trkpt><trkpt lat="42.2216081" lon="12.7246587"><ele>147.33333333333334</ele><time>2026-04-26T16:34:50.426Z</time></trkpt><trkpt lat="42.221562" lon="12.7247482"><ele>149.0</ele><time>2026-04-26T16:34:51.415Z</time></trkpt><trkpt lat="42.2215178" lon="12.7248313"><ele>150.66666666666669</ele><time>2026-04-26T16:34:52.422Z</time></trkpt><trkpt lat="42.221472" lon="12.7249006"><ele>152.33333333333334</ele><time>2026-04-26T16:34:53.409Z</time></trkpt><trkpt lat="42.2214177" lon="12.7249865"><ele>154.0</ele><time>2026-04-26T16:34:54.419Z</time></trkpt><trkpt lat="42.2213743" lon="12.7250643"><ele>154.0</ele><time>2026-04-26T16:34:55.41Z</time></trkpt><trkpt lat="42.2213368" lon="12.7251406"><ele>154.0</ele><time>2026-04-26T16:34:56.41Z</time></trkpt><trkpt lat="42.2212956" lon="12.7252074"><ele>154.0</ele><time>2026-04-26T16:34:57.412Z</time></trkpt><trkpt lat="42.2212571" lon="12.7252868"><ele>154.0</ele><time>2026-04-26T16:34:58.415Z</time></trkpt><trkpt lat="42.2212177" lon="12.7254157"><ele>154.0</ele><time>2026-04-26T16:35:00.416Z</time></trkpt><trkpt lat="42.2212035" lon="12.7255547"><ele>154.0</ele><time>2026-04-26T16:35:02.415Z</time></trkpt><trkpt lat="42.2212123" lon="12.7256681"><ele>151.0</ele><time>2026-04-26T16:35:04.412Z</time></trkpt><trkpt lat="42.221218" lon="12.7257897"><ele>148.0</ele><time>2026-04-26T16:35:06.411Z</time></trkpt><trkpt lat="42.2211958" lon="12.7259247"><ele>145.0</ele><time>2026-04-26T16:35:08.408Z</time></trkpt><trkpt lat="42.2211752" lon="12.726079"><ele>142.0</ele><time>2026-04-26T16:35:10.579Z</time></trkpt><trkpt lat="42.2211953" lon="12.726216"><ele>139.0</ele><time>2026-04-26T16:35:12.499Z</time></trkpt><trkpt lat="42.2212557" lon="12.7263175"><ele>136.83333333333334</ele><time>2026-04-26T16:35:15.575Z</time></trkpt><trkpt lat="42.2212926" lon="12.7263882"><ele>134.66666666666669</ele><time>2026-04-26T16:35:24.317Z</time></trkpt><trkpt lat="42.2213511" lon="12.7264428"><ele>132.5</ele><time>2026-04-26T16:35:27.231Z</time></trkpt><trkpt lat="42.2212893" lon="12.726536"><ele>130.33333333333334</ele><time>2026-04-26T16:35:37.213Z</time></trkpt><trkpt lat="42.2213239" lon="12.7264575"><ele>128.16666666666666</ele><time>2026-04-26T16:35:58.202Z</time></trkpt><trkpt lat="42.2212793" lon="12.7265731"><ele>126.0</ele><time>2026-04-26T16:36:04.211Z</time></trkpt><trkpt lat="42.2212003" lon="12.7265923"><ele>126.0</ele><time>2026-04-26T16:36:12.193Z</time></trkpt><trkpt lat="42.2211385" lon="12.7265611"><ele>126.0</ele><time>2026-04-26T16:36:13.201Z</time></trkpt><trkpt lat="42.2210848" lon="12.7265149"><ele>126.0</ele><time>2026-04-26T16:36:14.201Z</time></trkpt><trkpt lat="42.2210343" lon="12.7264481"><ele>126.0</ele><time>2026-04-26T16:36:15.198Z</time></trkpt><trkpt lat="42.2210051" lon="12.7263542"><ele>126.0</ele><time>2026-04-26T16:36:17.207Z</time></trkpt><trkpt lat="42.2210481" lon="12.726422"><ele>126.0</ele><time>2026-04-26T16:36:27.517Z</time></trkpt><trkpt lat="42.2210983" lon="12.7265106"><ele>126.0</ele><time>2026-04-26T16:36:29.53Z</time></trkpt><trkpt lat="42.2211037" lon="12.7266068"><ele>126.0</ele><time>2026-04-26T16:36:31.507Z</time></trkpt><trkpt lat="42.2210726" lon="12.7267668"><ele>126.0</ele><time>2026-04-26T16:36:33.514Z</time></trkpt><trkpt lat="42.2210517" lon="12.7268817"><ele>126.0</ele><time>2026-04-26T16:36:34.533Z</time></trkpt><trkpt lat="42.2210197" lon="12.7269899"><ele>126.0</ele><time>2026-04-26T16:36:35.51Z</time></trkpt><trkpt lat="42.2209854" lon="12.7271217"><ele>126.0</ele><time>2026-04-26T16:36:36.518Z</time></trkpt><trkpt lat="42.2209222" lon="12.7272599"><ele>125.8</ele><time>2026-04-26T16:36:37.509Z</time></trkpt><trkpt lat="42.2208638" lon="12.7273968"><ele>125.6</ele><time>2026-04-26T16:36:38.507Z</time></trkpt><trkpt lat="42.2208091" lon="12.7275288"><ele>125.4</ele><time>2026-04-26T16:36:39.508Z</time></trkpt><trkpt lat="42.2207558" lon="12.7276434"><ele>125.2</ele><time>2026-04-26T16:36:40.507Z</time></trkpt><trkpt lat="42.2207027" lon="12.7277355"><ele>125.0</ele><time>2026-04-26T16:36:41.525Z</time></trkpt><trkpt lat="42.2206522" lon="12.7278329"><ele>125.49999999999999</ele><time>2026-04-26T16:36:42.508Z</time></trkpt><trkpt lat="42.220619" lon="12.7279288"><ele>126.0</ele><time>2026-04-26T16:36:43.512Z</time></trkpt><trkpt lat="42.2206039" lon="12.728029"><ele>126.5</ele><time>2026-04-26T16:36:44.509Z</time></trkpt><trkpt lat="42.2205996" lon="12.7281408"><ele>127.0</ele><time>2026-04-26T16:36:45.531Z</time></trkpt><trkpt lat="42.2206043" lon="12.728255"><ele>127.49999999999999</ele><time>2026-04-26T16:36:46.505Z</time></trkpt><trkpt lat="42.2206099" lon="12.7283713"><ele>128.0</ele><time>2026-04-26T16:36:47.499Z</time></trkpt><trkpt lat="42.2205964" lon="12.7284759"><ele>129.0</ele><time>2026-04-26T16:36:48.505Z</time></trkpt><trkpt lat="42.2205611" lon="12.7285651"><ele>130.0</ele><time>2026-04-26T16:36:49.501Z</time></trkpt><trkpt lat="42.2205059" lon="12.7286552"><ele>131.0</ele><time>2026-04-26T16:36:50.507Z</time></trkpt><trkpt lat="42.2204527" lon="12.7287396"><ele>132.0</ele><time>2026-04-26T16:36:51.505Z</time></trkpt><trkpt lat="42.2204103" lon="12.7288185"><ele>133.0</ele><time>2026-04-26T16:36:52.532Z</time></trkpt><trkpt lat="42.22036" lon="12.7288957"><ele>134.0</ele><time>2026-04-26T16:36:53.515Z</time></trkpt><trkpt lat="42.2203136" lon="12.7289697"><ele>134.0</ele><time>2026-04-26T16:36:54.672Z</time></trkpt><trkpt lat="42.2202016" lon="12.7291223"><ele>134.0</ele><time>2026-04-26T16:36:57.663Z</time></trkpt><trkpt lat="42.2200649" lon="12.7292866"><ele>134.0</ele><time>2026-04-26T16:37:00.503Z</time></trkpt><trkpt lat="42.2200065" lon="12.7293432"><ele>134.0</ele><time>2026-04-26T16:37:01.501Z</time></trkpt><trkpt lat="42.2199408" lon="12.7293919"><ele>135.0</ele><time>2026-04-26T16:37:02.663Z</time></trkpt><trkpt lat="42.2198715" lon="12.7294398"><ele>136.0</ele><time>2026-04-26T16:37:03.658Z</time></trkpt><trkpt lat="42.2198068" lon="12.7294819"><ele>137.0</ele><time>2026-04-26T16:37:04.659Z</time></trkpt><trkpt lat="42.2196988" lon="12.7295443"><ele>138.0</ele><time>2026-04-26T16:37:06.661Z</time></trkpt><trkpt lat="42.2195904" lon="12.729589"><ele>139.0</ele><time>2026-04-26T16:37:08.669Z</time></trkpt><trkpt lat="42.2194984" lon="12.7296635"><ele>139.0</ele><time>2026-04-26T16:37:10.527Z</time></trkpt><trkpt lat="42.2194446" lon="12.7297162"><ele>139.0</ele><time>2026-04-26T16:37:11.664Z</time></trkpt><trkpt lat="42.2194009" lon="12.7297787"><ele>139.0</ele><time>2026-04-26T16:37:12.655Z</time></trkpt><trkpt lat="42.2193171" lon="12.7299029"><ele>139.0</ele><time>2026-04-26T16:37:14.505Z</time></trkpt><trkpt lat="42.2192403" lon="12.7300324"><ele>139.0</ele><time>2026-04-26T16:37:16.502Z</time></trkpt><trkpt lat="42.2191913" lon="12.7301091"><ele>139.0</ele><time>2026-04-26T16:37:17.5Z</time></trkpt><trkpt lat="42.2191399" lon="12.7301962"><ele>139.0</ele><time>2026-04-26T16:37:18.503Z</time></trkpt><trkpt lat="42.2191322" lon="12.7303162"><ele>139.0</ele><time>2026-04-26T16:37:19.66Z</time></trkpt><trkpt lat="42.2191372" lon="12.7305706"><ele>139.0</ele><time>2026-04-26T16:37:21.495Z</time></trkpt><trkpt lat="42.21914" lon="12.7306784"><ele>139.0</ele><time>2026-04-26T16:37:22.505Z</time></trkpt><trkpt lat="42.2191531" lon="12.7307861"><ele>138.83333333333334</ele><time>2026-04-26T16:37:23.504Z</time></trkpt><trkpt lat="42.2191549" lon="12.7308791"><ele>138.66666666666669</ele><time>2026-04-26T16:37:24.518Z</time></trkpt><trkpt lat="42.2191476" lon="12.7309968"><ele>138.5</ele><time>2026-04-26T16:37:25.501Z</time></trkpt><trkpt lat="42.2191248" lon="12.731113"><ele>138.33333333333334</ele><time>2026-04-26T16:37:26.494Z</time></trkpt><trkpt lat="42.2190994" lon="12.7312285"><ele>138.16666666666666</ele><time>2026-04-26T16:37:27.5Z</time></trkpt><trkpt lat="42.2190552" lon="12.731332"><ele>138.0</ele><time>2026-04-26T16:37:28.497Z</time></trkpt><trkpt lat="42.2190103" lon="12.731409"><ele>138.83333333333334</ele><time>2026-04-26T16:37:29.499Z</time></trkpt><trkpt lat="42.2189629" lon="12.7314709"><ele>139.66666666666666</ele><time>2026-04-26T16:37:30.496Z</time></trkpt><trkpt lat="42.218948" lon="12.7315664"><ele>140.5</ele><time>2026-04-26T16:37:32.66Z</time></trkpt><trkpt lat="42.2189942" lon="12.731692"><ele>141.33333333333331</ele><time>2026-04-26T16:37:34.662Z</time></trkpt><trkpt lat="42.2190189" lon="12.7318165"><ele>142.16666666666666</ele><time>2026-04-26T16:37:36.659Z</time></trkpt><trkpt lat="42.2190433" lon="12.7319549"><ele>143.0</ele><time>2026-04-26T16:37:38.498Z</time></trkpt><trkpt lat="42.219051" lon="12.7320736"><ele>143.25</ele><time>2026-04-26T16:37:40.663Z</time></trkpt><trkpt lat="42.219086" lon="12.7322308"><ele>143.5</ele><time>2026-04-26T16:37:42.658Z</time></trkpt><trkpt lat="42.2191007" lon="12.7323194"><ele>143.75</ele><time>2026-04-26T16:37:43.663Z</time></trkpt><trkpt lat="42.2190332" lon="12.7325488"><ele>144.0</ele><time>2026-04-26T16:37:46.494Z</time></trkpt><trkpt lat="42.21898" lon="12.7326304"><ele>142.5</ele><time>2026-04-26T16:37:47.66Z</time></trkpt><trkpt lat="42.2188933" lon="12.7327629"><ele>141.0</ele><time>2026-04-26T16:37:49.498Z</time></trkpt><trkpt lat="42.2188392" lon="12.7328224"><ele>139.5</ele><time>2026-04-26T16:37:50.5Z</time></trkpt><trkpt lat="42.218761" lon="12.7329493"><ele>138.0</ele><time>2026-04-26T16:37:52.495Z</time></trkpt><trkpt lat="42.2187249" lon="12.7331411"><ele>138.0</ele><time>2026-04-26T16:37:54.653Z</time></trkpt><trkpt lat="42.218703" lon="12.733366"><ele>138.0</ele><time>2026-04-26T16:37:56.5Z</time></trkpt><trkpt lat="42.2186966" lon="12.7334891"><ele>138.0</ele><time>2026-04-26T16:37:57.49Z</time></trkpt><trkpt lat="42.2186973" lon="12.7336076"><ele>138.0</ele><time>2026-04-26T16:37:58.494Z</time></trkpt><trkpt lat="42.2186643" lon="12.7337366"><ele>138.0</ele><time>2026-04-26T16:37:59.652Z</time></trkpt><trkpt lat="42.2186362" lon="12.7338848"><ele>139.66666666666666</ele><time>2026-04-26T16:38:00.655Z</time></trkpt><trkpt lat="42.2185677" lon="12.7341718"><ele>141.33333333333331</ele><time>2026-04-26T16:38:02.651Z</time></trkpt><trkpt lat="42.218532" lon="12.7343056"><ele>143.0</ele><time>2026-04-26T16:38:03.653Z</time></trkpt><trkpt lat="42.2184437" lon="12.7345956"><ele>144.4</ele><time>2026-04-26T16:38:05.49Z</time></trkpt><trkpt lat="42.2183933" lon="12.7347233"><ele>145.8</ele><time>2026-04-26T16:38:06.495Z</time></trkpt><trkpt lat="42.2183349" lon="12.7348545"><ele>147.2</ele><time>2026-04-26T16:38:07.491Z</time></trkpt><trkpt lat="42.2182703" lon="12.7349763"><ele>148.6</ele><time>2026-04-26T16:38:08.497Z</time></trkpt><trkpt lat="42.2182181" lon="12.7351017"><ele>150.0</ele><time>2026-04-26T16:38:09.494Z</time></trkpt><trkpt lat="42.2181567" lon="12.7352168"><ele>149.2</ele><time>2026-04-26T16:38:10.494Z</time></trkpt><trkpt lat="42.2181033" lon="12.7353134"><ele>148.4</ele><time>2026-04-26T16:38:11.49Z</time></trkpt><trkpt lat="42.2180775" lon="12.7354224"><ele>147.6</ele><time>2026-04-26T16:38:12.495Z</time></trkpt><trkpt lat="42.2180271" lon="12.7355437"><ele>146.8</ele><time>2026-04-26T16:38:13.496Z</time></trkpt><trkpt lat="42.2179745" lon="12.7356514"><ele>146.0</ele><time>2026-04-26T16:38:14.492Z</time></trkpt><trkpt lat="42.2179339" lon="12.7357602"><ele>146.0</ele><time>2026-04-26T16:38:15.489Z</time></trkpt><trkpt lat="42.2178987" lon="12.735863"><ele>146.0</ele><time>2026-04-26T16:38:16.496Z</time></trkpt><trkpt lat="42.2178468" lon="12.7359602"><ele>146.0</ele><time>2026-04-26T16:38:17.49Z</time></trkpt><trkpt lat="42.2177899" lon="12.7360551"><ele>146.0</ele><time>2026-04-26T16:38:18.495Z</time></trkpt><trkpt lat="42.2177478" lon="12.7361758"><ele>146.0</ele><time>2026-04-26T16:38:19.495Z</time></trkpt><trkpt lat="42.2176834" lon="12.7362953"><ele>147.8</ele><time>2026-04-26T16:38:20.5Z</time></trkpt><trkpt lat="42.2176254" lon="12.7364038"><ele>149.6</ele><time>2026-04-26T16:38:21.493Z</time></trkpt><trkpt lat="42.217573" lon="12.7365047"><ele>151.4</ele><time>2026-04-26T16:38:22.499Z</time></trkpt><trkpt lat="42.217523" lon="12.7365832"><ele>153.2</ele><time>2026-04-26T16:38:23.49Z</time></trkpt><trkpt lat="42.2174804" lon="12.7366577"><ele>155.0</ele><time>2026-04-26T16:38:24.657Z</time></trkpt><trkpt lat="42.2173976" lon="12.7368045"><ele>154.0</ele><time>2026-04-26T16:38:26.508Z</time></trkpt><trkpt lat="42.2173284" lon="12.7369973"><ele>153.0</ele><time>2026-04-26T16:38:29.495Z</time></trkpt><trkpt lat="42.2173065" lon="12.7371543"><ele>152.0</ele><time>2026-04-26T16:38:31.497Z</time></trkpt><trkpt lat="42.2173159" lon="12.7373317"><ele>151.0</ele><time>2026-04-26T16:38:33.499Z</time></trkpt><trkpt lat="42.2172941" lon="12.7374314"><ele>151.0</ele><time>2026-04-26T16:38:34.489Z</time></trkpt><trkpt lat="42.2172686" lon="12.7375749"><ele>151.0</ele><time>2026-04-26T16:38:35.491Z</time></trkpt><trkpt lat="42.2172395" lon="12.7377337"><ele>151.0</ele><time>2026-04-26T16:38:36.492Z</time></trkpt><trkpt lat="42.2171749" lon="12.7378452"><ele>151.0</ele><time>2026-04-26T16:38:37.489Z</time></trkpt><trkpt lat="42.2171007" lon="12.7379553"><ele>151.0</ele><time>2026-04-26T16:38:38.495Z</time></trkpt><trkpt lat="42.2170135" lon="12.738082"><ele>151.75</ele><time>2026-04-26T16:38:39.496Z</time></trkpt><trkpt lat="42.2169124" lon="12.7382123"><ele>152.5</ele><time>2026-04-26T16:38:40.496Z</time></trkpt><trkpt lat="42.2168263" lon="12.7383451"><ele>153.25</ele><time>2026-04-26T16:38:41.489Z</time></trkpt><trkpt lat="42.2167205" lon="12.7384503"><ele>154.0</ele><time>2026-04-26T16:38:42.497Z</time></trkpt><trkpt lat="42.2166355" lon="12.7385768"><ele>154.0</ele><time>2026-04-26T16:38:43.815Z</time></trkpt><trkpt lat="42.2164548" lon="12.738835"><ele>154.0</ele><time>2026-04-26T16:38:45.493Z</time></trkpt><trkpt lat="42.2163621" lon="12.7389724"><ele>154.0</ele><time>2026-04-26T16:38:46.496Z</time></trkpt><trkpt lat="42.2162731" lon="12.7390931"><ele>154.0</ele><time>2026-04-26T16:38:47.656Z</time></trkpt><trkpt lat="42.2161035" lon="12.7393245"><ele>154.0</ele><time>2026-04-26T16:38:49.659Z</time></trkpt><trkpt lat="42.2160281" lon="12.7394251"><ele>154.0</ele><time>2026-04-26T16:38:50.658Z</time></trkpt><trkpt lat="42.2159637" lon="12.7395351"><ele>155.75</ele><time>2026-04-26T16:38:51.81Z</time></trkpt><trkpt lat="42.2158406" lon="12.7397353"><ele>157.5</ele><time>2026-04-26T16:38:53.488Z</time></trkpt><trkpt lat="42.215789" lon="12.7398184"><ele>159.25</ele><time>2026-04-26T16:38:54.649Z</time></trkpt><trkpt lat="42.2156929" lon="12.7399086"><ele>161.0</ele><time>2026-04-26T16:38:56.511Z</time></trkpt><trkpt lat="42.2156421" lon="12.739963"><ele>162.0</ele><time>2026-04-26T16:38:57.504Z</time></trkpt><trkpt lat="42.2155982" lon="12.740051"><ele>163.0</ele><time>2026-04-26T16:38:59.577Z</time></trkpt><trkpt lat="42.215529" lon="12.7400511"><ele>164.0</ele><time>2026-04-26T16:39:12.492Z</time></trkpt><trkpt lat="42.215475" lon="12.740097"><ele>165.0</ele><time>2026-04-26T16:39:17.492Z</time></trkpt><trkpt lat="42.2154954" lon="12.7402065"><ele>166.0</ele><time>2026-04-26T16:39:22.488Z</time></trkpt><trkpt lat="42.2155661" lon="12.7402946"><ele>167.0</ele><time>2026-04-26T16:39:24.485Z</time></trkpt><trkpt lat="42.2156479" lon="12.7403751"><ele>167.39999999999998</ele><time>2026-04-26T16:39:25.494Z</time></trkpt><trkpt lat="42.2157191" lon="12.7404571"><ele>167.79999999999998</ele><time>2026-04-26T16:39:26.492Z</time></trkpt><trkpt lat="42.2157907" lon="12.7405606"><ele>168.2</ele><time>2026-04-26T16:39:27.492Z</time></trkpt><trkpt lat="42.2158498" lon="12.7406655"><ele>168.6</ele><time>2026-04-26T16:39:28.521Z</time></trkpt><trkpt lat="42.215915" lon="12.7407698"><ele>169.0</ele><time>2026-04-26T16:39:29.51Z</time></trkpt><trkpt lat="42.215972" lon="12.7408789"><ele>169.0</ele><time>2026-04-26T16:39:30.491Z</time></trkpt><trkpt lat="42.2160557" lon="12.7410135"><ele>169.0</ele><time>2026-04-26T16:39:31.492Z</time></trkpt><trkpt lat="42.2160647" lon="12.7411539"><ele>169.0</ele><time>2026-04-26T16:39:32.49Z</time></trkpt><trkpt lat="42.2160395" lon="12.741326"><ele>169.0</ele><time>2026-04-26T16:39:33.486Z</time></trkpt><trkpt lat="42.2159774" lon="12.7415117"><ele>172.25</ele><time>2026-04-26T16:39:34.49Z</time></trkpt><trkpt lat="42.2159049" lon="12.7416748"><ele>175.5</ele><time>2026-04-26T16:39:35.493Z</time></trkpt><trkpt lat="42.2158335" lon="12.7418265"><ele>178.75</ele><time>2026-04-26T16:39:36.49Z</time></trkpt><trkpt lat="42.2157649" lon="12.7419949"><ele>182.0</ele><time>2026-04-26T16:39:37.496Z</time></trkpt><trkpt lat="42.215712" lon="12.7421658"><ele>181.5</ele><time>2026-04-26T16:39:38.489Z</time></trkpt><trkpt lat="42.2156744" lon="12.7423529"><ele>181.0</ele><time>2026-04-26T16:39:39.487Z</time></trkpt><trkpt lat="42.2156337" lon="12.7425146"><ele>180.5</ele><time>2026-04-26T16:39:40.495Z</time></trkpt><trkpt lat="42.2156166" lon="12.7426524"><ele>180.0</ele><time>2026-04-26T16:39:41.729Z</time></trkpt><trkpt lat="42.2155973" lon="12.7427653"><ele>180.0</ele><time>2026-04-26T16:39:42.64Z</time></trkpt><trkpt lat="42.2155371" lon="12.7429677"><ele>180.0</ele><time>2026-04-26T16:39:44.496Z</time></trkpt><trkpt lat="42.2154727" lon="12.7430442"><ele>180.0</ele><time>2026-04-26T16:39:45.512Z</time></trkpt><trkpt lat="42.2154083" lon="12.7431074"><ele>180.0</ele><time>2026-04-26T16:39:46.521Z</time></trkpt><trkpt lat="42.2153359" lon="12.7431621"><ele>180.0</ele><time>2026-04-26T16:39:47.493Z</time></trkpt><trkpt lat="42.2152594" lon="12.743209"><ele>180.0</ele><time>2026-04-26T16:39:48.485Z</time></trkpt><trkpt lat="42.2151889" lon="12.7432538"><ele>180.0</ele><time>2026-04-26T16:39:49.489Z</time></trkpt><trkpt lat="42.2151249" lon="12.7433116"><ele>180.0</ele><time>2026-04-26T16:39:50.484Z</time></trkpt><trkpt lat="42.2150469" lon="12.7433629"><ele>180.0</ele><time>2026-04-26T16:39:51.487Z</time></trkpt><trkpt lat="42.2149812" lon="12.7434129"><ele>180.0</ele><time>2026-04-26T16:39:52.49Z</time></trkpt><trkpt lat="42.2149186" lon="12.7434695"><ele>180.0</ele><time>2026-04-26T16:39:53.486Z</time></trkpt><trkpt lat="42.2148506" lon="12.7435138"><ele>178.66666666666666</ele><time>2026-04-26T16:39:54.49Z</time></trkpt><trkpt lat="42.2147847" lon="12.7435545"><ele>177.33333333333334</ele><time>2026-04-26T16:39:55.516Z</time></trkpt><trkpt lat="42.2147184" lon="12.7436032"><ele>176.0</ele><time>2026-04-26T16:39:56.481Z</time></trkpt><trkpt lat="42.2146505" lon="12.7436606"><ele>174.66666666666669</ele><time>2026-04-26T16:39:57.492Z</time></trkpt><trkpt lat="42.2145981" lon="12.7437372"><ele>173.33333333333334</ele><time>2026-04-26T16:39:58.482Z</time></trkpt><trkpt lat="42.2145584" lon="12.7438203"><ele>172.0</ele><time>2026-04-26T16:39:59.501Z</time></trkpt><trkpt lat="42.2145286" lon="12.7439214"><ele>172.0</ele><time>2026-04-26T16:40:00.488Z</time></trkpt><trkpt lat="42.2145117" lon="12.7440383"><ele>172.0</ele><time>2026-04-26T16:40:01.515Z</time></trkpt><trkpt lat="42.2144951" lon="12.7441752"><ele>172.0</ele><time>2026-04-26T16:40:02.499Z</time></trkpt><trkpt lat="42.2144616" lon="12.7443539"><ele>172.0</ele><time>2026-04-26T16:40:03.49Z</time></trkpt><trkpt lat="42.2144203" lon="12.7444985"><ele>172.0</ele><time>2026-04-26T16:40:04.486Z</time></trkpt><trkpt lat="42.2143603" lon="12.7446266"><ele>172.6</ele><time>2026-04-26T16:40:05.488Z</time></trkpt><trkpt lat="42.2142846" lon="12.7447411"><ele>173.2</ele><time>2026-04-26T16:40:06.484Z</time></trkpt><trkpt lat="42.2142124" lon="12.7448447"><ele>173.8</ele><time>2026-04-26T16:40:07.49Z</time></trkpt><trkpt lat="42.2141388" lon="12.7449426"><ele>174.4</ele><time>2026-04-26T16:40:08.488Z</time></trkpt><trkpt lat="42.2140914" lon="12.7450478"><ele>175.0</ele><time>2026-04-26T16:40:09.493Z</time></trkpt><trkpt lat="42.2140487" lon="12.74516"><ele>175.4</ele><time>2026-04-26T16:40:10.516Z</time></trkpt><trkpt lat="42.2140381" lon="12.7453004"><ele>175.8</ele><time>2026-04-26T16:40:11.51Z</time></trkpt><trkpt lat="42.2140522" lon="12.7454107"><ele>176.2</ele><time>2026-04-26T16:40:12.503Z</time></trkpt><trkpt lat="42.2140837" lon="12.7455318"><ele>176.6</ele><time>2026-04-26T16:40:14.49Z</time></trkpt><trkpt lat="42.2139759" lon="12.7455364"><ele>177.0</ele><time>2026-04-26T16:40:17.488Z</time></trkpt><trkpt lat="42.21387" lon="12.7455401"><ele>182.0</ele><time>2026-04-26T16:40:19.529Z</time></trkpt><trkpt lat="42.2138257" lon="12.7456105"><ele>187.0</ele><time>2026-04-26T16:40:20.509Z</time></trkpt><trkpt lat="42.2137944" lon="12.7457095"><ele>192.0</ele><time>2026-04-26T16:40:21.511Z</time></trkpt><trkpt lat="42.2137719" lon="12.7458117"><ele>197.0</ele><time>2026-04-26T16:40:22.481Z</time></trkpt><trkpt lat="42.213737" lon="12.74593"><ele>202.0</ele><time>2026-04-26T16:40:23.498Z</time></trkpt><trkpt lat="42.2137386" lon="12.7461122"><ele>204.33333333333331</ele><time>2026-04-26T16:40:24.484Z</time></trkpt><trkpt lat="42.2137442" lon="12.7462876"><ele>206.66666666666669</ele><time>2026-04-26T16:40:25.477Z</time></trkpt><trkpt lat="42.2137798" lon="12.7465209"><ele>209.0</ele><time>2026-04-26T16:40:26.484Z</time></trkpt><trkpt lat="42.213803" lon="12.7467741"><ele>212.5</ele><time>2026-04-26T16:40:27.487Z</time></trkpt><trkpt lat="42.2138479" lon="12.7470653"><ele>216.0</ele><time>2026-04-26T16:40:28.48Z</time></trkpt><trkpt lat="42.2139139" lon="12.7473742"><ele>216.0</ele><time>2026-04-26T16:40:29.508Z</time></trkpt><trkpt lat="42.2139622" lon="12.7476444"><ele>216.0</ele><time>2026-04-26T16:40:30.496Z</time></trkpt><trkpt lat="42.2139531" lon="12.7479067"><ele>216.0</ele><time>2026-04-26T16:40:31.481Z</time></trkpt><trkpt lat="42.2139294" lon="12.7481485"><ele>218.0</ele><time>2026-04-26T16:40:32.48Z</time></trkpt><trkpt lat="42.2138674" lon="12.748382"><ele>220.0</ele><time>2026-04-26T16:40:33.567Z</time></trkpt><trkpt lat="42.2137866" lon="12.7486384"><ele>222.0</ele><time>2026-04-26T16:40:34.483Z</time></trkpt><trkpt lat="42.2137447" lon="12.74885"><ele>222.0</ele><time>2026-04-26T16:40:35.48Z</time></trkpt><trkpt lat="42.2136386" lon="12.7491037"><ele>222.0</ele><time>2026-04-26T16:40:36.478Z</time></trkpt><trkpt lat="42.2135818" lon="12.7492884"><ele>222.0</ele><time>2026-04-26T16:40:37.49Z</time></trkpt><trkpt lat="42.2135452" lon="12.7495193"><ele>224.0</ele><time>2026-04-26T16:40:38.645Z</time></trkpt><trkpt lat="42.2134957" lon="12.7500633"><ele>226.0</ele><time>2026-04-26T16:40:40.643Z</time></trkpt><trkpt lat="42.213485" lon="12.7503063"><ele>229.33333333333331</ele><time>2026-04-26T16:40:41.647Z</time></trkpt><trkpt lat="42.2134924" lon="12.7504802"><ele>232.66666666666669</ele><time>2026-04-26T16:40:42.642Z</time></trkpt><trkpt lat="42.2134561" lon="12.7507781"><ele>236.0</ele><time>2026-04-26T16:40:44.648Z</time></trkpt><trkpt lat="42.2134293" lon="12.7509757"><ele>237.0</ele><time>2026-04-26T16:40:45.805Z</time></trkpt><trkpt lat="42.2134611" lon="12.7512284"><ele>238.0</ele><time>2026-04-26T16:40:46.645Z</time></trkpt><trkpt lat="42.2135183" lon="12.7514574"><ele>239.0</ele><time>2026-04-26T16:40:47.485Z</time></trkpt><trkpt lat="42.2135686" lon="12.7516584"><ele>239.0</ele><time>2026-04-26T16:40:48.53Z</time></trkpt><trkpt lat="42.2136142" lon="12.7518469"><ele>239.0</ele><time>2026-04-26T16:40:49.489Z</time></trkpt><trkpt lat="42.2136678" lon="12.7520706"><ele>239.0</ele><time>2026-04-26T16:40:50.486Z</time></trkpt><trkpt lat="42.2136774" lon="12.752287"><ele>240.33333333333334</ele><time>2026-04-26T16:40:51.482Z</time></trkpt><trkpt lat="42.2136434" lon="12.7525289"><ele>241.66666666666669</ele><time>2026-04-26T16:40:52.506Z</time></trkpt><trkpt lat="42.2135938" lon="12.7528008"><ele>243.0</ele><time>2026-04-26T16:40:53.486Z</time></trkpt><trkpt lat="42.2135363" lon="12.753053"><ele>245.0</ele><time>2026-04-26T16:40:54.505Z</time></trkpt><trkpt lat="42.2134899" lon="12.7532476"><ele>247.0</ele><time>2026-04-26T16:40:55.488Z</time></trkpt><trkpt lat="42.2134454" lon="12.7534281"><ele>249.0</ele><time>2026-04-26T16:40:56.49Z</time></trkpt><trkpt lat="42.2134179" lon="12.753578"><ele>251.0</ele><time>2026-04-26T16:40:57.487Z</time></trkpt><trkpt lat="42.2134506" lon="12.7537107"><ele>252.75</ele><time>2026-04-26T16:40:58.489Z</time></trkpt><trkpt lat="42.2135053" lon="12.7538703"><ele>254.5</ele><time>2026-04-26T16:40:59.494Z</time></trkpt><trkpt lat="42.2135643" lon="12.7540878"><ele>256.25</ele><time>2026-04-26T16:41:00.485Z</time></trkpt><trkpt lat="42.2135773" lon="12.7542015"><ele>258.0</ele><time>2026-04-26T16:41:01.51Z</time></trkpt><trkpt lat="42.2135939" lon="12.7542932"><ele>257.99999999999994</ele><time>2026-04-26T16:41:02.514Z</time></trkpt><trkpt lat="42.2135196" lon="12.7542113"><ele>258.0</ele><time>2026-04-26T16:41:08.49Z</time></trkpt><trkpt lat="42.2134845" lon="12.7541395"><ele>258.0</ele><time>2026-04-26T16:41:09.509Z</time></trkpt><trkpt lat="42.2134542" lon="12.7540486"><ele>258.0</ele><time>2026-04-26T16:41:10.505Z</time></trkpt><trkpt lat="42.2134106" lon="12.7539794"><ele>258.0</ele><time>2026-04-26T16:41:11.504Z</time></trkpt><trkpt lat="42.2133548" lon="12.7539388"><ele>257.99999999999994</ele><time>2026-04-26T16:41:12.486Z</time></trkpt><trkpt lat="42.2132754" lon="12.7539248"><ele>258.0</ele><time>2026-04-26T16:41:13.488Z</time></trkpt><trkpt lat="42.2132069" lon="12.7539444"><ele>261.99999999999994</ele><time>2026-04-26T16:41:14.49Z</time></trkpt><trkpt lat="42.2131485" lon="12.7539835"><ele>266.0</ele><time>2026-04-26T16:41:15.484Z</time></trkpt><trkpt lat="42.2131041" lon="12.7540489"><ele>270.0</ele><time>2026-04-26T16:41:16.491Z</time></trkpt><trkpt lat="42.2130618" lon="12.754129"><ele>274.0</ele><time>2026-04-26T16:41:17.481Z</time></trkpt><trkpt lat="42.2130229" lon="12.7542093"><ele>278.0</ele><time>2026-04-26T16:41:18.485Z</time></trkpt><trkpt lat="42.2129636" lon="12.754255"><ele>281.99999999999994</ele><time>2026-04-26T16:41:19.481Z</time></trkpt><trkpt lat="42.2128615" lon="12.7542482"><ele>286.0</ele><time>2026-04-26T16:41:21.484Z</time></trkpt><trkpt lat="42.2127938" lon="12.7542179"><ele>286.0</ele><time>2026-04-26T16:41:22.49Z</time></trkpt><trkpt lat="42.2127393" lon="12.7541169"><ele>286.0</ele><time>2026-04-26T16:41:23.48Z</time></trkpt><trkpt lat="42.2127028" lon="12.7539939"><ele>286.0</ele><time>2026-04-26T16:41:24.484Z</time></trkpt><trkpt lat="42.2126616" lon="12.7538822"><ele>286.0</ele><time>2026-04-26T16:41:25.479Z</time></trkpt><trkpt lat="42.2126248" lon="12.7537751"><ele>286.0</ele><time>2026-04-26T16:41:26.482Z</time></trkpt><trkpt lat="42.2125935" lon="12.7536657"><ele>286.0</ele><time>2026-04-26T16:41:27.477Z</time></trkpt><trkpt lat="42.2125558" lon="12.7535542"><ele>286.0</ele><time>2026-04-26T16:41:28.482Z</time></trkpt><trkpt lat="42.2125368" lon="12.7534552"><ele>286.0</ele><time>2026-04-26T16:41:29.486Z</time></trkpt><trkpt lat="42.2125381" lon="12.7533457"><ele>286.0</ele><time>2026-04-26T16:41:30.486Z</time></trkpt><trkpt lat="42.2125574" lon="12.7532441"><ele>286.0</ele><time>2026-04-26T16:41:31.486Z</time></trkpt><trkpt lat="42.2125706" lon="12.7531575"><ele>286.0</ele><time>2026-04-26T16:41:32.499Z</time></trkpt><trkpt lat="42.2125704" lon="12.7530586"><ele>286.16666666666663</ele><time>2026-04-26T16:41:47.481Z</time></trkpt><trkpt lat="42.2125647" lon="12.7529681"><ele>286.3333333333333</ele><time>2026-04-26T16:41:58.485Z</time></trkpt><trkpt lat="42.2125619" lon="12.7528531"><ele>286.5</ele><time>2026-04-26T16:42:04.533Z</time></trkpt><trkpt lat="42.2124689" lon="12.7528341"><ele>286.6666666666667</ele><time>2026-04-26T16:42:08.514Z</time></trkpt><trkpt lat="42.2124128" lon="12.7529185"><ele>286.83333333333337</ele><time>2026-04-26T16:42:09.508Z</time></trkpt><trkpt lat="42.212366" lon="12.7530102"><ele>287.0</ele><time>2026-04-26T16:42:10.502Z</time></trkpt><trkpt lat="42.2123226" lon="12.7531006"><ele>287.0</ele><time>2026-04-26T16:42:11.504Z</time></trkpt><trkpt lat="42.2122803" lon="12.7532406"><ele>287.0</ele><time>2026-04-26T16:42:12.481Z</time></trkpt><trkpt lat="42.2122409" lon="12.7533641"><ele>287.0</ele><time>2026-04-26T16:42:13.477Z</time></trkpt><trkpt lat="42.2121824" lon="12.7534865"><ele>287.0</ele><time>2026-04-26T16:42:14.487Z</time></trkpt><trkpt lat="42.2121011" lon="12.7535855"><ele>287.0</ele><time>2026-04-26T16:42:15.478Z</time></trkpt><trkpt lat="42.2119953" lon="12.7536622"><ele>287.0</ele><time>2026-04-26T16:42:16.476Z</time></trkpt><trkpt lat="42.21188" lon="12.7537017"><ele>287.0</ele><time>2026-04-26T16:42:17.482Z</time></trkpt><trkpt lat="42.2117604" lon="12.7537325"><ele>287.0</ele><time>2026-04-26T16:42:18.508Z</time></trkpt><trkpt lat="42.2116561" lon="12.7537843"><ele>287.0</ele><time>2026-04-26T16:42:19.486Z</time></trkpt><trkpt lat="42.2115261" lon="12.7538619"><ele>284.0</ele><time>2026-04-26T16:42:20.473Z</time></trkpt><trkpt lat="42.2113861" lon="12.7539519"><ele>281.0</ele><time>2026-04-26T16:42:21.5Z</time></trkpt><trkpt lat="42.2112716" lon="12.7540421"><ele>278.0</ele><time>2026-04-26T16:42:22.503Z</time></trkpt><trkpt lat="42.2111343" lon="12.7541103"><ele>275.0</ele><time>2026-04-26T16:42:23.487Z</time></trkpt><trkpt lat="42.2109635" lon="12.7541373"><ele>275.0</ele><time>2026-04-26T16:42:24.497Z</time></trkpt><trkpt lat="42.2107792" lon="12.7541192"><ele>275.0</ele><time>2026-04-26T16:42:25.413Z</time></trkpt><trkpt lat="42.2105602" lon="12.7541144"><ele>275.0</ele><time>2026-04-26T16:42:26.42Z</time></trkpt><trkpt lat="42.2103419" lon="12.7540855"><ele>274.0</ele><time>2026-04-26T16:42:27.413Z</time></trkpt><trkpt lat="42.2101438" lon="12.7540196"><ele>273.0</ele><time>2026-04-26T16:42:28.42Z</time></trkpt><trkpt lat="42.2099499" lon="12.7539918"><ele>272.0</ele><time>2026-04-26T16:42:29.421Z</time></trkpt><trkpt lat="42.2097324" lon="12.7539614"><ele>272.0</ele><time>2026-04-26T16:42:30.417Z</time></trkpt><trkpt lat="42.2095254" lon="12.7539498"><ele>272.0</ele><time>2026-04-26T16:42:31.412Z</time></trkpt><trkpt lat="42.2093371" lon="12.7539657"><ele>272.0</ele><time>2026-04-26T16:42:32.411Z</time></trkpt><trkpt lat="42.2091728" lon="12.7540038"><ele>272.0</ele><time>2026-04-26T16:42:33.411Z</time></trkpt><trkpt lat="42.209043" lon="12.7541941"><ele>272.0</ele><time>2026-04-26T16:42:34.427Z</time></trkpt><trkpt lat="42.2089402" lon="12.7543967"><ele>272.0</ele><time>2026-04-26T16:42:35.416Z</time></trkpt><trkpt lat="42.2088509" lon="12.754569"><ele>272.5</ele><time>2026-04-26T16:42:36.417Z</time></trkpt><trkpt lat="42.2087684" lon="12.7546613"><ele>273.0</ele><time>2026-04-26T16:42:37.453Z</time></trkpt><trkpt lat="42.2086953" lon="12.7547013"><ele>273.5</ele><time>2026-04-26T16:42:38.413Z</time></trkpt><trkpt lat="42.2086275" lon="12.7547281"><ele>274.0</ele><time>2026-04-26T16:42:40.423Z</time></trkpt><trkpt lat="42.2085645" lon="12.7546903"><ele>274.5</ele><time>2026-04-26T16:42:42.417Z</time></trkpt><trkpt lat="42.2085811" lon="12.7545479"><ele>275.0</ele><time>2026-04-26T16:42:45.42Z</time></trkpt><trkpt lat="42.2085965" lon="12.7544371"><ele>277.5</ele><time>2026-04-26T16:42:46.427Z</time></trkpt><trkpt lat="42.2086437" lon="12.7543158"><ele>280.0</ele><time>2026-04-26T16:42:47.416Z</time></trkpt><trkpt lat="42.2087047" lon="12.7541908"><ele>282.5</ele><time>2026-04-26T16:42:48.414Z</time></trkpt><trkpt lat="42.2087941" lon="12.7540615"><ele>285.0</ele><time>2026-04-26T16:42:49.419Z</time></trkpt><trkpt lat="42.2088694" lon="12.7539219"><ele>280.6666666666667</ele><time>2026-04-26T16:42:50.409Z</time></trkpt><trkpt lat="42.2090095" lon="12.7537835"><ele>276.33333333333337</ele><time>2026-04-26T16:42:51.422Z</time></trkpt><trkpt lat="42.2091782" lon="12.75368"><ele>272.0</ele><time>2026-04-26T16:42:52.411Z</time></trkpt><trkpt lat="42.2093268" lon="12.7536191"><ele>272.0</ele><time>2026-04-26T16:42:53.419Z</time></trkpt><trkpt lat="42.2095011" lon="12.7535851"><ele>272.0</ele><time>2026-04-26T16:42:54.425Z</time></trkpt><trkpt lat="42.2096486" lon="12.7535658"><ele>272.0</ele><time>2026-04-26T16:42:55.411Z</time></trkpt><trkpt lat="42.2097522" lon="12.7535477"><ele>272.0</ele><time>2026-04-26T16:42:56.417Z</time></trkpt><trkpt lat="42.2098473" lon="12.753514"><ele>272.0</ele><time>2026-04-26T16:42:57.42Z</time></trkpt><trkpt lat="42.209925" lon="12.7534951"><ele>272.0</ele><time>2026-04-26T16:42:58.415Z</time></trkpt><trkpt lat="42.2100117" lon="12.7534653"><ele>272.0</ele><time>2026-04-26T16:42:59.421Z</time></trkpt><trkpt lat="42.2100688" lon="12.7535214"><ele>272.0</ele><time>2026-04-26T16:43:02.415Z</time></trkpt><trkpt lat="42.2100068" lon="12.7534982"><ele>272.0</ele><time>2026-04-26T16:43:05.456Z</time></trkpt><trkpt lat="42.209916" lon="12.7534793"><ele>272.0</ele><time>2026-04-26T16:43:07.416Z</time></trkpt><trkpt lat="42.2097997" lon="12.7535521"><ele>272.0</ele><time>2026-04-26T16:43:09.442Z</time></trkpt><trkpt lat="42.2097307" lon="12.7535991"><ele>272.0</ele><time>2026-04-26T16:43:10.412Z</time></trkpt><trkpt lat="42.2096519" lon="12.7536376"><ele>272.0</ele><time>2026-04-26T16:43:11.422Z</time></trkpt><trkpt lat="42.2095641" lon="12.753671"><ele>272.0</ele><time>2026-04-26T16:43:12.421Z</time></trkpt><trkpt lat="42.2094545" lon="12.7536996"><ele>272.0</ele><time>2026-04-26T16:43:13.42Z</time></trkpt><trkpt lat="42.2093474" lon="12.753737"><ele>272.0</ele><time>2026-04-26T16:43:14.42Z</time></trkpt><trkpt lat="42.2092532" lon="12.7537824"><ele>272.0</ele><time>2026-04-26T16:43:15.416Z</time></trkpt><trkpt lat="42.2091763" lon="12.753815"><ele>272.0</ele><time>2026-04-26T16:43:16.413Z</time></trkpt><trkpt lat="42.2091043" lon="12.7538461"><ele>272.0</ele><time>2026-04-26T16:43:17.446Z</time></trkpt><trkpt lat="42.2090033" lon="12.7539143"><ele>272.0</ele><time>2026-04-26T16:43:19.443Z</time></trkpt><trkpt lat="42.2089415" lon="12.7539682"><ele>272.0</ele><time>2026-04-26T16:43:20.412Z</time></trkpt><trkpt lat="42.2088879" lon="12.7540391"><ele>272.6</ele><time>2026-04-26T16:43:21.417Z</time></trkpt><trkpt lat="42.2088282" lon="12.7541284"><ele>273.2</ele><time>2026-04-26T16:43:22.411Z</time></trkpt><trkpt lat="42.2087563" lon="12.7542179"><ele>273.8</ele><time>2026-04-26T16:43:23.411Z</time></trkpt><trkpt lat="42.2086761" lon="12.7543112"><ele>274.4</ele><time>2026-04-26T16:43:24.409Z</time></trkpt><trkpt lat="42.2086129" lon="12.754419"><ele>275.0</ele><time>2026-04-26T16:43:25.419Z</time></trkpt><trkpt lat="42.2085664" lon="12.7545454"><ele>275.0</ele><time>2026-04-26T16:43:26.415Z</time></trkpt><trkpt lat="42.208528" lon="12.7546605"><ele>275.0</ele><time>2026-04-26T16:43:27.446Z</time></trkpt><trkpt lat="42.2085138" lon="12.7547821"><ele>275.0</ele><time>2026-04-26T16:43:28.412Z</time></trkpt><trkpt lat="42.208502" lon="12.7549494"><ele>275.0</ele><time>2026-04-26T16:43:30.495Z</time></trkpt><trkpt lat="42.2084299" lon="12.7550165"><ele>275.0</ele><time>2026-04-26T16:43:32.577Z</time></trkpt><trkpt lat="42.2083602" lon="12.7551098"><ele>275.0</ele><time>2026-04-26T16:43:34.426Z</time></trkpt><trkpt lat="42.2083149" lon="12.7552021"><ele>275.0</ele><time>2026-04-26T16:43:36.593Z</time></trkpt><trkpt lat="42.208312" lon="12.755319"><ele>275.0</ele><time>2026-04-26T16:43:39.728Z</time></trkpt><trkpt lat="42.2083445" lon="12.7554031"><ele>275.0</ele><time>2026-04-26T16:43:41.737Z</time></trkpt><trkpt lat="42.2083407" lon="12.7555009"><ele>275.0</ele><time>2026-04-26T16:43:49.578Z</time></trkpt><trkpt lat="42.2083242" lon="12.7555833"><ele>275.0</ele><time>2026-04-26T16:43:51.414Z</time></trkpt><trkpt lat="42.2082716" lon="12.7557206"><ele>275.5</ele><time>2026-04-26T16:43:54.464Z</time></trkpt><trkpt lat="42.208256" lon="12.7558117"><ele>276.0</ele><time>2026-04-26T16:43:57.589Z</time></trkpt><trkpt lat="42.2083004" lon="12.7557416"><ele>276.5</ele><time>2026-04-26T16:44:14.417Z</time></trkpt><trkpt lat="42.2083544" lon="12.7556136"><ele>277.0</ele><time>2026-04-26T16:44:17.441Z</time></trkpt><trkpt lat="42.2083598" lon="12.7554963"><ele>277.5</ele><time>2026-04-26T16:44:19.411Z</time></trkpt><trkpt lat="42.2083434" lon="12.7553834"><ele>278.0</ele><time>2026-04-26T16:44:21.418Z</time></trkpt><trkpt lat="42.2083248" lon="12.7552631"><ele>277.5</ele><time>2026-04-26T16:44:23.332Z</time></trkpt><trkpt lat="42.2083011" lon="12.7551602"><ele>277.0</ele><time>2026-04-26T16:44:25.614Z</time></trkpt><trkpt lat="42.208313" lon="12.7550469"><ele>276.5</ele><time>2026-04-26T16:44:28.115Z</time></trkpt><trkpt lat="42.2083346" lon="12.7549654"><ele>276.0</ele><time>2026-04-26T16:44:30.111Z</time></trkpt><trkpt lat="42.2084098" lon="12.7548918"><ele>275.5</ele><time>2026-04-26T16:44:32.135Z</time></trkpt><trkpt lat="42.2085037" lon="12.754823"><ele>275.0</ele><time>2026-04-26T16:44:34.134Z</time></trkpt><trkpt lat="42.208569" lon="12.7548519"><ele>275.0</ele><time>2026-04-26T16:44:42.113Z</time></trkpt><trkpt lat="42.2086206" lon="12.7549123"><ele>275.0</ele><time>2026-04-26T16:44:44.113Z</time></trkpt><trkpt lat="42.2086535" lon="12.7550047"><ele>275.0</ele><time>2026-04-26T16:44:46.131Z</time></trkpt><trkpt lat="42.2086478" lon="12.7550903"><ele>275.0</ele><time>2026-04-26T16:44:47.117Z</time></trkpt><trkpt lat="42.2086427" lon="12.755204"><ele>275.0</ele><time>2026-04-26T16:44:48.115Z</time></trkpt><trkpt lat="42.2086826" lon="12.7553283"><ele>275.0</ele><time>2026-04-26T16:44:49.11Z</time></trkpt><trkpt lat="42.2086886" lon="12.7554614"><ele>275.25</ele><time>2026-04-26T16:44:50.112Z</time></trkpt><trkpt lat="42.2087493" lon="12.7556202"><ele>275.5</ele><time>2026-04-26T16:44:51.122Z</time></trkpt><trkpt lat="42.2088029" lon="12.7557886"><ele>275.75</ele><time>2026-04-26T16:44:52.135Z</time></trkpt><trkpt lat="42.2088624" lon="12.7559811"><ele>276.0</ele><time>2026-04-26T16:44:53.111Z</time></trkpt><trkpt lat="42.2088751" lon="12.7561809"><ele>276.0</ele><time>2026-04-26T16:44:54.116Z</time></trkpt><trkpt lat="42.2087504" lon="12.756393"><ele>276.0</ele><time>2026-04-26T16:44:55.14Z</time></trkpt><trkpt lat="42.208631" lon="12.7566268"><ele>276.0</ele><time>2026-04-26T16:44:56.107Z</time></trkpt><trkpt lat="42.208526" lon="12.7568346"><ele>278.3333333333333</ele><time>2026-04-26T16:44:57.11Z</time></trkpt><trkpt lat="42.2084366" lon="12.7570067"><ele>280.66666666666663</ele><time>2026-04-26T16:44:58.099Z</time></trkpt><trkpt lat="42.2083339" lon="12.7571963"><ele>283.0</ele><time>2026-04-26T16:44:59.117Z</time></trkpt><trkpt lat="42.2082101" lon="12.7574416"><ele>286.0</ele><time>2026-04-26T16:45:00.188Z</time></trkpt><trkpt lat="42.2081065" lon="12.7576769"><ele>289.0</ele><time>2026-04-26T16:45:01.262Z</time></trkpt><trkpt lat="42.2079551" lon="12.7580118"><ele>289.3333333333333</ele><time>2026-04-26T16:45:03.103Z</time></trkpt><trkpt lat="42.2078737" lon="12.7581949"><ele>289.6666666666667</ele><time>2026-04-26T16:45:04.104Z</time></trkpt><trkpt lat="42.2078316" lon="12.7583991"><ele>290.0</ele><time>2026-04-26T16:45:05.111Z</time></trkpt><trkpt lat="42.2078288" lon="12.7586246"><ele>290.5</ele><time>2026-04-26T16:45:06.265Z</time></trkpt><trkpt lat="42.2078058" lon="12.7588927"><ele>291.0</ele><time>2026-04-26T16:45:07.266Z</time></trkpt><trkpt lat="42.2077376" lon="12.7592992"><ele>293.0</ele><time>2026-04-26T16:45:09.116Z</time></trkpt><trkpt lat="42.2076856" lon="12.7594709"><ele>295.0</ele><time>2026-04-26T16:45:10.109Z</time></trkpt><trkpt lat="42.2075992" lon="12.7596192"><ele>297.0</ele><time>2026-04-26T16:45:11.178Z</time></trkpt><trkpt lat="42.207511" lon="12.759778"><ele>299.0</ele><time>2026-04-26T16:45:12.133Z</time></trkpt><trkpt lat="42.2073743" lon="12.7599257"><ele>299.33333333333337</ele><time>2026-04-26T16:45:13.123Z</time></trkpt><trkpt lat="42.2072514" lon="12.7600826"><ele>299.6666666666667</ele><time>2026-04-26T16:45:14.101Z</time></trkpt><trkpt lat="42.2071382" lon="12.7602618"><ele>300.0</ele><time>2026-04-26T16:45:15.106Z</time></trkpt><trkpt lat="42.2070372" lon="12.7604643"><ele>297.6666666666667</ele><time>2026-04-26T16:45:16.103Z</time></trkpt><trkpt lat="42.206953" lon="12.7606732"><ele>295.33333333333337</ele><time>2026-04-26T16:45:17.102Z</time></trkpt><trkpt lat="42.2068672" lon="12.7609"><ele>293.0</ele><time>2026-04-26T16:45:18.105Z</time></trkpt><trkpt lat="42.2067801" lon="12.7610983"><ele>293.0</ele><time>2026-04-26T16:45:19.104Z</time></trkpt><trkpt lat="42.2066882" lon="12.761314"><ele>293.0</ele><time>2026-04-26T16:45:20.112Z</time></trkpt><trkpt lat="42.2066083" lon="12.7614833"><ele>293.0</ele><time>2026-04-26T16:45:21.116Z</time></trkpt><trkpt lat="42.206523" lon="12.7616492"><ele>291.0</ele><time>2026-04-26T16:45:22.135Z</time></trkpt><trkpt lat="42.2063854" lon="12.7617923"><ele>289.0</ele><time>2026-04-26T16:45:23.111Z</time></trkpt><trkpt lat="42.2062493" lon="12.7619696"><ele>287.0</ele><time>2026-04-26T16:45:24.109Z</time></trkpt><trkpt lat="42.2060687" lon="12.7621292"><ele>288.6666666666667</ele><time>2026-04-26T16:45:25.107Z</time></trkpt><trkpt lat="42.2058999" lon="12.7622571"><ele>290.3333333333333</ele><time>2026-04-26T16:45:26.104Z</time></trkpt><trkpt lat="42.2057108" lon="12.7623546"><ele>292.0</ele><time>2026-04-26T16:45:27.099Z</time></trkpt><trkpt lat="42.20553" lon="12.7624647"><ele>292.0</ele><time>2026-04-26T16:45:28.127Z</time></trkpt><trkpt lat="42.2053503" lon="12.7625621"><ele>292.0</ele><time>2026-04-26T16:45:29.098Z</time></trkpt><trkpt lat="42.2051913" lon="12.7626069"><ele>292.0</ele><time>2026-04-26T16:45:30.112Z</time></trkpt><trkpt lat="42.2050483" lon="12.7627091"><ele>292.3333333333333</ele><time>2026-04-26T16:45:31.099Z</time></trkpt><trkpt lat="42.2049151" lon="12.7628496"><ele>292.6666666666667</ele><time>2026-04-26T16:45:32.102Z</time></trkpt><trkpt lat="42.2047917" lon="12.7630508"><ele>293.0</ele><time>2026-04-26T16:45:33.103Z</time></trkpt><trkpt lat="42.2046724" lon="12.7632406"><ele>293.0</ele><time>2026-04-26T16:45:34.109Z</time></trkpt><trkpt lat="42.2045881" lon="12.7634103"><ele>293.0</ele><time>2026-04-26T16:45:35.103Z</time></trkpt><trkpt lat="42.2044757" lon="12.7635473"><ele>293.0</ele><time>2026-04-26T16:45:36.198Z</time></trkpt><trkpt lat="42.2043759" lon="12.7636437"><ele>293.0</ele><time>2026-04-26T16:45:37.154Z</time></trkpt><trkpt lat="42.2042726" lon="12.7637171"><ele>294.33333333333337</ele><time>2026-04-26T16:45:38.107Z</time></trkpt><trkpt lat="42.2041312" lon="12.7638006"><ele>295.6666666666667</ele><time>2026-04-26T16:45:39.112Z</time></trkpt><trkpt lat="42.2039596" lon="12.7638319"><ele>297.0</ele><time>2026-04-26T16:45:40.122Z</time></trkpt><trkpt lat="42.2038168" lon="12.7638346"><ele>297.2</ele><time>2026-04-26T16:45:41.109Z</time></trkpt><trkpt lat="42.2036785" lon="12.7638584"><ele>297.4</ele><time>2026-04-26T16:45:42.137Z</time></trkpt><trkpt lat="42.203584" lon="12.7639395"><ele>297.6</ele><time>2026-04-26T16:45:43.131Z</time></trkpt><trkpt lat="42.2035315" lon="12.7640435"><ele>297.8</ele><time>2026-04-26T16:45:44.11Z</time></trkpt><trkpt lat="42.2035232" lon="12.7641716"><ele>298.0</ele><time>2026-04-26T16:45:45.131Z</time></trkpt><trkpt lat="42.2035237" lon="12.7643195"><ele>297.75</ele><time>2026-04-26T16:45:46.107Z</time></trkpt><trkpt lat="42.2035308" lon="12.7644821"><ele>297.5</ele><time>2026-04-26T16:45:47.106Z</time></trkpt><trkpt lat="42.2035587" lon="12.7646497"><ele>297.25</ele><time>2026-04-26T16:45:48.13Z</time></trkpt><trkpt lat="42.2035841" lon="12.7648229"><ele>297.0</ele><time>2026-04-26T16:45:49.108Z</time></trkpt><trkpt lat="42.2036388" lon="12.7650071"><ele>297.3333333333333</ele><time>2026-04-26T16:45:50.106Z</time></trkpt><trkpt lat="42.2037254" lon="12.7652114"><ele>297.66666666666663</ele><time>2026-04-26T16:45:51.111Z</time></trkpt><trkpt lat="42.2038258" lon="12.7654309"><ele>298.0</ele><time>2026-04-26T16:45:52.125Z</time></trkpt><trkpt lat="42.2038997" lon="12.7656425"><ele>298.0</ele><time>2026-04-26T16:45:53.115Z</time></trkpt><trkpt lat="42.2039707" lon="12.7657953"><ele>298.0</ele><time>2026-04-26T16:45:54.103Z</time></trkpt><trkpt lat="42.2040148" lon="12.7659377"><ele>298.0</ele><time>2026-04-26T16:45:55.28Z</time></trkpt><trkpt lat="42.204033" lon="12.7662222"><ele>299.5</ele><time>2026-04-26T16:45:57.123Z</time></trkpt><trkpt lat="42.2039818" lon="12.7663612"><ele>301.0</ele><time>2026-04-26T16:45:58.105Z</time></trkpt><trkpt lat="42.2038938" lon="12.766537"><ele>302.5</ele><time>2026-04-26T16:45:59.099Z</time></trkpt><trkpt lat="42.2038053" lon="12.7666845"><ele>304.0</ele><time>2026-04-26T16:46:00.106Z</time></trkpt><trkpt lat="42.2037226" lon="12.7668522"><ele>307.66666666666663</ele><time>2026-04-26T16:46:01.104Z</time></trkpt><trkpt lat="42.2035859" lon="12.7669872"><ele>311.3333333333333</ele><time>2026-04-26T16:46:02.104Z</time></trkpt><trkpt lat="42.2034247" lon="12.7670638"><ele>315.0</ele><time>2026-04-26T16:46:03.107Z</time></trkpt><trkpt lat="42.203295" lon="12.7671591"><ele>315.0</ele><time>2026-04-26T16:46:04.097Z</time></trkpt><trkpt lat="42.2031967" lon="12.7672421"><ele>315.0</ele><time>2026-04-26T16:46:05.106Z</time></trkpt><trkpt lat="42.2031252" lon="12.7673839"><ele>315.0</ele><time>2026-04-26T16:46:06.122Z</time></trkpt><trkpt lat="42.2030619" lon="12.7675276"><ele>315.0</ele><time>2026-04-26T16:46:07.128Z</time></trkpt><trkpt lat="42.2029852" lon="12.7677136"><ele>314.3333333333333</ele><time>2026-04-26T16:46:08.102Z</time></trkpt><trkpt lat="42.2029366" lon="12.7679009"><ele>313.66666666666663</ele><time>2026-04-26T16:46:09.098Z</time></trkpt><trkpt lat="42.2028494" lon="12.7681018"><ele>313.0</ele><time>2026-04-26T16:46:10.095Z</time></trkpt><trkpt lat="42.2027533" lon="12.7682622"><ele>313.0</ele><time>2026-04-26T16:46:11.117Z</time></trkpt><trkpt lat="42.2026305" lon="12.7684082"><ele>313.0</ele><time>2026-04-26T16:46:12.099Z</time></trkpt><trkpt lat="42.2025029" lon="12.7685043"><ele>313.0</ele><time>2026-04-26T16:46:13.117Z</time></trkpt><trkpt lat="42.2023832" lon="12.7686062"><ele>311.25</ele><time>2026-04-26T16:46:14.124Z</time></trkpt><trkpt lat="42.2022819" lon="12.7687283"><ele>309.5</ele><time>2026-04-26T16:46:15.101Z</time></trkpt><trkpt lat="42.2021894" lon="12.7688644"><ele>307.75</ele><time>2026-04-26T16:46:16.099Z</time></trkpt><trkpt lat="42.2021143" lon="12.7690399"><ele>306.0</ele><time>2026-04-26T16:46:17.1Z</time></trkpt><trkpt lat="42.2020715" lon="12.7692047"><ele>306.0</ele><time>2026-04-26T16:46:18.106Z</time></trkpt><trkpt lat="42.2020643" lon="12.769358"><ele>306.0</ele><time>2026-04-26T16:46:19.105Z</time></trkpt><trkpt lat="42.2020479" lon="12.7695127"><ele>306.0</ele><time>2026-04-26T16:46:20.1Z</time></trkpt><trkpt lat="42.2020738" lon="12.7696725"><ele>306.0</ele><time>2026-04-26T16:46:21.108Z</time></trkpt><trkpt lat="42.2020883" lon="12.7698197"><ele>305.8</ele><time>2026-04-26T16:46:22.102Z</time></trkpt><trkpt lat="42.2020746" lon="12.7699266"><ele>305.6</ele><time>2026-04-26T16:46:23.102Z</time></trkpt><trkpt lat="42.2020742" lon="12.770033"><ele>305.4</ele><time>2026-04-26T16:46:24.104Z</time></trkpt><trkpt lat="42.2020603" lon="12.7701463"><ele>305.2</ele><time>2026-04-26T16:46:25.101Z</time></trkpt><trkpt lat="42.2020131" lon="12.770268"><ele>305.0</ele><time>2026-04-26T16:46:26.103Z</time></trkpt><trkpt lat="42.2019707" lon="12.7703975"><ele>305.5</ele><time>2026-04-26T16:46:27.106Z</time></trkpt><trkpt lat="42.201886" lon="12.7705186"><ele>306.0</ele><time>2026-04-26T16:46:28.102Z</time></trkpt><trkpt lat="42.2017736" lon="12.7706284"><ele>306.5</ele><time>2026-04-26T16:46:29.108Z</time></trkpt><trkpt lat="42.201639" lon="12.7707582"><ele>307.0</ele><time>2026-04-26T16:46:30.264Z</time></trkpt><trkpt lat="42.2014795" lon="12.7708773"><ele>307.0</ele><time>2026-04-26T16:46:31.266Z</time></trkpt><trkpt lat="42.2013321" lon="12.7710127"><ele>307.0</ele><time>2026-04-26T16:46:32.342Z</time></trkpt><trkpt lat="42.2012255" lon="12.7712129"><ele>307.0</ele><time>2026-04-26T16:46:33.254Z</time></trkpt><trkpt lat="42.2011346" lon="12.7716936"><ele>310.66666666666663</ele><time>2026-04-26T16:46:35.262Z</time></trkpt><trkpt lat="42.2010697" lon="12.7719273"><ele>314.3333333333333</ele><time>2026-04-26T16:46:36.257Z</time></trkpt><trkpt lat="42.2009886" lon="12.7721159"><ele>318.0</ele><time>2026-04-26T16:46:37.261Z</time></trkpt><trkpt lat="42.2009066" lon="12.772349"><ele>318.0</ele><time>2026-04-26T16:46:38.267Z</time></trkpt><trkpt lat="42.200821" lon="12.7725689"><ele>318.0</ele><time>2026-04-26T16:46:39.256Z</time></trkpt><trkpt lat="42.2007309" lon="12.7727418"><ele>318.0</ele><time>2026-04-26T16:46:40.269Z</time></trkpt><trkpt lat="42.2006263" lon="12.7728863"><ele>317.0</ele><time>2026-04-26T16:46:41.256Z</time></trkpt><trkpt lat="42.2005298" lon="12.7730246"><ele>316.0</ele><time>2026-04-26T16:46:42.279Z</time></trkpt><trkpt lat="42.200435" lon="12.7731683"><ele>315.0</ele><time>2026-04-26T16:46:43.407Z</time></trkpt><trkpt lat="42.2002752" lon="12.773478"><ele>315.0</ele><time>2026-04-26T16:46:45.099Z</time></trkpt><trkpt lat="42.2002156" lon="12.7736522"><ele>315.0</ele><time>2026-04-26T16:46:46.095Z</time></trkpt><trkpt lat="42.2002063" lon="12.7738265"><ele>315.0</ele><time>2026-04-26T16:46:47.101Z</time></trkpt><trkpt lat="42.2001631" lon="12.7740292"><ele>315.0</ele><time>2026-04-26T16:46:48.259Z</time></trkpt><trkpt lat="42.2001733" lon="12.7742455"><ele>316.5</ele><time>2026-04-26T16:46:49.265Z</time></trkpt><trkpt lat="42.2001477" lon="12.7744461"><ele>318.0</ele><time>2026-04-26T16:46:50.421Z</time></trkpt><trkpt lat="42.2001764" lon="12.7748524"><ele>318.0</ele><time>2026-04-26T16:46:52.105Z</time></trkpt><trkpt lat="42.2002304" lon="12.7750306"><ele>318.0</ele><time>2026-04-26T16:46:53.108Z</time></trkpt><trkpt lat="42.2003202" lon="12.7752694"><ele>318.0</ele><time>2026-04-26T16:46:54.255Z</time></trkpt><trkpt lat="42.2002875" lon="12.7753831"><ele>318.0</ele><time>2026-04-26T16:46:55.257Z</time></trkpt><trkpt lat="42.2002482" lon="12.7754718"><ele>319.6666666666667</ele><time>2026-04-26T16:46:56.415Z</time></trkpt><trkpt lat="42.2000548" lon="12.7757047"><ele>321.33333333333337</ele><time>2026-04-26T16:46:58.154Z</time></trkpt><trkpt lat="42.1999447" lon="12.7758358"><ele>323.0</ele><time>2026-04-26T16:46:59.106Z</time></trkpt><trkpt lat="42.1997998" lon="12.7759695"><ele>323.25</ele><time>2026-04-26T16:47:00.102Z</time></trkpt><trkpt lat="42.1996971" lon="12.7760788"><ele>323.5</ele><time>2026-04-26T16:47:01.103Z</time></trkpt><trkpt lat="42.1995789" lon="12.7761975"><ele>323.75</ele><time>2026-04-26T16:47:02.102Z</time></trkpt><trkpt lat="42.1994836" lon="12.7763191"><ele>324.0</ele><time>2026-04-26T16:47:03.102Z</time></trkpt><trkpt lat="42.1994243" lon="12.7765137"><ele>324.0</ele><time>2026-04-26T16:47:04.107Z</time></trkpt><trkpt lat="42.1993557" lon="12.7766753"><ele>324.0</ele><time>2026-04-26T16:47:05.103Z</time></trkpt><trkpt lat="42.1992836" lon="12.7768471"><ele>324.0</ele><time>2026-04-26T16:47:06.262Z</time></trkpt><trkpt lat="42.1991614" lon="12.7772749"><ele>324.75</ele><time>2026-04-26T16:47:08.104Z</time></trkpt><trkpt lat="42.1991298" lon="12.7774784"><ele>325.5</ele><time>2026-04-26T16:47:09.106Z</time></trkpt><trkpt lat="42.1991389" lon="12.7776463"><ele>326.25</ele><time>2026-04-26T16:47:10.185Z</time></trkpt><trkpt lat="42.1991285" lon="12.7778337"><ele>327.0</ele><time>2026-04-26T16:47:11.098Z</time></trkpt><trkpt lat="42.199106" lon="12.7780287"><ele>327.6666666666667</ele><time>2026-04-26T16:47:12.261Z</time></trkpt><trkpt lat="42.1991059" lon="12.7782662"><ele>328.33333333333337</ele><time>2026-04-26T16:47:13.274Z</time></trkpt><trkpt lat="42.1990424" lon="12.7785085"><ele>329.0</ele><time>2026-04-26T16:47:14.334Z</time></trkpt><trkpt lat="42.1988878" lon="12.7789108"><ele>329.0</ele><time>2026-04-26T16:47:16.094Z</time></trkpt><trkpt lat="42.1988179" lon="12.7791086"><ele>329.0</ele><time>2026-04-26T16:47:17.099Z</time></trkpt><trkpt lat="42.1987441" lon="12.779335"><ele>329.0</ele><time>2026-04-26T16:47:18.102Z</time></trkpt><trkpt lat="42.1987012" lon="12.7796112"><ele>330.0</ele><time>2026-04-26T16:47:19.1Z</time></trkpt><trkpt lat="42.1987219" lon="12.7798471"><ele>331.0</ele><time>2026-04-26T16:47:20.104Z</time></trkpt><trkpt lat="42.1986945" lon="12.7800845"><ele>332.0</ele><time>2026-04-26T16:47:21.266Z</time></trkpt><trkpt lat="42.1986957" lon="12.7803627"><ele>333.0</ele><time>2026-04-26T16:47:22.255Z</time></trkpt><trkpt lat="42.1986849" lon="12.7805929"><ele>334.0</ele><time>2026-04-26T16:47:23.256Z</time></trkpt><trkpt lat="42.1986783" lon="12.7808322"><ele>335.0</ele><time>2026-04-26T16:47:24.261Z</time></trkpt><trkpt lat="42.1986574" lon="12.7810381"><ele>336.0</ele><time>2026-04-26T16:47:25.274Z</time></trkpt><trkpt lat="42.1986415" lon="12.7812625"><ele>337.0</ele><time>2026-04-26T16:47:26.414Z</time></trkpt><trkpt lat="42.1984649" lon="12.7816613"><ele>337.0</ele><time>2026-04-26T16:47:28.099Z</time></trkpt><trkpt lat="42.1984048" lon="12.7818184"><ele>337.0</ele><time>2026-04-26T16:47:29.265Z</time></trkpt><trkpt lat="42.1983511" lon="12.7819757"><ele>337.0</ele><time>2026-04-26T16:47:30.262Z</time></trkpt><trkpt lat="42.1983244" lon="12.7820866"><ele>337.0</ele><time>2026-04-26T16:47:31.268Z</time></trkpt><trkpt lat="42.1983184" lon="12.782202"><ele>337.0</ele><time>2026-04-26T16:47:33.109Z</time></trkpt><trkpt lat="42.1982615" lon="12.7823066"><ele>340.0</ele><time>2026-04-26T16:47:35.126Z</time></trkpt><trkpt lat="42.1981567" lon="12.7824293"><ele>343.0</ele><time>2026-04-26T16:47:37.101Z</time></trkpt><trkpt lat="42.1980738" lon="12.7824921"><ele>346.0</ele><time>2026-04-26T16:47:38.102Z</time></trkpt><trkpt lat="42.1979745" lon="12.782565"><ele>349.0</ele><time>2026-04-26T16:47:39.107Z</time></trkpt><trkpt lat="42.1978881" lon="12.7826829"><ele>349.75</ele><time>2026-04-26T16:47:40.097Z</time></trkpt><trkpt lat="42.1978092" lon="12.7828223"><ele>350.5</ele><time>2026-04-26T16:47:41.107Z</time></trkpt><trkpt lat="42.1977366" lon="12.7830054"><ele>351.25</ele><time>2026-04-26T16:47:42.098Z</time></trkpt><trkpt lat="42.1976673" lon="12.7832"><ele>352.0</ele><time>2026-04-26T16:47:43.125Z</time></trkpt><trkpt lat="42.1975949" lon="12.7834"><ele>352.0</ele><time>2026-04-26T16:47:44.114Z</time></trkpt><trkpt lat="42.1975699" lon="12.7835951"><ele>352.0</ele><time>2026-04-26T16:47:45.102Z</time></trkpt><trkpt lat="42.1975116" lon="12.7838126"><ele>352.0</ele><time>2026-04-26T16:47:46.122Z</time></trkpt><trkpt lat="42.1975052" lon="12.7840002"><ele>352.0</ele><time>2026-04-26T16:47:47.106Z</time></trkpt><trkpt lat="42.1974958" lon="12.7841797"><ele>352.0</ele><time>2026-04-26T16:47:48.123Z</time></trkpt><trkpt lat="42.1975249" lon="12.7843598"><ele>352.0</ele><time>2026-04-26T16:47:49.103Z</time></trkpt><trkpt lat="42.1975851" lon="12.7845148"><ele>352.0</ele><time>2026-04-26T16:47:50.099Z</time></trkpt><trkpt lat="42.1976223" lon="12.7846632"><ele>352.0</ele><time>2026-04-26T16:47:51.1Z</time></trkpt><trkpt lat="42.1976304" lon="12.7848053"><ele>352.0</ele><time>2026-04-26T16:47:52.102Z</time></trkpt><trkpt lat="42.1976368" lon="12.7849798"><ele>352.0</ele><time>2026-04-26T16:47:53.098Z</time></trkpt><trkpt lat="42.1976174" lon="12.7851724"><ele>352.0</ele><time>2026-04-26T16:47:54.099Z</time></trkpt><trkpt lat="42.1975752" lon="12.7853483"><ele>351.8</ele><time>2026-04-26T16:47:55.096Z</time></trkpt><trkpt lat="42.1975282" lon="12.7854956"><ele>351.6</ele><time>2026-04-26T16:47:56.11Z</time></trkpt><trkpt lat="42.1975229" lon="12.7856816"><ele>351.40000000000003</ele><time>2026-04-26T16:47:57.097Z</time></trkpt><trkpt lat="42.1975067" lon="12.7858171"><ele>351.20000000000005</ele><time>2026-04-26T16:47:58.12Z</time></trkpt><trkpt lat="42.1974586" lon="12.7859054"><ele>351.0</ele><time>2026-04-26T16:47:59.1Z</time></trkpt><trkpt lat="42.1974315" lon="12.7859878"><ele>351.0</ele><time>2026-04-26T16:48:00.177Z</time></trkpt><trkpt lat="42.1973691" lon="12.786099"><ele>351.0</ele><time>2026-04-26T16:48:01.185Z</time></trkpt><trkpt lat="42.197294" lon="12.7861788"><ele>351.0</ele><time>2026-04-26T16:48:02.104Z</time></trkpt><trkpt lat="42.1972265" lon="12.786217"><ele>351.0</ele><time>2026-04-26T16:48:03.119Z</time></trkpt><trkpt lat="42.1971328" lon="12.7863126"><ele>351.0</ele><time>2026-04-26T16:48:05.121Z</time></trkpt><trkpt lat="42.1970906" lon="12.7864121"><ele>352.5</ele><time>2026-04-26T16:48:06.121Z</time></trkpt><trkpt lat="42.1970559" lon="12.7865362"><ele>354.0</ele><time>2026-04-26T16:48:07.092Z</time></trkpt><trkpt lat="42.1970153" lon="12.7867038"><ele>355.5</ele><time>2026-04-26T16:48:08.098Z</time></trkpt><trkpt lat="42.1969821" lon="12.7868772"><ele>357.0</ele><time>2026-04-26T16:48:09.089Z</time></trkpt><trkpt lat="42.1969411" lon="12.7870433"><ele>357.0</ele><time>2026-04-26T16:48:10.1Z</time></trkpt><trkpt lat="42.1968991" lon="12.7871894"><ele>357.0</ele><time>2026-04-26T16:48:11.096Z</time></trkpt><trkpt lat="42.1968425" lon="12.7873157"><ele>357.0</ele><time>2026-04-26T16:48:12.1Z</time></trkpt><trkpt lat="42.1967906" lon="12.7874325"><ele>357.0</ele><time>2026-04-26T16:48:13.101Z</time></trkpt><trkpt lat="42.1967386" lon="12.7875197"><ele>357.0</ele><time>2026-04-26T16:48:14.093Z</time></trkpt><trkpt lat="42.1966834" lon="12.7875997"><ele>357.0</ele><time>2026-04-26T16:48:15.111Z</time></trkpt><trkpt lat="42.1966214" lon="12.7876895"><ele>357.0</ele><time>2026-04-26T16:48:16.143Z</time></trkpt><trkpt lat="42.1965417" lon="12.7877936"><ele>357.0</ele><time>2026-04-26T16:48:17.12Z</time></trkpt><trkpt lat="42.1964549" lon="12.7878766"><ele>357.0</ele><time>2026-04-26T16:48:18.15Z</time></trkpt><trkpt lat="42.196342" lon="12.7879634"><ele>357.0</ele><time>2026-04-26T16:48:19.101Z</time></trkpt><trkpt lat="42.1962428" lon="12.7880332"><ele>358.40000000000003</ele><time>2026-04-26T16:48:20.092Z</time></trkpt><trkpt lat="42.1961493" lon="12.788124"><ele>359.8</ele><time>2026-04-26T16:48:21.099Z</time></trkpt><trkpt lat="42.1960665" lon="12.7882165"><ele>361.2</ele><time>2026-04-26T16:48:22.101Z</time></trkpt><trkpt lat="42.1959817" lon="12.7883052"><ele>362.6</ele><time>2026-04-26T16:48:23.125Z</time></trkpt><trkpt lat="42.195885" lon="12.7883886"><ele>364.0</ele><time>2026-04-26T16:48:24.105Z</time></trkpt><trkpt lat="42.1957861" lon="12.788475"><ele>363.25</ele><time>2026-04-26T16:48:25.103Z</time></trkpt><trkpt lat="42.1956967" lon="12.7885729"><ele>362.5</ele><time>2026-04-26T16:48:26.098Z</time></trkpt><trkpt lat="42.1956017" lon="12.7886778"><ele>361.75</ele><time>2026-04-26T16:48:27.099Z</time></trkpt><trkpt lat="42.1955213" lon="12.7888042"><ele>361.0</ele><time>2026-04-26T16:48:28.104Z</time></trkpt><trkpt lat="42.1954394" lon="12.7889453"><ele>362.0</ele><time>2026-04-26T16:48:29.098Z</time></trkpt><trkpt lat="42.195348" lon="12.7890802"><ele>363.0</ele><time>2026-04-26T16:48:30.13Z</time></trkpt><trkpt lat="42.1952533" lon="12.7892094"><ele>364.0</ele><time>2026-04-26T16:48:31.127Z</time></trkpt><trkpt lat="42.1951621" lon="12.789333"><ele>365.0</ele><time>2026-04-26T16:48:32.106Z</time></trkpt><trkpt lat="42.1950904" lon="12.7894448"><ele>365.0</ele><time>2026-04-26T16:48:33.106Z</time></trkpt><trkpt lat="42.1950035" lon="12.7895435"><ele>365.0</ele><time>2026-04-26T16:48:34.096Z</time></trkpt><trkpt lat="42.1949065" lon="12.7896272"><ele>365.0</ele><time>2026-04-26T16:48:35.109Z</time></trkpt><trkpt lat="42.1948189" lon="12.7897022"><ele>365.0</ele><time>2026-04-26T16:48:36.104Z</time></trkpt><trkpt lat="42.1947441" lon="12.7897855"><ele>365.0</ele><time>2026-04-26T16:48:37.098Z</time></trkpt><trkpt lat="42.1946795" lon="12.7898896"><ele>366.5</ele><time>2026-04-26T16:48:38.127Z</time></trkpt><trkpt lat="42.194615" lon="12.7900145"><ele>368.0</ele><time>2026-04-26T16:48:39.101Z</time></trkpt><trkpt lat="42.1945459" lon="12.7901567"><ele>369.5</ele><time>2026-04-26T16:48:40.098Z</time></trkpt><trkpt lat="42.1944798" lon="12.7903014"><ele>371.0</ele><time>2026-04-26T16:48:41.111Z</time></trkpt><trkpt lat="42.1944194" lon="12.7904522"><ele>372.20000000000005</ele><time>2026-04-26T16:48:42.102Z</time></trkpt><trkpt lat="42.1943633" lon="12.7905847"><ele>373.40000000000003</ele><time>2026-04-26T16:48:43.104Z</time></trkpt><trkpt lat="42.1943151" lon="12.7907136"><ele>374.6</ele><time>2026-04-26T16:48:44.108Z</time></trkpt><trkpt lat="42.1942915" lon="12.7908326"><ele>375.8</ele><time>2026-04-26T16:48:45.117Z</time></trkpt><trkpt lat="42.1942774" lon="12.7909297"><ele>377.0</ele><time>2026-04-26T16:48:46.137Z</time></trkpt><trkpt lat="42.1942593" lon="12.7910189"><ele>377.6</ele><time>2026-04-26T16:48:47.117Z</time></trkpt><trkpt lat="42.1942252" lon="12.791116"><ele>378.20000000000005</ele><time>2026-04-26T16:48:48.135Z</time></trkpt><trkpt lat="42.1942119" lon="12.7912165"><ele>378.8</ele><time>2026-04-26T16:48:49.1Z</time></trkpt><trkpt lat="42.1942213" lon="12.791343"><ele>379.4</ele><time>2026-04-26T16:48:50.1Z</time></trkpt><trkpt lat="42.1942523" lon="12.7914853"><ele>380.0</ele><time>2026-04-26T16:48:51.098Z</time></trkpt><trkpt lat="42.1942925" lon="12.7916329"><ele>380.0</ele><time>2026-04-26T16:48:52.107Z</time></trkpt><trkpt lat="42.1943436" lon="12.7917925"><ele>380.0</ele><time>2026-04-26T16:48:53.098Z</time></trkpt><trkpt lat="42.194385" lon="12.7919634"><ele>380.0</ele><time>2026-04-26T16:48:54.103Z</time></trkpt><trkpt lat="42.1944171" lon="12.7921378"><ele>380.0</ele><time>2026-04-26T16:48:55.125Z</time></trkpt><trkpt lat="42.1944439" lon="12.7922959"><ele>379.75</ele><time>2026-04-26T16:48:56.12Z</time></trkpt><trkpt lat="42.1944721" lon="12.7924546"><ele>379.5</ele><time>2026-04-26T16:48:57.268Z</time></trkpt><trkpt lat="42.1944889" lon="12.7926137"><ele>379.25</ele><time>2026-04-26T16:48:58.259Z</time></trkpt><trkpt lat="42.1945074" lon="12.7928003"><ele>379.0</ele><time>2026-04-26T16:48:59.261Z</time></trkpt><trkpt lat="42.1945419" lon="12.7932433"><ele>380.5</ele><time>2026-04-26T16:49:01.104Z</time></trkpt><trkpt lat="42.1945777" lon="12.7934337"><ele>382.0</ele><time>2026-04-26T16:49:02.127Z</time></trkpt><trkpt lat="42.1945801" lon="12.7936119"><ele>383.5</ele><time>2026-04-26T16:49:03.094Z</time></trkpt><trkpt lat="42.1945855" lon="12.7937836"><ele>385.0</ele><time>2026-04-26T16:49:04.099Z</time></trkpt><trkpt lat="42.1945738" lon="12.7939448"><ele>386.75</ele><time>2026-04-26T16:49:05.105Z</time></trkpt><trkpt lat="42.1945943" lon="12.7940957"><ele>388.5</ele><time>2026-04-26T16:49:06.098Z</time></trkpt><trkpt lat="42.1946212" lon="12.7942533"><ele>390.25</ele><time>2026-04-26T16:49:07.111Z</time></trkpt><trkpt lat="42.1946544" lon="12.7944123"><ele>392.0</ele><time>2026-04-26T16:49:08.101Z</time></trkpt><trkpt lat="42.1946948" lon="12.7945442"><ele>393.20000000000005</ele><time>2026-04-26T16:49:09.095Z</time></trkpt><trkpt lat="42.1947224" lon="12.7946665"><ele>394.4</ele><time>2026-04-26T16:49:10.014Z</time></trkpt><trkpt lat="42.194744" lon="12.7947669"><ele>395.6</ele><time>2026-04-26T16:49:10.922Z</time></trkpt><trkpt lat="42.1947768" lon="12.7948574"><ele>396.79999999999995</ele><time>2026-04-26T16:49:11.831Z</time></trkpt><trkpt lat="42.1948272" lon="12.7950611"><ele>398.0</ele><time>2026-04-26T16:49:13.616Z</time></trkpt><trkpt lat="42.1948589" lon="12.7952742"><ele>399.2</ele><time>2026-04-26T16:49:15.445Z</time></trkpt><trkpt lat="42.194822" lon="12.7954161"><ele>400.4</ele><time>2026-04-26T16:49:17.423Z</time></trkpt><trkpt lat="42.1947532" lon="12.7954654"><ele>401.59999999999997</ele><time>2026-04-26T16:49:19.445Z</time></trkpt><trkpt lat="42.1946767" lon="12.7954599"><ele>402.79999999999995</ele><time>2026-04-26T16:49:21.423Z</time></trkpt><trkpt lat="42.1946112" lon="12.7953821"><ele>404.0</ele><time>2026-04-26T16:49:23.425Z</time></trkpt><trkpt lat="42.194626" lon="12.795538"><ele>404.0</ele><time>2026-04-26T16:49:31.415Z</time></trkpt><trkpt lat="42.1946477" lon="12.7956531"><ele>404.0</ele><time>2026-04-26T16:49:32.459Z</time></trkpt><trkpt lat="42.1946405" lon="12.7957639"><ele>404.0</ele><time>2026-04-26T16:49:33.438Z</time></trkpt><trkpt lat="42.1946003" lon="12.7958658"><ele>404.0</ele><time>2026-04-26T16:49:34.433Z</time></trkpt><trkpt lat="42.1945481" lon="12.7959426"><ele>404.0</ele><time>2026-04-26T16:49:35.413Z</time></trkpt><trkpt lat="42.194431" lon="12.7959388"><ele>404.0</ele><time>2026-04-26T16:49:37.441Z</time></trkpt><trkpt lat="42.1943702" lon="12.7958834"><ele>404.0</ele><time>2026-04-26T16:49:38.431Z</time></trkpt><trkpt lat="42.1943034" lon="12.7957681"><ele>404.0</ele><time>2026-04-26T16:49:39.457Z</time></trkpt><trkpt lat="42.1942101" lon="12.7956119"><ele>404.0</ele><time>2026-04-26T16:49:40.41Z</time></trkpt><trkpt lat="42.1941122" lon="12.7954446"><ele>404.0</ele><time>2026-04-26T16:49:41.442Z</time></trkpt><trkpt lat="42.1939401" lon="12.7952"><ele>404.0</ele><time>2026-04-26T16:49:42.414Z</time></trkpt><trkpt lat="42.1937148" lon="12.7949331"><ele>401.0</ele><time>2026-04-26T16:49:43.413Z</time></trkpt><trkpt lat="42.1935225" lon="12.794765"><ele>398.0</ele><time>2026-04-26T16:49:44.415Z</time></trkpt><trkpt lat="42.1933089" lon="12.7945768"><ele>398.66666666666663</ele><time>2026-04-26T16:49:45.413Z</time></trkpt><trkpt lat="42.1931135" lon="12.794446"><ele>399.33333333333337</ele><time>2026-04-26T16:49:46.419Z</time></trkpt><trkpt lat="42.1929167" lon="12.794335"><ele>400.0</ele><time>2026-04-26T16:49:47.441Z</time></trkpt><trkpt lat="42.1927033" lon="12.7942521"><ele>400.0</ele><time>2026-04-26T16:49:48.413Z</time></trkpt><trkpt lat="42.1925043" lon="12.7941523"><ele>400.0</ele><time>2026-04-26T16:49:49.502Z</time></trkpt><trkpt lat="42.1922743" lon="12.7941264"><ele>400.0</ele><time>2026-04-26T16:49:50.432Z</time></trkpt><trkpt lat="42.1920031" lon="12.7940329"><ele>401.5</ele><time>2026-04-26T16:49:51.438Z</time></trkpt><trkpt lat="42.1917565" lon="12.7939504"><ele>403.0</ele><time>2026-04-26T16:49:52.414Z</time></trkpt><trkpt lat="42.1914939" lon="12.7938993"><ele>404.5</ele><time>2026-04-26T16:49:53.414Z</time></trkpt><trkpt lat="42.1912258" lon="12.7938217"><ele>406.0</ele><time>2026-04-26T16:49:54.411Z</time></trkpt><trkpt lat="42.1909656" lon="12.7937949"><ele>406.0</ele><time>2026-04-26T16:49:55.448Z</time></trkpt><trkpt lat="42.1907209" lon="12.7937311"><ele>406.0</ele><time>2026-04-26T16:49:56.424Z</time></trkpt><trkpt lat="42.1905004" lon="12.7936935"><ele>403.33333333333337</ele><time>2026-04-26T16:49:57.427Z</time></trkpt><trkpt lat="42.1902947" lon="12.7936209"><ele>400.66666666666663</ele><time>2026-04-26T16:49:58.441Z</time></trkpt><trkpt lat="42.1900762" lon="12.7935841"><ele>398.0</ele><time>2026-04-26T16:49:59.427Z</time></trkpt><trkpt lat="42.1898709" lon="12.7935008"><ele>400.66666666666663</ele><time>2026-04-26T16:50:00.427Z</time></trkpt><trkpt lat="42.1896883" lon="12.793413"><ele>403.33333333333337</ele><time>2026-04-26T16:50:01.446Z</time></trkpt><trkpt lat="42.1895103" lon="12.7932977"><ele>406.0</ele><time>2026-04-26T16:50:02.421Z</time></trkpt><trkpt lat="42.1892731" lon="12.7931836"><ele>406.0</ele><time>2026-04-26T16:50:03.417Z</time></trkpt><trkpt lat="42.1890502" lon="12.7931067"><ele>406.0</ele><time>2026-04-26T16:50:04.423Z</time></trkpt><trkpt lat="42.1888284" lon="12.7930351"><ele>405.0</ele><time>2026-04-26T16:50:05.44Z</time></trkpt><trkpt lat="42.1886089" lon="12.7929974"><ele>404.0</ele><time>2026-04-26T16:50:06.422Z</time></trkpt><trkpt lat="42.1883891" lon="12.792964"><ele>403.0</ele><time>2026-04-26T16:50:07.417Z</time></trkpt><trkpt lat="42.1881863" lon="12.7928899"><ele>402.33333333333337</ele><time>2026-04-26T16:50:08.417Z</time></trkpt><trkpt lat="42.1880051" lon="12.7928182"><ele>401.66666666666663</ele><time>2026-04-26T16:50:09.45Z</time></trkpt><trkpt lat="42.1878579" lon="12.7927462"><ele>401.0</ele><time>2026-04-26T16:50:10.468Z</time></trkpt><trkpt lat="42.1876911" lon="12.7926199"><ele>397.5</ele><time>2026-04-26T16:50:11.433Z</time></trkpt><trkpt lat="42.1874705" lon="12.7924736"><ele>394.0</ele><time>2026-04-26T16:50:12.415Z</time></trkpt><trkpt lat="42.1872814" lon="12.7923166"><ele>394.0</ele><time>2026-04-26T16:50:13.41Z</time></trkpt><trkpt lat="42.1870407" lon="12.792153"><ele>394.0</ele><time>2026-04-26T16:50:14.407Z</time></trkpt><trkpt lat="42.1868062" lon="12.7919861"><ele>394.5</ele><time>2026-04-26T16:50:15.411Z</time></trkpt><trkpt lat="42.1865596" lon="12.7918182"><ele>395.0</ele><time>2026-04-26T16:50:16.413Z</time></trkpt><trkpt lat="42.1862911" lon="12.7916653"><ele>395.0</ele><time>2026-04-26T16:50:17.412Z</time></trkpt><trkpt lat="42.1860257" lon="12.7914844"><ele>395.0</ele><time>2026-04-26T16:50:18.42Z</time></trkpt><trkpt lat="42.1857901" lon="12.7913265"><ele>389.5</ele><time>2026-04-26T16:50:19.409Z</time></trkpt><trkpt lat="42.1855905" lon="12.7911808"><ele>384.0</ele><time>2026-04-26T16:50:20.408Z</time></trkpt><trkpt lat="42.1853766" lon="12.7910093"><ele>390.0</ele><time>2026-04-26T16:50:21.412Z</time></trkpt><trkpt lat="42.1852129" lon="12.7908108"><ele>396.0</ele><time>2026-04-26T16:50:22.414Z</time></trkpt><trkpt lat="42.1850472" lon="12.7906681"><ele>402.0</ele><time>2026-04-26T16:50:23.417Z</time></trkpt><trkpt lat="42.1848857" lon="12.7904839"><ele>395.5</ele><time>2026-04-26T16:50:24.44Z</time></trkpt><trkpt lat="42.1847196" lon="12.7902794"><ele>389.0</ele><time>2026-04-26T16:50:25.466Z</time></trkpt><trkpt lat="42.1845767" lon="12.7900221"><ele>389.0</ele><time>2026-04-26T16:50:26.43Z</time></trkpt><trkpt lat="42.1844206" lon="12.7897642"><ele>389.0</ele><time>2026-04-26T16:50:27.416Z</time></trkpt><trkpt lat="42.184286" lon="12.7895099"><ele>391.0</ele><time>2026-04-26T16:50:28.436Z</time></trkpt><trkpt lat="42.18416" lon="12.7892627"><ele>393.0</ele><time>2026-04-26T16:50:29.433Z</time></trkpt><trkpt lat="42.1840318" lon="12.7890341"><ele>395.0</ele><time>2026-04-26T16:50:30.439Z</time></trkpt><trkpt lat="42.1838503" lon="12.7887976"><ele>392.0</ele><time>2026-04-26T16:50:31.437Z</time></trkpt><trkpt lat="42.1836737" lon="12.7885438"><ele>389.0</ele><time>2026-04-26T16:50:32.411Z</time></trkpt><trkpt lat="42.1834936" lon="12.7882864"><ele>389.0</ele><time>2026-04-26T16:50:33.417Z</time></trkpt><trkpt lat="42.1832856" lon="12.788088"><ele>389.0</ele><time>2026-04-26T16:50:34.419Z</time></trkpt><trkpt lat="42.1830693" lon="12.7879206"><ele>389.0</ele><time>2026-04-26T16:50:35.413Z</time></trkpt><trkpt lat="42.1828492" lon="12.7877676"><ele>389.0</ele><time>2026-04-26T16:50:36.438Z</time></trkpt><trkpt lat="42.1826096" lon="12.7876169"><ele>383.0</ele><time>2026-04-26T16:50:37.415Z</time></trkpt><trkpt lat="42.1823454" lon="12.7874433"><ele>377.0</ele><time>2026-04-26T16:50:38.409Z</time></trkpt><trkpt lat="42.1820712" lon="12.7872374"><ele>377.0</ele><time>2026-04-26T16:50:39.414Z</time></trkpt><trkpt lat="42.1818198" lon="12.787046"><ele>377.0</ele><time>2026-04-26T16:50:40.411Z</time></trkpt><trkpt lat="42.1815895" lon="12.786865"><ele>375.0</ele><time>2026-04-26T16:50:41.418Z</time></trkpt><trkpt lat="42.181388" lon="12.7866485"><ele>373.0</ele><time>2026-04-26T16:50:42.41Z</time></trkpt><trkpt lat="42.1811932" lon="12.786487"><ele>373.0</ele><time>2026-04-26T16:50:43.357Z</time></trkpt><trkpt lat="42.1809491" lon="12.786303"><ele>373.0</ele><time>2026-04-26T16:50:44.336Z</time></trkpt><trkpt lat="42.1807169" lon="12.7860694"><ele>369.0</ele><time>2026-04-26T16:50:45.358Z</time></trkpt><trkpt lat="42.1805009" lon="12.7857816"><ele>365.0</ele><time>2026-04-26T16:50:46.313Z</time></trkpt><trkpt lat="42.1802653" lon="12.7855259"><ele>365.0</ele><time>2026-04-26T16:50:47.316Z</time></trkpt><trkpt lat="42.1800306" lon="12.7852262"><ele>365.0</ele><time>2026-04-26T16:50:48.305Z</time></trkpt><trkpt lat="42.1798003" lon="12.7848874"><ele>361.5</ele><time>2026-04-26T16:50:49.321Z</time></trkpt><trkpt lat="42.1796327" lon="12.7846118"><ele>358.0</ele><time>2026-04-26T16:50:50.313Z</time></trkpt><trkpt lat="42.1794772" lon="12.7843664"><ele>364.0</ele><time>2026-04-26T16:50:51.309Z</time></trkpt><trkpt lat="42.1792887" lon="12.784116"><ele>370.0</ele><time>2026-04-26T16:50:52.308Z</time></trkpt><trkpt lat="42.1791577" lon="12.7838894"><ele>364.5</ele><time>2026-04-26T16:50:53.31Z</time></trkpt><trkpt lat="42.1790136" lon="12.7836623"><ele>359.0</ele><time>2026-04-26T16:50:54.309Z</time></trkpt><trkpt lat="42.1788775" lon="12.7833933"><ele>359.0</ele><time>2026-04-26T16:50:55.333Z</time></trkpt><trkpt lat="42.1787503" lon="12.7831767"><ele>359.0</ele><time>2026-04-26T16:50:56.316Z</time></trkpt><trkpt lat="42.1786122" lon="12.7829562"><ele>359.0</ele><time>2026-04-26T16:50:57.313Z</time></trkpt><trkpt lat="42.1784995" lon="12.7827509"><ele>361.6666666666667</ele><time>2026-04-26T16:50:58.315Z</time></trkpt><trkpt lat="42.1784055" lon="12.7825002"><ele>364.3333333333333</ele><time>2026-04-26T16:50:59.319Z</time></trkpt><trkpt lat="42.1783193" lon="12.7822475"><ele>367.0</ele><time>2026-04-26T16:51:00.31Z</time></trkpt><trkpt lat="42.1782737" lon="12.7819897"><ele>368.66666666666663</ele><time>2026-04-26T16:51:01.309Z</time></trkpt><trkpt lat="42.1782368" lon="12.7817012"><ele>370.3333333333333</ele><time>2026-04-26T16:51:02.336Z</time></trkpt><trkpt lat="42.1782186" lon="12.7813925"><ele>372.0</ele><time>2026-04-26T16:51:03.334Z</time></trkpt><trkpt lat="42.1782278" lon="12.7810592"><ele>371.5</ele><time>2026-04-26T16:51:04.34Z</time></trkpt><trkpt lat="42.1782567" lon="12.7807495"><ele>371.0</ele><time>2026-04-26T16:51:05.332Z</time></trkpt><trkpt lat="42.1783279" lon="12.7804559"><ele>365.0</ele><time>2026-04-26T16:51:06.317Z</time></trkpt><trkpt lat="42.1784068" lon="12.7801491"><ele>359.0</ele><time>2026-04-26T16:51:07.31Z</time></trkpt><trkpt lat="42.1785111" lon="12.7798444"><ele>359.0</ele><time>2026-04-26T16:51:08.312Z</time></trkpt><trkpt lat="42.1786481" lon="12.7795442"><ele>359.0</ele><time>2026-04-26T16:51:09.326Z</time></trkpt><trkpt lat="42.1787936" lon="12.7792246"><ele>353.0</ele><time>2026-04-26T16:51:10.308Z</time></trkpt><trkpt lat="42.1789254" lon="12.7789019"><ele>347.0</ele><time>2026-04-26T16:51:11.334Z</time></trkpt><trkpt lat="42.1790616" lon="12.7785624"><ele>358.0</ele><time>2026-04-26T16:51:12.334Z</time></trkpt><trkpt lat="42.1791554" lon="12.7782566"><ele>369.0</ele><time>2026-04-26T16:51:13.336Z</time></trkpt><trkpt lat="42.1792454" lon="12.7779914"><ele>369.0</ele><time>2026-04-26T16:51:14.311Z</time></trkpt><trkpt lat="42.1793281" lon="12.7777263"><ele>369.0</ele><time>2026-04-26T16:51:15.314Z</time></trkpt><trkpt lat="42.1794029" lon="12.7774478"><ele>369.0</ele><time>2026-04-26T16:51:16.336Z</time></trkpt><trkpt lat="42.1794641" lon="12.777175"><ele>365.0</ele><time>2026-04-26T16:51:17.303Z</time></trkpt><trkpt lat="42.1795021" lon="12.7768993"><ele>361.0</ele><time>2026-04-26T16:51:18.33Z</time></trkpt><trkpt lat="42.1795246" lon="12.7765834"><ele>357.0</ele><time>2026-04-26T16:51:19.305Z</time></trkpt><trkpt lat="42.1795182" lon="12.776254"><ele>347.5</ele><time>2026-04-26T16:51:20.34Z</time></trkpt><trkpt lat="42.1795012" lon="12.775938"><ele>338.0</ele><time>2026-04-26T16:51:21.326Z</time></trkpt><trkpt lat="42.1795062" lon="12.77563"><ele>338.0</ele><time>2026-04-26T16:51:22.316Z</time></trkpt><trkpt lat="42.1794569" lon="12.7753234"><ele>338.0</ele><time>2026-04-26T16:51:23.314Z</time></trkpt><trkpt lat="42.1793589" lon="12.7749752"><ele>335.5</ele><time>2026-04-26T16:51:24.31Z</time></trkpt><trkpt lat="42.1792124" lon="12.7746586"><ele>333.0</ele><time>2026-04-26T16:51:25.313Z</time></trkpt><trkpt lat="42.1790243" lon="12.7744159"><ele>336.0</ele><time>2026-04-26T16:51:26.313Z</time></trkpt><trkpt lat="42.1789381" lon="12.7741375"><ele>339.0</ele><time>2026-04-26T16:51:27.319Z</time></trkpt><trkpt lat="42.1788064" lon="12.7736598"><ele>345.5</ele><time>2026-04-26T16:51:29.113Z</time></trkpt><trkpt lat="42.178751" lon="12.7734051"><ele>352.0</ele><time>2026-04-26T16:51:30.013Z</time></trkpt><trkpt lat="42.178551" lon="12.7728494"><ele>355.0</ele><time>2026-04-26T16:51:31.81Z</time></trkpt><trkpt lat="42.1784415" lon="12.7725563"><ele>358.0</ele><time>2026-04-26T16:51:32.716Z</time></trkpt><trkpt lat="42.1783528" lon="12.7722474"><ele>358.0</ele><time>2026-04-26T16:51:33.701Z</time></trkpt><trkpt lat="42.1782726" lon="12.7719391"><ele>358.0</ele><time>2026-04-26T16:51:34.71Z</time></trkpt><trkpt lat="42.1781889" lon="12.7716367"><ele>348.0</ele><time>2026-04-26T16:51:35.707Z</time></trkpt><trkpt lat="42.1781175" lon="12.7713297"><ele>338.0</ele><time>2026-04-26T16:51:36.743Z</time></trkpt><trkpt lat="42.1780202" lon="12.7709637"><ele>335.5</ele><time>2026-04-26T16:51:37.725Z</time></trkpt><trkpt lat="42.1779234" lon="12.7706174"><ele>333.0</ele><time>2026-04-26T16:51:38.752Z</time></trkpt><trkpt lat="42.1778252" lon="12.7702871"><ele>335.0</ele><time>2026-04-26T16:51:39.706Z</time></trkpt><trkpt lat="42.1777385" lon="12.7699945"><ele>337.0</ele><time>2026-04-26T16:51:40.707Z</time></trkpt><trkpt lat="42.1776536" lon="12.7696898"><ele>337.0</ele><time>2026-04-26T16:51:41.708Z</time></trkpt><trkpt lat="42.1775661" lon="12.769382"><ele>337.0</ele><time>2026-04-26T16:51:42.714Z</time></trkpt><trkpt lat="42.1774833" lon="12.7690779"><ele>341.5</ele><time>2026-04-26T16:51:43.708Z</time></trkpt><trkpt lat="42.1773987" lon="12.7687654"><ele>346.0</ele><time>2026-04-26T16:51:44.715Z</time></trkpt><trkpt lat="42.1772889" lon="12.7684389"><ele>332.5</ele><time>2026-04-26T16:51:45.705Z</time></trkpt><trkpt lat="42.1772062" lon="12.7681259"><ele>319.0</ele><time>2026-04-26T16:51:46.713Z</time></trkpt><trkpt lat="42.1771069" lon="12.767837"><ele>322.5</ele><time>2026-04-26T16:51:47.705Z</time></trkpt><trkpt lat="42.1770412" lon="12.7675469"><ele>326.0</ele><time>2026-04-26T16:51:48.717Z</time></trkpt><trkpt lat="42.1769737" lon="12.7672412"><ele>326.0</ele><time>2026-04-26T16:51:49.707Z</time></trkpt><trkpt lat="42.1769079" lon="12.7669419"><ele>326.0</ele><time>2026-04-26T16:51:50.732Z</time></trkpt><trkpt lat="42.176836" lon="12.7666369"><ele>329.0</ele><time>2026-04-26T16:51:51.705Z</time></trkpt><trkpt lat="42.1767514" lon="12.7663267"><ele>332.0</ele><time>2026-04-26T16:51:52.717Z</time></trkpt><trkpt lat="42.1766845" lon="12.7660283"><ele>332.5</ele><time>2026-04-26T16:51:53.872Z</time></trkpt><trkpt lat="42.1765495" lon="12.7654981"><ele>333.0</ele><time>2026-04-26T16:51:55.706Z</time></trkpt><trkpt lat="42.1764589" lon="12.7651694"><ele>318.0</ele><time>2026-04-26T16:51:56.706Z</time></trkpt><trkpt lat="42.1763792" lon="12.7647992"><ele>303.0</ele><time>2026-04-26T16:51:57.708Z</time></trkpt><trkpt lat="42.1763157" lon="12.7644947"><ele>301.6666666666667</ele><time>2026-04-26T16:51:58.713Z</time></trkpt><trkpt lat="42.1762503" lon="12.7642058"><ele>300.33333333333337</ele><time>2026-04-26T16:51:59.71Z</time></trkpt><trkpt lat="42.1761992" lon="12.7639152"><ele>299.0</ele><time>2026-04-26T16:52:00.701Z</time></trkpt><trkpt lat="42.1761487" lon="12.7636248"><ele>300.0</ele><time>2026-04-26T16:52:01.713Z</time></trkpt><trkpt lat="42.1761031" lon="12.7633422"><ele>301.0</ele><time>2026-04-26T16:52:02.705Z</time></trkpt><trkpt lat="42.1760396" lon="12.7630628"><ele>302.0</ele><time>2026-04-26T16:52:03.713Z</time></trkpt><trkpt lat="42.1759819" lon="12.7627711"><ele>306.0</ele><time>2026-04-26T16:52:04.73Z</time></trkpt><trkpt lat="42.1759423" lon="12.7624595"><ele>310.0</ele><time>2026-04-26T16:52:05.712Z</time></trkpt><trkpt lat="42.1759166" lon="12.7621508"><ele>311.5</ele><time>2026-04-26T16:52:06.712Z</time></trkpt><trkpt lat="42.1759187" lon="12.7618298"><ele>313.0</ele><time>2026-04-26T16:52:07.711Z</time></trkpt><trkpt lat="42.1759328" lon="12.761493"><ele>313.0</ele><time>2026-04-26T16:52:08.702Z</time></trkpt><trkpt lat="42.1759416" lon="12.7611718"><ele>313.0</ele><time>2026-04-26T16:52:09.707Z</time></trkpt><trkpt lat="42.175971" lon="12.7608705"><ele>311.66666666666663</ele><time>2026-04-26T16:52:10.711Z</time></trkpt><trkpt lat="42.1760436" lon="12.7605937"><ele>310.3333333333333</ele><time>2026-04-26T16:52:11.709Z</time></trkpt><trkpt lat="42.1761812" lon="12.7603432"><ele>309.0</ele><time>2026-04-26T16:52:12.71Z</time></trkpt><trkpt lat="42.1763189" lon="12.7601021"><ele>308.5</ele><time>2026-04-26T16:52:13.718Z</time></trkpt><trkpt lat="42.1764799" lon="12.7598602"><ele>308.0</ele><time>2026-04-26T16:52:14.712Z</time></trkpt><trkpt lat="42.1766494" lon="12.7596011"><ele>300.5</ele><time>2026-04-26T16:52:15.707Z</time></trkpt><trkpt lat="42.1768477" lon="12.7593514"><ele>293.0</ele><time>2026-04-26T16:52:16.71Z</time></trkpt><trkpt lat="42.1770491" lon="12.7591385"><ele>293.0</ele><time>2026-04-26T16:52:17.717Z</time></trkpt><trkpt lat="42.1772593" lon="12.7589261"><ele>293.0</ele><time>2026-04-26T16:52:18.734Z</time></trkpt><trkpt lat="42.1776762" lon="12.7584755"><ele>291.5</ele><time>2026-04-26T16:52:20.515Z</time></trkpt><trkpt lat="42.1778698" lon="12.7582382"><ele>290.0</ele><time>2026-04-26T16:52:21.527Z</time></trkpt><trkpt lat="42.178235" lon="12.7577586"><ele>290.5</ele><time>2026-04-26T16:52:23.417Z</time></trkpt><trkpt lat="42.178441" lon="12.7574997"><ele>291.0</ele><time>2026-04-26T16:52:24.422Z</time></trkpt><trkpt lat="42.1786539" lon="12.757227"><ele>291.0</ele><time>2026-04-26T16:52:25.415Z</time></trkpt><trkpt lat="42.1788769" lon="12.756964"><ele>291.0</ele><time>2026-04-26T16:52:26.43Z</time></trkpt><trkpt lat="42.1790505" lon="12.7567"><ele>291.0</ele><time>2026-04-26T16:52:27.419Z</time></trkpt><trkpt lat="42.1791924" lon="12.7564026"><ele>291.0</ele><time>2026-04-26T16:52:28.415Z</time></trkpt><trkpt lat="42.1793153" lon="12.7560792"><ele>283.0</ele><time>2026-04-26T16:52:29.418Z</time></trkpt><trkpt lat="42.1794216" lon="12.7557542"><ele>275.0</ele><time>2026-04-26T16:52:30.502Z</time></trkpt><trkpt lat="42.1795155" lon="12.7554216"><ele>271.0</ele><time>2026-04-26T16:52:31.433Z</time></trkpt><trkpt lat="42.1796041" lon="12.7550686"><ele>267.0</ele><time>2026-04-26T16:52:32.421Z</time></trkpt><trkpt lat="42.1796885" lon="12.7547274"><ele>267.0</ele><time>2026-04-26T16:52:33.418Z</time></trkpt><trkpt lat="42.1797686" lon="12.7543841"><ele>267.0</ele><time>2026-04-26T16:52:34.425Z</time></trkpt><trkpt lat="42.1798484" lon="12.7540894"><ele>269.5</ele><time>2026-04-26T16:52:35.422Z</time></trkpt><trkpt lat="42.1799054" lon="12.7537909"><ele>272.0</ele><time>2026-04-26T16:52:36.423Z</time></trkpt><trkpt lat="42.1799809" lon="12.7534968"><ele>272.0</ele><time>2026-04-26T16:52:37.428Z</time></trkpt><trkpt lat="42.180051" lon="12.7532106"><ele>272.0</ele><time>2026-04-26T16:52:38.42Z</time></trkpt><trkpt lat="42.1801251" lon="12.7529281"><ele>272.0</ele><time>2026-04-26T16:52:39.425Z</time></trkpt><trkpt lat="42.1802032" lon="12.7526352"><ele>268.33333333333337</ele><time>2026-04-26T16:52:40.43Z</time></trkpt><trkpt lat="42.1802808" lon="12.7523504"><ele>264.6666666666667</ele><time>2026-04-26T16:52:41.429Z</time></trkpt><trkpt lat="42.1803534" lon="12.7520774"><ele>261.0</ele><time>2026-04-26T16:52:42.423Z</time></trkpt><trkpt lat="42.1804191" lon="12.7518094"><ele>260.0</ele><time>2026-04-26T16:52:43.434Z</time></trkpt><trkpt lat="42.180493" lon="12.7515197"><ele>259.0</ele><time>2026-04-26T16:52:44.429Z</time></trkpt><trkpt lat="42.1805789" lon="12.7512533"><ele>258.0</ele><time>2026-04-26T16:52:45.424Z</time></trkpt><trkpt lat="42.180658" lon="12.7509659"><ele>259.0</ele><time>2026-04-26T16:52:46.433Z</time></trkpt><trkpt lat="42.1807372" lon="12.7506891"><ele>260.0</ele><time>2026-04-26T16:52:47.42Z</time></trkpt><trkpt lat="42.1808038" lon="12.7504153"><ele>261.0</ele><time>2026-04-26T16:52:48.514Z</time></trkpt><trkpt lat="42.1808615" lon="12.7501455"><ele>261.0</ele><time>2026-04-26T16:52:49.443Z</time></trkpt><trkpt lat="42.1809378" lon="12.7498697"><ele>261.0</ele><time>2026-04-26T16:52:50.447Z</time></trkpt><trkpt lat="42.181011" lon="12.7496004"><ele>261.0</ele><time>2026-04-26T16:52:51.45Z</time></trkpt><trkpt lat="42.1810855" lon="12.7493349"><ele>256.3333333333333</ele><time>2026-04-26T16:52:52.463Z</time></trkpt><trkpt lat="42.1811563" lon="12.7490758"><ele>251.66666666666666</ele><time>2026-04-26T16:52:53.422Z</time></trkpt><trkpt lat="42.1812181" lon="12.7487866"><ele>247.0</ele><time>2026-04-26T16:52:54.427Z</time></trkpt><trkpt lat="42.1812774" lon="12.748491"><ele>244.5</ele><time>2026-04-26T16:52:55.437Z</time></trkpt><trkpt lat="42.1812793" lon="12.7481533"><ele>242.0</ele><time>2026-04-26T16:52:56.443Z</time></trkpt><trkpt lat="42.1812895" lon="12.7478538"><ele>240.33333333333334</ele><time>2026-04-26T16:52:57.424Z</time></trkpt><trkpt lat="42.1812698" lon="12.7475659"><ele>238.66666666666669</ele><time>2026-04-26T16:52:58.427Z</time></trkpt><trkpt lat="42.1812371" lon="12.747302"><ele>237.0</ele><time>2026-04-26T16:52:59.425Z</time></trkpt><trkpt lat="42.1811837" lon="12.7470363"><ele>237.66666666666669</ele><time>2026-04-26T16:53:00.435Z</time></trkpt><trkpt lat="42.1811298" lon="12.7467781"><ele>238.33333333333334</ele><time>2026-04-26T16:53:01.419Z</time></trkpt><trkpt lat="42.1810703" lon="12.7465089"><ele>239.0</ele><time>2026-04-26T16:53:02.429Z</time></trkpt><trkpt lat="42.1809771" lon="12.7462663"><ele>240.66666666666669</ele><time>2026-04-26T16:53:03.41Z</time></trkpt><trkpt lat="42.1808613" lon="12.7460124"><ele>242.33333333333331</ele><time>2026-04-26T16:53:04.414Z</time></trkpt><trkpt lat="42.1807563" lon="12.7457655"><ele>244.0</ele><time>2026-04-26T16:53:05.419Z</time></trkpt><trkpt lat="42.1806366" lon="12.745561"><ele>242.0</ele><time>2026-04-26T16:53:06.423Z</time></trkpt><trkpt lat="42.180491" lon="12.7453743"><ele>240.0</ele><time>2026-04-26T16:53:07.418Z</time></trkpt><trkpt lat="42.1803431" lon="12.745185"><ele>238.0</ele><time>2026-04-26T16:53:08.428Z</time></trkpt><trkpt lat="42.180193" lon="12.7450082"><ele>238.0</ele><time>2026-04-26T16:53:09.428Z</time></trkpt><trkpt lat="42.1800435" lon="12.7448442"><ele>238.0</ele><time>2026-04-26T16:53:10.422Z</time></trkpt><trkpt lat="42.1798304" lon="12.7446577"><ele>238.0</ele><time>2026-04-26T16:53:11.413Z</time></trkpt><trkpt lat="42.1795832" lon="12.7444619"><ele>234.5</ele><time>2026-04-26T16:53:12.416Z</time></trkpt><trkpt lat="42.1793612" lon="12.7442238"><ele>231.0</ele><time>2026-04-26T16:53:13.414Z</time></trkpt><trkpt lat="42.1791817" lon="12.7440197"><ele>228.0</ele><time>2026-04-26T16:53:14.416Z</time></trkpt><trkpt lat="42.1789875" lon="12.7438082"><ele>225.0</ele><time>2026-04-26T16:53:15.425Z</time></trkpt><trkpt lat="42.1788283" lon="12.7436174"><ele>225.0</ele><time>2026-04-26T16:53:16.418Z</time></trkpt><trkpt lat="42.1786718" lon="12.7434396"><ele>225.0</ele><time>2026-04-26T16:53:17.416Z</time></trkpt><trkpt lat="42.1785252" lon="12.7433228"><ele>225.0</ele><time>2026-04-26T16:53:18.415Z</time></trkpt><trkpt lat="42.1784015" lon="12.7432622"><ele>225.0</ele><time>2026-04-26T16:53:19.418Z</time></trkpt><trkpt lat="42.1782942" lon="12.743191"><ele>225.0</ele><time>2026-04-26T16:53:20.416Z</time></trkpt><trkpt lat="42.1782382" lon="12.7431373"><ele>225.0</ele><time>2026-04-26T16:53:21.417Z</time></trkpt><trkpt lat="42.178158" lon="12.7430955"><ele>225.0</ele><time>2026-04-26T16:53:23.428Z</time></trkpt><trkpt lat="42.1782382" lon="12.74335"><ele>225.0</ele><time>2026-04-26T16:53:30.417Z</time></trkpt><trkpt lat="42.1782147" lon="12.7434454"><ele>225.0</ele><time>2026-04-26T16:53:31.419Z</time></trkpt><trkpt lat="42.1781885" lon="12.7435424"><ele>225.0</ele><time>2026-04-26T16:53:32.418Z</time></trkpt><trkpt lat="42.1781633" lon="12.7436385"><ele>225.0</ele><time>2026-04-26T16:53:33.415Z</time></trkpt><trkpt lat="42.1780933" lon="12.7437627"><ele>225.0</ele><time>2026-04-26T16:53:34.421Z</time></trkpt><trkpt lat="42.1780143" lon="12.7438536"><ele>225.0</ele><time>2026-04-26T16:53:35.413Z</time></trkpt><trkpt lat="42.1779386" lon="12.7438968"><ele>222.6</ele><time>2026-04-26T16:53:36.416Z</time></trkpt><trkpt lat="42.1778333" lon="12.7438919"><ele>220.2</ele><time>2026-04-26T16:53:37.436Z</time></trkpt><trkpt lat="42.1777235" lon="12.7438511"><ele>217.8</ele><time>2026-04-26T16:53:38.416Z</time></trkpt><trkpt lat="42.1776193" lon="12.7438119"><ele>215.4</ele><time>2026-04-26T16:53:39.414Z</time></trkpt><trkpt lat="42.1775089" lon="12.7437716"><ele>213.0</ele><time>2026-04-26T16:53:40.415Z</time></trkpt><trkpt lat="42.1774002" lon="12.7437254"><ele>213.0</ele><time>2026-04-26T16:53:41.414Z</time></trkpt><trkpt lat="42.17731" lon="12.7436663"><ele>213.0</ele><time>2026-04-26T16:53:42.577Z</time></trkpt><trkpt lat="42.1771391" lon="12.7435198"><ele>213.0</ele><time>2026-04-26T16:53:44.46Z</time></trkpt><trkpt lat="42.1770618" lon="12.7434451"><ele>213.0</ele><time>2026-04-26T16:53:45.417Z</time></trkpt><trkpt lat="42.1769892" lon="12.7433692"><ele>213.0</ele><time>2026-04-26T16:53:46.573Z</time></trkpt><trkpt lat="42.1768986" lon="12.7433327"><ele>213.0</ele><time>2026-04-26T16:53:47.733Z</time></trkpt><trkpt lat="42.176703" lon="12.7434216"><ele>213.0</ele><time>2026-04-26T16:53:49.416Z</time></trkpt><trkpt lat="42.1766074" lon="12.7435004"><ele>213.0</ele><time>2026-04-26T16:53:50.417Z</time></trkpt><trkpt lat="42.1765224" lon="12.7435712"><ele>211.0</ele><time>2026-04-26T16:53:51.413Z</time></trkpt><trkpt lat="42.1764447" lon="12.7436397"><ele>209.0</ele><time>2026-04-26T16:53:52.42Z</time></trkpt><trkpt lat="42.1763562" lon="12.7436937"><ele>207.0</ele><time>2026-04-26T16:53:53.449Z</time></trkpt><trkpt lat="42.1762524" lon="12.7437686"><ele>205.0</ele><time>2026-04-26T16:53:54.426Z</time></trkpt><trkpt lat="42.1761227" lon="12.7438558"><ele>205.0</ele><time>2026-04-26T16:53:55.432Z</time></trkpt><trkpt lat="42.1759876" lon="12.743918"><ele>205.0</ele><time>2026-04-26T16:53:56.413Z</time></trkpt><trkpt lat="42.1758336" lon="12.7440065"><ele>205.0</ele><time>2026-04-26T16:53:57.425Z</time></trkpt><trkpt lat="42.1756619" lon="12.7440908"><ele>205.75</ele><time>2026-04-26T16:53:58.422Z</time></trkpt><trkpt lat="42.175523" lon="12.744144"><ele>206.5</ele><time>2026-04-26T16:53:59.443Z</time></trkpt><trkpt lat="42.1754048" lon="12.7442252"><ele>207.25</ele><time>2026-04-26T16:54:00.44Z</time></trkpt><trkpt lat="42.175303" lon="12.7443064"><ele>208.0</ele><time>2026-04-26T16:54:01.416Z</time></trkpt><trkpt lat="42.175184" lon="12.744382"><ele>204.0</ele><time>2026-04-26T16:54:02.425Z</time></trkpt><trkpt lat="42.1750638" lon="12.7444202"><ele>200.0</ele><time>2026-04-26T16:54:03.469Z</time></trkpt><trkpt lat="42.1749415" lon="12.7444331"><ele>196.0</ele><time>2026-04-26T16:54:04.42Z</time></trkpt><trkpt lat="42.1748186" lon="12.7444624"><ele>192.0</ele><time>2026-04-26T16:54:05.415Z</time></trkpt><trkpt lat="42.1747057" lon="12.7444865"><ele>192.0</ele><time>2026-04-26T16:54:06.419Z</time></trkpt><trkpt lat="42.174604" lon="12.7445049"><ele>192.0</ele><time>2026-04-26T16:54:07.425Z</time></trkpt><trkpt lat="42.174509" lon="12.744525"><ele>192.0</ele><time>2026-04-26T16:54:08.419Z</time></trkpt><trkpt lat="42.1744099" lon="12.7445481"><ele>192.0</ele><time>2026-04-26T16:54:09.413Z</time></trkpt><trkpt lat="42.1743312" lon="12.7445705"><ele>192.0</ele><time>2026-04-26T16:54:10.419Z</time></trkpt><trkpt lat="42.1742544" lon="12.7445897"><ele>192.0</ele><time>2026-04-26T16:54:11.414Z</time></trkpt><trkpt lat="42.1741801" lon="12.7446357"><ele>192.0</ele><time>2026-04-26T16:54:12.438Z</time></trkpt><trkpt lat="42.1740878" lon="12.7447186"><ele>192.0</ele><time>2026-04-26T16:54:13.438Z</time></trkpt><trkpt lat="42.173993" lon="12.7448306"><ele>192.0</ele><time>2026-04-26T16:54:14.439Z</time></trkpt><trkpt lat="42.1739103" lon="12.7449463"><ele>192.0</ele><time>2026-04-26T16:54:15.415Z</time></trkpt><trkpt lat="42.1738371" lon="12.7450681"><ele>191.0</ele><time>2026-04-26T16:54:16.417Z</time></trkpt><trkpt lat="42.1737735" lon="12.7451487"><ele>190.0</ele><time>2026-04-26T16:54:17.405Z</time></trkpt><trkpt lat="42.1736936" lon="12.745203"><ele>189.0</ele><time>2026-04-26T16:54:18.644Z</time></trkpt><trkpt lat="42.1735356" lon="12.7451818"><ele>188.0</ele><time>2026-04-26T16:54:20.438Z</time></trkpt><trkpt lat="42.1734615" lon="12.7450949"><ele>187.0</ele><time>2026-04-26T16:54:21.417Z</time></trkpt><trkpt lat="42.1734004" lon="12.7449794"><ele>187.0</ele><time>2026-04-26T16:54:22.435Z</time></trkpt><trkpt lat="42.1733478" lon="12.7448655"><ele>187.0</ele><time>2026-04-26T16:54:23.413Z</time></trkpt><trkpt lat="42.1732871" lon="12.7447472"><ele>187.0</ele><time>2026-04-26T16:54:24.428Z</time></trkpt><trkpt lat="42.1732214" lon="12.7446088"><ele>187.0</ele><time>2026-04-26T16:54:25.416Z</time></trkpt><trkpt lat="42.1731613" lon="12.7444681"><ele>187.0</ele><time>2026-04-26T16:54:26.417Z</time></trkpt><trkpt lat="42.1730901" lon="12.7443423"><ele>185.25</ele><time>2026-04-26T16:54:27.408Z</time></trkpt><trkpt lat="42.1730057" lon="12.7442002"><ele>183.5</ele><time>2026-04-26T16:54:28.413Z</time></trkpt><trkpt lat="42.172925" lon="12.7440569"><ele>181.75</ele><time>2026-04-26T16:54:29.414Z</time></trkpt><trkpt lat="42.1728576" lon="12.7439313"><ele>180.0</ele><time>2026-04-26T16:54:30.423Z</time></trkpt><trkpt lat="42.1727901" lon="12.7438022"><ele>180.0</ele><time>2026-04-26T16:54:31.411Z</time></trkpt><trkpt lat="42.1727181" lon="12.7436746"><ele>180.0</ele><time>2026-04-26T16:54:32.422Z</time></trkpt><trkpt lat="42.1726472" lon="12.7435402"><ele>180.0</ele><time>2026-04-26T16:54:33.417Z</time></trkpt><trkpt lat="42.1725664" lon="12.7434067"><ele>180.0</ele><time>2026-04-26T16:54:34.412Z</time></trkpt><trkpt lat="42.1724864" lon="12.7432867"><ele>181.25</ele><time>2026-04-26T16:54:35.414Z</time></trkpt><trkpt lat="42.1724004" lon="12.7431572"><ele>182.5</ele><time>2026-04-26T16:54:36.501Z</time></trkpt><trkpt lat="42.172313" lon="12.74302"><ele>183.75</ele><time>2026-04-26T16:54:37.434Z</time></trkpt><trkpt lat="42.1722313" lon="12.7428791"><ele>185.0</ele><time>2026-04-26T16:54:38.411Z</time></trkpt><trkpt lat="42.1721469" lon="12.7427415"><ele>183.0</ele><time>2026-04-26T16:54:39.415Z</time></trkpt><trkpt lat="42.172059" lon="12.742609"><ele>181.0</ele><time>2026-04-26T16:54:40.415Z</time></trkpt><trkpt lat="42.1719702" lon="12.7424836"><ele>179.0</ele><time>2026-04-26T16:54:41.409Z</time></trkpt><trkpt lat="42.1719029" lon="12.7423746"><ele>177.0</ele><time>2026-04-26T16:54:42.423Z</time></trkpt><trkpt lat="42.1718481" lon="12.7422836"><ele>177.0</ele><time>2026-04-26T16:54:43.42Z</time></trkpt><trkpt lat="42.1717918" lon="12.7422099"><ele>177.0</ele><time>2026-04-26T16:54:44.426Z</time></trkpt><trkpt lat="42.1717401" lon="12.7421462"><ele>177.0</ele><time>2026-04-26T16:54:45.417Z</time></trkpt><trkpt lat="42.1716693" lon="12.7420639"><ele>177.0</ele><time>2026-04-26T16:54:47.421Z</time></trkpt><trkpt lat="42.1715808" lon="12.7420468"><ele>177.0</ele><time>2026-04-26T16:54:50.42Z</time></trkpt><trkpt lat="42.1715208" lon="12.7420956"><ele>177.0</ele><time>2026-04-26T16:54:51.413Z</time></trkpt><trkpt lat="42.1714178" lon="12.7421784"><ele>176.0</ele><time>2026-04-26T16:54:52.414Z</time></trkpt><trkpt lat="42.1713097" lon="12.7422685"><ele>175.0</ele><time>2026-04-26T16:54:53.417Z</time></trkpt><trkpt lat="42.1712096" lon="12.7423492"><ele>174.0</ele><time>2026-04-26T16:54:54.421Z</time></trkpt><trkpt lat="42.1710961" lon="12.7424474"><ele>173.0</ele><time>2026-04-26T16:54:55.416Z</time></trkpt><trkpt lat="42.170991" lon="12.7425248"><ele>173.0</ele><time>2026-04-26T16:54:56.415Z</time></trkpt><trkpt lat="42.1708998" lon="12.7425764"><ele>173.0</ele><time>2026-04-26T16:54:57.418Z</time></trkpt><trkpt lat="42.1708048" lon="12.7426565"><ele>173.0</ele><time>2026-04-26T16:54:58.411Z</time></trkpt><trkpt lat="42.1707094" lon="12.7427323"><ele>173.0</ele><time>2026-04-26T16:54:59.418Z</time></trkpt><trkpt lat="42.1706166" lon="12.7427659"><ele>173.0</ele><time>2026-04-26T16:55:00.434Z</time></trkpt><trkpt lat="42.1705234" lon="12.7428317"><ele>172.33333333333331</ele><time>2026-04-26T16:55:01.411Z</time></trkpt><trkpt lat="42.1704394" lon="12.7428912"><ele>171.66666666666666</ele><time>2026-04-26T16:55:02.444Z</time></trkpt><trkpt lat="42.1703497" lon="12.7429212"><ele>171.0</ele><time>2026-04-26T16:55:03.439Z</time></trkpt><trkpt lat="42.1702699" lon="12.7429687"><ele>170.33333333333334</ele><time>2026-04-26T16:55:04.409Z</time></trkpt><trkpt lat="42.1702015" lon="12.7429985"><ele>169.66666666666669</ele><time>2026-04-26T16:55:05.415Z</time></trkpt><trkpt lat="42.1701061" lon="12.7430379"><ele>169.0</ele><time>2026-04-26T16:55:07.416Z</time></trkpt><trkpt lat="42.1700249" lon="12.7432312"><ele>169.0</ele><time>2026-04-26T16:55:11.312Z</time></trkpt><trkpt lat="42.1700008" lon="12.7433164"><ele>169.0</ele><time>2026-04-26T16:55:12.314Z</time></trkpt><trkpt lat="42.1699609" lon="12.7434906"><ele>169.0</ele><time>2026-04-26T16:55:14.31Z</time></trkpt><trkpt lat="42.1699346" lon="12.7435832"><ele>169.0</ele><time>2026-04-26T16:55:15.312Z</time></trkpt><trkpt lat="42.1699071" lon="12.7436653"><ele>169.0</ele><time>2026-04-26T16:55:16.307Z</time></trkpt><trkpt lat="42.1698613" lon="12.743791"><ele>169.0</ele><time>2026-04-26T16:55:18.313Z</time></trkpt><trkpt lat="42.1698018" lon="12.7438247"><ele>167.39999999999998</ele><time>2026-04-26T16:55:19.312Z</time></trkpt><trkpt lat="42.1696864" lon="12.743881"><ele>165.8</ele><time>2026-04-26T16:55:21.311Z</time></trkpt><trkpt lat="42.1696204" lon="12.7439019"><ele>164.2</ele><time>2026-04-26T16:55:22.313Z</time></trkpt><trkpt lat="42.1695106" lon="12.7439557"><ele>162.60000000000002</ele><time>2026-04-26T16:55:24.308Z</time></trkpt><trkpt lat="42.1694037" lon="12.7439907"><ele>161.0</ele><time>2026-04-26T16:55:26.319Z</time></trkpt><trkpt lat="42.1692752" lon="12.74399"><ele>161.0</ele><time>2026-04-26T16:55:28.3Z</time></trkpt><trkpt lat="42.1692082" lon="12.7439823"><ele>161.0</ele><time>2026-04-26T16:55:29.309Z</time></trkpt><trkpt lat="42.1691386" lon="12.7439814"><ele>161.0</ele><time>2026-04-26T16:55:30.328Z</time></trkpt><trkpt lat="42.1690678" lon="12.7439709"><ele>161.0</ele><time>2026-04-26T16:55:31.337Z</time></trkpt><trkpt lat="42.168961" lon="12.7439548"><ele>161.0</ele><time>2026-04-26T16:55:33.313Z</time></trkpt><trkpt lat="42.1688984" lon="12.7439181"><ele>161.0</ele><time>2026-04-26T16:55:35.31Z</time></trkpt><trkpt lat="42.1688366" lon="12.7439473"><ele>161.0</ele><time>2026-04-26T16:55:40.308Z</time></trkpt><trkpt lat="42.1688452" lon="12.744032"><ele>161.0</ele><time>2026-04-26T16:55:45.305Z</time></trkpt><trkpt lat="42.1688829" lon="12.7441071"><ele>161.0</ele><time>2026-04-26T16:55:50.34Z</time></trkpt><trkpt lat="42.1689592" lon="12.7441969"><ele>161.0</ele><time>2026-04-26T16:55:52.308Z</time></trkpt><trkpt lat="42.1690149" lon="12.7442644"><ele>161.0</ele><time>2026-04-26T16:55:53.302Z</time></trkpt><trkpt lat="42.1690536" lon="12.7443385"><ele>161.0</ele><time>2026-04-26T16:55:54.335Z</time></trkpt><trkpt lat="42.1690997" lon="12.7444109"><ele>161.0</ele><time>2026-04-26T16:55:55.303Z</time></trkpt><trkpt lat="42.1691611" lon="12.7445009"><ele>161.16666666666666</ele><time>2026-04-26T16:55:56.311Z</time></trkpt><trkpt lat="42.1692388" lon="12.7445807"><ele>161.33333333333331</ele><time>2026-04-26T16:55:57.314Z</time></trkpt><trkpt lat="42.1693088" lon="12.7446392"><ele>161.5</ele><time>2026-04-26T16:55:58.347Z</time></trkpt><trkpt lat="42.1693839" lon="12.7447043"><ele>161.66666666666666</ele><time>2026-04-26T16:55:59.308Z</time></trkpt><trkpt lat="42.1694473" lon="12.7447519"><ele>161.83333333333334</ele><time>2026-04-26T16:56:00.305Z</time></trkpt><trkpt lat="42.1695226" lon="12.7447912"><ele>162.0</ele><time>2026-04-26T16:56:01.314Z</time></trkpt><trkpt lat="42.1696153" lon="12.7448524"><ele>162.0</ele><time>2026-04-26T16:56:03.338Z</time></trkpt><trkpt lat="42.1696946" lon="12.7449241"><ele>162.0</ele><time>2026-04-26T16:56:05.312Z</time></trkpt><trkpt lat="42.1697441" lon="12.7449929"><ele>162.0</ele><time>2026-04-26T16:56:07.305Z</time></trkpt><trkpt lat="42.16979" lon="12.7450626"><ele>162.0</ele><time>2026-04-26T16:56:10.314Z</time></trkpt><trkpt lat="42.1695808" lon="12.7450406"><ele>162.0</ele><time>2026-04-26T16:56:29.327Z</time></trkpt><trkpt lat="42.1694914" lon="12.744968"><ele>162.0</ele><time>2026-04-26T16:56:31.301Z</time></trkpt><trkpt lat="42.1694227" lon="12.7449036"><ele>162.0</ele><time>2026-04-26T16:56:32.298Z</time></trkpt><trkpt lat="42.1693545" lon="12.7448133"><ele>162.0</ele><time>2026-04-26T16:56:33.304Z</time></trkpt><trkpt lat="42.169279" lon="12.7447087"><ele>162.0</ele><time>2026-04-26T16:56:34.324Z</time></trkpt><trkpt lat="42.1691975" lon="12.7446019"><ele>162.0</ele><time>2026-04-26T16:56:35.325Z</time></trkpt><trkpt lat="42.1691228" lon="12.7445226"><ele>162.0</ele><time>2026-04-26T16:56:36.325Z</time></trkpt><trkpt lat="42.1690574" lon="12.7444175"><ele>162.0</ele><time>2026-04-26T16:56:37.324Z</time></trkpt><trkpt lat="42.1689988" lon="12.7443256"><ele>162.0</ele><time>2026-04-26T16:56:38.323Z</time></trkpt><trkpt lat="42.16899" lon="12.744225"><ele>162.0</ele><time>2026-04-26T16:56:40.304Z</time></trkpt><trkpt lat="42.1689493" lon="12.7441521"><ele>162.0</ele><time>2026-04-26T16:56:54.905Z</time></trkpt><trkpt lat="42.1689022" lon="12.7440812"><ele>162.0</ele><time>2026-04-26T16:57:09.824Z</time></trkpt><trkpt lat="42.1688757" lon="12.7440011"><ele>161.66666666666666</ele><time>2026-04-26T16:57:14.796Z</time></trkpt><trkpt lat="42.1688196" lon="12.7439447"><ele>161.33333333333334</ele><time>2026-04-26T16:57:20.807Z</time></trkpt><trkpt lat="42.1687798" lon="12.7438654"><ele>161.0</ele><time>2026-04-26T16:58:16.391Z</time></trkpt><trkpt lat="42.1687098" lon="12.7438272"><ele>160.66666666666669</ele><time>2026-04-26T16:58:29.42Z</time></trkpt><trkpt lat="42.1687768" lon="12.7438646"><ele>160.33333333333334</ele><time>2026-04-26T16:59:06.427Z</time></trkpt><trkpt lat="42.1688771" lon="12.7438414"><ele>160.0</ele><time>2026-04-26T16:59:42.411Z</time></trkpt><trkpt lat="42.1689412" lon="12.7438197"><ele>160.2</ele><time>2026-04-26T16:59:43.431Z</time></trkpt><trkpt lat="42.1690515" lon="12.7438214"><ele>160.4</ele><time>2026-04-26T16:59:44.436Z</time></trkpt><trkpt lat="42.1691474" lon="12.7438173"><ele>160.60000000000002</ele><time>2026-04-26T16:59:45.412Z</time></trkpt><trkpt lat="42.1692544" lon="12.7438048"><ele>160.8</ele><time>2026-04-26T16:59:46.419Z</time></trkpt><trkpt lat="42.1693699" lon="12.7437819"><ele>161.0</ele><time>2026-04-26T16:59:47.431Z</time></trkpt><trkpt lat="42.1694805" lon="12.7437379"><ele>161.0</ele><time>2026-04-26T16:59:48.42Z</time></trkpt><trkpt lat="42.169572" lon="12.7436802"><ele>161.0</ele><time>2026-04-26T16:59:49.414Z</time></trkpt><trkpt lat="42.1696538" lon="12.743618"><ele>161.0</ele><time>2026-04-26T16:59:50.416Z</time></trkpt><trkpt lat="42.169725" lon="12.7435532"><ele>161.0</ele><time>2026-04-26T16:59:51.414Z</time></trkpt><trkpt lat="42.169784" lon="12.7434692"><ele>161.0</ele><time>2026-04-26T16:59:52.413Z</time></trkpt><trkpt lat="42.1698257" lon="12.7433699"><ele>162.60000000000002</ele><time>2026-04-26T16:59:53.414Z</time></trkpt><trkpt lat="42.1698778" lon="12.7432587"><ele>164.2</ele><time>2026-04-26T16:59:54.417Z</time></trkpt><trkpt lat="42.1699382" lon="12.7431473"><ele>165.8</ele><time>2026-04-26T16:59:55.418Z</time></trkpt><trkpt lat="42.1700064" lon="12.7430583"><ele>167.39999999999998</ele><time>2026-04-26T16:59:56.417Z</time></trkpt><trkpt lat="42.170078" lon="12.7430034"><ele>169.0</ele><time>2026-04-26T16:59:57.417Z</time></trkpt><trkpt lat="42.1701518" lon="12.7429597"><ele>169.0</ele><time>2026-04-26T16:59:58.42Z</time></trkpt><trkpt lat="42.1702288" lon="12.7429153"><ele>169.0</ele><time>2026-04-26T16:59:59.419Z</time></trkpt><trkpt lat="42.170314" lon="12.7428576"><ele>169.0</ele><time>2026-04-26T17:00:00.412Z</time></trkpt><trkpt lat="42.1704246" lon="12.7427975"><ele>169.0</ele><time>2026-04-26T17:00:01.436Z</time></trkpt><trkpt lat="42.1705354" lon="12.7427459"><ele>169.0</ele><time>2026-04-26T17:00:02.418Z</time></trkpt><trkpt lat="42.1706361" lon="12.7426976"><ele>170.0</ele><time>2026-04-26T17:00:03.403Z</time></trkpt><trkpt lat="42.1707406" lon="12.7426359"><ele>171.0</ele><time>2026-04-26T17:00:04.406Z</time></trkpt><trkpt lat="42.1708625" lon="12.7425552"><ele>172.0</ele><time>2026-04-26T17:00:05.415Z</time></trkpt><trkpt lat="42.1709885" lon="12.7424823"><ele>173.0</ele><time>2026-04-26T17:00:06.413Z</time></trkpt><trkpt lat="42.1711067" lon="12.7424217"><ele>173.0</ele><time>2026-04-26T17:00:07.423Z</time></trkpt><trkpt lat="42.1712198" lon="12.7423654"><ele>173.0</ele><time>2026-04-26T17:00:08.407Z</time></trkpt><trkpt lat="42.1713299" lon="12.7423029"><ele>173.0</ele><time>2026-04-26T17:00:09.407Z</time></trkpt><trkpt lat="42.1714383" lon="12.7422358"><ele>173.0</ele><time>2026-04-26T17:00:10.406Z</time></trkpt><trkpt lat="42.1715341" lon="12.7421863"><ele>173.8</ele><time>2026-04-26T17:00:11.404Z</time></trkpt><trkpt lat="42.1716142" lon="12.7421421"><ele>174.60000000000002</ele><time>2026-04-26T17:00:12.405Z</time></trkpt><trkpt lat="42.1716729" lon="12.7420926"><ele>175.39999999999998</ele><time>2026-04-26T17:00:13.431Z</time></trkpt><trkpt lat="42.1717858" lon="12.742058"><ele>176.2</ele><time>2026-04-26T17:00:17.412Z</time></trkpt><trkpt lat="42.171891" lon="12.7420611"><ele>177.0</ele><time>2026-04-26T17:00:19.41Z</time></trkpt><trkpt lat="42.1719608" lon="12.7421636"><ele>177.0</ele><time>2026-04-26T17:00:20.412Z</time></trkpt><trkpt lat="42.1720388" lon="12.7423486"><ele>177.0</ele><time>2026-04-26T17:00:21.43Z</time></trkpt><trkpt lat="42.1721376" lon="12.742554"><ele>177.0</ele><time>2026-04-26T17:00:22.411Z</time></trkpt><trkpt lat="42.1722441" lon="12.7427622"><ele>181.0</ele><time>2026-04-26T17:00:23.412Z</time></trkpt><trkpt lat="42.1723799" lon="12.7430561"><ele>185.0</ele><time>2026-04-26T17:00:24.41Z</time></trkpt><trkpt lat="42.1725232" lon="12.7433067"><ele>185.0</ele><time>2026-04-26T17:00:25.412Z</time></trkpt><trkpt lat="42.1726421" lon="12.7435353"><ele>185.0</ele><time>2026-04-26T17:00:26.412Z</time></trkpt><trkpt lat="42.1727735" lon="12.743716"><ele>185.0</ele><time>2026-04-26T17:00:27.407Z</time></trkpt><trkpt lat="42.1729045" lon="12.7439111"><ele>185.66666666666666</ele><time>2026-04-26T17:00:28.41Z</time></trkpt><trkpt lat="42.1730039" lon="12.744055"><ele>186.33333333333334</ele><time>2026-04-26T17:00:29.412Z</time></trkpt><trkpt lat="42.17311" lon="12.7442158"><ele>187.0</ele><time>2026-04-26T17:00:30.405Z</time></trkpt><trkpt lat="42.173219" lon="12.7443877"><ele>187.0</ele><time>2026-04-26T17:00:31.413Z</time></trkpt><trkpt lat="42.1733309" lon="12.7445008"><ele>187.0</ele><time>2026-04-26T17:00:32.411Z</time></trkpt><trkpt lat="42.1734098" lon="12.7446507"><ele>187.0</ele><time>2026-04-26T17:00:33.407Z</time></trkpt><trkpt lat="42.1734753" lon="12.7447856"><ele>187.0</ele><time>2026-04-26T17:00:34.406Z</time></trkpt><trkpt lat="42.1735495" lon="12.7449001"><ele>187.0</ele><time>2026-04-26T17:00:35.404Z</time></trkpt><trkpt lat="42.1736201" lon="12.7450117"><ele>187.0</ele><time>2026-04-26T17:00:36.492Z</time></trkpt><trkpt lat="42.1736755" lon="12.7451033"><ele>187.0</ele><time>2026-04-26T17:00:37.408Z</time></trkpt><trkpt lat="42.1737602" lon="12.7451944"><ele>187.0</ele><time>2026-04-26T17:00:38.412Z</time></trkpt><trkpt lat="42.1738465" lon="12.7451987"><ele>187.0</ele><time>2026-04-26T17:00:39.408Z</time></trkpt><trkpt lat="42.1739115" lon="12.7451419"><ele>187.0</ele><time>2026-04-26T17:00:40.406Z</time></trkpt><trkpt lat="42.1739764" lon="12.7450706"><ele>187.0</ele><time>2026-04-26T17:00:41.406Z</time></trkpt><trkpt lat="42.1740555" lon="12.7449652"><ele>187.0</ele><time>2026-04-26T17:00:42.64Z</time></trkpt><trkpt lat="42.1741206" lon="12.7448626"><ele>187.0</ele><time>2026-04-26T17:00:43.555Z</time></trkpt><trkpt lat="42.174203" lon="12.7447369"><ele>187.0</ele><time>2026-04-26T17:00:44.563Z</time></trkpt><trkpt lat="42.1743084" lon="12.7446064"><ele>188.66666666666669</ele><time>2026-04-26T17:00:45.644Z</time></trkpt><trkpt lat="42.1744308" lon="12.7445445"><ele>190.33333333333334</ele><time>2026-04-26T17:00:46.881Z</time></trkpt><trkpt lat="42.1746522" lon="12.7444556"><ele>192.0</ele><time>2026-04-26T17:00:48.405Z</time></trkpt><trkpt lat="42.1747397" lon="12.7444198"><ele>197.33333333333331</ele><time>2026-04-26T17:00:49.718Z</time></trkpt><trkpt lat="42.1749624" lon="12.74434"><ele>202.66666666666666</ele><time>2026-04-26T17:00:51.566Z</time></trkpt><trkpt lat="42.1751048" lon="12.7443077"><ele>208.0</ele><time>2026-04-26T17:00:52.72Z</time></trkpt><trkpt lat="42.1753803" lon="12.744215"><ele>208.0</ele><time>2026-04-26T17:00:54.56Z</time></trkpt><trkpt lat="42.1755159" lon="12.7441533"><ele>208.0</ele><time>2026-04-26T17:00:55.722Z</time></trkpt><trkpt lat="42.1756681" lon="12.7440627"><ele>208.0</ele><time>2026-04-26T17:00:56.88Z</time></trkpt><trkpt lat="42.1761004" lon="12.7438505"><ele>207.0</ele><time>2026-04-26T17:00:58.405Z</time></trkpt><trkpt lat="42.1762759" lon="12.7437717"><ele>206.0</ele><time>2026-04-26T17:00:59.723Z</time></trkpt><trkpt lat="42.176439" lon="12.7436835"><ele>205.0</ele><time>2026-04-26T17:01:00.72Z</time></trkpt><trkpt lat="42.176589" lon="12.7436031"><ele>205.0</ele><time>2026-04-26T17:01:01.562Z</time></trkpt><trkpt lat="42.1767449" lon="12.74356"><ele>205.0</ele><time>2026-04-26T17:01:02.882Z</time></trkpt><trkpt lat="42.1771483" lon="12.7434705"><ele>209.0</ele><time>2026-04-26T17:01:06.67Z</time></trkpt><trkpt lat="42.1773827" lon="12.7437533"><ele>213.0</ele><time>2026-04-26T17:01:08.369Z</time></trkpt><trkpt lat="42.1775481" lon="12.7438111"><ele>213.0</ele><time>2026-04-26T17:01:10.524Z</time></trkpt><trkpt lat="42.1778054" lon="12.7438404"><ele>213.0</ele><time>2026-04-26T17:01:12.521Z</time></trkpt><trkpt lat="42.1779242" lon="12.7438296"><ele>213.0</ele><time>2026-04-26T17:01:13.675Z</time></trkpt><trkpt lat="42.1779967" lon="12.7439011"><ele>213.0</ele><time>2026-04-26T17:01:14.673Z</time></trkpt><trkpt lat="42.1781135" lon="12.7438408"><ele>213.0</ele><time>2026-04-26T17:01:16.514Z</time></trkpt><trkpt lat="42.1782285" lon="12.7435871"><ele>213.0</ele><time>2026-04-26T17:01:18.411Z</time></trkpt><trkpt lat="42.1783135" lon="12.7433908"><ele>214.7142857142857</ele><time>2026-04-26T17:01:20.225Z</time></trkpt><trkpt lat="42.1783768" lon="12.7433229"><ele>216.42857142857144</ele><time>2026-04-26T17:01:22.25Z</time></trkpt><trkpt lat="42.1783101" lon="12.7432858"><ele>218.14285714285717</ele><time>2026-04-26T17:01:34.227Z</time></trkpt><trkpt lat="42.1783037" lon="12.7433468"><ele>219.85714285714286</ele><time>2026-04-26T17:06:39.693Z</time></trkpt><trkpt lat="42.1783673" lon="12.7433058"><ele>221.57142857142858</ele><time>2026-04-26T17:07:57.457Z</time></trkpt><trkpt lat="42.1783673" lon="12.7431893"><ele>223.2857142857143</ele><time>2026-04-26T17:08:00.464Z</time></trkpt><trkpt lat="42.1783274" lon="12.7431167"><ele>225.00000000000003</ele><time>2026-04-26T17:08:01.458Z</time></trkpt><trkpt lat="42.1782726" lon="12.7430334"><ele>225.0</ele><time>2026-04-26T17:08:02.451Z</time></trkpt><trkpt lat="42.1782201" lon="12.7429683"><ele>225.0</ele><time>2026-04-26T17:08:03.447Z</time></trkpt><trkpt lat="42.1781705" lon="12.7428996"><ele>225.0</ele><time>2026-04-26T17:08:04.462Z</time></trkpt><trkpt lat="42.1781038" lon="12.742828"><ele>225.0</ele><time>2026-04-26T17:08:05.457Z</time></trkpt><trkpt lat="42.1780221" lon="12.7427429"><ele>225.0</ele><time>2026-04-26T17:08:06.456Z</time></trkpt><trkpt lat="42.1778898" lon="12.7426289"><ele>221.5</ele><time>2026-04-26T17:08:07.475Z</time></trkpt><trkpt lat="42.1777363" lon="12.7425009"><ele>218.0</ele><time>2026-04-26T17:08:08.473Z</time></trkpt><trkpt lat="42.1775044" lon="12.7422977"><ele>214.5</ele><time>2026-04-26T17:08:09.473Z</time></trkpt><trkpt lat="42.1772928" lon="12.7420959"><ele>211.0</ele><time>2026-04-26T17:08:10.451Z</time></trkpt><trkpt lat="42.1771119" lon="12.7418852"><ele>211.0</ele><time>2026-04-26T17:08:11.473Z</time></trkpt><trkpt lat="42.1769607" lon="12.7416784"><ele>211.0</ele><time>2026-04-26T17:08:12.457Z</time></trkpt><trkpt lat="42.1768084" lon="12.7415106"><ele>211.0</ele><time>2026-04-26T17:08:13.461Z</time></trkpt><trkpt lat="42.1766688" lon="12.7413566"><ele>211.0</ele><time>2026-04-26T17:08:14.448Z</time></trkpt><trkpt lat="42.1765394" lon="12.7412369"><ele>211.0</ele><time>2026-04-26T17:08:15.482Z</time></trkpt><trkpt lat="42.1764017" lon="12.7410834"><ele>211.0</ele><time>2026-04-26T17:08:16.457Z</time></trkpt><trkpt lat="42.1762485" lon="12.7409113"><ele>210.66666666666666</ele><time>2026-04-26T17:08:17.459Z</time></trkpt><trkpt lat="42.1760865" lon="12.7407708"><ele>210.33333333333331</ele><time>2026-04-26T17:08:18.463Z</time></trkpt><trkpt lat="42.1759216" lon="12.7405886"><ele>210.0</ele><time>2026-04-26T17:08:19.462Z</time></trkpt><trkpt lat="42.175742" lon="12.740376"><ele>205.0</ele><time>2026-04-26T17:08:20.456Z</time></trkpt><trkpt lat="42.1755882" lon="12.740137"><ele>200.0</ele><time>2026-04-26T17:08:21.449Z</time></trkpt><trkpt lat="42.1754339" lon="12.7398725"><ele>200.0</ele><time>2026-04-26T17:08:22.45Z</time></trkpt><trkpt lat="42.1752768" lon="12.7395851"><ele>200.0</ele><time>2026-04-26T17:08:23.452Z</time></trkpt><trkpt lat="42.1751312" lon="12.7393171"><ele>202.0</ele><time>2026-04-26T17:08:24.535Z</time></trkpt><trkpt lat="42.1749914" lon="12.7390585"><ele>204.0</ele><time>2026-04-26T17:08:25.528Z</time></trkpt><trkpt lat="42.1749058" lon="12.7387837"><ele>199.0</ele><time>2026-04-26T17:08:26.609Z</time></trkpt><trkpt lat="42.1748198" lon="12.7385047"><ele>194.0</ele><time>2026-04-26T17:08:27.613Z</time></trkpt><trkpt lat="42.1747215" lon="12.7381679"><ele>190.0</ele><time>2026-04-26T17:08:28.773Z</time></trkpt><trkpt lat="42.1746102" lon="12.7374872"><ele>190.0</ele><time>2026-04-26T17:08:30.617Z</time></trkpt><trkpt lat="42.1745643" lon="12.7371406"><ele>190.0</ele><time>2026-04-26T17:08:31.77Z</time></trkpt><trkpt lat="42.1745204" lon="12.736777"><ele>190.0</ele><time>2026-04-26T17:08:32.677Z</time></trkpt><trkpt lat="42.1744047" lon="12.7360949"><ele>189.5</ele><time>2026-04-26T17:08:34.459Z</time></trkpt><trkpt lat="42.1743338" lon="12.7357447"><ele>189.0</ele><time>2026-04-26T17:08:35.468Z</time></trkpt><trkpt lat="42.1742757" lon="12.7353897"><ele>188.5</ele><time>2026-04-26T17:08:36.457Z</time></trkpt><trkpt lat="42.1742289" lon="12.7350554"><ele>188.0</ele><time>2026-04-26T17:08:37.444Z</time></trkpt><trkpt lat="42.1741858" lon="12.7347564"><ele>188.0</ele><time>2026-04-26T17:08:38.45Z</time></trkpt><trkpt lat="42.1741309" lon="12.7344506"><ele>188.0</ele><time>2026-04-26T17:08:39.445Z</time></trkpt><trkpt lat="42.1740875" lon="12.7341036"><ele>186.5</ele><time>2026-04-26T17:08:40.452Z</time></trkpt><trkpt lat="42.1740428" lon="12.7337474"><ele>185.0</ele><time>2026-04-26T17:08:41.456Z</time></trkpt><trkpt lat="42.1739717" lon="12.7333936"><ele>179.0</ele><time>2026-04-26T17:08:42.455Z</time></trkpt><trkpt lat="42.1739111" lon="12.7330605"><ele>173.0</ele><time>2026-04-26T17:08:43.457Z</time></trkpt><trkpt lat="42.17386" lon="12.7327411"><ele>172.5</ele><time>2026-04-26T17:08:44.459Z</time></trkpt><trkpt lat="42.1738155" lon="12.7324132"><ele>172.0</ele><time>2026-04-26T17:08:45.479Z</time></trkpt><trkpt lat="42.1736945" lon="12.7321005"><ele>173.5</ele><time>2026-04-26T17:08:46.458Z</time></trkpt><trkpt lat="42.1735819" lon="12.7317943"><ele>175.0</ele><time>2026-04-26T17:08:47.46Z</time></trkpt><trkpt lat="42.1734086" lon="12.7315174"><ele>175.0</ele><time>2026-04-26T17:08:48.458Z</time></trkpt><trkpt lat="42.1732105" lon="12.7312458"><ele>175.0</ele><time>2026-04-26T17:08:49.458Z</time></trkpt><trkpt lat="42.1730084" lon="12.7310165"><ele>171.5</ele><time>2026-04-26T17:08:50.455Z</time></trkpt><trkpt lat="42.1728076" lon="12.7307958"><ele>168.0</ele><time>2026-04-26T17:08:51.454Z</time></trkpt><trkpt lat="42.1726135" lon="12.7306123"><ele>168.0</ele><time>2026-04-26T17:08:52.463Z</time></trkpt><trkpt lat="42.1723832" lon="12.730473"><ele>168.0</ele><time>2026-04-26T17:08:53.456Z</time></trkpt><trkpt lat="42.1721576" lon="12.7302847"><ele>166.5</ele><time>2026-04-26T17:08:54.457Z</time></trkpt><trkpt lat="42.1719496" lon="12.7301209"><ele>165.0</ele><time>2026-04-26T17:08:55.457Z</time></trkpt><trkpt lat="42.171735" lon="12.7299238"><ele>165.0</ele><time>2026-04-26T17:08:56.451Z</time></trkpt><trkpt lat="42.1715547" lon="12.7297919"><ele>165.0</ele><time>2026-04-26T17:08:57.452Z</time></trkpt><trkpt lat="42.1713963" lon="12.7296676"><ele>165.0</ele><time>2026-04-26T17:08:58.457Z</time></trkpt><trkpt lat="42.1712292" lon="12.7295276"><ele>164.5</ele><time>2026-04-26T17:08:59.453Z</time></trkpt><trkpt lat="42.1710677" lon="12.7294491"><ele>164.0</ele><time>2026-04-26T17:09:00.53Z</time></trkpt><trkpt lat="42.170928" lon="12.729362"><ele>163.5</ele><time>2026-04-26T17:09:01.611Z</time></trkpt><trkpt lat="42.1708261" lon="12.7292715"><ele>163.0</ele><time>2026-04-26T17:09:02.637Z</time></trkpt><trkpt lat="42.1705837" lon="12.7291402"><ele>162.0</ele><time>2026-04-26T17:09:04.472Z</time></trkpt><trkpt lat="42.1704552" lon="12.7290391"><ele>161.0</ele><time>2026-04-26T17:09:05.456Z</time></trkpt><trkpt lat="42.170358" lon="12.728979"><ele>160.0</ele><time>2026-04-26T17:09:06.468Z</time></trkpt><trkpt lat="42.1702866" lon="12.728954"><ele>159.0</ele><time>2026-04-26T17:09:07.459Z</time></trkpt><trkpt lat="42.1702236" lon="12.7289636"><ele>158.0</ele><time>2026-04-26T17:09:08.447Z</time></trkpt><trkpt lat="42.1702267" lon="12.729083"><ele>158.0</ele><time>2026-04-26T17:09:12.452Z</time></trkpt><trkpt lat="42.1702878" lon="12.7291121"><ele>158.0</ele><time>2026-04-26T17:09:13.475Z</time></trkpt><trkpt lat="42.170355" lon="12.7291486"><ele>158.0</ele><time>2026-04-26T17:09:14.449Z</time></trkpt><trkpt lat="42.1704396" lon="12.7291988"><ele>158.0</ele><time>2026-04-26T17:09:15.477Z</time></trkpt><trkpt lat="42.1705272" lon="12.7292578"><ele>158.0</ele><time>2026-04-26T17:09:16.479Z</time></trkpt><trkpt lat="42.1706536" lon="12.7293154"><ele>159.0</ele><time>2026-04-26T17:09:17.443Z</time></trkpt><trkpt lat="42.1707751" lon="12.7293723"><ele>160.0</ele><time>2026-04-26T17:09:18.456Z</time></trkpt><trkpt lat="42.1709387" lon="12.7294324"><ele>161.0</ele><time>2026-04-26T17:09:19.473Z</time></trkpt><trkpt lat="42.1711228" lon="12.7295287"><ele>161.66666666666666</ele><time>2026-04-26T17:09:20.45Z</time></trkpt><trkpt lat="42.1713236" lon="12.729677"><ele>162.33333333333334</ele><time>2026-04-26T17:09:21.45Z</time></trkpt><trkpt lat="42.1715112" lon="12.7298161"><ele>163.0</ele><time>2026-04-26T17:09:22.453Z</time></trkpt><trkpt lat="42.1716924" lon="12.7299514"><ele>163.33333333333334</ele><time>2026-04-26T17:09:23.451Z</time></trkpt><trkpt lat="42.1717831" lon="12.7300485"><ele>163.66666666666669</ele><time>2026-04-26T17:09:24.446Z</time></trkpt><trkpt lat="42.1718189" lon="12.730186"><ele>164.0</ele><time>2026-04-26T17:09:25.444Z</time></trkpt><trkpt lat="42.1717815" lon="12.7302853"><ele>164.33333333333334</ele><time>2026-04-26T17:09:27.477Z</time></trkpt><trkpt lat="42.17172" lon="12.730349"><ele>164.66666666666666</ele><time>2026-04-26T17:09:29.459Z</time></trkpt><trkpt lat="42.1716641" lon="12.7303946"><ele>165.0</ele><time>2026-04-26T17:09:38.464Z</time></trkpt><trkpt lat="42.1717427" lon="12.7303454"><ele>165.0</ele><time>2026-04-26T17:09:56.348Z</time></trkpt><trkpt lat="42.1718063" lon="12.7302838"><ele>165.0</ele><time>2026-04-26T17:09:58.51Z</time></trkpt><trkpt lat="42.1717868" lon="12.7301997"><ele>165.0</ele><time>2026-04-26T17:10:18.351Z</time></trkpt><trkpt lat="42.1717393" lon="12.7301245"><ele>165.0</ele><time>2026-04-26T17:10:20.35Z</time></trkpt><trkpt lat="42.1716772" lon="12.7300644"><ele>165.0</ele><time>2026-04-26T17:10:21.346Z</time></trkpt><trkpt lat="42.1715937" lon="12.729989"><ele>165.0</ele><time>2026-04-26T17:10:22.344Z</time></trkpt><trkpt lat="42.1714659" lon="12.7298902"><ele>164.0</ele><time>2026-04-26T17:10:23.349Z</time></trkpt><trkpt lat="42.171306" lon="12.7297574"><ele>163.0</ele><time>2026-04-26T17:10:24.351Z</time></trkpt><trkpt lat="42.1710641" lon="12.7295489"><ele>162.0</ele><time>2026-04-26T17:10:25.346Z</time></trkpt><trkpt lat="42.1708064" lon="12.7293654"><ele>161.0</ele><time>2026-04-26T17:10:26.344Z</time></trkpt><trkpt lat="42.1705462" lon="12.7291998"><ele>159.5</ele><time>2026-04-26T17:10:27.341Z</time></trkpt><trkpt lat="42.1702973" lon="12.7290141"><ele>158.0</ele><time>2026-04-26T17:10:28.343Z</time></trkpt><trkpt lat="42.1700967" lon="12.7287908"><ele>158.0</ele><time>2026-04-26T17:10:29.353Z</time></trkpt><trkpt lat="42.1699009" lon="12.7285959"><ele>158.0</ele><time>2026-04-26T17:10:30.342Z</time></trkpt><trkpt lat="42.1696973" lon="12.7284238"><ele>152.5</ele><time>2026-04-26T17:10:31.343Z</time></trkpt><trkpt lat="42.1694868" lon="12.7282667"><ele>147.0</ele><time>2026-04-26T17:10:32.362Z</time></trkpt><trkpt lat="42.1692412" lon="12.7280871"><ele>144.0</ele><time>2026-04-26T17:10:33.344Z</time></trkpt><trkpt lat="42.1690199" lon="12.7279079"><ele>141.0</ele><time>2026-04-26T17:10:34.346Z</time></trkpt><trkpt lat="42.1688178" lon="12.7277345"><ele>140.5</ele><time>2026-04-26T17:10:35.35Z</time></trkpt><trkpt lat="42.1685984" lon="12.7275581"><ele>140.0</ele><time>2026-04-26T17:10:36.354Z</time></trkpt><trkpt lat="42.1683808" lon="12.7274059"><ele>139.0</ele><time>2026-04-26T17:10:37.348Z</time></trkpt><trkpt lat="42.1681689" lon="12.7272352"><ele>138.0</ele><time>2026-04-26T17:10:38.366Z</time></trkpt><trkpt lat="42.1679613" lon="12.7270906"><ele>138.0</ele><time>2026-04-26T17:10:39.353Z</time></trkpt><trkpt lat="42.167742" lon="12.7269277"><ele>138.0</ele><time>2026-04-26T17:10:40.356Z</time></trkpt><trkpt lat="42.1675514" lon="12.7267659"><ele>136.0</ele><time>2026-04-26T17:10:41.35Z</time></trkpt><trkpt lat="42.1673524" lon="12.7266079"><ele>134.0</ele><time>2026-04-26T17:10:42.348Z</time></trkpt><trkpt lat="42.1671541" lon="12.7264643"><ele>134.0</ele><time>2026-04-26T17:10:43.352Z</time></trkpt><trkpt lat="42.1669605" lon="12.7263175"><ele>134.0</ele><time>2026-04-26T17:10:44.36Z</time></trkpt><trkpt lat="42.1667745" lon="12.7261598"><ele>134.0</ele><time>2026-04-26T17:10:45.356Z</time></trkpt><trkpt lat="42.1665899" lon="12.7260076"><ele>134.5</ele><time>2026-04-26T17:10:46.357Z</time></trkpt><trkpt lat="42.1663917" lon="12.7258279"><ele>135.0</ele><time>2026-04-26T17:10:47.36Z</time></trkpt><trkpt lat="42.1662092" lon="12.7256486"><ele>135.0</ele><time>2026-04-26T17:10:48.441Z</time></trkpt><trkpt lat="42.1660607" lon="12.725485"><ele>135.0</ele><time>2026-04-26T17:10:49.349Z</time></trkpt><trkpt lat="42.165914" lon="12.7252955"><ele>135.0</ele><time>2026-04-26T17:10:50.403Z</time></trkpt><trkpt lat="42.1658012" lon="12.7250749"><ele>135.0</ele><time>2026-04-26T17:10:51.358Z</time></trkpt><trkpt lat="42.1656955" lon="12.7248575"><ele>135.0</ele><time>2026-04-26T17:10:52.353Z</time></trkpt><trkpt lat="42.1656073" lon="12.724656"><ele>135.0</ele><time>2026-04-26T17:10:53.377Z</time></trkpt><trkpt lat="42.1655195" lon="12.7244619"><ele>145.0</ele><time>2026-04-26T17:10:54.357Z</time></trkpt><trkpt lat="42.1654553" lon="12.7242503"><ele>155.0</ele><time>2026-04-26T17:10:55.381Z</time></trkpt><trkpt lat="42.1654148" lon="12.724034"><ele>165.0</ele><time>2026-04-26T17:10:56.36Z</time></trkpt><trkpt lat="42.1654003" lon="12.7238222"><ele>165.0</ele><time>2026-04-26T17:10:57.348Z</time></trkpt><trkpt lat="42.1653943" lon="12.7236012"><ele>165.0</ele><time>2026-04-26T17:10:58.354Z</time></trkpt><trkpt lat="42.1653931" lon="12.7234009"><ele>165.0</ele><time>2026-04-26T17:10:59.352Z</time></trkpt><trkpt lat="42.1654015" lon="12.7231906"><ele>164.25</ele><time>2026-04-26T17:11:00.353Z</time></trkpt><trkpt lat="42.165414" lon="12.7229828"><ele>163.5</ele><time>2026-04-26T17:11:01.378Z</time></trkpt><trkpt lat="42.1654263" lon="12.7227852"><ele>162.75</ele><time>2026-04-26T17:11:02.349Z</time></trkpt><trkpt lat="42.1654384" lon="12.7226271"><ele>162.0</ele><time>2026-04-26T17:11:03.35Z</time></trkpt><trkpt lat="42.1654779" lon="12.7224852"><ele>161.8</ele><time>2026-04-26T17:11:04.352Z</time></trkpt><trkpt lat="42.1655081" lon="12.7223589"><ele>161.6</ele><time>2026-04-26T17:11:05.36Z</time></trkpt><trkpt lat="42.1655351" lon="12.7222367"><ele>161.4</ele><time>2026-04-26T17:11:06.355Z</time></trkpt><trkpt lat="42.1655675" lon="12.7220891"><ele>161.20000000000002</ele><time>2026-04-26T17:11:07.351Z</time></trkpt><trkpt lat="42.1656165" lon="12.7219495"><ele>161.0</ele><time>2026-04-26T17:11:08.352Z</time></trkpt><trkpt lat="42.1656785" lon="12.7218175"><ele>158.0</ele><time>2026-04-26T17:11:09.363Z</time></trkpt><trkpt lat="42.165741" lon="12.7216832"><ele>155.0</ele><time>2026-04-26T17:11:10.352Z</time></trkpt><trkpt lat="42.165803" lon="12.7215492"><ele>152.0</ele><time>2026-04-26T17:11:11.357Z</time></trkpt><trkpt lat="42.1658647" lon="12.7214223"><ele>149.0</ele><time>2026-04-26T17:11:12.355Z</time></trkpt><trkpt lat="42.1659238" lon="12.7213042"><ele>149.0</ele><time>2026-04-26T17:11:13.348Z</time></trkpt><trkpt lat="42.165963" lon="12.7212097"><ele>149.0</ele><time>2026-04-26T17:11:14.377Z</time></trkpt><trkpt lat="42.1658975" lon="12.7212967"><ele>149.0</ele><time>2026-04-26T17:11:18.35Z</time></trkpt><trkpt lat="42.1658442" lon="12.7214583"><ele>149.0</ele><time>2026-04-26T17:11:19.347Z</time></trkpt><trkpt lat="42.1657955" lon="12.721614"><ele>149.0</ele><time>2026-04-26T17:11:20.347Z</time></trkpt><trkpt lat="42.1657412" lon="12.7217843"><ele>151.0</ele><time>2026-04-26T17:11:21.346Z</time></trkpt><trkpt lat="42.1656754" lon="12.7219553"><ele>153.0</ele><time>2026-04-26T17:11:22.342Z</time></trkpt><trkpt lat="42.1656059" lon="12.7221196"><ele>155.0</ele><time>2026-04-26T17:11:23.347Z</time></trkpt><trkpt lat="42.1655362" lon="12.72227"><ele>157.0</ele><time>2026-04-26T17:11:24.497Z</time></trkpt><trkpt lat="42.1654591" lon="12.7223975"><ele>157.0</ele><time>2026-04-26T17:11:25.67Z</time></trkpt><trkpt lat="42.1652374" lon="12.7225585"><ele>157.0</ele><time>2026-04-26T17:11:27.351Z</time></trkpt><trkpt lat="42.165111" lon="12.7225997"><ele>157.0</ele><time>2026-04-26T17:11:28.419Z</time></trkpt><trkpt lat="42.1649874" lon="12.722648"><ele>157.0</ele><time>2026-04-26T17:11:29.357Z</time></trkpt><trkpt lat="42.1648987" lon="12.7226826"><ele>157.0</ele><time>2026-04-26T17:11:30.377Z</time></trkpt><trkpt lat="42.1648242" lon="12.7227229"><ele>157.0</ele><time>2026-04-26T17:11:33.352Z</time></trkpt><trkpt lat="42.1648241" lon="12.7229163"><ele>157.0</ele><time>2026-04-26T17:11:35.373Z</time></trkpt><trkpt lat="42.1648416" lon="12.7230505"><ele>157.0</ele><time>2026-04-26T17:11:36.35Z</time></trkpt><trkpt lat="42.1648667" lon="12.7232192"><ele>158.66666666666669</ele><time>2026-04-26T17:11:37.345Z</time></trkpt><trkpt lat="42.1649016" lon="12.7234095"><ele>160.33333333333334</ele><time>2026-04-26T17:11:38.343Z</time></trkpt><trkpt lat="42.1649345" lon="12.7236079"><ele>162.0</ele><time>2026-04-26T17:11:39.344Z</time></trkpt><trkpt lat="42.1649807" lon="12.7238205"><ele>163.0</ele><time>2026-04-26T17:11:40.372Z</time></trkpt><trkpt lat="42.1650321" lon="12.7240498"><ele>164.0</ele><time>2026-04-26T17:11:41.362Z</time></trkpt><trkpt lat="42.1650995" lon="12.7242878"><ele>165.0</ele><time>2026-04-26T17:11:42.433Z</time></trkpt><trkpt lat="42.165129" lon="12.724498"><ele>161.5</ele><time>2026-04-26T17:11:43.337Z</time></trkpt><trkpt lat="42.1651465" lon="12.7247035"><ele>158.0</ele><time>2026-04-26T17:11:44.491Z</time></trkpt><trkpt lat="42.1650413" lon="12.7251125"><ele>158.66666666666666</ele><time>2026-04-26T17:11:46.335Z</time></trkpt><trkpt lat="42.1649282" lon="12.7252777"><ele>159.33333333333334</ele><time>2026-04-26T17:11:47.342Z</time></trkpt><trkpt lat="42.1647662" lon="12.7253281"><ele>160.0</ele><time>2026-04-26T17:11:48.333Z</time></trkpt><trkpt lat="42.1646168" lon="12.7253595"><ele>160.0</ele><time>2026-04-26T17:11:49.336Z</time></trkpt><trkpt lat="42.1645037" lon="12.7253727"><ele>160.0</ele><time>2026-04-26T17:11:50.5Z</time></trkpt><trkpt lat="42.1643746" lon="12.725398"><ele>160.0</ele><time>2026-04-26T17:11:51.808Z</time></trkpt><trkpt lat="42.1641628" lon="12.7252437"><ele>164.5</ele><time>2026-04-26T17:11:53.816Z</time></trkpt><trkpt lat="42.1639664" lon="12.7250119"><ele>169.0</ele><time>2026-04-26T17:11:55.653Z</time></trkpt><trkpt lat="42.1637891" lon="12.7249044"><ele>169.0</ele><time>2026-04-26T17:11:57.514Z</time></trkpt><trkpt lat="42.1636054" lon="12.7249301"><ele>169.0</ele><time>2026-04-26T17:11:59.395Z</time></trkpt><trkpt lat="42.163538" lon="12.7249833"><ele>169.0</ele><time>2026-04-26T17:12:00.394Z</time></trkpt><trkpt lat="42.1634181" lon="12.7250496"><ele>169.0</ele><time>2026-04-26T17:12:02.396Z</time></trkpt><trkpt lat="42.1633611" lon="12.7251564"><ele>170.33333333333334</ele><time>2026-04-26T17:12:10.409Z</time></trkpt><trkpt lat="42.1633762" lon="12.725333"><ele>171.66666666666666</ele><time>2026-04-26T17:12:12.725Z</time></trkpt><trkpt lat="42.1634925" lon="12.7256498"><ele>173.0</ele><time>2026-04-26T17:12:14.731Z</time></trkpt><trkpt lat="42.1636143" lon="12.7260815"><ele>187.0</ele><time>2026-04-26T17:12:16.571Z</time></trkpt><trkpt lat="42.1637622" lon="12.7267861"><ele>188.33333333333334</ele><time>2026-04-26T17:12:18.567Z</time></trkpt><trkpt lat="42.1637871" lon="12.7271049"><ele>189.66666666666666</ele><time>2026-04-26T17:12:19.235Z</time></trkpt><trkpt lat="42.1637821" lon="12.7273692"><ele>191.0</ele><time>2026-04-26T17:12:20.561Z</time></trkpt><trkpt lat="42.1637714" lon="12.7276249"><ele>190.0</ele><time>2026-04-26T17:12:21.556Z</time></trkpt><trkpt lat="42.1637498" lon="12.7280742"><ele>189.0</ele><time>2026-04-26T17:12:23.225Z</time></trkpt><trkpt lat="42.1636603" lon="12.7282411"><ele>188.5</ele><time>2026-04-26T17:12:24.325Z</time></trkpt><trkpt lat="42.1635705" lon="12.7287041"><ele>188.0</ele><time>2026-04-26T17:12:26.359Z</time></trkpt><trkpt lat="42.1635083" lon="12.7293784"><ele>185.0</ele><time>2026-04-26T17:12:28.676Z</time></trkpt><trkpt lat="42.1634686" lon="12.7300042"><ele>183.66666666666666</ele><time>2026-04-26T17:12:30.201Z</time></trkpt><trkpt lat="42.1634239" lon="12.7302453"><ele>182.33333333333334</ele><time>2026-04-26T17:12:31.361Z</time></trkpt><trkpt lat="42.1633811" lon="12.7305289"><ele>181.0</ele><time>2026-04-26T17:12:32.357Z</time></trkpt><trkpt lat="42.1633089" lon="12.7307805"><ele>185.0</ele><time>2026-04-26T17:12:33.354Z</time></trkpt><trkpt lat="42.1630829" lon="12.7313072"><ele>185.0</ele><time>2026-04-26T17:12:35.367Z</time></trkpt><trkpt lat="42.1629598" lon="12.7315451"><ele>185.0</ele><time>2026-04-26T17:12:36.522Z</time></trkpt><trkpt lat="42.1628414" lon="12.7317565"><ele>185.0</ele><time>2026-04-26T17:12:37.511Z</time></trkpt><trkpt lat="42.1626226" lon="12.7321665"><ele>187.33333333333331</ele><time>2026-04-26T17:12:39.361Z</time></trkpt><trkpt lat="42.162466" lon="12.7325175"><ele>189.66666666666666</ele><time>2026-04-26T17:12:41.201Z</time></trkpt><trkpt lat="42.1624279" lon="12.7326996"><ele>192.0</ele><time>2026-04-26T17:12:42.208Z</time></trkpt><trkpt lat="42.1624201" lon="12.7329435"><ele>192.33333333333331</ele><time>2026-04-26T17:12:43.366Z</time></trkpt><trkpt lat="42.1624292" lon="12.7332145"><ele>192.66666666666666</ele><time>2026-04-26T17:12:44.366Z</time></trkpt><trkpt lat="42.162459" lon="12.7334777"><ele>193.0</ele><time>2026-04-26T17:12:45.346Z</time></trkpt><trkpt lat="42.1624827" lon="12.7339718"><ele>193.0</ele><time>2026-04-26T17:12:47.042Z</time></trkpt><trkpt lat="42.1624973" lon="12.7342215"><ele>193.0</ele><time>2026-04-26T17:12:48.208Z</time></trkpt><trkpt lat="42.1625187" lon="12.7344748"><ele>193.0</ele><time>2026-04-26T17:12:49.211Z</time></trkpt><trkpt lat="42.162542" lon="12.7347013"><ele>193.33333333333331</ele><time>2026-04-26T17:12:50.209Z</time></trkpt><trkpt lat="42.1625549" lon="12.7349391"><ele>193.66666666666669</ele><time>2026-04-26T17:12:51.206Z</time></trkpt><trkpt lat="42.1625671" lon="12.7351867"><ele>194.0</ele><time>2026-04-26T17:12:52.207Z</time></trkpt><trkpt lat="42.1625909" lon="12.735664"><ele>195.0</ele><time>2026-04-26T17:12:54.051Z</time></trkpt><trkpt lat="42.1626014" lon="12.7358767"><ele>196.0</ele><time>2026-04-26T17:12:55.054Z</time></trkpt><trkpt lat="42.1626126" lon="12.7360709"><ele>197.0</ele><time>2026-04-26T17:12:56.208Z</time></trkpt><trkpt lat="42.1626065" lon="12.7362969"><ele>199.0</ele><time>2026-04-26T17:12:57.216Z</time></trkpt><trkpt lat="42.1626223" lon="12.7368612"><ele>201.0</ele><time>2026-04-26T17:12:59.051Z</time></trkpt><trkpt lat="42.1626423" lon="12.737206"><ele>205.0</ele><time>2026-04-26T17:13:00.206Z</time></trkpt><trkpt lat="42.1626733" lon="12.737523"><ele>209.0</ele><time>2026-04-26T17:13:01.203Z</time></trkpt><trkpt lat="42.1627089" lon="12.7380733"><ele>211.0</ele><time>2026-04-26T17:13:03.212Z</time></trkpt><trkpt lat="42.1627292" lon="12.7382992"><ele>213.0</ele><time>2026-04-26T17:13:04.208Z</time></trkpt><trkpt lat="42.1627546" lon="12.7385237"><ele>215.0</ele><time>2026-04-26T17:13:05.357Z</time></trkpt><trkpt lat="42.1627796" lon="12.7389517"><ele>216.66666666666669</ele><time>2026-04-26T17:13:07.21Z</time></trkpt><trkpt lat="42.1627788" lon="12.7391542"><ele>218.33333333333331</ele><time>2026-04-26T17:13:08.367Z</time></trkpt><trkpt lat="42.162796" lon="12.7393622"><ele>220.0</ele><time>2026-04-26T17:13:09.361Z</time></trkpt><trkpt lat="42.1628204" lon="12.7397655"><ele>220.0</ele><time>2026-04-26T17:13:11.045Z</time></trkpt><trkpt lat="42.1628434" lon="12.7399499"><ele>220.0</ele><time>2026-04-26T17:13:12.359Z</time></trkpt><trkpt lat="42.1628807" lon="12.7401266"><ele>220.0</ele><time>2026-04-26T17:13:13.367Z</time></trkpt><trkpt lat="42.162902" lon="12.7402999"><ele>220.0</ele><time>2026-04-26T17:13:14.369Z</time></trkpt><trkpt lat="42.1630027" lon="12.7406659"><ele>219.99999999999997</ele><time>2026-04-26T17:13:16.209Z</time></trkpt><trkpt lat="42.1630649" lon="12.7407605"><ele>220.0</ele><time>2026-04-26T17:13:17.205Z</time></trkpt><trkpt lat="42.163118" lon="12.7408249"><ele>220.0</ele><time>2026-04-26T17:13:18.36Z</time></trkpt><trkpt lat="42.163047" lon="12.740896"><ele>220.0</ele><time>2026-04-26T17:13:21.063Z</time></trkpt><trkpt lat="42.1629379" lon="12.7409249"><ele>219.99999999999997</ele><time>2026-04-26T17:13:23.065Z</time></trkpt><trkpt lat="42.1628698" lon="12.7408749"><ele>220.0</ele><time>2026-04-26T17:13:24.067Z</time></trkpt><trkpt lat="42.1628042" lon="12.7408007"><ele>220.0</ele><time>2026-04-26T17:13:25.066Z</time></trkpt><trkpt lat="42.1627458" lon="12.7407036"><ele>220.0</ele><time>2026-04-26T17:13:26.042Z</time></trkpt><trkpt lat="42.1626886" lon="12.740592"><ele>220.0</ele><time>2026-04-26T17:13:27.062Z</time></trkpt><trkpt lat="42.1626386" lon="12.7404969"><ele>220.0</ele><time>2026-04-26T17:13:28.041Z</time></trkpt><trkpt lat="42.1625897" lon="12.7403897"><ele>220.0</ele><time>2026-04-26T17:13:29.039Z</time></trkpt><trkpt lat="42.1625316" lon="12.7402825"><ele>220.25</ele><time>2026-04-26T17:13:30.28Z</time></trkpt><trkpt lat="42.16248" lon="12.7401787"><ele>220.5</ele><time>2026-04-26T17:13:31.359Z</time></trkpt><trkpt lat="42.1623494" lon="12.7399354"><ele>220.75</ele><time>2026-04-26T17:13:33.069Z</time></trkpt><trkpt lat="42.1622799" lon="12.7397934"><ele>221.0</ele><time>2026-04-26T17:13:34.071Z</time></trkpt><trkpt lat="42.1622048" lon="12.7396701"><ele>220.20000000000002</ele><time>2026-04-26T17:13:35.071Z</time></trkpt><trkpt lat="42.1621331" lon="12.7395525"><ele>219.40000000000003</ele><time>2026-04-26T17:13:36.046Z</time></trkpt><trkpt lat="42.1620652" lon="12.739425"><ele>218.6</ele><time>2026-04-26T17:13:37.044Z</time></trkpt><trkpt lat="42.1619937" lon="12.7393035"><ele>217.8</ele><time>2026-04-26T17:13:38.044Z</time></trkpt><trkpt lat="42.1619387" lon="12.7391917"><ele>217.0</ele><time>2026-04-26T17:13:39.067Z</time></trkpt><trkpt lat="42.1618797" lon="12.7390614"><ele>217.0</ele><time>2026-04-26T17:13:40.049Z</time></trkpt><trkpt lat="42.1618121" lon="12.7389173"><ele>217.0</ele><time>2026-04-26T17:13:41.046Z</time></trkpt><trkpt lat="42.1617455" lon="12.7387817"><ele>217.0</ele><time>2026-04-26T17:13:42.043Z</time></trkpt><trkpt lat="42.161683" lon="12.7386435"><ele>217.0</ele><time>2026-04-26T17:13:43.051Z</time></trkpt><trkpt lat="42.1616135" lon="12.7384976"><ele>216.75</ele><time>2026-04-26T17:13:44.05Z</time></trkpt><trkpt lat="42.1615365" lon="12.7383647"><ele>216.5</ele><time>2026-04-26T17:13:45.041Z</time></trkpt><trkpt lat="42.1614601" lon="12.7382328"><ele>216.25</ele><time>2026-04-26T17:13:46.044Z</time></trkpt><trkpt lat="42.1613928" lon="12.7381094"><ele>216.0</ele><time>2026-04-26T17:13:47.043Z</time></trkpt><trkpt lat="42.1613248" lon="12.7379976"><ele>215.33333333333331</ele><time>2026-04-26T17:13:48.044Z</time></trkpt><trkpt lat="42.1612551" lon="12.7378895"><ele>214.66666666666666</ele><time>2026-04-26T17:13:49.212Z</time></trkpt><trkpt lat="42.1611134" lon="12.7376314"><ele>214.0</ele><time>2026-04-26T17:13:51.066Z</time></trkpt><trkpt lat="42.1610454" lon="12.7374941"><ele>213.75</ele><time>2026-04-26T17:13:52.082Z</time></trkpt><trkpt lat="42.1609899" lon="12.737354"><ele>213.5</ele><time>2026-04-26T17:13:53.063Z</time></trkpt><trkpt lat="42.1609337" lon="12.7372056"><ele>213.25</ele><time>2026-04-26T17:13:54.036Z</time></trkpt><trkpt lat="42.1608747" lon="12.7370347"><ele>213.0</ele><time>2026-04-26T17:13:55.039Z</time></trkpt><trkpt lat="42.1608253" lon="12.7368665"><ele>211.5</ele><time>2026-04-26T17:13:56.043Z</time></trkpt><trkpt lat="42.1607733" lon="12.7367058"><ele>210.0</ele><time>2026-04-26T17:13:57.04Z</time></trkpt><trkpt lat="42.1607182" lon="12.7365502"><ele>208.5</ele><time>2026-04-26T17:13:58.038Z</time></trkpt><trkpt lat="42.1606608" lon="12.7363791"><ele>207.0</ele><time>2026-04-26T17:13:59.035Z</time></trkpt><trkpt lat="42.1606022" lon="12.7361978"><ele>206.33333333333331</ele><time>2026-04-26T17:14:00.032Z</time></trkpt><trkpt lat="42.1605648" lon="12.7360072"><ele>205.66666666666666</ele><time>2026-04-26T17:14:01.034Z</time></trkpt><trkpt lat="42.1605077" lon="12.7357929"><ele>205.0</ele><time>2026-04-26T17:14:02.037Z</time></trkpt><trkpt lat="42.1604425" lon="12.7355899"><ele>205.0</ele><time>2026-04-26T17:14:03.036Z</time></trkpt><trkpt lat="42.1603697" lon="12.7354351"><ele>205.0</ele><time>2026-04-26T17:14:04.03Z</time></trkpt><trkpt lat="42.1603057" lon="12.735305"><ele>205.0</ele><time>2026-04-26T17:14:05.048Z</time></trkpt><trkpt lat="42.1602356" lon="12.7351517"><ele>205.0</ele><time>2026-04-26T17:14:06.04Z</time></trkpt><trkpt lat="42.160138" lon="12.7349856"><ele>205.33333333333331</ele><time>2026-04-26T17:14:07.043Z</time></trkpt><trkpt lat="42.1600454" lon="12.7347891"><ele>205.66666666666669</ele><time>2026-04-26T17:14:08.047Z</time></trkpt><trkpt lat="42.1599802" lon="12.7345962"><ele>206.0</ele><time>2026-04-26T17:14:09.044Z</time></trkpt><trkpt lat="42.1599095" lon="12.7344372"><ele>207.25</ele><time>2026-04-26T17:14:10.051Z</time></trkpt><trkpt lat="42.1598478" lon="12.7342958"><ele>208.5</ele><time>2026-04-26T17:14:11.041Z</time></trkpt><trkpt lat="42.1598056" lon="12.7341684"><ele>209.75</ele><time>2026-04-26T17:14:12.052Z</time></trkpt><trkpt lat="42.1597195" lon="12.7340477"><ele>211.0</ele><time>2026-04-26T17:14:13.072Z</time></trkpt><trkpt lat="42.1596425" lon="12.7339084"><ele>211.0</ele><time>2026-04-26T17:14:14.05Z</time></trkpt><trkpt lat="42.1595705" lon="12.7337879"><ele>211.0</ele><time>2026-04-26T17:14:15.053Z</time></trkpt><trkpt lat="42.1594936" lon="12.733646"><ele>211.0</ele><time>2026-04-26T17:14:16.041Z</time></trkpt><trkpt lat="42.1594038" lon="12.7334651"><ele>211.0</ele><time>2026-04-26T17:14:17.051Z</time></trkpt><trkpt lat="42.1593317" lon="12.7332871"><ele>211.25</ele><time>2026-04-26T17:14:18.047Z</time></trkpt><trkpt lat="42.1592788" lon="12.7331107"><ele>211.5</ele><time>2026-04-26T17:14:19.044Z</time></trkpt><trkpt lat="42.1592342" lon="12.7329219"><ele>211.75</ele><time>2026-04-26T17:14:20.045Z</time></trkpt><trkpt lat="42.1591872" lon="12.7327318"><ele>212.0</ele><time>2026-04-26T17:14:21.042Z</time></trkpt><trkpt lat="42.159149" lon="12.7325528"><ele>210.66666666666669</ele><time>2026-04-26T17:14:22.054Z</time></trkpt><trkpt lat="42.1591036" lon="12.7323384"><ele>209.33333333333331</ele><time>2026-04-26T17:14:23.039Z</time></trkpt><trkpt lat="42.1590667" lon="12.7321532"><ele>208.0</ele><time>2026-04-26T17:14:24.062Z</time></trkpt><trkpt lat="42.1590177" lon="12.7319598"><ele>209.75</ele><time>2026-04-26T17:14:25.041Z</time></trkpt><trkpt lat="42.1589714" lon="12.7317825"><ele>211.5</ele><time>2026-04-26T17:14:26.081Z</time></trkpt><trkpt lat="42.1589214" lon="12.7315985"><ele>213.25</ele><time>2026-04-26T17:14:27.066Z</time></trkpt><trkpt lat="42.1588784" lon="12.7314225"><ele>215.0</ele><time>2026-04-26T17:14:28.059Z</time></trkpt><trkpt lat="42.1588441" lon="12.7312717"><ele>215.0</ele><time>2026-04-26T17:14:29.036Z</time></trkpt><trkpt lat="42.1588033" lon="12.731123"><ele>215.0</ele><time>2026-04-26T17:14:30.056Z</time></trkpt><trkpt lat="42.1587853" lon="12.7309368"><ele>215.0</ele><time>2026-04-26T17:14:31.032Z</time></trkpt><trkpt lat="42.1587742" lon="12.7307756"><ele>215.0</ele><time>2026-04-26T17:14:32.026Z</time></trkpt><trkpt lat="42.1587627" lon="12.7306235"><ele>214.5</ele><time>2026-04-26T17:14:33.027Z</time></trkpt><trkpt lat="42.1587586" lon="12.7304549"><ele>214.0</ele><time>2026-04-26T17:14:34.031Z</time></trkpt><trkpt lat="42.1587757" lon="12.7303053"><ele>213.5</ele><time>2026-04-26T17:14:35.03Z</time></trkpt><trkpt lat="42.1587405" lon="12.7301677"><ele>213.0</ele><time>2026-04-26T17:14:36.032Z</time></trkpt><trkpt lat="42.1587292" lon="12.7300242"><ele>212.2</ele><time>2026-04-26T17:14:37.026Z</time></trkpt><trkpt lat="42.1587282" lon="12.7298899"><ele>211.4</ele><time>2026-04-26T17:14:38.053Z</time></trkpt><trkpt lat="42.1587396" lon="12.7297597"><ele>210.6</ele><time>2026-04-26T17:14:39.06Z</time></trkpt><trkpt lat="42.1587556" lon="12.7296478"><ele>209.79999999999998</ele><time>2026-04-26T17:14:40.055Z</time></trkpt><trkpt lat="42.1587767" lon="12.7295372"><ele>209.0</ele><time>2026-04-26T17:14:41.049Z</time></trkpt><trkpt lat="42.1588056" lon="12.7294277"><ele>208.66666666666669</ele><time>2026-04-26T17:14:42.268Z</time></trkpt><trkpt lat="42.1588305" lon="12.7293328"><ele>208.33333333333334</ele><time>2026-04-26T17:14:43.226Z</time></trkpt><trkpt lat="42.1589264" lon="12.7291805"><ele>208.0</ele><time>2026-04-26T17:14:45.084Z</time></trkpt><trkpt lat="42.1589828" lon="12.7291218"><ele>207.66666666666669</ele><time>2026-04-26T17:14:46.073Z</time></trkpt><trkpt lat="42.1590308" lon="12.7290473"><ele>207.33333333333334</ele><time>2026-04-26T17:14:47.055Z</time></trkpt><trkpt lat="42.1590672" lon="12.7289634"><ele>207.0</ele><time>2026-04-26T17:14:48.056Z</time></trkpt><trkpt lat="42.1590968" lon="12.7287991"><ele>206.0</ele><time>2026-04-26T17:14:50.023Z</time></trkpt><trkpt lat="42.1590974" lon="12.7287039"><ele>205.0</ele><time>2026-04-26T17:14:51.027Z</time></trkpt><trkpt lat="42.1591" lon="12.7285904"><ele>204.0</ele><time>2026-04-26T17:14:52.023Z</time></trkpt><trkpt lat="42.159081" lon="12.728486"><ele>203.0</ele><time>2026-04-26T17:14:53.022Z</time></trkpt><trkpt lat="42.1590601" lon="12.728372"><ele>202.0</ele><time>2026-04-26T17:14:54.02Z</time></trkpt><trkpt lat="42.1590451" lon="12.7282773"><ele>201.0</ele><time>2026-04-26T17:14:55.027Z</time></trkpt><trkpt lat="42.1590243" lon="12.7281866"><ele>201.0</ele><time>2026-04-26T17:14:56.028Z</time></trkpt><trkpt lat="42.1590067" lon="12.7281008"><ele>201.0</ele><time>2026-04-26T17:14:57.031Z</time></trkpt><trkpt lat="42.158975" lon="12.7280187"><ele>201.0</ele><time>2026-04-26T17:14:58.049Z</time></trkpt><trkpt lat="42.1589325" lon="12.7279359"><ele>201.0</ele><time>2026-04-26T17:14:59.022Z</time></trkpt><trkpt lat="42.1589013" lon="12.7278382"><ele>201.0</ele><time>2026-04-26T17:15:00.031Z</time></trkpt><trkpt lat="42.1588719" lon="12.7277329"><ele>201.0</ele><time>2026-04-26T17:15:01.033Z</time></trkpt><trkpt lat="42.1588218" lon="12.7276185"><ele>198.0</ele><time>2026-04-26T17:15:02.03Z</time></trkpt><trkpt lat="42.1587627" lon="12.7275097"><ele>195.0</ele><time>2026-04-26T17:15:03.033Z</time></trkpt><trkpt lat="42.1586833" lon="12.7274027"><ele>192.0</ele><time>2026-04-26T17:15:04.048Z</time></trkpt><trkpt lat="42.1585911" lon="12.7272501"><ele>189.0</ele><time>2026-04-26T17:15:05.026Z</time></trkpt><trkpt lat="42.1585049" lon="12.7270947"><ele>189.0</ele><time>2026-04-26T17:15:06.021Z</time></trkpt><trkpt lat="42.1584236" lon="12.7269411"><ele>189.0</ele><time>2026-04-26T17:15:07.022Z</time></trkpt><trkpt lat="42.1583494" lon="12.7268168"><ele>189.0</ele><time>2026-04-26T17:15:08.027Z</time></trkpt><trkpt lat="42.158284" lon="12.7267147"><ele>189.0</ele><time>2026-04-26T17:15:09.053Z</time></trkpt><trkpt lat="42.1582173" lon="12.7266322"><ele>189.0</ele><time>2026-04-26T17:15:10.027Z</time></trkpt><trkpt lat="42.1581508" lon="12.7265743"><ele>186.79999999999998</ele><time>2026-04-26T17:15:11.027Z</time></trkpt><trkpt lat="42.1580745" lon="12.7265594"><ele>184.6</ele><time>2026-04-26T17:15:12.048Z</time></trkpt><trkpt lat="42.1579884" lon="12.7265751"><ele>182.4</ele><time>2026-04-26T17:15:13.022Z</time></trkpt><trkpt lat="42.1578919" lon="12.7266071"><ele>180.2</ele><time>2026-04-26T17:15:14.032Z</time></trkpt><trkpt lat="42.1578047" lon="12.7266676"><ele>178.0</ele><time>2026-04-26T17:15:15.018Z</time></trkpt><trkpt lat="42.1577313" lon="12.7267516"><ele>178.0</ele><time>2026-04-26T17:15:16.027Z</time></trkpt><trkpt lat="42.1576599" lon="12.7268547"><ele>178.0</ele><time>2026-04-26T17:15:17.043Z</time></trkpt><trkpt lat="42.1575924" lon="12.7269516"><ele>178.0</ele><time>2026-04-26T17:15:18.054Z</time></trkpt><trkpt lat="42.1575136" lon="12.7270256"><ele>178.0</ele><time>2026-04-26T17:15:19.05Z</time></trkpt><trkpt lat="42.1574385" lon="12.727085"><ele>178.0</ele><time>2026-04-26T17:15:20.051Z</time></trkpt><trkpt lat="42.1573396" lon="12.7271311"><ele>178.60000000000002</ele><time>2026-04-26T17:15:21.014Z</time></trkpt><trkpt lat="42.1572418" lon="12.7271699"><ele>179.20000000000002</ele><time>2026-04-26T17:15:22.014Z</time></trkpt><trkpt lat="42.1571377" lon="12.727195"><ele>179.8</ele><time>2026-04-26T17:15:23.022Z</time></trkpt><trkpt lat="42.1570255" lon="12.7272193"><ele>180.4</ele><time>2026-04-26T17:15:24.035Z</time></trkpt><trkpt lat="42.1569126" lon="12.7272422"><ele>181.0</ele><time>2026-04-26T17:15:25.014Z</time></trkpt><trkpt lat="42.1567927" lon="12.7272373"><ele>181.0</ele><time>2026-04-26T17:15:26.023Z</time></trkpt><trkpt lat="42.1566749" lon="12.7272284"><ele>181.0</ele><time>2026-04-26T17:15:27.016Z</time></trkpt><trkpt lat="42.1565689" lon="12.7272093"><ele>181.0</ele><time>2026-04-26T17:15:28.019Z</time></trkpt><trkpt lat="42.1564796" lon="12.7271942"><ele>181.0</ele><time>2026-04-26T17:15:29.022Z</time></trkpt><trkpt lat="42.1563952" lon="12.7271591"><ele>181.0</ele><time>2026-04-26T17:15:30.019Z</time></trkpt><trkpt lat="42.1563215" lon="12.7271169"><ele>178.8</ele><time>2026-04-26T17:15:31.02Z</time></trkpt><trkpt lat="42.1562413" lon="12.7270959"><ele>176.60000000000002</ele><time>2026-04-26T17:15:32.025Z</time></trkpt><trkpt lat="42.156162" lon="12.7271008"><ele>174.4</ele><time>2026-04-26T17:15:33.023Z</time></trkpt><trkpt lat="42.1560719" lon="12.7271251"><ele>172.2</ele><time>2026-04-26T17:15:34.02Z</time></trkpt><trkpt lat="42.1559713" lon="12.7271405"><ele>170.0</ele><time>2026-04-26T17:15:35.016Z</time></trkpt><trkpt lat="42.1558711" lon="12.7271636"><ele>170.0</ele><time>2026-04-26T17:15:36.015Z</time></trkpt><trkpt lat="42.1557772" lon="12.7271825"><ele>170.0</ele><time>2026-04-26T17:15:37.099Z</time></trkpt><trkpt lat="42.1556903" lon="12.7272245"><ele>170.0</ele><time>2026-04-26T17:15:38.179Z</time></trkpt><trkpt lat="42.1555678" lon="12.7273456"><ele>170.0</ele><time>2026-04-26T17:15:40.02Z</time></trkpt><trkpt lat="42.1554994" lon="12.7273826"><ele>170.0</ele><time>2026-04-26T17:15:41.043Z</time></trkpt><trkpt lat="42.1554311" lon="12.7273924"><ele>168.83333333333331</ele><time>2026-04-26T17:15:42.014Z</time></trkpt><trkpt lat="42.1553528" lon="12.7273773"><ele>167.66666666666666</ele><time>2026-04-26T17:15:43.04Z</time></trkpt><trkpt lat="42.1552762" lon="12.7273737"><ele>166.5</ele><time>2026-04-26T17:15:44.042Z</time></trkpt><trkpt lat="42.1551995" lon="12.7273745"><ele>165.33333333333334</ele><time>2026-04-26T17:15:45.014Z</time></trkpt><trkpt lat="42.1551201" lon="12.7273769"><ele>164.16666666666669</ele><time>2026-04-26T17:15:46.019Z</time></trkpt><trkpt lat="42.1550541" lon="12.727401"><ele>163.0</ele><time>2026-04-26T17:15:47.014Z</time></trkpt><trkpt lat="42.1549604" lon="12.7274627"><ele>163.83333333333334</ele><time>2026-04-26T17:15:49.016Z</time></trkpt><trkpt lat="42.1548703" lon="12.7276015"><ele>164.66666666666669</ele><time>2026-04-26T17:15:51.013Z</time></trkpt><trkpt lat="42.1548211" lon="12.727691"><ele>165.5</ele><time>2026-04-26T17:15:52.018Z</time></trkpt><trkpt lat="42.1547667" lon="12.7277577"><ele>166.33333333333334</ele><time>2026-04-26T17:15:53.015Z</time></trkpt><trkpt lat="42.1547167" lon="12.7278241"><ele>167.16666666666666</ele><time>2026-04-26T17:15:54.015Z</time></trkpt><trkpt lat="42.1546635" lon="12.7278772"><ele>168.0</ele><time>2026-04-26T17:15:55.177Z</time></trkpt><trkpt lat="42.1545928" lon="12.7279048"><ele>168.0</ele><time>2026-04-26T17:15:56.175Z</time></trkpt><trkpt lat="42.1545009" lon="12.7279036"><ele>168.0</ele><time>2026-04-26T17:15:57.179Z</time></trkpt><trkpt lat="42.1544062" lon="12.7279041"><ele>168.0</ele><time>2026-04-26T17:15:58.334Z</time></trkpt><trkpt lat="42.1543029" lon="12.7278954"><ele>168.0</ele><time>2026-04-26T17:15:59.492Z</time></trkpt><trkpt lat="42.15406" lon="12.7278747"><ele>166.25</ele><time>2026-04-26T17:16:01.343Z</time></trkpt><trkpt lat="42.1539418" lon="12.7278528"><ele>164.5</ele><time>2026-04-26T17:16:02.336Z</time></trkpt><trkpt lat="42.1538422" lon="12.7278269"><ele>162.75</ele><time>2026-04-26T17:16:03.414Z</time></trkpt><trkpt lat="42.1536505" lon="12.7277742"><ele>161.0</ele><time>2026-04-26T17:16:04.942Z</time></trkpt><trkpt lat="42.1535624" lon="12.7277686"><ele>161.0</ele><time>2026-04-26T17:16:06.114Z</time></trkpt><trkpt lat="42.1534831" lon="12.7277648"><ele>161.0</ele><time>2026-04-26T17:16:07.118Z</time></trkpt><trkpt lat="42.1534042" lon="12.7277752"><ele>161.0</ele><time>2026-04-26T17:16:08.128Z</time></trkpt><trkpt lat="42.153252" lon="12.7278094"><ele>161.0</ele><time>2026-04-26T17:16:09.983Z</time></trkpt><trkpt lat="42.1531723" lon="12.7278473"><ele>161.0</ele><time>2026-04-26T17:16:10.984Z</time></trkpt><trkpt lat="42.1530969" lon="12.7279057"><ele>157.25</ele><time>2026-04-26T17:16:12.304Z</time></trkpt><trkpt lat="42.152942" lon="12.7280061"><ele>153.5</ele><time>2026-04-26T17:16:13.986Z</time></trkpt><trkpt lat="42.1528665" lon="12.7280484"><ele>149.75</ele><time>2026-04-26T17:16:14.989Z</time></trkpt><trkpt lat="42.152781" lon="12.7280533"><ele>146.0</ele><time>2026-04-26T17:16:16.138Z</time></trkpt><trkpt lat="42.1526109" lon="12.7280032"><ele>146.0</ele><time>2026-04-26T17:16:18.132Z</time></trkpt><trkpt lat="42.1525204" lon="12.7279672"><ele>146.0</ele><time>2026-04-26T17:16:19.152Z</time></trkpt><trkpt lat="42.1524247" lon="12.7279445"><ele>146.0</ele><time>2026-04-26T17:16:20.14Z</time></trkpt><trkpt lat="42.1523122" lon="12.727938"><ele>146.0</ele><time>2026-04-26T17:16:21.159Z</time></trkpt><trkpt lat="42.1520838" lon="12.7279598"><ele>141.0</ele><time>2026-04-26T17:16:23.144Z</time></trkpt><trkpt lat="42.1518249" lon="12.7280076"><ele>136.0</ele><time>2026-04-26T17:16:24.998Z</time></trkpt><trkpt lat="42.1515807" lon="12.7280601"><ele>132.0</ele><time>2026-04-26T17:16:26.995Z</time></trkpt><trkpt lat="42.1513428" lon="12.7281031"><ele>128.0</ele><time>2026-04-26T17:16:28.992Z</time></trkpt><trkpt lat="42.1512333" lon="12.7281202"><ele>124.0</ele><time>2026-04-26T17:16:29.995Z</time></trkpt><trkpt lat="42.1511225" lon="12.7281427"><ele>124.0</ele><time>2026-04-26T17:16:30.995Z</time></trkpt><trkpt lat="42.1510067" lon="12.7281601"><ele>124.0</ele><time>2026-04-26T17:16:32.003Z</time></trkpt><trkpt lat="42.150904" lon="12.7281766"><ele>124.0</ele><time>2026-04-26T17:16:33.002Z</time></trkpt><trkpt lat="42.150809" lon="12.7282032"><ele>124.0</ele><time>2026-04-26T17:16:34.004Z</time></trkpt><trkpt lat="42.1507042" lon="12.7282296"><ele>124.0</ele><time>2026-04-26T17:16:35Z</time></trkpt><trkpt lat="42.150591" lon="12.7282556"><ele>120.75</ele><time>2026-04-26T17:16:35.996Z</time></trkpt><trkpt lat="42.1504794" lon="12.7282822"><ele>117.5</ele><time>2026-04-26T17:16:37.003Z</time></trkpt><trkpt lat="42.150362" lon="12.7283013"><ele>114.25</ele><time>2026-04-26T17:16:38Z</time></trkpt><trkpt lat="42.1502474" lon="12.7283231"><ele>111.0</ele><time>2026-04-26T17:16:38.988Z</time></trkpt><trkpt lat="42.1501351" lon="12.7283473"><ele>111.0</ele><time>2026-04-26T17:16:39.995Z</time></trkpt><trkpt lat="42.1500287" lon="12.7283699"><ele>111.0</ele><time>2026-04-26T17:16:41.001Z</time></trkpt><trkpt lat="42.1499402" lon="12.7283799"><ele>111.0</ele><time>2026-04-26T17:16:41.991Z</time></trkpt><trkpt lat="42.1498581" lon="12.7283846"><ele>111.0</ele><time>2026-04-26T17:16:42.993Z</time></trkpt><trkpt lat="42.149703" lon="12.7283796"><ele>111.0</ele><time>2026-04-26T17:16:44.829Z</time></trkpt><trkpt lat="42.1496189" lon="12.7283628"><ele>108.5</ele><time>2026-04-26T17:16:45.983Z</time></trkpt><trkpt lat="42.1494452" lon="12.7283201"><ele>106.0</ele><time>2026-04-26T17:16:47.827Z</time></trkpt><trkpt lat="42.1493428" lon="12.7282778"><ele>103.5</ele><time>2026-04-26T17:16:48.827Z</time></trkpt><trkpt lat="42.1492264" lon="12.7282191"><ele>101.0</ele><time>2026-04-26T17:16:49.996Z</time></trkpt><trkpt lat="42.1491084" lon="12.7281694"><ele>100.0</ele><time>2026-04-26T17:16:50.979Z</time></trkpt><trkpt lat="42.1489974" lon="12.72812"><ele>99.0</ele><time>2026-04-26T17:16:51.995Z</time></trkpt><trkpt lat="42.1489008" lon="12.7280763"><ele>98.0</ele><time>2026-04-26T17:16:52.983Z</time></trkpt><trkpt lat="42.1488239" lon="12.7280401"><ele>97.0</ele><time>2026-04-26T17:16:53.986Z</time></trkpt><trkpt lat="42.1487012" lon="12.7279944"><ele>96.0</ele><time>2026-04-26T17:16:56.824Z</time></trkpt><trkpt lat="42.1486389" lon="12.7280614"><ele>96.0</ele><time>2026-04-26T17:19:05.428Z</time></trkpt><trkpt lat="42.1485851" lon="12.7281698"><ele>96.0</ele><time>2026-04-26T17:19:38.441Z</time></trkpt><trkpt lat="42.1485383" lon="12.7282463"><ele>96.0</ele><time>2026-04-26T17:19:48.525Z</time></trkpt><trkpt lat="42.1485024" lon="12.7283277"><ele>96.0</ele><time>2026-04-26T17:20:01.464Z</time></trkpt><trkpt lat="42.1485923" lon="12.7282387"><ele>96.0</ele><time>2026-04-26T17:20:38.45Z</time></trkpt><trkpt lat="42.1486562" lon="12.7282197"><ele>96.0</ele><time>2026-04-26T17:20:46.456Z</time></trkpt><trkpt lat="42.148682" lon="12.7281343"><ele>96.0</ele><time>2026-04-26T17:21:47.469Z</time></trkpt><trkpt lat="42.1486824" lon="12.7282259"><ele>96.0</ele><time>2026-04-26T17:22:13.473Z</time></trkpt><trkpt lat="42.1486504" lon="12.7283112"><ele>96.0</ele><time>2026-04-26T17:22:14.451Z</time></trkpt><trkpt lat="42.148582" lon="12.7284342"><ele>96.0</ele><time>2026-04-26T17:22:15.457Z</time></trkpt><trkpt lat="42.148477" lon="12.7285854"><ele>96.0</ele><time>2026-04-26T17:22:16.461Z</time></trkpt><trkpt lat="42.1483744" lon="12.7287338"><ele>96.5</ele><time>2026-04-26T17:22:17.458Z</time></trkpt><trkpt lat="42.1482834" lon="12.7288613"><ele>97.0</ele><time>2026-04-26T17:22:18.46Z</time></trkpt><trkpt lat="42.1482037" lon="12.7289856"><ele>97.5</ele><time>2026-04-26T17:22:19.482Z</time></trkpt><trkpt lat="42.148101" lon="12.7290897"><ele>98.0</ele><time>2026-04-26T17:22:20.463Z</time></trkpt><trkpt lat="42.147995" lon="12.7291787"><ele>98.66666666666666</ele><time>2026-04-26T17:22:21.48Z</time></trkpt><trkpt lat="42.1478687" lon="12.7292981"><ele>99.33333333333334</ele><time>2026-04-26T17:22:22.47Z</time></trkpt><trkpt lat="42.1477446" lon="12.7294225"><ele>100.0</ele><time>2026-04-26T17:22:23.462Z</time></trkpt><trkpt lat="42.147632" lon="12.7295418"><ele>100.25</ele><time>2026-04-26T17:22:24.458Z</time></trkpt><trkpt lat="42.1475341" lon="12.7296348"><ele>100.5</ele><time>2026-04-26T17:22:25.464Z</time></trkpt><trkpt lat="42.1474239" lon="12.7297367"><ele>100.75</ele><time>2026-04-26T17:22:26.446Z</time></trkpt><trkpt lat="42.1473133" lon="12.7298281"><ele>101.0</ele><time>2026-04-26T17:22:27.453Z</time></trkpt><trkpt lat="42.1471738" lon="12.7299039"><ele>104.25</ele><time>2026-04-26T17:22:28.455Z</time></trkpt><trkpt lat="42.1470318" lon="12.7299625"><ele>107.5</ele><time>2026-04-26T17:22:29.447Z</time></trkpt><trkpt lat="42.1469057" lon="12.7300176"><ele>110.75</ele><time>2026-04-26T17:22:30.453Z</time></trkpt><trkpt lat="42.1467867" lon="12.7300606"><ele>114.0</ele><time>2026-04-26T17:22:31.639Z</time></trkpt><trkpt lat="42.1465925" lon="12.7301314"><ele>116.80000000000001</ele><time>2026-04-26T17:22:33.469Z</time></trkpt><trkpt lat="42.1465151" lon="12.7302039"><ele>119.60000000000001</ele><time>2026-04-26T17:22:34.456Z</time></trkpt><trkpt lat="42.1464444" lon="12.7302972"><ele>122.4</ele><time>2026-04-26T17:22:35.468Z</time></trkpt><trkpt lat="42.146385" lon="12.7303883"><ele>125.2</ele><time>2026-04-26T17:22:36.454Z</time></trkpt><trkpt lat="42.1463183" lon="12.7304614"><ele>128.0</ele><time>2026-04-26T17:22:37.485Z</time></trkpt><trkpt lat="42.1462285" lon="12.7305156"><ele>128.0</ele><time>2026-04-26T17:22:38.453Z</time></trkpt><trkpt lat="42.1461209" lon="12.7305707"><ele>128.0</ele><time>2026-04-26T17:22:39.452Z</time></trkpt><trkpt lat="42.1459965" lon="12.730642"><ele>128.0</ele><time>2026-04-26T17:22:40.456Z</time></trkpt><trkpt lat="42.1458681" lon="12.7307295"><ele>128.0</ele><time>2026-04-26T17:22:41.45Z</time></trkpt><trkpt lat="42.1457549" lon="12.7308118"><ele>131.25</ele><time>2026-04-26T17:22:42.453Z</time></trkpt><trkpt lat="42.1456472" lon="12.7308921"><ele>134.5</ele><time>2026-04-26T17:22:43.445Z</time></trkpt><trkpt lat="42.1455503" lon="12.7310027"><ele>137.75</ele><time>2026-04-26T17:22:44.452Z</time></trkpt><trkpt lat="42.1454571" lon="12.7311397"><ele>141.0</ele><time>2026-04-26T17:22:45.45Z</time></trkpt><trkpt lat="42.1453613" lon="12.7312857"><ele>141.0</ele><time>2026-04-26T17:22:46.448Z</time></trkpt><trkpt lat="42.1452623" lon="12.7314416"><ele>141.0</ele><time>2026-04-26T17:22:47.448Z</time></trkpt><trkpt lat="42.1451643" lon="12.7315802"><ele>141.0</ele><time>2026-04-26T17:22:48.453Z</time></trkpt><trkpt lat="42.1450732" lon="12.7316984"><ele>141.0</ele><time>2026-04-26T17:22:49.446Z</time></trkpt><trkpt lat="42.145007" lon="12.7318086"><ele>141.0</ele><time>2026-04-26T17:22:50.444Z</time></trkpt><trkpt lat="42.1449386" lon="12.7318703"><ele>141.0</ele><time>2026-04-26T17:22:51.592Z</time></trkpt><trkpt lat="42.1448514" lon="12.7319312"><ele>141.0</ele><time>2026-04-26T17:22:52.76Z</time></trkpt><trkpt lat="42.1446822" lon="12.7318948"><ele>141.0</ele><time>2026-04-26T17:22:54.472Z</time></trkpt><trkpt lat="42.1446025" lon="12.7318925"><ele>141.0</ele><time>2026-04-26T17:22:55.434Z</time></trkpt><trkpt lat="42.144533" lon="12.7318568"><ele>143.75</ele><time>2026-04-26T17:22:56.445Z</time></trkpt><trkpt lat="42.1444447" lon="12.7317598"><ele>146.5</ele><time>2026-04-26T17:22:58.445Z</time></trkpt><trkpt lat="42.1443572" lon="12.7315946"><ele>149.25</ele><time>2026-04-26T17:23:00.436Z</time></trkpt><trkpt lat="42.1443039" lon="12.731462"><ele>152.0</ele><time>2026-04-26T17:23:01.459Z</time></trkpt><trkpt lat="42.1442384" lon="12.7313087"><ele>152.0</ele><time>2026-04-26T17:23:02.453Z</time></trkpt><trkpt lat="42.1441877" lon="12.7311467"><ele>152.0</ele><time>2026-04-26T17:23:03.452Z</time></trkpt><trkpt lat="42.1441343" lon="12.7310168"><ele>152.0</ele><time>2026-04-26T17:23:04.448Z</time></trkpt><trkpt lat="42.1440847" lon="12.7309201"><ele>152.0</ele><time>2026-04-26T17:23:05.455Z</time></trkpt><trkpt lat="42.1439675" lon="12.7308978"><ele>152.0</ele><time>2026-04-26T17:23:07.45Z</time></trkpt><trkpt lat="42.1439121" lon="12.7309466"><ele>152.0</ele><time>2026-04-26T17:23:09.462Z</time></trkpt><trkpt lat="42.1439687" lon="12.7310072"><ele>152.0</ele><time>2026-04-26T17:23:11.481Z</time></trkpt><trkpt lat="42.1440603" lon="12.7309536"><ele>152.0</ele><time>2026-04-26T17:23:15.49Z</time></trkpt><trkpt lat="42.1441236" lon="12.7309479"><ele>152.0</ele><time>2026-04-26T17:23:16.479Z</time></trkpt><trkpt lat="42.1442295" lon="12.7309997"><ele>152.0</ele><time>2026-04-26T17:23:18.468Z</time></trkpt><trkpt lat="42.1442885" lon="12.731048"><ele>152.0</ele><time>2026-04-26T17:23:19.459Z</time></trkpt><trkpt lat="42.1443625" lon="12.731121"><ele>151.66666666666666</ele><time>2026-04-26T17:23:21.455Z</time></trkpt><trkpt lat="42.1444001" lon="12.7310454"><ele>151.33333333333331</ele><time>2026-04-26T17:23:30.437Z</time></trkpt><trkpt lat="42.1443454" lon="12.7309152"><ele>151.0</ele><time>2026-04-26T17:23:32.436Z</time></trkpt><trkpt lat="42.144284" lon="12.7308467"><ele>150.66666666666666</ele><time>2026-04-26T17:23:33.434Z</time></trkpt><trkpt lat="42.1442201" lon="12.7307655"><ele>150.33333333333334</ele><time>2026-04-26T17:23:34.435Z</time></trkpt><trkpt lat="42.1441363" lon="12.7307001"><ele>150.0</ele><time>2026-04-26T17:23:35.437Z</time></trkpt><trkpt lat="42.1440432" lon="12.7306181"><ele>150.0</ele><time>2026-04-26T17:23:36.448Z</time></trkpt><trkpt lat="42.1439341" lon="12.7305355"><ele>150.0</ele><time>2026-04-26T17:23:37.446Z</time></trkpt><trkpt lat="42.1438322" lon="12.7304556"><ele>150.0</ele><time>2026-04-26T17:23:38.439Z</time></trkpt><trkpt lat="42.143736" lon="12.7303468"><ele>150.0</ele><time>2026-04-26T17:23:39.432Z</time></trkpt><trkpt lat="42.1436466" lon="12.7302081"><ele>153.33333333333334</ele><time>2026-04-26T17:23:40.436Z</time></trkpt><trkpt lat="42.143585" lon="12.730017"><ele>156.66666666666669</ele><time>2026-04-26T17:23:41.439Z</time></trkpt><trkpt lat="42.1435347" lon="12.7297803"><ele>160.0</ele><time>2026-04-26T17:23:42.442Z</time></trkpt><trkpt lat="42.1435115" lon="12.7295373"><ele>159.66666666666669</ele><time>2026-04-26T17:23:43.44Z</time></trkpt><trkpt lat="42.1434897" lon="12.7293081"><ele>159.33333333333334</ele><time>2026-04-26T17:23:44.435Z</time></trkpt><trkpt lat="42.1434585" lon="12.729101"><ele>159.0</ele><time>2026-04-26T17:23:45.436Z</time></trkpt><trkpt lat="42.1434228" lon="12.7289003"><ele>159.0</ele><time>2026-04-26T17:23:46.435Z</time></trkpt><trkpt lat="42.1434147" lon="12.7286809"><ele>159.0</ele><time>2026-04-26T17:23:47.438Z</time></trkpt><trkpt lat="42.1433704" lon="12.7285234"><ele>159.0</ele><time>2026-04-26T17:23:48.442Z</time></trkpt><trkpt lat="42.1433278" lon="12.728375"><ele>159.0</ele><time>2026-04-26T17:23:49.437Z</time></trkpt><trkpt lat="42.1432325" lon="12.7282895"><ele>157.25</ele><time>2026-04-26T17:23:50.439Z</time></trkpt><trkpt lat="42.1431312" lon="12.7282107"><ele>155.5</ele><time>2026-04-26T17:23:51.465Z</time></trkpt><trkpt lat="42.1430072" lon="12.7281444"><ele>153.75</ele><time>2026-04-26T17:23:52.459Z</time></trkpt><trkpt lat="42.1428855" lon="12.7280687"><ele>152.0</ele><time>2026-04-26T17:23:53.435Z</time></trkpt><trkpt lat="42.1427314" lon="12.727996"><ele>152.0</ele><time>2026-04-26T17:23:54.435Z</time></trkpt><trkpt lat="42.142543" lon="12.7279232"><ele>152.0</ele><time>2026-04-26T17:23:55.451Z</time></trkpt><trkpt lat="42.14236" lon="12.7277763"><ele>152.0</ele><time>2026-04-26T17:23:56.455Z</time></trkpt><trkpt lat="42.142165" lon="12.7276992"><ele>147.66666666666666</ele><time>2026-04-26T17:23:57.457Z</time></trkpt><trkpt lat="42.1420182" lon="12.7276139"><ele>143.33333333333334</ele><time>2026-04-26T17:23:58.46Z</time></trkpt><trkpt lat="42.1418358" lon="12.7275521"><ele>139.0</ele><time>2026-04-26T17:23:59.443Z</time></trkpt><trkpt lat="42.1416978" lon="12.7274738"><ele>138.75</ele><time>2026-04-26T17:24:00.454Z</time></trkpt><trkpt lat="42.1415345" lon="12.7274332"><ele>138.5</ele><time>2026-04-26T17:24:01.449Z</time></trkpt><trkpt lat="42.141375" lon="12.7273889"><ele>138.25</ele><time>2026-04-26T17:24:02.439Z</time></trkpt><trkpt lat="42.1412874" lon="12.7273573"><ele>138.0</ele><time>2026-04-26T17:24:03.47Z</time></trkpt><trkpt lat="42.1411592" lon="12.7272743"><ele>138.0</ele><time>2026-04-26T17:24:04.457Z</time></trkpt><trkpt lat="42.1409672" lon="12.727263"><ele>138.0</ele><time>2026-04-26T17:24:05.438Z</time></trkpt><trkpt lat="42.1407912" lon="12.7272496"><ele>138.0</ele><time>2026-04-26T17:24:06.449Z</time></trkpt><trkpt lat="42.1406353" lon="12.7272137"><ele>137.75</ele><time>2026-04-26T17:24:07.436Z</time></trkpt><trkpt lat="42.1405034" lon="12.7271887"><ele>137.5</ele><time>2026-04-26T17:24:08.442Z</time></trkpt><trkpt lat="42.14038" lon="12.7271411"><ele>137.25</ele><time>2026-04-26T17:24:09.45Z</time></trkpt><trkpt lat="42.1402812" lon="12.7270846"><ele>137.0</ele><time>2026-04-26T17:24:10.45Z</time></trkpt><trkpt lat="42.1401986" lon="12.7270484"><ele>137.0</ele><time>2026-04-26T17:24:11.447Z</time></trkpt><trkpt lat="42.1401058" lon="12.7269156"><ele>137.0</ele><time>2026-04-26T17:24:12.442Z</time></trkpt><trkpt lat="42.1400044" lon="12.7268092"><ele>137.0</ele><time>2026-04-26T17:24:13.457Z</time></trkpt><trkpt lat="42.1399113" lon="12.7266606"><ele>137.0</ele><time>2026-04-26T17:24:14.456Z</time></trkpt><trkpt lat="42.1397815" lon="12.7265373"><ele>137.33333333333331</ele><time>2026-04-26T17:24:15.446Z</time></trkpt><trkpt lat="42.1396371" lon="12.7264065"><ele>137.66666666666666</ele><time>2026-04-26T17:24:16.45Z</time></trkpt><trkpt lat="42.139486" lon="12.7262843"><ele>138.0</ele><time>2026-04-26T17:24:17.458Z</time></trkpt><trkpt lat="42.1392976" lon="12.7261265"><ele>137.0</ele><time>2026-04-26T17:24:18.464Z</time></trkpt><trkpt lat="42.1391282" lon="12.7260016"><ele>136.0</ele><time>2026-04-26T17:24:19.463Z</time></trkpt><trkpt lat="42.1389544" lon="12.7259015"><ele>135.0</ele><time>2026-04-26T17:24:20.446Z</time></trkpt><trkpt lat="42.1387821" lon="12.7257958"><ele>139.0</ele><time>2026-04-26T17:24:21.452Z</time></trkpt><trkpt lat="42.138593" lon="12.7256977"><ele>143.0</ele><time>2026-04-26T17:24:22.446Z</time></trkpt><trkpt lat="42.1384392" lon="12.7256638"><ele>147.0</ele><time>2026-04-26T17:24:23.45Z</time></trkpt><trkpt lat="42.1382533" lon="12.7255993"><ele>150.33333333333334</ele><time>2026-04-26T17:24:24.454Z</time></trkpt><trkpt lat="42.1380611" lon="12.7255967"><ele>153.66666666666669</ele><time>2026-04-26T17:24:25.431Z</time></trkpt><trkpt lat="42.1378474" lon="12.7256072"><ele>157.0</ele><time>2026-04-26T17:24:26.441Z</time></trkpt><trkpt lat="42.1376233" lon="12.7256061"><ele>157.0</ele><time>2026-04-26T17:24:27.443Z</time></trkpt><trkpt lat="42.1373876" lon="12.7256661"><ele>157.0</ele><time>2026-04-26T17:24:28.43Z</time></trkpt><trkpt lat="42.1371872" lon="12.725745"><ele>157.0</ele><time>2026-04-26T17:24:29.441Z</time></trkpt><trkpt lat="42.137005" lon="12.7257964"><ele>158.33333333333334</ele><time>2026-04-26T17:24:30.433Z</time></trkpt><trkpt lat="42.1368426" lon="12.7258614"><ele>159.66666666666666</ele><time>2026-04-26T17:24:31.431Z</time></trkpt><trkpt lat="42.1366919" lon="12.7259121"><ele>161.0</ele><time>2026-04-26T17:24:32.432Z</time></trkpt><trkpt lat="42.1365109" lon="12.7259679"><ele>162.33333333333331</ele><time>2026-04-26T17:24:33.428Z</time></trkpt><trkpt lat="42.1363536" lon="12.7260331"><ele>163.66666666666666</ele><time>2026-04-26T17:24:34.458Z</time></trkpt><trkpt lat="42.136206" lon="12.726117"><ele>165.0</ele><time>2026-04-26T17:24:35.441Z</time></trkpt><trkpt lat="42.1360734" lon="12.7262244"><ele>166.5</ele><time>2026-04-26T17:24:36.438Z</time></trkpt><trkpt lat="42.1359156" lon="12.7263069"><ele>168.0</ele><time>2026-04-26T17:24:37.434Z</time></trkpt><trkpt lat="42.1358017" lon="12.726396"><ele>169.5</ele><time>2026-04-26T17:24:38.524Z</time></trkpt><trkpt lat="42.135673" lon="12.726475"><ele>171.0</ele><time>2026-04-26T17:24:39.841Z</time></trkpt><trkpt lat="42.135411" lon="12.7266361"><ele>173.0</ele><time>2026-04-26T17:24:41.759Z</time></trkpt><trkpt lat="42.1351753" lon="12.7268587"><ele>175.0</ele><time>2026-04-26T17:24:43.467Z</time></trkpt><trkpt lat="42.1350403" lon="12.7269201"><ele>177.0</ele><time>2026-04-26T17:24:44.441Z</time></trkpt><trkpt lat="42.1348687" lon="12.7269749"><ele>181.0</ele><time>2026-04-26T17:24:45.462Z</time></trkpt><trkpt lat="42.1346936" lon="12.727044"><ele>185.0</ele><time>2026-04-26T17:24:46.435Z</time></trkpt><trkpt lat="42.1345457" lon="12.7270911"><ele>189.0</ele><time>2026-04-26T17:24:47.443Z</time></trkpt><trkpt lat="42.1344163" lon="12.7270773"><ele>189.0</ele><time>2026-04-26T17:24:48.464Z</time></trkpt><trkpt lat="42.1343079" lon="12.7270482"><ele>189.0</ele><time>2026-04-26T17:24:49.458Z</time></trkpt><trkpt lat="42.1341866" lon="12.7270011"><ele>189.0</ele><time>2026-04-26T17:24:50.448Z</time></trkpt><trkpt lat="42.1340438" lon="12.726955"><ele>189.0</ele><time>2026-04-26T17:24:51.425Z</time></trkpt><trkpt lat="42.1339524" lon="12.7269646"><ele>188.5</ele><time>2026-04-26T17:24:52.425Z</time></trkpt><trkpt lat="42.1338438" lon="12.7269886"><ele>188.0</ele><time>2026-04-26T17:24:53.422Z</time></trkpt><trkpt lat="42.133746" lon="12.7270837"><ele>187.5</ele><time>2026-04-26T17:24:54.423Z</time></trkpt><trkpt lat="42.1336022" lon="12.7271466"><ele>187.0</ele><time>2026-04-26T17:24:55.421Z</time></trkpt><trkpt lat="42.1335045" lon="12.7271713"><ele>187.0</ele><time>2026-04-26T17:24:56.416Z</time></trkpt><trkpt lat="42.1334312" lon="12.7271943"><ele>187.0</ele><time>2026-04-26T17:24:57.416Z</time></trkpt><trkpt lat="42.1333651" lon="12.7272087"><ele>187.0</ele><time>2026-04-26T17:24:58.421Z</time></trkpt><trkpt lat="42.1332919" lon="12.7271607"><ele>187.0</ele><time>2026-04-26T17:24:59.418Z</time></trkpt><trkpt lat="42.1332207" lon="12.7271064"><ele>187.0</ele><time>2026-04-26T17:25:00.425Z</time></trkpt><trkpt lat="42.1331324" lon="12.7270458"><ele>187.0</ele><time>2026-04-26T17:25:01.417Z</time></trkpt><trkpt lat="42.1330553" lon="12.7269619"><ele>185.0</ele><time>2026-04-26T17:25:02.418Z</time></trkpt><trkpt lat="42.1329893" lon="12.7268898"><ele>183.0</ele><time>2026-04-26T17:25:03.417Z</time></trkpt><trkpt lat="42.1329087" lon="12.7268134"><ele>181.0</ele><time>2026-04-26T17:25:04.415Z</time></trkpt><trkpt lat="42.1328427" lon="12.726737"><ele>179.0</ele><time>2026-04-26T17:25:05.421Z</time></trkpt><trkpt lat="42.1327792" lon="12.7265905"><ele>177.0</ele><time>2026-04-26T17:25:06.454Z</time></trkpt><trkpt lat="42.1327209" lon="12.7264423"><ele>177.0</ele><time>2026-04-26T17:25:07.427Z</time></trkpt><trkpt lat="42.1326986" lon="12.726269"><ele>177.0</ele><time>2026-04-26T17:25:08.432Z</time></trkpt><trkpt lat="42.1326915" lon="12.726091"><ele>177.0</ele><time>2026-04-26T17:25:09.461Z</time></trkpt><trkpt lat="42.132666" lon="12.7259262"><ele>177.0</ele><time>2026-04-26T17:25:10.461Z</time></trkpt><trkpt lat="42.1326487" lon="12.7257729"><ele>173.66666666666666</ele><time>2026-04-26T17:25:11.441Z</time></trkpt><trkpt lat="42.1326465" lon="12.7255802"><ele>170.33333333333331</ele><time>2026-04-26T17:25:12.436Z</time></trkpt><trkpt lat="42.1326515" lon="12.7253261"><ele>167.0</ele><time>2026-04-26T17:25:13.435Z</time></trkpt><trkpt lat="42.1327082" lon="12.7250098"><ele>165.66666666666666</ele><time>2026-04-26T17:25:14.431Z</time></trkpt><trkpt lat="42.1327457" lon="12.7247459"><ele>164.33333333333334</ele><time>2026-04-26T17:25:15.462Z</time></trkpt><trkpt lat="42.1327666" lon="12.7244114"><ele>163.0</ele><time>2026-04-26T17:25:17.241Z</time></trkpt><trkpt lat="42.1327792" lon="12.7240766"><ele>163.0</ele><time>2026-04-26T17:25:19.042Z</time></trkpt><trkpt lat="42.13279" lon="12.7238761"><ele>163.0</ele><time>2026-04-26T17:25:19.944Z</time></trkpt><trkpt lat="42.1327743" lon="12.7234728"><ele>163.0</ele><time>2026-04-26T17:25:21.738Z</time></trkpt><trkpt lat="42.1327666" lon="12.723301"><ele>164.25</ele><time>2026-04-26T17:25:22.639Z</time></trkpt><trkpt lat="42.1327795" lon="12.7230086"><ele>165.5</ele><time>2026-04-26T17:25:24.452Z</time></trkpt><trkpt lat="42.1327616" lon="12.722861"><ele>166.75</ele><time>2026-04-26T17:25:25.451Z</time></trkpt><trkpt lat="42.1327691" lon="12.722712"><ele>168.0</ele><time>2026-04-26T17:25:26.455Z</time></trkpt><trkpt lat="42.1327839" lon="12.7225758"><ele>168.60000000000002</ele><time>2026-04-26T17:25:27.448Z</time></trkpt><trkpt lat="42.1328016" lon="12.7224386"><ele>169.20000000000002</ele><time>2026-04-26T17:25:28.451Z</time></trkpt><trkpt lat="42.1328355" lon="12.7223219"><ele>169.8</ele><time>2026-04-26T17:25:29.448Z</time></trkpt><trkpt lat="42.1328712" lon="12.722225"><ele>170.4</ele><time>2026-04-26T17:25:30.456Z</time></trkpt><trkpt lat="42.1328923" lon="12.7221349"><ele>171.0</ele><time>2026-04-26T17:25:31.45Z</time></trkpt><trkpt lat="42.1328819" lon="12.7219836"><ele>171.0</ele><time>2026-04-26T17:25:33.448Z</time></trkpt><trkpt lat="42.132831" lon="12.7218999"><ele>171.0</ele><time>2026-04-26T17:25:34.445Z</time></trkpt><trkpt lat="42.1327422" lon="12.7218088"><ele>171.0</ele><time>2026-04-26T17:25:35.444Z</time></trkpt><trkpt lat="42.1326172" lon="12.7217091"><ele>171.0</ele><time>2026-04-26T17:25:36.464Z</time></trkpt><trkpt lat="42.1324877" lon="12.7216055"><ele>170.25</ele><time>2026-04-26T17:25:37.44Z</time></trkpt><trkpt lat="42.1323601" lon="12.7215059"><ele>169.5</ele><time>2026-04-26T17:25:38.436Z</time></trkpt><trkpt lat="42.132242" lon="12.7213929"><ele>168.75</ele><time>2026-04-26T17:25:39.436Z</time></trkpt><trkpt lat="42.1321138" lon="12.7212927"><ele>168.0</ele><time>2026-04-26T17:25:40.437Z</time></trkpt><trkpt lat="42.1319866" lon="12.7212499"><ele>168.0</ele><time>2026-04-26T17:25:41.429Z</time></trkpt><trkpt lat="42.1318606" lon="12.7212042"><ele>168.0</ele><time>2026-04-26T17:25:42.438Z</time></trkpt><trkpt lat="42.1317494" lon="12.7211498"><ele>168.0</ele><time>2026-04-26T17:25:43.438Z</time></trkpt><trkpt lat="42.1316145" lon="12.7211053"><ele>168.0</ele><time>2026-04-26T17:25:44.463Z</time></trkpt><trkpt lat="42.1314772" lon="12.721055"><ele>161.0</ele><time>2026-04-26T17:25:45.441Z</time></trkpt><trkpt lat="42.1313605" lon="12.7209641"><ele>154.0</ele><time>2026-04-26T17:25:46.45Z</time></trkpt><trkpt lat="42.1312394" lon="12.720807"><ele>147.0</ele><time>2026-04-26T17:25:47.445Z</time></trkpt><trkpt lat="42.131135" lon="12.7205368"><ele>147.0</ele><time>2026-04-26T17:25:48.457Z</time></trkpt><trkpt lat="42.1310273" lon="12.720378"><ele>147.0</ele><time>2026-04-26T17:25:49.438Z</time></trkpt><trkpt lat="42.1309063" lon="12.7201696"><ele>147.0</ele><time>2026-04-26T17:25:50.446Z</time></trkpt><trkpt lat="42.1307848" lon="12.719986"><ele>141.33333333333334</ele><time>2026-04-26T17:25:51.437Z</time></trkpt><trkpt lat="42.1306916" lon="12.7198081"><ele>135.66666666666669</ele><time>2026-04-26T17:25:52.444Z</time></trkpt><trkpt lat="42.1306407" lon="12.7196202"><ele>130.0</ele><time>2026-04-26T17:25:53.437Z</time></trkpt><trkpt lat="42.1305411" lon="12.7194107"><ele>127.66666666666667</ele><time>2026-04-26T17:25:54.448Z</time></trkpt><trkpt lat="42.1304556" lon="12.7192108"><ele>125.33333333333334</ele><time>2026-04-26T17:25:55.466Z</time></trkpt><trkpt lat="42.1303703" lon="12.7190128"><ele>123.0</ele><time>2026-04-26T17:25:56.447Z</time></trkpt><trkpt lat="42.1302739" lon="12.7187913"><ele>120.0</ele><time>2026-04-26T17:25:57.451Z</time></trkpt><trkpt lat="42.1301804" lon="12.7185244"><ele>117.0</ele><time>2026-04-26T17:25:58.454Z</time></trkpt><trkpt lat="42.1300893" lon="12.7182299"><ele>117.0</ele><time>2026-04-26T17:25:59.448Z</time></trkpt><trkpt lat="42.1299924" lon="12.7179548"><ele>117.0</ele><time>2026-04-26T17:26:00.455Z</time></trkpt><trkpt lat="42.1299146" lon="12.7176724"><ele>117.0</ele><time>2026-04-26T17:26:01.45Z</time></trkpt><trkpt lat="42.1298275" lon="12.7174067"><ele>113.66666666666666</ele><time>2026-04-26T17:26:02.456Z</time></trkpt><trkpt lat="42.1297465" lon="12.717143"><ele>110.33333333333333</ele><time>2026-04-26T17:26:03.454Z</time></trkpt><trkpt lat="42.1296664" lon="12.7169058"><ele>107.0</ele><time>2026-04-26T17:26:04.45Z</time></trkpt><trkpt lat="42.1295546" lon="12.7166704"><ele>106.0</ele><time>2026-04-26T17:26:05.453Z</time></trkpt><trkpt lat="42.1294532" lon="12.7164155"><ele>105.0</ele><time>2026-04-26T17:26:06.697Z</time></trkpt><trkpt lat="42.1293621" lon="12.7161917"><ele>104.0</ele><time>2026-04-26T17:26:07.612Z</time></trkpt><trkpt lat="42.129186" lon="12.7157699"><ele>103.0</ele><time>2026-04-26T17:26:09.478Z</time></trkpt><trkpt lat="42.1290982" lon="12.7155778"><ele>102.0</ele><time>2026-04-26T17:26:10.461Z</time></trkpt><trkpt lat="42.1290173" lon="12.715394"><ele>101.0</ele><time>2026-04-26T17:26:11.46Z</time></trkpt><trkpt lat="42.1289238" lon="12.7152179"><ele>99.33333333333333</ele><time>2026-04-26T17:26:12.459Z</time></trkpt><trkpt lat="42.1287954" lon="12.7150209"><ele>97.66666666666666</ele><time>2026-04-26T17:26:13.46Z</time></trkpt><trkpt lat="42.1286495" lon="12.7147857"><ele>96.0</ele><time>2026-04-26T17:26:14.456Z</time></trkpt><trkpt lat="42.1285075" lon="12.71455"><ele>95.66666666666667</ele><time>2026-04-26T17:26:15.464Z</time></trkpt><trkpt lat="42.1283993" lon="12.7143528"><ele>95.33333333333334</ele><time>2026-04-26T17:26:16.457Z</time></trkpt><trkpt lat="42.1282793" lon="12.7141776"><ele>95.0</ele><time>2026-04-26T17:26:17.459Z</time></trkpt><trkpt lat="42.1281651" lon="12.7140058"><ele>95.0</ele><time>2026-04-26T17:26:18.465Z</time></trkpt><trkpt lat="42.1280412" lon="12.7138178"><ele>95.0</ele><time>2026-04-26T17:26:19.467Z</time></trkpt><trkpt lat="42.1279119" lon="12.7136188"><ele>95.0</ele><time>2026-04-26T17:26:20.46Z</time></trkpt><trkpt lat="42.1277799" lon="12.7134564"><ele>97.0</ele><time>2026-04-26T17:26:21.455Z</time></trkpt><trkpt lat="42.1276647" lon="12.7133074"><ele>99.0</ele><time>2026-04-26T17:26:22.467Z</time></trkpt><trkpt lat="42.1275408" lon="12.7131568"><ele>101.0</ele><time>2026-04-26T17:26:23.465Z</time></trkpt><trkpt lat="42.1274187" lon="12.7130425"><ele>100.5</ele><time>2026-04-26T17:26:24.46Z</time></trkpt><trkpt lat="42.1273015" lon="12.7129341"><ele>100.0</ele><time>2026-04-26T17:26:25.46Z</time></trkpt><trkpt lat="42.1272167" lon="12.7128483"><ele>99.5</ele><time>2026-04-26T17:26:26.447Z</time></trkpt><trkpt lat="42.1272051" lon="12.7127344"><ele>99.0</ele><time>2026-04-26T17:26:27.449Z</time></trkpt><trkpt lat="42.1272223" lon="12.7125769"><ele>101.0</ele><time>2026-04-26T17:26:28.45Z</time></trkpt><trkpt lat="42.1272669" lon="12.7124082"><ele>103.0</ele><time>2026-04-26T17:26:29.449Z</time></trkpt><trkpt lat="42.1273464" lon="12.7121921"><ele>105.0</ele><time>2026-04-26T17:26:30.444Z</time></trkpt><trkpt lat="42.1274019" lon="12.7119962"><ele>106.75</ele><time>2026-04-26T17:26:31.451Z</time></trkpt><trkpt lat="42.1274303" lon="12.7118274"><ele>108.5</ele><time>2026-04-26T17:26:32.448Z</time></trkpt><trkpt lat="42.1274781" lon="12.7116652"><ele>110.25</ele><time>2026-04-26T17:26:33.444Z</time></trkpt><trkpt lat="42.1274757" lon="12.7114722"><ele>112.0</ele><time>2026-04-26T17:26:34.449Z</time></trkpt><trkpt lat="42.1274638" lon="12.7112532"><ele>114.0</ele><time>2026-04-26T17:26:35.445Z</time></trkpt><trkpt lat="42.1274216" lon="12.710985"><ele>116.0</ele><time>2026-04-26T17:26:36.454Z</time></trkpt><trkpt lat="42.1273459" lon="12.7106629"><ele>118.33333333333333</ele><time>2026-04-26T17:26:37.457Z</time></trkpt><trkpt lat="42.1272749" lon="12.7103995"><ele>120.66666666666666</ele><time>2026-04-26T17:26:38.453Z</time></trkpt><trkpt lat="42.1272193" lon="12.7102084"><ele>123.0</ele><time>2026-04-26T17:26:39.451Z</time></trkpt><trkpt lat="42.1271873" lon="12.7100644"><ele>123.2</ele><time>2026-04-26T17:26:40.453Z</time></trkpt><trkpt lat="42.1271524" lon="12.7099322"><ele>123.4</ele><time>2026-04-26T17:26:41.455Z</time></trkpt><trkpt lat="42.1271207" lon="12.7098082"><ele>123.60000000000001</ele><time>2026-04-26T17:26:42.463Z</time></trkpt><trkpt lat="42.1270748" lon="12.7097105"><ele>123.80000000000001</ele><time>2026-04-26T17:26:43.457Z</time></trkpt><trkpt lat="42.1270058" lon="12.7095768"><ele>124.0</ele><time>2026-04-26T17:26:44.484Z</time></trkpt><trkpt lat="42.1269113" lon="12.7094236"><ele>122.33333333333334</ele><time>2026-04-26T17:26:45.458Z</time></trkpt><trkpt lat="42.1268088" lon="12.7092728"><ele>120.66666666666666</ele><time>2026-04-26T17:26:46.443Z</time></trkpt><trkpt lat="42.1266695" lon="12.7091455"><ele>119.0</ele><time>2026-04-26T17:26:47.47Z</time></trkpt><trkpt lat="42.1265152" lon="12.7090298"><ele>118.33333333333333</ele><time>2026-04-26T17:26:48.446Z</time></trkpt><trkpt lat="42.1263533" lon="12.7089195"><ele>117.66666666666666</ele><time>2026-04-26T17:26:49.451Z</time></trkpt><trkpt lat="42.1261822" lon="12.7087876"><ele>117.0</ele><time>2026-04-26T17:26:50.447Z</time></trkpt><trkpt lat="42.1260278" lon="12.7086649"><ele>115.66666666666666</ele><time>2026-04-26T17:26:51.467Z</time></trkpt><trkpt lat="42.1258738" lon="12.708557"><ele>114.33333333333333</ele><time>2026-04-26T17:26:52.446Z</time></trkpt><trkpt lat="42.1257152" lon="12.7084668"><ele>113.0</ele><time>2026-04-26T17:26:53.452Z</time></trkpt><trkpt lat="42.1255758" lon="12.7083605"><ele>111.33333333333333</ele><time>2026-04-26T17:26:54.453Z</time></trkpt><trkpt lat="42.1254506" lon="12.7082659"><ele>109.66666666666666</ele><time>2026-04-26T17:26:55.448Z</time></trkpt><trkpt lat="42.1253193" lon="12.7081665"><ele>108.0</ele><time>2026-04-26T17:26:56.451Z</time></trkpt><trkpt lat="42.1251716" lon="12.7080814"><ele>108.0</ele><time>2026-04-26T17:26:57.448Z</time></trkpt><trkpt lat="42.1250228" lon="12.7079711"><ele>108.0</ele><time>2026-04-26T17:26:58.447Z</time></trkpt><trkpt lat="42.1248907" lon="12.707863"><ele>108.0</ele><time>2026-04-26T17:26:59.456Z</time></trkpt><trkpt lat="42.124734" lon="12.7077178"><ele>104.66666666666666</ele><time>2026-04-26T17:27:00.541Z</time></trkpt><trkpt lat="42.1245702" lon="12.7075608"><ele>101.33333333333333</ele><time>2026-04-26T17:27:01.451Z</time></trkpt><trkpt lat="42.1243919" lon="12.707404"><ele>98.0</ele><time>2026-04-26T17:27:02.504Z</time></trkpt><trkpt lat="42.1242161" lon="12.707236"><ele>98.0</ele><time>2026-04-26T17:27:03.447Z</time></trkpt><trkpt lat="42.1240274" lon="12.7070633"><ele>98.0</ele><time>2026-04-26T17:27:04.454Z</time></trkpt><trkpt lat="42.1238425" lon="12.7068869"><ele>95.66666666666666</ele><time>2026-04-26T17:27:05.453Z</time></trkpt><trkpt lat="42.1236654" lon="12.7067269"><ele>93.33333333333333</ele><time>2026-04-26T17:27:06.449Z</time></trkpt><trkpt lat="42.123563" lon="12.7066018"><ele>91.0</ele><time>2026-04-26T17:27:07.445Z</time></trkpt><trkpt lat="42.123412" lon="12.7064742"><ele>91.0</ele><time>2026-04-26T17:27:08.459Z</time></trkpt><trkpt lat="42.123281" lon="12.7063102"><ele>91.0</ele><time>2026-04-26T17:27:09.441Z</time></trkpt><trkpt lat="42.1231167" lon="12.7061954"><ele>91.0</ele><time>2026-04-26T17:27:10.459Z</time></trkpt><trkpt lat="42.1229846" lon="12.7060988"><ele>90.33333333333333</ele><time>2026-04-26T17:27:11.463Z</time></trkpt><trkpt lat="42.1228358" lon="12.7060136"><ele>89.66666666666667</ele><time>2026-04-26T17:27:12.457Z</time></trkpt><trkpt lat="42.1227107" lon="12.7059023"><ele>89.0</ele><time>2026-04-26T17:27:13.464Z</time></trkpt><trkpt lat="42.1225563" lon="12.7058016"><ele>86.0</ele><time>2026-04-26T17:27:14.468Z</time></trkpt><trkpt lat="42.1223916" lon="12.7057347"><ele>83.0</ele><time>2026-04-26T17:27:15.467Z</time></trkpt><trkpt lat="42.1222461" lon="12.7056725"><ele>80.0</ele><time>2026-04-26T17:27:16.472Z</time></trkpt><trkpt lat="42.1220762" lon="12.7056238"><ele>80.0</ele><time>2026-04-26T17:27:17.462Z</time></trkpt><trkpt lat="42.1219132" lon="12.7055651"><ele>80.0</ele><time>2026-04-26T17:27:18.539Z</time></trkpt><trkpt lat="42.1217462" lon="12.7055305"><ele>80.0</ele><time>2026-04-26T17:27:19.62Z</time></trkpt><trkpt lat="42.1216057" lon="12.7054595"><ele>80.66666666666667</ele><time>2026-04-26T17:27:20.614Z</time></trkpt><trkpt lat="42.1214859" lon="12.7053801"><ele>81.33333333333333</ele><time>2026-04-26T17:27:21.608Z</time></trkpt><trkpt lat="42.1212714" lon="12.7051818"><ele>82.0</ele><time>2026-04-26T17:27:23.446Z</time></trkpt><trkpt lat="42.1212009" lon="12.7050231"><ele>80.25</ele><time>2026-04-26T17:27:24.438Z</time></trkpt><trkpt lat="42.1211764" lon="12.7047783"><ele>78.5</ele><time>2026-04-26T17:27:25.446Z</time></trkpt><trkpt lat="42.1211576" lon="12.704643"><ele>76.75</ele><time>2026-04-26T17:27:26.439Z</time></trkpt><trkpt lat="42.1211087" lon="12.7044848"><ele>75.0</ele><time>2026-04-26T17:27:27.526Z</time></trkpt><trkpt lat="42.1210658" lon="12.7043519"><ele>75.0</ele><time>2026-04-26T17:27:28.617Z</time></trkpt><trkpt lat="42.1210254" lon="12.7042644"><ele>75.0</ele><time>2026-04-26T17:27:29.846Z</time></trkpt><trkpt lat="42.120976" lon="12.70416"><ele>75.0</ele><time>2026-04-26T17:27:30.781Z</time></trkpt><trkpt lat="42.1208473" lon="12.7039511"><ele>75.0</ele><time>2026-04-26T17:27:32.474Z</time></trkpt><trkpt lat="42.1208037" lon="12.7038011"><ele>75.0</ele><time>2026-04-26T17:27:33.609Z</time></trkpt><trkpt lat="42.1207543" lon="12.7036729"><ele>75.0</ele><time>2026-04-26T17:27:34.606Z</time></trkpt><trkpt lat="42.120596" lon="12.7034262"><ele>75.0</ele><time>2026-04-26T17:27:36.768Z</time></trkpt><trkpt lat="42.1204878" lon="12.7033183"><ele>73.66666666666667</ele><time>2026-04-26T17:27:37.773Z</time></trkpt><trkpt lat="42.1203608" lon="12.7031945"><ele>72.33333333333334</ele><time>2026-04-26T17:27:38.921Z</time></trkpt><trkpt lat="42.1202096" lon="12.70311"><ele>71.0</ele><time>2026-04-26T17:27:39.927Z</time></trkpt><trkpt lat="42.1199795" lon="12.702956"><ele>71.5</ele><time>2026-04-26T17:27:41.614Z</time></trkpt><trkpt lat="42.1198864" lon="12.7029357"><ele>72.0</ele><time>2026-04-26T17:27:42.62Z</time></trkpt><trkpt lat="42.1196983" lon="12.70284"><ele>72.5</ele><time>2026-04-26T17:27:44.621Z</time></trkpt><trkpt lat="42.1196011" lon="12.7028232"><ele>73.0</ele><time>2026-04-26T17:27:45.615Z</time></trkpt><trkpt lat="42.1193969" lon="12.7027889"><ele>73.0</ele><time>2026-04-26T17:27:47.478Z</time></trkpt><trkpt lat="42.1192777" lon="12.7027842"><ele>73.0</ele><time>2026-04-26T17:27:48.479Z</time></trkpt><trkpt lat="42.1191445" lon="12.7027309"><ele>73.0</ele><time>2026-04-26T17:27:49.465Z</time></trkpt><trkpt lat="42.1189888" lon="12.7026722"><ele>73.0</ele><time>2026-04-26T17:27:50.455Z</time></trkpt><trkpt lat="42.1188036" lon="12.7025549"><ele>75.66666666666666</ele><time>2026-04-26T17:27:51.464Z</time></trkpt><trkpt lat="42.1186098" lon="12.7024905"><ele>78.33333333333333</ele><time>2026-04-26T17:27:52.459Z</time></trkpt><trkpt lat="42.1184141" lon="12.7023939"><ele>81.0</ele><time>2026-04-26T17:27:53.47Z</time></trkpt><trkpt lat="42.1182503" lon="12.7023589"><ele>82.0</ele><time>2026-04-26T17:27:54.463Z</time></trkpt><trkpt lat="42.1180655" lon="12.7022921"><ele>83.0</ele><time>2026-04-26T17:27:55.458Z</time></trkpt><trkpt lat="42.1179549" lon="12.7021566"><ele>84.0</ele><time>2026-04-26T17:27:56.478Z</time></trkpt><trkpt lat="42.1178749" lon="12.7019433"><ele>85.75</ele><time>2026-04-26T17:27:57.464Z</time></trkpt><trkpt lat="42.1178097" lon="12.7017813"><ele>87.5</ele><time>2026-04-26T17:27:58.459Z</time></trkpt><trkpt lat="42.1177679" lon="12.7016028"><ele>89.25</ele><time>2026-04-26T17:27:59.479Z</time></trkpt><trkpt lat="42.1177725" lon="12.7013954"><ele>91.0</ele><time>2026-04-26T17:28:00.466Z</time></trkpt><trkpt lat="42.117779" lon="12.7011408"><ele>92.5</ele><time>2026-04-26T17:28:01.466Z</time></trkpt><trkpt lat="42.1177823" lon="12.7009454"><ele>94.0</ele><time>2026-04-26T17:28:02.458Z</time></trkpt><trkpt lat="42.1177509" lon="12.7008029"><ele>95.5</ele><time>2026-04-26T17:28:03.462Z</time></trkpt><trkpt lat="42.1177331" lon="12.700597"><ele>97.0</ele><time>2026-04-26T17:28:04.462Z</time></trkpt><trkpt lat="42.117688" lon="12.7004288"><ele>100.66666666666667</ele><time>2026-04-26T17:28:05.467Z</time></trkpt><trkpt lat="42.117618" lon="12.7002354"><ele>104.33333333333334</ele><time>2026-04-26T17:28:06.471Z</time></trkpt><trkpt lat="42.1174845" lon="12.7000817"><ele>108.0</ele><time>2026-04-26T17:28:07.46Z</time></trkpt><trkpt lat="42.1173124" lon="12.6999324"><ele>108.33333333333334</ele><time>2026-04-26T17:28:08.454Z</time></trkpt><trkpt lat="42.1171483" lon="12.6997865"><ele>108.66666666666667</ele><time>2026-04-26T17:28:09.455Z</time></trkpt><trkpt lat="42.1169827" lon="12.6996143"><ele>109.0</ele><time>2026-04-26T17:28:10.462Z</time></trkpt><trkpt lat="42.1168452" lon="12.6994316"><ele>113.0</ele><time>2026-04-26T17:28:11.468Z</time></trkpt><trkpt lat="42.1167071" lon="12.6992997"><ele>117.0</ele><time>2026-04-26T17:28:12.455Z</time></trkpt><trkpt lat="42.1165742" lon="12.6991685"><ele>121.0</ele><time>2026-04-26T17:28:13.494Z</time></trkpt><trkpt lat="42.1164319" lon="12.6990384"><ele>123.25</ele><time>2026-04-26T17:28:14.495Z</time></trkpt><trkpt lat="42.1163021" lon="12.6989574"><ele>125.5</ele><time>2026-04-26T17:28:15.458Z</time></trkpt><trkpt lat="42.1161806" lon="12.6988877"><ele>127.75</ele><time>2026-04-26T17:28:16.462Z</time></trkpt><trkpt lat="42.1160111" lon="12.6988933"><ele>130.0</ele><time>2026-04-26T17:28:17.453Z</time></trkpt><trkpt lat="42.1158689" lon="12.6988805"><ele>130.0</ele><time>2026-04-26T17:28:18.446Z</time></trkpt><trkpt lat="42.1157552" lon="12.6988706"><ele>130.0</ele><time>2026-04-26T17:28:19.456Z</time></trkpt><trkpt lat="42.115624" lon="12.698868"><ele>130.0</ele><time>2026-04-26T17:28:20.446Z</time></trkpt><trkpt lat="42.1154742" lon="12.6988697"><ele>130.0</ele><time>2026-04-26T17:28:21.449Z</time></trkpt><trkpt lat="42.1153239" lon="12.6988853"><ele>131.0</ele><time>2026-04-26T17:28:22.456Z</time></trkpt><trkpt lat="42.1151894" lon="12.6989414"><ele>132.0</ele><time>2026-04-26T17:28:23.458Z</time></trkpt><trkpt lat="42.1150217" lon="12.6990373"><ele>133.0</ele><time>2026-04-26T17:28:24.456Z</time></trkpt><trkpt lat="42.1148446" lon="12.699084"><ele>135.66666666666669</ele><time>2026-04-26T17:28:25.457Z</time></trkpt><trkpt lat="42.1146819" lon="12.6991479"><ele>138.33333333333334</ele><time>2026-04-26T17:28:26.456Z</time></trkpt><trkpt lat="42.1144973" lon="12.6991793"><ele>141.0</ele><time>2026-04-26T17:28:27.458Z</time></trkpt><trkpt lat="42.1143292" lon="12.699158"><ele>141.0</ele><time>2026-04-26T17:28:28.449Z</time></trkpt><trkpt lat="42.1141733" lon="12.6990959"><ele>141.0</ele><time>2026-04-26T17:28:29.458Z</time></trkpt><trkpt lat="42.1140101" lon="12.6990014"><ele>141.0</ele><time>2026-04-26T17:28:30.458Z</time></trkpt><trkpt lat="42.1138379" lon="12.6989135"><ele>140.0</ele><time>2026-04-26T17:28:31.455Z</time></trkpt><trkpt lat="42.1136505" lon="12.6988526"><ele>139.0</ele><time>2026-04-26T17:28:32.451Z</time></trkpt><trkpt lat="42.1134343" lon="12.6988403"><ele>138.0</ele><time>2026-04-26T17:28:33.448Z</time></trkpt><trkpt lat="42.1132625" lon="12.698804"><ele>135.5</ele><time>2026-04-26T17:28:34.439Z</time></trkpt><trkpt lat="42.1131468" lon="12.6987946"><ele>133.0</ele><time>2026-04-26T17:28:35.444Z</time></trkpt><trkpt lat="42.1130494" lon="12.6987853"><ele>130.5</ele><time>2026-04-26T17:28:36.443Z</time></trkpt><trkpt lat="42.1129249" lon="12.698694"><ele>128.0</ele><time>2026-04-26T17:28:37.444Z</time></trkpt><trkpt lat="42.1127501" lon="12.6986296"><ele>128.66666666666666</ele><time>2026-04-26T17:28:38.471Z</time></trkpt><trkpt lat="42.1126136" lon="12.6985045"><ele>129.33333333333334</ele><time>2026-04-26T17:28:39.469Z</time></trkpt><trkpt lat="42.1125057" lon="12.698359"><ele>130.0</ele><time>2026-04-26T17:28:40.461Z</time></trkpt><trkpt lat="42.1124075" lon="12.6981971"><ele>127.33333333333334</ele><time>2026-04-26T17:28:41.461Z</time></trkpt><trkpt lat="42.1123412" lon="12.6979966"><ele>124.66666666666666</ele><time>2026-04-26T17:28:42.465Z</time></trkpt><trkpt lat="42.1122444" lon="12.6977525"><ele>122.0</ele><time>2026-04-26T17:28:43.457Z</time></trkpt><trkpt lat="42.1121671" lon="12.6974978"><ele>122.0</ele><time>2026-04-26T17:28:44.49Z</time></trkpt><trkpt lat="42.1121127" lon="12.6972643"><ele>122.0</ele><time>2026-04-26T17:28:45.469Z</time></trkpt><trkpt lat="42.1120489" lon="12.6970594"><ele>122.0</ele><time>2026-04-26T17:28:46.461Z</time></trkpt><trkpt lat="42.1119884" lon="12.6968555"><ele>122.0</ele><time>2026-04-26T17:28:47.469Z</time></trkpt><trkpt lat="42.1119049" lon="12.6966228"><ele>122.0</ele><time>2026-04-26T17:28:48.543Z</time></trkpt><trkpt lat="42.111831" lon="12.6964308"><ele>122.0</ele><time>2026-04-26T17:28:49.489Z</time></trkpt><trkpt lat="42.1117356" lon="12.696237"><ele>122.33333333333333</ele><time>2026-04-26T17:28:50.49Z</time></trkpt><trkpt lat="42.111617" lon="12.6960664"><ele>122.66666666666666</ele><time>2026-04-26T17:28:51.465Z</time></trkpt><trkpt lat="42.1114995" lon="12.6959008"><ele>123.0</ele><time>2026-04-26T17:28:52.467Z</time></trkpt><trkpt lat="42.1113506" lon="12.6957473"><ele>122.33333333333334</ele><time>2026-04-26T17:28:53.491Z</time></trkpt><trkpt lat="42.111212" lon="12.6955643"><ele>121.66666666666667</ele><time>2026-04-26T17:28:54.465Z</time></trkpt><trkpt lat="42.1110577" lon="12.695429"><ele>121.0</ele><time>2026-04-26T17:28:55.463Z</time></trkpt><trkpt lat="42.1108902" lon="12.6953011"><ele>120.33333333333334</ele><time>2026-04-26T17:28:56.468Z</time></trkpt><trkpt lat="42.1107136" lon="12.6952273"><ele>119.66666666666666</ele><time>2026-04-26T17:28:57.463Z</time></trkpt><trkpt lat="42.1105631" lon="12.6951606"><ele>119.0</ele><time>2026-04-26T17:28:58.467Z</time></trkpt><trkpt lat="42.1104234" lon="12.6950716"><ele>119.0</ele><time>2026-04-26T17:28:59.466Z</time></trkpt><trkpt lat="42.1102912" lon="12.6949607"><ele>119.0</ele><time>2026-04-26T17:29:00.472Z</time></trkpt><trkpt lat="42.110175" lon="12.6948835"><ele>119.0</ele><time>2026-04-26T17:29:01.468Z</time></trkpt><trkpt lat="42.1100685" lon="12.6947885"><ele>119.0</ele><time>2026-04-26T17:29:02.468Z</time></trkpt><trkpt lat="42.1099693" lon="12.6946581"><ele>118.33333333333333</ele><time>2026-04-26T17:29:03.466Z</time></trkpt><trkpt lat="42.1098559" lon="12.6944861"><ele>117.66666666666666</ele><time>2026-04-26T17:29:04.463Z</time></trkpt><trkpt lat="42.1097391" lon="12.6942952"><ele>117.0</ele><time>2026-04-26T17:29:05.469Z</time></trkpt><trkpt lat="42.1096457" lon="12.694085"><ele>117.0</ele><time>2026-04-26T17:29:06.47Z</time></trkpt><trkpt lat="42.1095756" lon="12.6938726"><ele>117.0</ele><time>2026-04-26T17:29:07.471Z</time></trkpt><trkpt lat="42.109511" lon="12.693699"><ele>117.0</ele><time>2026-04-26T17:29:08.468Z</time></trkpt><trkpt lat="42.1094701" lon="12.6935383"><ele>117.0</ele><time>2026-04-26T17:29:09.468Z</time></trkpt><trkpt lat="42.1094443" lon="12.6933863"><ele>117.0</ele><time>2026-04-26T17:29:10.464Z</time></trkpt><trkpt lat="42.1094112" lon="12.6932668"><ele>116.99999999999999</ele><time>2026-04-26T17:29:11.458Z</time></trkpt><trkpt lat="42.1093872" lon="12.6931463"><ele>116.99999999999999</ele><time>2026-04-26T17:29:12.468Z</time></trkpt><trkpt lat="42.1093759" lon="12.6930378"><ele>117.0</ele><time>2026-04-26T17:29:15.467Z</time></trkpt><trkpt lat="42.109401" lon="12.6929423"><ele>117.0</ele><time>2026-04-26T17:30:45.456Z</time></trkpt><trkpt lat="42.1094118" lon="12.6927382"><ele>117.0</ele><time>2026-04-26T17:30:47.487Z</time></trkpt><trkpt lat="42.1094331" lon="12.6925565"><ele>117.0</ele><time>2026-04-26T17:30:48.491Z</time></trkpt><trkpt lat="42.1094489" lon="12.6923373"><ele>117.0</ele><time>2026-04-26T17:30:49.48Z</time></trkpt><trkpt lat="42.1094583" lon="12.6920481"><ele>118.0</ele><time>2026-04-26T17:30:50.46Z</time></trkpt><trkpt lat="42.1094526" lon="12.6918118"><ele>119.0</ele><time>2026-04-26T17:30:51.468Z</time></trkpt><trkpt lat="42.1094215" lon="12.6916175"><ele>120.0</ele><time>2026-04-26T17:30:52.455Z</time></trkpt><trkpt lat="42.1093906" lon="12.6914228"><ele>120.0</ele><time>2026-04-26T17:30:53.484Z</time></trkpt><trkpt lat="42.1093522" lon="12.6912285"><ele>120.0</ele><time>2026-04-26T17:30:54.457Z</time></trkpt><trkpt lat="42.1092832" lon="12.6910376"><ele>120.0</ele><time>2026-04-26T17:30:55.465Z</time></trkpt><trkpt lat="42.109195" lon="12.6908312"><ele>120.0</ele><time>2026-04-26T17:30:56.464Z</time></trkpt><trkpt lat="42.109119" lon="12.6906001"><ele>120.0</ele><time>2026-04-26T17:30:57.462Z</time></trkpt><trkpt lat="42.1090512" lon="12.6903511"><ele>120.0</ele><time>2026-04-26T17:30:58.452Z</time></trkpt><trkpt lat="42.1089694" lon="12.6900935"><ele>118.5</ele><time>2026-04-26T17:30:59.457Z</time></trkpt><trkpt lat="42.1088786" lon="12.6898003"><ele>117.0</ele><time>2026-04-26T17:31:00.46Z</time></trkpt><trkpt lat="42.1087749" lon="12.6895114"><ele>116.0</ele><time>2026-04-26T17:31:01.456Z</time></trkpt><trkpt lat="42.1086694" lon="12.6892642"><ele>115.0</ele><time>2026-04-26T17:31:02.465Z</time></trkpt><trkpt lat="42.1086019" lon="12.6890456"><ele>114.0</ele><time>2026-04-26T17:31:03.46Z</time></trkpt><trkpt lat="42.1085217" lon="12.6888303"><ele>114.0</ele><time>2026-04-26T17:31:04.465Z</time></trkpt><trkpt lat="42.1084335" lon="12.6886147"><ele>114.0</ele><time>2026-04-26T17:31:05.465Z</time></trkpt><trkpt lat="42.1083432" lon="12.688403"><ele>114.0</ele><time>2026-04-26T17:31:06.462Z</time></trkpt><trkpt lat="42.108256" lon="12.6881995"><ele>113.66666666666666</ele><time>2026-04-26T17:31:07.463Z</time></trkpt><trkpt lat="42.1081848" lon="12.6880277"><ele>113.33333333333333</ele><time>2026-04-26T17:31:08.454Z</time></trkpt><trkpt lat="42.1080906" lon="12.687853"><ele>113.0</ele><time>2026-04-26T17:31:09.456Z</time></trkpt><trkpt lat="42.1079449" lon="12.6876786"><ele>113.0</ele><time>2026-04-26T17:31:10.458Z</time></trkpt><trkpt lat="42.1078005" lon="12.6875219"><ele>113.0</ele><time>2026-04-26T17:31:11.458Z</time></trkpt><trkpt lat="42.1076564" lon="12.6873512"><ele>113.0</ele><time>2026-04-26T17:31:12.456Z</time></trkpt><trkpt lat="42.1074885" lon="12.6871937"><ele>111.33333333333333</ele><time>2026-04-26T17:31:13.463Z</time></trkpt><trkpt lat="42.1073339" lon="12.687047"><ele>109.66666666666666</ele><time>2026-04-26T17:31:14.459Z</time></trkpt><trkpt lat="42.1071727" lon="12.6869218"><ele>108.0</ele><time>2026-04-26T17:31:15.449Z</time></trkpt><trkpt lat="42.107007" lon="12.686778"><ele>108.0</ele><time>2026-04-26T17:31:16.453Z</time></trkpt><trkpt lat="42.106857" lon="12.6866345"><ele>108.0</ele><time>2026-04-26T17:31:17.455Z</time></trkpt><trkpt lat="42.1067439" lon="12.6865492"><ele>108.0</ele><time>2026-04-26T17:31:18.447Z</time></trkpt><trkpt lat="42.1066328" lon="12.6864265"><ele>107.0</ele><time>2026-04-26T17:31:19.453Z</time></trkpt><trkpt lat="42.10654" lon="12.6862271"><ele>106.0</ele><time>2026-04-26T17:31:20.451Z</time></trkpt><trkpt lat="42.106458" lon="12.6859986"><ele>105.0</ele><time>2026-04-26T17:31:21.461Z</time></trkpt><trkpt lat="42.1063838" lon="12.6857291"><ele>103.0</ele><time>2026-04-26T17:31:22.453Z</time></trkpt><trkpt lat="42.1063071" lon="12.6854741"><ele>101.0</ele><time>2026-04-26T17:31:23.456Z</time></trkpt><trkpt lat="42.1062409" lon="12.6852236"><ele>99.0</ele><time>2026-04-26T17:31:24.442Z</time></trkpt><trkpt lat="42.1061518" lon="12.684926"><ele>98.33333333333334</ele><time>2026-04-26T17:31:25.445Z</time></trkpt><trkpt lat="42.1060958" lon="12.684663"><ele>97.66666666666667</ele><time>2026-04-26T17:31:26.446Z</time></trkpt><trkpt lat="42.1060221" lon="12.6844046"><ele>97.0</ele><time>2026-04-26T17:31:27.46Z</time></trkpt><trkpt lat="42.1059838" lon="12.6841607"><ele>97.0</ele><time>2026-04-26T17:31:28.46Z</time></trkpt><trkpt lat="42.1059211" lon="12.6839332"><ele>97.0</ele><time>2026-04-26T17:31:29.456Z</time></trkpt><trkpt lat="42.105876" lon="12.6837551"><ele>97.0</ele><time>2026-04-26T17:31:30.472Z</time></trkpt><trkpt lat="42.1058228" lon="12.6835864"><ele>97.0</ele><time>2026-04-26T17:31:31.456Z</time></trkpt><trkpt lat="42.1057564" lon="12.6834121"><ele>97.0</ele><time>2026-04-26T17:31:32.452Z</time></trkpt><trkpt lat="42.1056628" lon="12.6832424"><ele>97.0</ele><time>2026-04-26T17:31:33.453Z</time></trkpt><trkpt lat="42.1055134" lon="12.6830776"><ele>97.33333333333334</ele><time>2026-04-26T17:31:34.474Z</time></trkpt><trkpt lat="42.1053321" lon="12.68292"><ele>97.66666666666666</ele><time>2026-04-26T17:31:35.454Z</time></trkpt><trkpt lat="42.105153" lon="12.6827671"><ele>98.0</ele><time>2026-04-26T17:31:36.452Z</time></trkpt><trkpt lat="42.1049834" lon="12.6826181"><ele>96.33333333333333</ele><time>2026-04-26T17:31:37.441Z</time></trkpt><trkpt lat="42.1048119" lon="12.6824649"><ele>94.66666666666666</ele><time>2026-04-26T17:31:38.445Z</time></trkpt><trkpt lat="42.1046224" lon="12.6822779"><ele>93.0</ele><time>2026-04-26T17:31:39.445Z</time></trkpt><trkpt lat="42.1044445" lon="12.6820937"><ele>93.66666666666667</ele><time>2026-04-26T17:31:40.442Z</time></trkpt><trkpt lat="42.1042526" lon="12.6819135"><ele>94.33333333333334</ele><time>2026-04-26T17:31:41.451Z</time></trkpt><trkpt lat="42.1041076" lon="12.6817558"><ele>95.0</ele><time>2026-04-26T17:31:42.453Z</time></trkpt><trkpt lat="42.1039621" lon="12.6816026"><ele>93.33333333333334</ele><time>2026-04-26T17:31:43.456Z</time></trkpt><trkpt lat="42.1038181" lon="12.6814449"><ele>91.66666666666667</ele><time>2026-04-26T17:31:44.455Z</time></trkpt><trkpt lat="42.1036575" lon="12.6813029"><ele>90.0</ele><time>2026-04-26T17:31:45.464Z</time></trkpt><trkpt lat="42.1034906" lon="12.6811582"><ele>89.33333333333333</ele><time>2026-04-26T17:31:46.456Z</time></trkpt><trkpt lat="42.1033165" lon="12.6810306"><ele>88.66666666666666</ele><time>2026-04-26T17:31:47.46Z</time></trkpt><trkpt lat="42.1031365" lon="12.6809643"><ele>88.0</ele><time>2026-04-26T17:31:48.452Z</time></trkpt><trkpt lat="42.1029157" lon="12.6808513"><ele>88.0</ele><time>2026-04-26T17:31:49.445Z</time></trkpt><trkpt lat="42.1027326" lon="12.6807315"><ele>88.0</ele><time>2026-04-26T17:31:50.453Z</time></trkpt><trkpt lat="42.1025443" lon="12.6805907"><ele>88.0</ele><time>2026-04-26T17:31:51.479Z</time></trkpt><trkpt lat="42.1023459" lon="12.6805033"><ele>87.66666666666666</ele><time>2026-04-26T17:31:52.453Z</time></trkpt><trkpt lat="42.1022153" lon="12.6804499"><ele>87.33333333333333</ele><time>2026-04-26T17:31:53.458Z</time></trkpt><trkpt lat="42.1020387" lon="12.6804021"><ele>87.0</ele><time>2026-04-26T17:31:54.462Z</time></trkpt><trkpt lat="42.1018564" lon="12.68035"><ele>87.0</ele><time>2026-04-26T17:31:55.45Z</time></trkpt><trkpt lat="42.1016389" lon="12.680338"><ele>87.0</ele><time>2026-04-26T17:31:56.461Z</time></trkpt><trkpt lat="42.1014392" lon="12.6802785"><ele>87.0</ele><time>2026-04-26T17:31:57.464Z</time></trkpt><trkpt lat="42.1012435" lon="12.6802467"><ele>88.0</ele><time>2026-04-26T17:31:58.451Z</time></trkpt><trkpt lat="42.1010316" lon="12.6802153"><ele>89.0</ele><time>2026-04-26T17:31:59.459Z</time></trkpt><trkpt lat="42.1008535" lon="12.6801393"><ele>90.0</ele><time>2026-04-26T17:32:00.457Z</time></trkpt><trkpt lat="42.1006858" lon="12.680054"><ele>88.0</ele><time>2026-04-26T17:32:01.456Z</time></trkpt><trkpt lat="42.1004934" lon="12.6799572"><ele>86.0</ele><time>2026-04-26T17:32:02.451Z</time></trkpt><trkpt lat="42.1003013" lon="12.6797909"><ele>84.0</ele><time>2026-04-26T17:32:03.436Z</time></trkpt><trkpt lat="42.1001097" lon="12.6796445"><ele>84.0</ele><time>2026-04-26T17:32:04.448Z</time></trkpt><trkpt lat="42.0999197" lon="12.6795001"><ele>84.0</ele><time>2026-04-26T17:32:05.447Z</time></trkpt><trkpt lat="42.0997787" lon="12.6794161"><ele>84.0</ele><time>2026-04-26T17:32:06.468Z</time></trkpt><trkpt lat="42.0996666" lon="12.6793482"><ele>84.0</ele><time>2026-04-26T17:32:07.448Z</time></trkpt><trkpt lat="42.0995571" lon="12.6792596"><ele>84.0</ele><time>2026-04-26T17:32:08.452Z</time></trkpt><trkpt lat="42.0994282" lon="12.679162"><ele>84.0</ele><time>2026-04-26T17:32:09.454Z</time></trkpt><trkpt lat="42.0993323" lon="12.6790642"><ele>84.0</ele><time>2026-04-26T17:32:10.448Z</time></trkpt><trkpt lat="42.0992147" lon="12.6789236"><ele>84.33333333333333</ele><time>2026-04-26T17:32:11.449Z</time></trkpt><trkpt lat="42.0990732" lon="12.6787904"><ele>84.66666666666666</ele><time>2026-04-26T17:32:12.444Z</time></trkpt><trkpt lat="42.0989406" lon="12.6786367"><ele>85.0</ele><time>2026-04-26T17:32:13.444Z</time></trkpt><trkpt lat="42.0988076" lon="12.6785044"><ele>84.0</ele><time>2026-04-26T17:32:14.443Z</time></trkpt><trkpt lat="42.0986032" lon="12.6783762"><ele>83.0</ele><time>2026-04-26T17:32:15.447Z</time></trkpt><trkpt lat="42.0983986" lon="12.6782216"><ele>82.5</ele><time>2026-04-26T17:32:16.446Z</time></trkpt><trkpt lat="42.0981729" lon="12.6780803"><ele>82.0</ele><time>2026-04-26T17:32:17.458Z</time></trkpt><trkpt lat="42.0979429" lon="12.6779382"><ele>82.0</ele><time>2026-04-26T17:32:18.449Z</time></trkpt><trkpt lat="42.0977677" lon="12.6777936"><ele>82.0</ele><time>2026-04-26T17:32:19.451Z</time></trkpt><trkpt lat="42.0975902" lon="12.6776608"><ele>82.0</ele><time>2026-04-26T17:32:20.453Z</time></trkpt><trkpt lat="42.0973948" lon="12.6775136"><ele>85.0</ele><time>2026-04-26T17:32:21.451Z</time></trkpt><trkpt lat="42.097188" lon="12.6773483"><ele>88.0</ele><time>2026-04-26T17:32:22.449Z</time></trkpt><trkpt lat="42.096979" lon="12.677202"><ele>88.0</ele><time>2026-04-26T17:32:23.453Z</time></trkpt><trkpt lat="42.0967801" lon="12.6770715"><ele>88.0</ele><time>2026-04-26T17:32:24.458Z</time></trkpt><trkpt lat="42.0965805" lon="12.676929"><ele>88.0</ele><time>2026-04-26T17:32:25.464Z</time></trkpt><trkpt lat="42.0964053" lon="12.6767844"><ele>88.66666666666666</ele><time>2026-04-26T17:32:26.455Z</time></trkpt><trkpt lat="42.0962265" lon="12.6766471"><ele>89.33333333333333</ele><time>2026-04-26T17:32:27.463Z</time></trkpt><trkpt lat="42.096021" lon="12.6765289"><ele>90.0</ele><time>2026-04-26T17:32:28.461Z</time></trkpt><trkpt lat="42.0958466" lon="12.6763976"><ele>90.66666666666667</ele><time>2026-04-26T17:32:29.448Z</time></trkpt><trkpt lat="42.0956762" lon="12.6762798"><ele>91.33333333333334</ele><time>2026-04-26T17:32:30.464Z</time></trkpt><trkpt lat="42.0955334" lon="12.6761716"><ele>92.0</ele><time>2026-04-26T17:32:31.457Z</time></trkpt><trkpt lat="42.095427" lon="12.676086"><ele>92.0</ele><time>2026-04-26T17:32:32.45Z</time></trkpt><trkpt lat="42.0953273" lon="12.6759787"><ele>92.0</ele><time>2026-04-26T17:32:33.456Z</time></trkpt><trkpt lat="42.0952701" lon="12.6759195"><ele>92.0</ele><time>2026-04-26T17:32:34.453Z</time></trkpt><trkpt lat="42.0951702" lon="12.6758316"><ele>92.0</ele><time>2026-04-26T17:32:36.452Z</time></trkpt><trkpt lat="42.0950641" lon="12.6757317"><ele>92.0</ele><time>2026-04-26T17:32:40.46Z</time></trkpt><trkpt lat="42.0949146" lon="12.6756935"><ele>93.0</ele><time>2026-04-26T17:32:42.467Z</time></trkpt><trkpt lat="42.0947914" lon="12.675639"><ele>94.0</ele><time>2026-04-26T17:32:43.478Z</time></trkpt><trkpt lat="42.094661" lon="12.6755719"><ele>95.0</ele><time>2026-04-26T17:32:44.453Z</time></trkpt><trkpt lat="42.0945208" lon="12.6755026"><ele>96.0</ele><time>2026-04-26T17:32:45.449Z</time></trkpt><trkpt lat="42.0944069" lon="12.6754156"><ele>96.0</ele><time>2026-04-26T17:32:46.457Z</time></trkpt><trkpt lat="42.0942971" lon="12.6753457"><ele>96.0</ele><time>2026-04-26T17:32:47.45Z</time></trkpt><trkpt lat="42.0941779" lon="12.6752871"><ele>96.0</ele><time>2026-04-26T17:32:48.464Z</time></trkpt><trkpt lat="42.0940853" lon="12.675186"><ele>96.0</ele><time>2026-04-26T17:32:49.459Z</time></trkpt><trkpt lat="42.0939805" lon="12.6751031"><ele>94.66666666666667</ele><time>2026-04-26T17:32:50.454Z</time></trkpt><trkpt lat="42.0938386" lon="12.6750176"><ele>93.33333333333334</ele><time>2026-04-26T17:32:51.456Z</time></trkpt><trkpt lat="42.0937011" lon="12.6749016"><ele>92.0</ele><time>2026-04-26T17:32:52.453Z</time></trkpt><trkpt lat="42.0935449" lon="12.6747499"><ele>92.0</ele><time>2026-04-26T17:32:53.451Z</time></trkpt><trkpt lat="42.0933807" lon="12.67459"><ele>92.0</ele><time>2026-04-26T17:32:54.459Z</time></trkpt><trkpt lat="42.0932466" lon="12.6744917"><ele>92.0</ele><time>2026-04-26T17:32:55.457Z</time></trkpt><trkpt lat="42.0930931" lon="12.6743527"><ele>91.66666666666667</ele><time>2026-04-26T17:32:56.467Z</time></trkpt><trkpt lat="42.0929737" lon="12.6742256"><ele>91.33333333333333</ele><time>2026-04-26T17:32:57.461Z</time></trkpt><trkpt lat="42.0928699" lon="12.6741063"><ele>91.0</ele><time>2026-04-26T17:32:58.46Z</time></trkpt><trkpt lat="42.0927446" lon="12.6739692"><ele>91.0</ele><time>2026-04-26T17:32:59.473Z</time></trkpt><trkpt lat="42.0925927" lon="12.6738282"><ele>91.0</ele><time>2026-04-26T17:33:00.456Z</time></trkpt><trkpt lat="42.0924707" lon="12.6736884"><ele>91.0</ele><time>2026-04-26T17:33:01.463Z</time></trkpt><trkpt lat="42.0923524" lon="12.6735343"><ele>91.5</ele><time>2026-04-26T17:33:02.463Z</time></trkpt><trkpt lat="42.0922451" lon="12.6734002"><ele>92.0</ele><time>2026-04-26T17:33:03.455Z</time></trkpt><trkpt lat="42.0921325" lon="12.6732599"><ele>92.5</ele><time>2026-04-26T17:33:04.461Z</time></trkpt><trkpt lat="42.0920668" lon="12.673184"><ele>93.0</ele><time>2026-04-26T17:33:05.457Z</time></trkpt><trkpt lat="42.091977" lon="12.6731053"><ele>93.0</ele><time>2026-04-26T17:33:06.464Z</time></trkpt><trkpt lat="42.0919049" lon="12.6730153"><ele>93.0</ele><time>2026-04-26T17:33:07.463Z</time></trkpt><trkpt lat="42.0917763" lon="12.6729369"><ele>93.0</ele><time>2026-04-26T17:33:08.45Z</time></trkpt><trkpt lat="42.0916337" lon="12.6728577"><ele>93.0</ele><time>2026-04-26T17:33:09.454Z</time></trkpt><trkpt lat="42.0915234" lon="12.6727592"><ele>93.0</ele><time>2026-04-26T17:33:10.457Z</time></trkpt><trkpt lat="42.09142" lon="12.6726815"><ele>93.0</ele><time>2026-04-26T17:33:11.453Z</time></trkpt><trkpt lat="42.0913187" lon="12.6725965"><ele>93.0</ele><time>2026-04-26T17:33:12.451Z</time></trkpt><trkpt lat="42.0912085" lon="12.6725068"><ele>93.0</ele><time>2026-04-26T17:33:13.456Z</time></trkpt><trkpt lat="42.0910988" lon="12.6724207"><ele>93.0</ele><time>2026-04-26T17:33:14.46Z</time></trkpt><trkpt lat="42.090993" lon="12.6723304"><ele>93.0</ele><time>2026-04-26T17:33:15.456Z</time></trkpt><trkpt lat="42.090888" lon="12.6722401"><ele>93.0</ele><time>2026-04-26T17:33:16.47Z</time></trkpt><trkpt lat="42.0907711" lon="12.672148"><ele>93.0</ele><time>2026-04-26T17:33:17.455Z</time></trkpt><trkpt lat="42.0906464" lon="12.6720489"><ele>93.25</ele><time>2026-04-26T17:33:18.46Z</time></trkpt><trkpt lat="42.0905213" lon="12.671988"><ele>93.5</ele><time>2026-04-26T17:33:19.462Z</time></trkpt><trkpt lat="42.0904164" lon="12.6719206"><ele>93.75</ele><time>2026-04-26T17:33:20.46Z</time></trkpt><trkpt lat="42.0903267" lon="12.6718603"><ele>94.0</ele><time>2026-04-26T17:33:21.46Z</time></trkpt><trkpt lat="42.0902306" lon="12.6718151"><ele>94.0</ele><time>2026-04-26T17:33:22.459Z</time></trkpt><trkpt lat="42.0901271" lon="12.6717429"><ele>94.0</ele><time>2026-04-26T17:33:23.459Z</time></trkpt><trkpt lat="42.0900251" lon="12.6716655"><ele>94.0</ele><time>2026-04-26T17:33:24.446Z</time></trkpt><trkpt lat="42.0899044" lon="12.6716028"><ele>94.0</ele><time>2026-04-26T17:33:25.45Z</time></trkpt><trkpt lat="42.0897677" lon="12.6715456"><ele>93.5</ele><time>2026-04-26T17:33:26.44Z</time></trkpt><trkpt lat="42.0896306" lon="12.6714792"><ele>93.0</ele><time>2026-04-26T17:33:27.454Z</time></trkpt><trkpt lat="42.0894767" lon="12.6714329"><ele>92.5</ele><time>2026-04-26T17:33:28.448Z</time></trkpt><trkpt lat="42.0893488" lon="12.6713803"><ele>92.0</ele><time>2026-04-26T17:33:29.448Z</time></trkpt><trkpt lat="42.089227" lon="12.6713406"><ele>92.0</ele><time>2026-04-26T17:33:30.466Z</time></trkpt><trkpt lat="42.0891195" lon="12.671297"><ele>92.0</ele><time>2026-04-26T17:33:31.456Z</time></trkpt><trkpt lat="42.0890161" lon="12.6712432"><ele>92.0</ele><time>2026-04-26T17:33:32.454Z</time></trkpt><trkpt lat="42.0889245" lon="12.671205"><ele>92.0</ele><time>2026-04-26T17:33:33.453Z</time></trkpt><trkpt lat="42.0888517" lon="12.6711451"><ele>92.0</ele><time>2026-04-26T17:33:34.458Z</time></trkpt><trkpt lat="42.0887741" lon="12.6711118"><ele>89.39999999999999</ele><time>2026-04-26T17:33:35.457Z</time></trkpt><trkpt lat="42.0886967" lon="12.6710906"><ele>86.8</ele><time>2026-04-26T17:33:36.453Z</time></trkpt><trkpt lat="42.0886045" lon="12.6710786"><ele>84.2</ele><time>2026-04-26T17:33:37.449Z</time></trkpt><trkpt lat="42.0885054" lon="12.6710636"><ele>81.6</ele><time>2026-04-26T17:33:38.45Z</time></trkpt><trkpt lat="42.0884128" lon="12.6710408"><ele>79.0</ele><time>2026-04-26T17:33:39.449Z</time></trkpt><trkpt lat="42.0883204" lon="12.6710161"><ele>75.4</ele><time>2026-04-26T17:33:40.451Z</time></trkpt><trkpt lat="42.0882302" lon="12.6709853"><ele>71.80000000000001</ele><time>2026-04-26T17:33:41.476Z</time></trkpt><trkpt lat="42.0881438" lon="12.6709489"><ele>68.19999999999999</ele><time>2026-04-26T17:33:42.451Z</time></trkpt><trkpt lat="42.0880588" lon="12.6709021"><ele>64.6</ele><time>2026-04-26T17:33:43.451Z</time></trkpt><trkpt lat="42.0879738" lon="12.6708526"><ele>61.0</ele><time>2026-04-26T17:33:44.444Z</time></trkpt><trkpt lat="42.0878864" lon="12.6707963"><ele>61.0</ele><time>2026-04-26T17:33:45.453Z</time></trkpt><trkpt lat="42.0878044" lon="12.6707392"><ele>60.99999999999999</ele><time>2026-04-26T17:33:46.503Z</time></trkpt><trkpt lat="42.0877225" lon="12.6706558"><ele>60.99999999999999</ele><time>2026-04-26T17:33:47.444Z</time></trkpt><trkpt lat="42.087633" lon="12.6705682"><ele>61.0</ele><time>2026-04-26T17:33:48.455Z</time></trkpt><trkpt lat="42.0875577" lon="12.6704808"><ele>61.0</ele><time>2026-04-26T17:33:49.45Z</time></trkpt><trkpt lat="42.0874846" lon="12.6704205"><ele>59.49999999999999</ele><time>2026-04-26T17:33:50.476Z</time></trkpt><trkpt lat="42.0874184" lon="12.6703703"><ele>58.0</ele><time>2026-04-26T17:33:51.479Z</time></trkpt><trkpt lat="42.0873497" lon="12.6703437"><ele>56.5</ele><time>2026-04-26T17:33:52.448Z</time></trkpt><trkpt lat="42.0872459" lon="12.6703747"><ele>55.0</ele><time>2026-04-26T17:33:54.446Z</time></trkpt><trkpt lat="42.0871947" lon="12.6704937"><ele>53.49999999999999</ele><time>2026-04-26T17:33:56.457Z</time></trkpt><trkpt lat="42.0871688" lon="12.6705916"><ele>52.0</ele><time>2026-04-26T17:33:57.472Z</time></trkpt><trkpt lat="42.0871416" lon="12.6707083"><ele>52.0</ele><time>2026-04-26T17:33:58.451Z</time></trkpt><trkpt lat="42.0871085" lon="12.6708352"><ele>52.0</ele><time>2026-04-26T17:33:59.455Z</time></trkpt><trkpt lat="42.0870645" lon="12.6709612"><ele>52.0</ele><time>2026-04-26T17:34:00.445Z</time></trkpt><trkpt lat="42.0870243" lon="12.6710818"><ele>52.0</ele><time>2026-04-26T17:34:01.482Z</time></trkpt><trkpt lat="42.0869574" lon="12.671181"><ele>52.0</ele><time>2026-04-26T17:34:02.457Z</time></trkpt><trkpt lat="42.0868851" lon="12.6712377"><ele>51.83333333333333</ele><time>2026-04-26T17:34:03.469Z</time></trkpt><trkpt lat="42.0868081" lon="12.6712802"><ele>51.666666666666664</ele><time>2026-04-26T17:34:04.454Z</time></trkpt><trkpt lat="42.0867413" lon="12.6712999"><ele>51.5</ele><time>2026-04-26T17:34:05.442Z</time></trkpt><trkpt lat="42.0866681" lon="12.6713299"><ele>51.33333333333333</ele><time>2026-04-26T17:34:06.453Z</time></trkpt><trkpt lat="42.08658" lon="12.6713405"><ele>51.166666666666664</ele><time>2026-04-26T17:34:07.454Z</time></trkpt><trkpt lat="42.0864902" lon="12.6713419"><ele>51.0</ele><time>2026-04-26T17:34:08.455Z</time></trkpt><trkpt lat="42.0864172" lon="12.671347"><ele>51.599999999999994</ele><time>2026-04-26T17:34:09.448Z</time></trkpt><trkpt lat="42.0863421" lon="12.6713553"><ele>52.2</ele><time>2026-04-26T17:34:11.456Z</time></trkpt><trkpt lat="42.0863208" lon="12.6712639"><ele>52.800000000000004</ele><time>2026-04-26T17:34:13.465Z</time></trkpt><trkpt lat="42.0863326" lon="12.6711669"><ele>53.400000000000006</ele><time>2026-04-26T17:34:14.456Z</time></trkpt><trkpt lat="42.0863413" lon="12.6710272"><ele>54.0</ele><time>2026-04-26T17:34:15.46Z</time></trkpt><trkpt lat="42.0863352" lon="12.6708484"><ele>54.0</ele><time>2026-04-26T17:34:16.459Z</time></trkpt><trkpt lat="42.0863245" lon="12.6706476"><ele>54.0</ele><time>2026-04-26T17:34:17.459Z</time></trkpt><trkpt lat="42.0863215" lon="12.6704064"><ele>54.0</ele><time>2026-04-26T17:34:18.46Z</time></trkpt><trkpt lat="42.086311" lon="12.6702155"><ele>53.33333333333333</ele><time>2026-04-26T17:34:19.462Z</time></trkpt><trkpt lat="42.0862998" lon="12.6700181"><ele>52.666666666666664</ele><time>2026-04-26T17:34:20.459Z</time></trkpt><trkpt lat="42.0862744" lon="12.669789"><ele>52.0</ele><time>2026-04-26T17:34:21.473Z</time></trkpt><trkpt lat="42.0862443" lon="12.6695559"><ele>51.0</ele><time>2026-04-26T17:34:22.465Z</time></trkpt><trkpt lat="42.0862111" lon="12.6693563"><ele>50.0</ele><time>2026-04-26T17:34:23.467Z</time></trkpt><trkpt lat="42.0861643" lon="12.669149"><ele>49.0</ele><time>2026-04-26T17:34:24.464Z</time></trkpt><trkpt lat="42.0861431" lon="12.6689529"><ele>49.0</ele><time>2026-04-26T17:34:25.463Z</time></trkpt><trkpt lat="42.0861614" lon="12.6687388"><ele>49.0</ele><time>2026-04-26T17:34:26.467Z</time></trkpt><trkpt lat="42.0861282" lon="12.6685205"><ele>49.0</ele><time>2026-04-26T17:34:27.46Z</time></trkpt><trkpt lat="42.0861077" lon="12.6683375"><ele>49.0</ele><time>2026-04-26T17:34:28.459Z</time></trkpt><trkpt lat="42.0860821" lon="12.6681563"><ele>49.0</ele><time>2026-04-26T17:34:29.471Z</time></trkpt><trkpt lat="42.086054" lon="12.6679533"><ele>49.0</ele><time>2026-04-26T17:34:30.46Z</time></trkpt><trkpt lat="42.086031" lon="12.6677339"><ele>49.25</ele><time>2026-04-26T17:34:31.461Z</time></trkpt><trkpt lat="42.0860134" lon="12.6675515"><ele>49.5</ele><time>2026-04-26T17:34:32.459Z</time></trkpt><trkpt lat="42.0859849" lon="12.6673896"><ele>49.75</ele><time>2026-04-26T17:34:33.45Z</time></trkpt><trkpt lat="42.0859343" lon="12.667237"><ele>50.0</ele><time>2026-04-26T17:34:34.452Z</time></trkpt><trkpt lat="42.085911" lon="12.6670965"><ele>49.75</ele><time>2026-04-26T17:34:35.456Z</time></trkpt><trkpt lat="42.0858991" lon="12.6669225"><ele>49.5</ele><time>2026-04-26T17:34:36.479Z</time></trkpt><trkpt lat="42.0858654" lon="12.6667722"><ele>49.25</ele><time>2026-04-26T17:34:37.456Z</time></trkpt><trkpt lat="42.085841" lon="12.6666332"><ele>49.0</ele><time>2026-04-26T17:34:38.459Z</time></trkpt><trkpt lat="42.0858443" lon="12.6664955"><ele>49.0</ele><time>2026-04-26T17:34:39.465Z</time></trkpt><trkpt lat="42.0858331" lon="12.6663554"><ele>49.0</ele><time>2026-04-26T17:34:40.459Z</time></trkpt><trkpt lat="42.0858216" lon="12.6661878"><ele>49.0</ele><time>2026-04-26T17:34:41.466Z</time></trkpt><trkpt lat="42.0857931" lon="12.6660278"><ele>49.0</ele><time>2026-04-26T17:34:42.454Z</time></trkpt><trkpt lat="42.0857655" lon="12.665882"><ele>52.0</ele><time>2026-04-26T17:34:43.453Z</time></trkpt><trkpt lat="42.0857435" lon="12.6657543"><ele>55.0</ele><time>2026-04-26T17:34:44.452Z</time></trkpt><trkpt lat="42.0857251" lon="12.6656246"><ele>58.00000000000001</ele><time>2026-04-26T17:34:45.451Z</time></trkpt><trkpt lat="42.0857032" lon="12.665485"><ele>61.0</ele><time>2026-04-26T17:34:46.454Z</time></trkpt><trkpt lat="42.0856789" lon="12.6653239"><ele>64.0</ele><time>2026-04-26T17:34:47.466Z</time></trkpt><trkpt lat="42.0856697" lon="12.6651352"><ele>64.4</ele><time>2026-04-26T17:34:48.462Z</time></trkpt><trkpt lat="42.0856687" lon="12.6649285"><ele>64.80000000000001</ele><time>2026-04-26T17:34:49.45Z</time></trkpt><trkpt lat="42.0856599" lon="12.6647737"><ele>65.19999999999999</ele><time>2026-04-26T17:34:50.466Z</time></trkpt><trkpt lat="42.0856565" lon="12.6646643"><ele>65.6</ele><time>2026-04-26T17:34:51.463Z</time></trkpt><trkpt lat="42.0856494" lon="12.6645346"><ele>66.0</ele><time>2026-04-26T17:34:52.479Z</time></trkpt><trkpt lat="42.0856536" lon="12.6643968"><ele>64.66666666666667</ele><time>2026-04-26T17:34:53.46Z</time></trkpt><trkpt lat="42.0856385" lon="12.6642653"><ele>63.33333333333333</ele><time>2026-04-26T17:34:54.463Z</time></trkpt><trkpt lat="42.0856088" lon="12.6641544"><ele>62.0</ele><time>2026-04-26T17:34:55.467Z</time></trkpt><trkpt lat="42.0855821" lon="12.6640653"><ele>60.666666666666664</ele><time>2026-04-26T17:34:56.49Z</time></trkpt><trkpt lat="42.0855422" lon="12.6639585"><ele>59.33333333333333</ele><time>2026-04-26T17:34:57.488Z</time></trkpt><trkpt lat="42.0854906" lon="12.6638546"><ele>58.0</ele><time>2026-04-26T17:34:58.465Z</time></trkpt><trkpt lat="42.0854394" lon="12.6637712"><ele>58.0</ele><time>2026-04-26T17:34:59.462Z</time></trkpt><trkpt lat="42.0853783" lon="12.6637142"><ele>58.0</ele><time>2026-04-26T17:35:00.481Z</time></trkpt><trkpt lat="42.0853033" lon="12.6637021"><ele>58.0</ele><time>2026-04-26T17:35:01.462Z</time></trkpt><trkpt lat="42.0852182" lon="12.6637381"><ele>58.0</ele><time>2026-04-26T17:35:02.463Z</time></trkpt><trkpt lat="42.085126" lon="12.6638127"><ele>58.0</ele><time>2026-04-26T17:35:03.461Z</time></trkpt><trkpt lat="42.0850326" lon="12.6638826"><ele>62.0</ele><time>2026-04-26T17:35:04.45Z</time></trkpt><trkpt lat="42.0849291" lon="12.6639578"><ele>66.0</ele><time>2026-04-26T17:35:05.461Z</time></trkpt><trkpt lat="42.0848161" lon="12.6639642"><ele>70.0</ele><time>2026-04-26T17:35:06.694Z</time></trkpt><trkpt lat="42.0845032" lon="12.6638759"><ele>70.0</ele><time>2026-04-26T17:35:08.606Z</time></trkpt><trkpt lat="42.084138" lon="12.6637006"><ele>70.0</ele><time>2026-04-26T17:35:10.436Z</time></trkpt><trkpt lat="42.0839892" lon="12.6636842"><ele>69.8</ele><time>2026-04-26T17:35:11.757Z</time></trkpt><trkpt lat="42.0838617" lon="12.663699"><ele>69.6</ele><time>2026-04-26T17:35:12.767Z</time></trkpt><trkpt lat="42.0837514" lon="12.6637073"><ele>69.4</ele><time>2026-04-26T17:35:14.606Z</time></trkpt><trkpt lat="42.0836658" lon="12.6636834"><ele>69.2</ele><time>2026-04-26T17:35:16.62Z</time></trkpt><trkpt lat="42.0835807" lon="12.6636839"><ele>69.0</ele><time>2026-04-26T17:35:18.465Z</time></trkpt><trkpt lat="42.0835178" lon="12.6637119"><ele>69.0</ele><time>2026-04-26T17:35:19.477Z</time></trkpt><trkpt lat="42.0834204" lon="12.6637461"><ele>69.0</ele><time>2026-04-26T17:35:20.448Z</time></trkpt><trkpt lat="42.0833293" lon="12.6637713"><ele>69.0</ele><time>2026-04-26T17:35:21.605Z</time></trkpt><trkpt lat="42.0831377" lon="12.6637818"><ele>69.0</ele><time>2026-04-26T17:35:23.475Z</time></trkpt><trkpt lat="42.0830393" lon="12.6637839"><ele>67.5</ele><time>2026-04-26T17:35:24.473Z</time></trkpt><trkpt lat="42.0829486" lon="12.663786"><ele>66.0</ele><time>2026-04-26T17:35:25.451Z</time></trkpt><trkpt lat="42.0828651" lon="12.6637911"><ele>64.5</ele><time>2026-04-26T17:35:26.453Z</time></trkpt><trkpt lat="42.0827996" lon="12.6637863"><ele>63.0</ele><time>2026-04-26T17:35:27.456Z</time></trkpt><trkpt lat="42.0827366" lon="12.6637922"><ele>61.5</ele><time>2026-04-26T17:35:28.466Z</time></trkpt><trkpt lat="42.082671" lon="12.6638164"><ele>60.0</ele><time>2026-04-26T17:35:29.45Z</time></trkpt><trkpt lat="42.0825575" lon="12.6638952"><ele>60.0</ele><time>2026-04-26T17:35:31.447Z</time></trkpt><trkpt lat="42.0824835" lon="12.6639699"><ele>60.0</ele><time>2026-04-26T17:35:32.447Z</time></trkpt><trkpt lat="42.0824012" lon="12.6640441"><ele>60.0</ele><time>2026-04-26T17:35:33.449Z</time></trkpt><trkpt lat="42.0823069" lon="12.6641181"><ele>60.0</ele><time>2026-04-26T17:35:34.449Z</time></trkpt><trkpt lat="42.0822132" lon="12.6641834"><ele>60.0</ele><time>2026-04-26T17:35:35.447Z</time></trkpt><trkpt lat="42.0821235" lon="12.6642564"><ele>58.25</ele><time>2026-04-26T17:35:36.45Z</time></trkpt><trkpt lat="42.0820242" lon="12.6643399"><ele>56.5</ele><time>2026-04-26T17:35:37.451Z</time></trkpt><trkpt lat="42.0819182" lon="12.6644133"><ele>54.75</ele><time>2026-04-26T17:35:38.444Z</time></trkpt><trkpt lat="42.0818037" lon="12.6644849"><ele>53.0</ele><time>2026-04-26T17:35:39.45Z</time></trkpt><trkpt lat="42.0816922" lon="12.6645449"><ele>51.4</ele><time>2026-04-26T17:35:40.445Z</time></trkpt><trkpt lat="42.0815925" lon="12.6646013"><ele>49.8</ele><time>2026-04-26T17:35:41.456Z</time></trkpt><trkpt lat="42.0814964" lon="12.6646676"><ele>48.2</ele><time>2026-04-26T17:35:42.445Z</time></trkpt><trkpt lat="42.0814097" lon="12.6647281"><ele>46.6</ele><time>2026-04-26T17:35:43.449Z</time></trkpt><trkpt lat="42.0813338" lon="12.6647767"><ele>45.0</ele><time>2026-04-26T17:35:44.468Z</time></trkpt><trkpt lat="42.0812591" lon="12.6648136"><ele>45.0</ele><time>2026-04-26T17:35:45.458Z</time></trkpt><trkpt lat="42.0811902" lon="12.6648181"><ele>45.0</ele><time>2026-04-26T17:35:46.458Z</time></trkpt><trkpt lat="42.0811161" lon="12.6648098"><ele>45.0</ele><time>2026-04-26T17:35:47.455Z</time></trkpt><trkpt lat="42.0810398" lon="12.6647628"><ele>45.0</ele><time>2026-04-26T17:35:48.457Z</time></trkpt><trkpt lat="42.0809624" lon="12.6646913"><ele>45.0</ele><time>2026-04-26T17:35:49.465Z</time></trkpt><trkpt lat="42.0808921" lon="12.6646247"><ele>45.0</ele><time>2026-04-26T17:35:50.453Z</time></trkpt><trkpt lat="42.0808368" lon="12.6645523"><ele>45.0</ele><time>2026-04-26T17:35:51.457Z</time></trkpt><trkpt lat="42.0807817" lon="12.6644822"><ele>45.0</ele><time>2026-04-26T17:35:52.458Z</time></trkpt><trkpt lat="42.0807275" lon="12.6644039"><ele>45.0</ele><time>2026-04-26T17:35:53.462Z</time></trkpt><trkpt lat="42.0806622" lon="12.6643161"><ele>45.0</ele><time>2026-04-26T17:35:54.457Z</time></trkpt><trkpt lat="42.0805969" lon="12.6642325"><ele>45.0</ele><time>2026-04-26T17:35:55.464Z</time></trkpt><trkpt lat="42.0805248" lon="12.6641369"><ele>45.0</ele><time>2026-04-26T17:35:56.454Z</time></trkpt><trkpt lat="42.0804565" lon="12.6640407"><ele>44.8</ele><time>2026-04-26T17:35:57.462Z</time></trkpt><trkpt lat="42.0803883" lon="12.6639385"><ele>44.6</ele><time>2026-04-26T17:35:58.464Z</time></trkpt><trkpt lat="42.0803279" lon="12.6638418"><ele>44.400000000000006</ele><time>2026-04-26T17:35:59.459Z</time></trkpt><trkpt lat="42.0802611" lon="12.6637378"><ele>44.2</ele><time>2026-04-26T17:36:00.472Z</time></trkpt><trkpt lat="42.0801997" lon="12.6636304"><ele>44.0</ele><time>2026-04-26T17:36:01.463Z</time></trkpt><trkpt lat="42.0801347" lon="12.663533"><ele>45.33333333333333</ele><time>2026-04-26T17:36:02.473Z</time></trkpt><trkpt lat="42.0800711" lon="12.6634455"><ele>46.666666666666664</ele><time>2026-04-26T17:36:03.469Z</time></trkpt><trkpt lat="42.0800142" lon="12.6633734"><ele>48.0</ele><time>2026-04-26T17:36:04.463Z</time></trkpt><trkpt lat="42.0799118" lon="12.6632788"><ele>49.33333333333333</ele><time>2026-04-26T17:36:06.459Z</time></trkpt><trkpt lat="42.0798474" lon="12.6632437"><ele>50.666666666666664</ele><time>2026-04-26T17:36:07.458Z</time></trkpt><trkpt lat="42.079788" lon="12.6631917"><ele>52.0</ele><time>2026-04-26T17:36:08.467Z</time></trkpt><trkpt lat="42.0797151" lon="12.6631227"><ele>52.99999999999999</ele><time>2026-04-26T17:36:09.465Z</time></trkpt><trkpt lat="42.0796448" lon="12.663049"><ele>54.0</ele><time>2026-04-26T17:36:10.46Z</time></trkpt><trkpt lat="42.0795755" lon="12.6629836"><ele>55.0</ele><time>2026-04-26T17:36:11.459Z</time></trkpt><trkpt lat="42.0795031" lon="12.6629429"><ele>56.0</ele><time>2026-04-26T17:36:12.456Z</time></trkpt><trkpt lat="42.0794147" lon="12.6629048"><ele>56.99999999999999</ele><time>2026-04-26T17:36:13.449Z</time></trkpt><trkpt lat="42.0793284" lon="12.6628595"><ele>58.0</ele><time>2026-04-26T17:36:14.451Z</time></trkpt><trkpt lat="42.0792426" lon="12.6628196"><ele>58.0</ele><time>2026-04-26T17:36:15.445Z</time></trkpt><trkpt lat="42.0791576" lon="12.6627813"><ele>58.0</ele><time>2026-04-26T17:36:16.452Z</time></trkpt><trkpt lat="42.0790739" lon="12.6627411"><ele>58.0</ele><time>2026-04-26T17:36:17.448Z</time></trkpt><trkpt lat="42.0789872" lon="12.6627113"><ele>58.0</ele><time>2026-04-26T17:36:18.453Z</time></trkpt><trkpt lat="42.0788926" lon="12.6626849"><ele>58.0</ele><time>2026-04-26T17:36:19.447Z</time></trkpt><trkpt lat="42.0788036" lon="12.6626561"><ele>59.8</ele><time>2026-04-26T17:36:20.444Z</time></trkpt><trkpt lat="42.0787199" lon="12.6626233"><ele>61.599999999999994</ele><time>2026-04-26T17:36:21.451Z</time></trkpt><trkpt lat="42.0786298" lon="12.6625902"><ele>63.400000000000006</ele><time>2026-04-26T17:36:22.458Z</time></trkpt><trkpt lat="42.078545" lon="12.6625401"><ele>65.2</ele><time>2026-04-26T17:36:23.456Z</time></trkpt><trkpt lat="42.0784512" lon="12.6624728"><ele>67.0</ele><time>2026-04-26T17:36:24.46Z</time></trkpt><trkpt lat="42.0783678" lon="12.6623888"><ele>67.0</ele><time>2026-04-26T17:36:25.461Z</time></trkpt><trkpt lat="42.0782821" lon="12.6622934"><ele>67.0</ele><time>2026-04-26T17:36:26.463Z</time></trkpt><trkpt lat="42.0781952" lon="12.662211"><ele>67.0</ele><time>2026-04-26T17:36:27.459Z</time></trkpt><trkpt lat="42.0781138" lon="12.6621329"><ele>67.0</ele><time>2026-04-26T17:36:28.459Z</time></trkpt><trkpt lat="42.0780345" lon="12.6620765"><ele>67.0</ele><time>2026-04-26T17:36:29.467Z</time></trkpt><trkpt lat="42.0779587" lon="12.6620224"><ele>67.6</ele><time>2026-04-26T17:36:30.468Z</time></trkpt><trkpt lat="42.0779035" lon="12.6619599"><ele>68.2</ele><time>2026-04-26T17:36:31.454Z</time></trkpt><trkpt lat="42.0778561" lon="12.6619033"><ele>68.8</ele><time>2026-04-26T17:36:32.467Z</time></trkpt><trkpt lat="42.0777783" lon="12.661807"><ele>69.4</ele><time>2026-04-26T17:36:34.45Z</time></trkpt><trkpt lat="42.0776789" lon="12.6617039"><ele>70.0</ele><time>2026-04-26T17:36:36.455Z</time></trkpt><trkpt lat="42.0775876" lon="12.6616166"><ele>70.16666666666666</ele><time>2026-04-26T17:36:38.46Z</time></trkpt><trkpt lat="42.0774847" lon="12.6615438"><ele>70.33333333333333</ele><time>2026-04-26T17:36:40.459Z</time></trkpt><trkpt lat="42.0774312" lon="12.6614972"><ele>70.5</ele><time>2026-04-26T17:36:41.468Z</time></trkpt><trkpt lat="42.0773755" lon="12.6614495"><ele>70.66666666666667</ele><time>2026-04-26T17:36:42.458Z</time></trkpt><trkpt lat="42.0773183" lon="12.6614036"><ele>70.83333333333334</ele><time>2026-04-26T17:36:43.459Z</time></trkpt><trkpt lat="42.0771981" lon="12.6613375"><ele>71.0</ele><time>2026-04-26T17:36:45.452Z</time></trkpt><trkpt lat="42.0771262" lon="12.661307"><ele>71.0</ele><time>2026-04-26T17:36:46.467Z</time></trkpt><trkpt lat="42.0770508" lon="12.6612669"><ele>71.0</ele><time>2026-04-26T17:36:47.457Z</time></trkpt><trkpt lat="42.0769701" lon="12.6612336"><ele>71.0</ele><time>2026-04-26T17:36:48.468Z</time></trkpt><trkpt lat="42.0768831" lon="12.661207"><ele>71.0</ele><time>2026-04-26T17:36:49.459Z</time></trkpt><trkpt lat="42.0767932" lon="12.6611774"><ele>71.0</ele><time>2026-04-26T17:36:50.462Z</time></trkpt><trkpt lat="42.0767036" lon="12.6611375"><ele>71.0</ele><time>2026-04-26T17:36:51.464Z</time></trkpt><trkpt lat="42.0766186" lon="12.6611019"><ele>74.4</ele><time>2026-04-26T17:36:52.472Z</time></trkpt><trkpt lat="42.0765321" lon="12.6610754"><ele>77.8</ele><time>2026-04-26T17:36:53.464Z</time></trkpt><trkpt lat="42.0764444" lon="12.6610519"><ele>81.2</ele><time>2026-04-26T17:36:54.464Z</time></trkpt><trkpt lat="42.0763385" lon="12.6610337"><ele>84.60000000000001</ele><time>2026-04-26T17:36:55.473Z</time></trkpt><trkpt lat="42.0762324" lon="12.6610217"><ele>88.0</ele><time>2026-04-26T17:36:56.47Z</time></trkpt><trkpt lat="42.0761387" lon="12.6610212"><ele>88.0</ele><time>2026-04-26T17:36:57.464Z</time></trkpt><trkpt lat="42.0760575" lon="12.6610248"><ele>88.0</ele><time>2026-04-26T17:36:58.454Z</time></trkpt><trkpt lat="42.0759912" lon="12.6610281"><ele>88.0</ele><time>2026-04-26T17:36:59.46Z</time></trkpt><trkpt lat="42.075894" lon="12.6610567"><ele>88.0</ele><time>2026-04-26T17:37:01.455Z</time></trkpt><trkpt lat="42.0757821" lon="12.661075"><ele>88.0</ele><time>2026-04-26T17:37:03.461Z</time></trkpt><trkpt lat="42.0756653" lon="12.661048"><ele>87.83333333333333</ele><time>2026-04-26T17:37:05.45Z</time></trkpt><trkpt lat="42.0756005" lon="12.661028"><ele>87.66666666666666</ele><time>2026-04-26T17:37:06.45Z</time></trkpt><trkpt lat="42.0755352" lon="12.6610141"><ele>87.5</ele><time>2026-04-26T17:37:07.451Z</time></trkpt><trkpt lat="42.0754639" lon="12.661023"><ele>87.33333333333333</ele><time>2026-04-26T17:37:08.447Z</time></trkpt><trkpt lat="42.0753496" lon="12.6609879"><ele>87.16666666666667</ele><time>2026-04-26T17:37:10.45Z</time></trkpt><trkpt lat="42.0752564" lon="12.660931"><ele>87.0</ele><time>2026-04-26T17:37:12.474Z</time></trkpt><trkpt lat="42.075192" lon="12.660869"><ele>87.0</ele><time>2026-04-26T17:37:14.463Z</time></trkpt><trkpt lat="42.0751125" lon="12.6607892"><ele>87.0</ele><time>2026-04-26T17:37:16.449Z</time></trkpt><trkpt lat="42.0750188" lon="12.6606922"><ele>87.0</ele><time>2026-04-26T17:37:18.466Z</time></trkpt><trkpt lat="42.0749218" lon="12.6606173"><ele>87.0</ele><time>2026-04-26T17:37:20.455Z</time></trkpt><trkpt lat="42.0748333" lon="12.6605325"><ele>87.0</ele><time>2026-04-26T17:37:22.479Z</time></trkpt><trkpt lat="42.0747685" lon="12.660454"><ele>86.19999999999999</ele><time>2026-04-26T17:37:24.454Z</time></trkpt><trkpt lat="42.0747122" lon="12.6603689"><ele>85.4</ele><time>2026-04-26T17:37:26.466Z</time></trkpt><trkpt lat="42.0746463" lon="12.6602724"><ele>84.6</ele><time>2026-04-26T17:37:28.451Z</time></trkpt><trkpt lat="42.0745854" lon="12.6602007"><ele>83.80000000000001</ele><time>2026-04-26T17:37:30.45Z</time></trkpt><trkpt lat="42.0745114" lon="12.6600839"><ele>83.0</ele><time>2026-04-26T17:37:32.443Z</time></trkpt><trkpt lat="42.0744488" lon="12.6600005"><ele>86.5</ele><time>2026-04-26T17:37:33.45Z</time></trkpt><trkpt lat="42.0743866" lon="12.6598984"><ele>90.0</ele><time>2026-04-26T17:37:34.444Z</time></trkpt><trkpt lat="42.0743218" lon="12.6597878"><ele>93.5</ele><time>2026-04-26T17:37:35.449Z</time></trkpt><trkpt lat="42.0742556" lon="12.6596828"><ele>97.0</ele><time>2026-04-26T17:37:36.602Z</time></trkpt><trkpt lat="42.0741186" lon="12.6595018"><ele>99.75</ele><time>2026-04-26T17:37:38.608Z</time></trkpt><trkpt lat="42.0740367" lon="12.6594193"><ele>102.5</ele><time>2026-04-26T17:37:39.61Z</time></trkpt><trkpt lat="42.0738439" lon="12.6592652"><ele>105.25</ele><time>2026-04-26T17:37:41.437Z</time></trkpt><trkpt lat="42.0737578" lon="12.6592"><ele>108.0</ele><time>2026-04-26T17:37:42.603Z</time></trkpt><trkpt lat="42.073674" lon="12.6591472"><ele>108.0</ele><time>2026-04-26T17:37:43.603Z</time></trkpt><trkpt lat="42.0735018" lon="12.6590514"><ele>108.0</ele><time>2026-04-26T17:37:45.479Z</time></trkpt><trkpt lat="42.0734164" lon="12.6590093"><ele>108.0</ele><time>2026-04-26T17:37:46.469Z</time></trkpt><trkpt lat="42.0733327" lon="12.6589684"><ele>108.0</ele><time>2026-04-26T17:37:47.45Z</time></trkpt><trkpt lat="42.0732381" lon="12.6589251"><ele>108.75</ele><time>2026-04-26T17:37:48.529Z</time></trkpt><trkpt lat="42.073151" lon="12.6588862"><ele>109.5</ele><time>2026-04-26T17:37:49.758Z</time></trkpt><trkpt lat="42.0729827" lon="12.6587992"><ele>110.25</ele><time>2026-04-26T17:37:51.441Z</time></trkpt><trkpt lat="42.0728993" lon="12.6587524"><ele>111.0</ele><time>2026-04-26T17:37:52.454Z</time></trkpt><trkpt lat="42.0728032" lon="12.6586947"><ele>111.0</ele><time>2026-04-26T17:37:53.443Z</time></trkpt><trkpt lat="42.0727162" lon="12.658647"><ele>111.0</ele><time>2026-04-26T17:37:54.445Z</time></trkpt><trkpt lat="42.072614" lon="12.6586089"><ele>111.0</ele><time>2026-04-26T17:37:55.444Z</time></trkpt><trkpt lat="42.0724957" lon="12.6585508"><ele>111.0</ele><time>2026-04-26T17:37:56.447Z</time></trkpt><trkpt lat="42.0723856" lon="12.6584883"><ele>111.0</ele><time>2026-04-26T17:37:57.447Z</time></trkpt><trkpt lat="42.0722603" lon="12.6584407"><ele>109.25</ele><time>2026-04-26T17:37:58.452Z</time></trkpt><trkpt lat="42.072139" lon="12.6583938"><ele>107.5</ele><time>2026-04-26T17:37:59.456Z</time></trkpt><trkpt lat="42.0720094" lon="12.658353"><ele>105.75</ele><time>2026-04-26T17:38:00.451Z</time></trkpt><trkpt lat="42.0718788" lon="12.6583164"><ele>104.0</ele><time>2026-04-26T17:38:01.614Z</time></trkpt><trkpt lat="42.0717525" lon="12.658275"><ele>104.0</ele><time>2026-04-26T17:38:02.607Z</time></trkpt><trkpt lat="42.0716183" lon="12.6582155"><ele>104.0</ele><time>2026-04-26T17:38:03.612Z</time></trkpt><trkpt lat="42.0714844" lon="12.6581478"><ele>104.0</ele><time>2026-04-26T17:38:04.839Z</time></trkpt><trkpt lat="42.0712474" lon="12.6580349"><ele>103.66666666666666</ele><time>2026-04-26T17:38:06.91Z</time></trkpt><trkpt lat="42.0710408" lon="12.6579521"><ele>103.33333333333334</ele><time>2026-04-26T17:38:08.752Z</time></trkpt><trkpt lat="42.0709547" lon="12.6579246"><ele>103.0</ele><time>2026-04-26T17:38:09.758Z</time></trkpt><trkpt lat="42.0708108" lon="12.6578699"><ele>103.00000000000001</ele><time>2026-04-26T17:38:11.598Z</time></trkpt><trkpt lat="42.0707391" lon="12.6578376"><ele>103.0</ele><time>2026-04-26T17:38:12.44Z</time></trkpt><trkpt lat="42.0706723" lon="12.6578241"><ele>103.0</ele><time>2026-04-26T17:38:13.605Z</time></trkpt><trkpt lat="42.0706001" lon="12.6578218"><ele>103.0</ele><time>2026-04-26T17:38:14.6Z</time></trkpt><trkpt lat="42.0705325" lon="12.6578047"><ele>103.00000000000001</ele><time>2026-04-26T17:38:15.504Z</time></trkpt><trkpt lat="42.0704543" lon="12.6577652"><ele>103.0</ele><time>2026-04-26T17:38:16.491Z</time></trkpt><trkpt lat="42.0703746" lon="12.6577014"><ele>102.5</ele><time>2026-04-26T17:38:17.491Z</time></trkpt><trkpt lat="42.0702709" lon="12.6576223"><ele>102.0</ele><time>2026-04-26T17:38:18.493Z</time></trkpt><trkpt lat="42.0701431" lon="12.6575244"><ele>101.5</ele><time>2026-04-26T17:38:19.504Z</time></trkpt><trkpt lat="42.0700016" lon="12.6574187"><ele>101.0</ele><time>2026-04-26T17:38:20.493Z</time></trkpt><trkpt lat="42.0698534" lon="12.6573081"><ele>101.0</ele><time>2026-04-26T17:38:21.471Z</time></trkpt><trkpt lat="42.0696718" lon="12.6571636"><ele>101.0</ele><time>2026-04-26T17:38:22.472Z</time></trkpt><trkpt lat="42.0694991" lon="12.6570432"><ele>101.0</ele><time>2026-04-26T17:38:23.493Z</time></trkpt><trkpt lat="42.0693157" lon="12.6569456"><ele>102.33333333333333</ele><time>2026-04-26T17:38:24.494Z</time></trkpt><trkpt lat="42.0690822" lon="12.6568873"><ele>103.66666666666666</ele><time>2026-04-26T17:38:25.47Z</time></trkpt><trkpt lat="42.0688888" lon="12.6568308"><ele>105.0</ele><time>2026-04-26T17:38:26.47Z</time></trkpt><trkpt lat="42.0686764" lon="12.6567769"><ele>105.0</ele><time>2026-04-26T17:38:27.472Z</time></trkpt><trkpt lat="42.0684733" lon="12.656715"><ele>105.0</ele><time>2026-04-26T17:38:28.467Z</time></trkpt><trkpt lat="42.0682525" lon="12.6566391"><ele>105.0</ele><time>2026-04-26T17:38:29.47Z</time></trkpt><trkpt lat="42.0680664" lon="12.6566249"><ele>106.0</ele><time>2026-04-26T17:38:30.439Z</time></trkpt><trkpt lat="42.0678777" lon="12.6565692"><ele>107.0</ele><time>2026-04-26T17:38:31.447Z</time></trkpt><trkpt lat="42.0676784" lon="12.6565161"><ele>108.0</ele><time>2026-04-26T17:38:32.494Z</time></trkpt><trkpt lat="42.0674899" lon="12.6564258"><ele>107.0</ele><time>2026-04-26T17:38:33.468Z</time></trkpt><trkpt lat="42.0673202" lon="12.6563132"><ele>106.0</ele><time>2026-04-26T17:38:34.467Z</time></trkpt><trkpt lat="42.0671492" lon="12.6562115"><ele>105.0</ele><time>2026-04-26T17:38:35.463Z</time></trkpt><trkpt lat="42.0669577" lon="12.6561155"><ele>105.33333333333334</ele><time>2026-04-26T17:38:36.494Z</time></trkpt><trkpt lat="42.0667516" lon="12.6560203"><ele>105.66666666666667</ele><time>2026-04-26T17:38:37.449Z</time></trkpt><trkpt lat="42.0665438" lon="12.6558876"><ele>106.0</ele><time>2026-04-26T17:38:38.459Z</time></trkpt><trkpt lat="42.0663298" lon="12.6557805"><ele>106.0</ele><time>2026-04-26T17:38:39.454Z</time></trkpt><trkpt lat="42.0661177" lon="12.6556559"><ele>106.0</ele><time>2026-04-26T17:38:40.454Z</time></trkpt><trkpt lat="42.0658886" lon="12.6555695"><ele>104.5</ele><time>2026-04-26T17:38:41.464Z</time></trkpt><trkpt lat="42.0656585" lon="12.6554651"><ele>103.0</ele><time>2026-04-26T17:38:42.466Z</time></trkpt><trkpt lat="42.0654376" lon="12.655365"><ele>105.0</ele><time>2026-04-26T17:38:43.458Z</time></trkpt><trkpt lat="42.0652067" lon="12.6552663"><ele>107.0</ele><time>2026-04-26T17:38:44.457Z</time></trkpt><trkpt lat="42.064988" lon="12.6551749"><ele>106.0</ele><time>2026-04-26T17:38:45.463Z</time></trkpt><trkpt lat="42.0647531" lon="12.6550336"><ele>105.0</ele><time>2026-04-26T17:38:46.457Z</time></trkpt><trkpt lat="42.0645276" lon="12.6549274"><ele>105.0</ele><time>2026-04-26T17:38:47.459Z</time></trkpt><trkpt lat="42.0643195" lon="12.65484"><ele>105.0</ele><time>2026-04-26T17:38:48.46Z</time></trkpt><trkpt lat="42.0640965" lon="12.6547161"><ele>104.0</ele><time>2026-04-26T17:38:49.454Z</time></trkpt><trkpt lat="42.063871" lon="12.6546145"><ele>103.0</ele><time>2026-04-26T17:38:50.459Z</time></trkpt><trkpt lat="42.0636586" lon="12.654523"><ele>103.33333333333334</ele><time>2026-04-26T17:38:51.467Z</time></trkpt><trkpt lat="42.0634502" lon="12.6544427"><ele>103.66666666666666</ele><time>2026-04-26T17:38:52.463Z</time></trkpt><trkpt lat="42.0632309" lon="12.6543462"><ele>104.0</ele><time>2026-04-26T17:38:53.468Z</time></trkpt><trkpt lat="42.0630417" lon="12.6542719"><ele>104.33333333333333</ele><time>2026-04-26T17:38:54.454Z</time></trkpt><trkpt lat="42.0628606" lon="12.6541778"><ele>104.66666666666666</ele><time>2026-04-26T17:38:55.466Z</time></trkpt><trkpt lat="42.0626943" lon="12.6540967"><ele>105.0</ele><time>2026-04-26T17:38:56.464Z</time></trkpt><trkpt lat="42.0624893" lon="12.6540302"><ele>105.66666666666666</ele><time>2026-04-26T17:38:57.464Z</time></trkpt><trkpt lat="42.0622911" lon="12.653959"><ele>106.33333333333333</ele><time>2026-04-26T17:38:58.455Z</time></trkpt><trkpt lat="42.0620754" lon="12.6538787"><ele>107.0</ele><time>2026-04-26T17:38:59.477Z</time></trkpt><trkpt lat="42.0618658" lon="12.6538021"><ele>107.0</ele><time>2026-04-26T17:39:00.462Z</time></trkpt><trkpt lat="42.0616723" lon="12.6537425"><ele>107.0</ele><time>2026-04-26T17:39:01.454Z</time></trkpt><trkpt lat="42.0614667" lon="12.6536757"><ele>107.0</ele><time>2026-04-26T17:39:02.463Z</time></trkpt><trkpt lat="42.0613036" lon="12.6536177"><ele>108.33333333333333</ele><time>2026-04-26T17:39:03.455Z</time></trkpt><trkpt lat="42.061161" lon="12.6535262"><ele>109.66666666666666</ele><time>2026-04-26T17:39:04.447Z</time></trkpt><trkpt lat="42.0609832" lon="12.6534521"><ele>111.0</ele><time>2026-04-26T17:39:05.457Z</time></trkpt><trkpt lat="42.0607894" lon="12.6533592"><ele>112.0</ele><time>2026-04-26T17:39:06.455Z</time></trkpt><trkpt lat="42.0605852" lon="12.6533034"><ele>113.0</ele><time>2026-04-26T17:39:07.445Z</time></trkpt><trkpt lat="42.0603558" lon="12.6532985"><ele>114.0</ele><time>2026-04-26T17:39:08.458Z</time></trkpt><trkpt lat="42.0601605" lon="12.6532359"><ele>114.0</ele><time>2026-04-26T17:39:09.453Z</time></trkpt><trkpt lat="42.0599583" lon="12.6531462"><ele>114.0</ele><time>2026-04-26T17:39:10.479Z</time></trkpt><trkpt lat="42.0597748" lon="12.6530753"><ele>114.0</ele><time>2026-04-26T17:39:11.479Z</time></trkpt><trkpt lat="42.0595953" lon="12.6530147"><ele>116.33333333333334</ele><time>2026-04-26T17:39:12.455Z</time></trkpt><trkpt lat="42.0594371" lon="12.6529525"><ele>118.66666666666667</ele><time>2026-04-26T17:39:13.45Z</time></trkpt><trkpt lat="42.0592741" lon="12.6528697"><ele>121.0</ele><time>2026-04-26T17:39:14.463Z</time></trkpt><trkpt lat="42.0591366" lon="12.6527879"><ele>121.5</ele><time>2026-04-26T17:39:15.453Z</time></trkpt><trkpt lat="42.0589981" lon="12.652714"><ele>122.0</ele><time>2026-04-26T17:39:16.457Z</time></trkpt><trkpt lat="42.0588427" lon="12.6526544"><ele>122.5</ele><time>2026-04-26T17:39:17.451Z</time></trkpt><trkpt lat="42.0587147" lon="12.6526105"><ele>123.0</ele><time>2026-04-26T17:39:18.547Z</time></trkpt><trkpt lat="42.0585538" lon="12.6525686"><ele>123.0</ele><time>2026-04-26T17:39:19.475Z</time></trkpt><trkpt lat="42.058414" lon="12.652516"><ele>123.0</ele><time>2026-04-26T17:39:20.45Z</time></trkpt><trkpt lat="42.0583003" lon="12.6524445"><ele>123.0</ele><time>2026-04-26T17:39:21.452Z</time></trkpt><trkpt lat="42.0581794" lon="12.6523731"><ele>123.0</ele><time>2026-04-26T17:39:22.449Z</time></trkpt><trkpt lat="42.0580798" lon="12.6522728"><ele>122.60000000000001</ele><time>2026-04-26T17:39:23.452Z</time></trkpt><trkpt lat="42.0579993" lon="12.6522048"><ele>122.20000000000002</ele><time>2026-04-26T17:39:24.45Z</time></trkpt><trkpt lat="42.0579204" lon="12.6521217"><ele>121.8</ele><time>2026-04-26T17:39:25.439Z</time></trkpt><trkpt lat="42.0578291" lon="12.6520402"><ele>121.4</ele><time>2026-04-26T17:39:26.452Z</time></trkpt><trkpt lat="42.0577354" lon="12.6519858"><ele>121.0</ele><time>2026-04-26T17:39:27.448Z</time></trkpt><trkpt lat="42.0576604" lon="12.6519261"><ele>121.0</ele><time>2026-04-26T17:39:28.447Z</time></trkpt><trkpt lat="42.0575709" lon="12.6518587"><ele>121.0</ele><time>2026-04-26T17:39:29.454Z</time></trkpt><trkpt lat="42.0574838" lon="12.65178"><ele>121.0</ele><time>2026-04-26T17:39:30.467Z</time></trkpt><trkpt lat="42.057402" lon="12.651706"><ele>121.0</ele><time>2026-04-26T17:39:31.445Z</time></trkpt><trkpt lat="42.0573097" lon="12.6516518"><ele>121.0</ele><time>2026-04-26T17:39:32.442Z</time></trkpt><trkpt lat="42.0572455" lon="12.6516149"><ele>120.4</ele><time>2026-04-26T17:39:33.447Z</time></trkpt><trkpt lat="42.0571708" lon="12.6515649"><ele>119.8</ele><time>2026-04-26T17:39:35.455Z</time></trkpt><trkpt lat="42.0571112" lon="12.651511"><ele>119.20000000000002</ele><time>2026-04-26T17:39:37.454Z</time></trkpt><trkpt lat="42.0570234" lon="12.6514147"><ele>118.60000000000001</ele><time>2026-04-26T17:39:39.447Z</time></trkpt><trkpt lat="42.0569335" lon="12.651331"><ele>118.0</ele><time>2026-04-26T17:39:40.447Z</time></trkpt><trkpt lat="42.0568094" lon="12.6512602"><ele>118.0</ele><time>2026-04-26T17:39:41.442Z</time></trkpt><trkpt lat="42.0566401" lon="12.6511877"><ele>118.0</ele><time>2026-04-26T17:39:42.445Z</time></trkpt><trkpt lat="42.0564397" lon="12.6510996"><ele>118.0</ele><time>2026-04-26T17:39:43.448Z</time></trkpt><trkpt lat="42.0561967" lon="12.6509714"><ele>115.0</ele><time>2026-04-26T17:39:44.442Z</time></trkpt><trkpt lat="42.0559824" lon="12.6508533"><ele>112.0</ele><time>2026-04-26T17:39:45.449Z</time></trkpt><trkpt lat="42.0557693" lon="12.6507348"><ele>110.66666666666667</ele><time>2026-04-26T17:39:46.457Z</time></trkpt><trkpt lat="42.0555612" lon="12.6506123"><ele>109.33333333333334</ele><time>2026-04-26T17:39:47.462Z</time></trkpt><trkpt lat="42.0553838" lon="12.6505076"><ele>108.0</ele><time>2026-04-26T17:39:48.47Z</time></trkpt><trkpt lat="42.0551914" lon="12.6503919"><ele>108.33333333333334</ele><time>2026-04-26T17:39:49.464Z</time></trkpt><trkpt lat="42.0549875" lon="12.6502671"><ele>108.66666666666667</ele><time>2026-04-26T17:39:50.467Z</time></trkpt><trkpt lat="42.0548215" lon="12.6501558"><ele>109.0</ele><time>2026-04-26T17:39:51.467Z</time></trkpt><trkpt lat="42.0546451" lon="12.6500478"><ele>109.0</ele><time>2026-04-26T17:39:52.459Z</time></trkpt><trkpt lat="42.054489" lon="12.6499531"><ele>109.0</ele><time>2026-04-26T17:39:53.468Z</time></trkpt><trkpt lat="42.054311" lon="12.6498376"><ele>109.0</ele><time>2026-04-26T17:39:54.471Z</time></trkpt><trkpt lat="42.0541287" lon="12.6497463"><ele>109.0</ele><time>2026-04-26T17:39:55.47Z</time></trkpt><trkpt lat="42.053948" lon="12.6496569"><ele>109.0</ele><time>2026-04-26T17:39:56.471Z</time></trkpt><trkpt lat="42.053774" lon="12.6495659"><ele>109.0</ele><time>2026-04-26T17:39:57.498Z</time></trkpt><trkpt lat="42.0535902" lon="12.6494932"><ele>109.33333333333334</ele><time>2026-04-26T17:39:58.494Z</time></trkpt><trkpt lat="42.0534027" lon="12.649405"><ele>109.66666666666666</ele><time>2026-04-26T17:39:59.476Z</time></trkpt><trkpt lat="42.0532438" lon="12.6493276"><ele>110.0</ele><time>2026-04-26T17:40:00.475Z</time></trkpt><trkpt lat="42.0530971" lon="12.6492576"><ele>109.0</ele><time>2026-04-26T17:40:01.448Z</time></trkpt><trkpt lat="42.0529461" lon="12.64913"><ele>108.0</ele><time>2026-04-26T17:40:02.464Z</time></trkpt><trkpt lat="42.0528039" lon="12.6490337"><ele>107.0</ele><time>2026-04-26T17:40:03.452Z</time></trkpt><trkpt lat="42.0526405" lon="12.6488982"><ele>107.0</ele><time>2026-04-26T17:40:04.466Z</time></trkpt><trkpt lat="42.0524723" lon="12.6487619"><ele>107.0</ele><time>2026-04-26T17:40:05.468Z</time></trkpt><trkpt lat="42.0523054" lon="12.6486167"><ele>107.0</ele><time>2026-04-26T17:40:06.466Z</time></trkpt><trkpt lat="42.0521301" lon="12.6484624"><ele>107.33333333333333</ele><time>2026-04-26T17:40:07.47Z</time></trkpt><trkpt lat="42.0519587" lon="12.6483217"><ele>107.66666666666666</ele><time>2026-04-26T17:40:08.468Z</time></trkpt><trkpt lat="42.0517909" lon="12.6482145"><ele>108.0</ele><time>2026-04-26T17:40:09.469Z</time></trkpt><trkpt lat="42.0516263" lon="12.6481012"><ele>108.66666666666666</ele><time>2026-04-26T17:40:10.46Z</time></trkpt><trkpt lat="42.051454" lon="12.6479851"><ele>109.33333333333333</ele><time>2026-04-26T17:40:11.476Z</time></trkpt><trkpt lat="42.0512886" lon="12.6478909"><ele>110.0</ele><time>2026-04-26T17:40:12.472Z</time></trkpt><trkpt lat="42.0511059" lon="12.6477804"><ele>111.5</ele><time>2026-04-26T17:40:13.494Z</time></trkpt><trkpt lat="42.0508941" lon="12.6476555"><ele>113.0</ele><time>2026-04-26T17:40:14.471Z</time></trkpt><trkpt lat="42.0507017" lon="12.6474777"><ele>113.66666666666666</ele><time>2026-04-26T17:40:15.473Z</time></trkpt><trkpt lat="42.0505554" lon="12.6473498"><ele>114.33333333333334</ele><time>2026-04-26T17:40:16.469Z</time></trkpt><trkpt lat="42.0503759" lon="12.6472339"><ele>115.0</ele><time>2026-04-26T17:40:17.469Z</time></trkpt><trkpt lat="42.05018" lon="12.6471107"><ele>115.0</ele><time>2026-04-26T17:40:18.468Z</time></trkpt><trkpt lat="42.0500003" lon="12.6469919"><ele>115.0</ele><time>2026-04-26T17:40:19.467Z</time></trkpt><trkpt lat="42.0498409" lon="12.6469011"><ele>115.0</ele><time>2026-04-26T17:40:20.472Z</time></trkpt><trkpt lat="42.0496963" lon="12.6467987"><ele>116.25</ele><time>2026-04-26T17:40:21.465Z</time></trkpt><trkpt lat="42.0495631" lon="12.6467213"><ele>117.5</ele><time>2026-04-26T17:40:22.463Z</time></trkpt><trkpt lat="42.049447" lon="12.6466684"><ele>118.75</ele><time>2026-04-26T17:40:23.47Z</time></trkpt><trkpt lat="42.0493246" lon="12.6465985"><ele>120.0</ele><time>2026-04-26T17:40:24.459Z</time></trkpt><trkpt lat="42.0492011" lon="12.6465194"><ele>120.5</ele><time>2026-04-26T17:40:25.474Z</time></trkpt><trkpt lat="42.0490978" lon="12.6464406"><ele>121.0</ele><time>2026-04-26T17:40:26.462Z</time></trkpt><trkpt lat="42.0489898" lon="12.6463821"><ele>121.5</ele><time>2026-04-26T17:40:27.472Z</time></trkpt><trkpt lat="42.0488813" lon="12.6463041"><ele>122.0</ele><time>2026-04-26T17:40:28.47Z</time></trkpt><trkpt lat="42.048777" lon="12.6461815"><ele>122.0</ele><time>2026-04-26T17:40:29.474Z</time></trkpt><trkpt lat="42.0486215" lon="12.6461343"><ele>122.0</ele><time>2026-04-26T17:40:30.48Z</time></trkpt><trkpt lat="42.0484365" lon="12.6460668"><ele>122.0</ele><time>2026-04-26T17:40:31.47Z</time></trkpt><trkpt lat="42.0482324" lon="12.6459602"><ele>124.33333333333333</ele><time>2026-04-26T17:40:32.49Z</time></trkpt><trkpt lat="42.0480333" lon="12.6458463"><ele>126.66666666666666</ele><time>2026-04-26T17:40:33.484Z</time></trkpt><trkpt lat="42.0478837" lon="12.6457785"><ele>129.0</ele><time>2026-04-26T17:40:34.481Z</time></trkpt><trkpt lat="42.0477328" lon="12.6457242"><ele>129.0</ele><time>2026-04-26T17:40:35.471Z</time></trkpt><trkpt lat="42.0475946" lon="12.6456793"><ele>129.0</ele><time>2026-04-26T17:40:36.47Z</time></trkpt><trkpt lat="42.0474477" lon="12.6456351"><ele>129.0</ele><time>2026-04-26T17:40:37.47Z</time></trkpt><trkpt lat="42.047306" lon="12.645593"><ele>129.0</ele><time>2026-04-26T17:40:38.477Z</time></trkpt><trkpt lat="42.0471587" lon="12.6455492"><ele>131.33333333333334</ele><time>2026-04-26T17:40:39.466Z</time></trkpt><trkpt lat="42.0470008" lon="12.6454809"><ele>133.66666666666669</ele><time>2026-04-26T17:40:40.474Z</time></trkpt><trkpt lat="42.046831" lon="12.6454051"><ele>136.0</ele><time>2026-04-26T17:40:41.47Z</time></trkpt><trkpt lat="42.0466757" lon="12.6453282"><ele>137.25</ele><time>2026-04-26T17:40:42.475Z</time></trkpt><trkpt lat="42.0465359" lon="12.6452724"><ele>138.5</ele><time>2026-04-26T17:40:43.472Z</time></trkpt><trkpt lat="42.0464231" lon="12.6452263"><ele>139.75</ele><time>2026-04-26T17:40:44.465Z</time></trkpt><trkpt lat="42.0463065" lon="12.6452064"><ele>141.0</ele><time>2026-04-26T17:40:45.469Z</time></trkpt><trkpt lat="42.0462009" lon="12.6451777"><ele>141.0</ele><time>2026-04-26T17:40:46.476Z</time></trkpt><trkpt lat="42.046113" lon="12.6451295"><ele>141.0</ele><time>2026-04-26T17:40:47.472Z</time></trkpt><trkpt lat="42.0459651" lon="12.6450709"><ele>141.0</ele><time>2026-04-26T17:40:48.492Z</time></trkpt><trkpt lat="42.0458037" lon="12.6450177"><ele>141.0</ele><time>2026-04-26T17:40:49.478Z</time></trkpt><trkpt lat="42.0456376" lon="12.6449224"><ele>140.66666666666666</ele><time>2026-04-26T17:40:50.475Z</time></trkpt><trkpt lat="42.0454592" lon="12.644842"><ele>140.33333333333331</ele><time>2026-04-26T17:40:51.465Z</time></trkpt><trkpt lat="42.0452812" lon="12.6447906"><ele>140.0</ele><time>2026-04-26T17:40:52.466Z</time></trkpt><trkpt lat="42.0451301" lon="12.6447428"><ele>140.0</ele><time>2026-04-26T17:40:53.471Z</time></trkpt><trkpt lat="42.0449977" lon="12.6447009"><ele>140.0</ele><time>2026-04-26T17:40:54.472Z</time></trkpt><trkpt lat="42.0448644" lon="12.6446378"><ele>140.0</ele><time>2026-04-26T17:40:55.479Z</time></trkpt><trkpt lat="42.0447457" lon="12.6445797"><ele>140.0</ele><time>2026-04-26T17:40:56.477Z</time></trkpt><trkpt lat="42.0446114" lon="12.6445024"><ele>140.0</ele><time>2026-04-26T17:40:57.473Z</time></trkpt><trkpt lat="42.0444884" lon="12.6444311"><ele>140.0</ele><time>2026-04-26T17:40:58.461Z</time></trkpt><trkpt lat="42.0443449" lon="12.6443525"><ele>140.0</ele><time>2026-04-26T17:40:59.467Z</time></trkpt><trkpt lat="42.044185" lon="12.6442456"><ele>139.75</ele><time>2026-04-26T17:41:00.477Z</time></trkpt><trkpt lat="42.0440599" lon="12.6441295"><ele>139.5</ele><time>2026-04-26T17:41:01.463Z</time></trkpt><trkpt lat="42.0439245" lon="12.6440654"><ele>139.25</ele><time>2026-04-26T17:41:02.461Z</time></trkpt><trkpt lat="42.0437821" lon="12.6440162"><ele>139.0</ele><time>2026-04-26T17:41:03.454Z</time></trkpt><trkpt lat="42.0436309" lon="12.6439359"><ele>139.0</ele><time>2026-04-26T17:41:04.459Z</time></trkpt><trkpt lat="42.0434651" lon="12.6438314"><ele>139.0</ele><time>2026-04-26T17:41:05.455Z</time></trkpt><trkpt lat="42.0432904" lon="12.6437293"><ele>139.0</ele><time>2026-04-26T17:41:06.46Z</time></trkpt><trkpt lat="42.043116" lon="12.6436109"><ele>139.66666666666669</ele><time>2026-04-26T17:41:07.457Z</time></trkpt><trkpt lat="42.0429582" lon="12.6434813"><ele>140.33333333333334</ele><time>2026-04-26T17:41:08.455Z</time></trkpt><trkpt lat="42.0428018" lon="12.6433284"><ele>141.0</ele><time>2026-04-26T17:41:09.453Z</time></trkpt><trkpt lat="42.0426788" lon="12.6432085"><ele>141.0</ele><time>2026-04-26T17:41:10.456Z</time></trkpt><trkpt lat="42.04254" lon="12.643077"><ele>141.0</ele><time>2026-04-26T17:41:11.462Z</time></trkpt><trkpt lat="42.0424103" lon="12.6429814"><ele>141.0</ele><time>2026-04-26T17:41:12.457Z</time></trkpt><trkpt lat="42.0422966" lon="12.6428828"><ele>142.0</ele><time>2026-04-26T17:41:13.456Z</time></trkpt><trkpt lat="42.0422142" lon="12.64276"><ele>143.0</ele><time>2026-04-26T17:41:14.458Z</time></trkpt><trkpt lat="42.0421051" lon="12.642666"><ele>144.0</ele><time>2026-04-26T17:41:15.449Z</time></trkpt><trkpt lat="42.042017" lon="12.6425645"><ele>145.0</ele><time>2026-04-26T17:41:16.46Z</time></trkpt><trkpt lat="42.0419336" lon="12.6424601"><ele>145.0</ele><time>2026-04-26T17:41:17.465Z</time></trkpt><trkpt lat="42.041855" lon="12.6423305"><ele>145.0</ele><time>2026-04-26T17:41:18.46Z</time></trkpt><trkpt lat="42.0417776" lon="12.6422059"><ele>145.0</ele><time>2026-04-26T17:41:19.459Z</time></trkpt><trkpt lat="42.0417082" lon="12.6421215"><ele>145.0</ele><time>2026-04-26T17:41:20.457Z</time></trkpt><trkpt lat="42.0416336" lon="12.6420217"><ele>145.0</ele><time>2026-04-26T17:41:21.461Z</time></trkpt><trkpt lat="42.0415679" lon="12.6419233"><ele>146.6</ele><time>2026-04-26T17:41:22.459Z</time></trkpt><trkpt lat="42.0415023" lon="12.6418274"><ele>148.2</ele><time>2026-04-26T17:41:23.474Z</time></trkpt><trkpt lat="42.0414324" lon="12.6417174"><ele>149.8</ele><time>2026-04-26T17:41:24.468Z</time></trkpt><trkpt lat="42.0413669" lon="12.6416188"><ele>151.4</ele><time>2026-04-26T17:41:25.459Z</time></trkpt><trkpt lat="42.0413074" lon="12.6415356"><ele>153.0</ele><time>2026-04-26T17:41:26.471Z</time></trkpt><trkpt lat="42.041253" lon="12.641444"><ele>153.0</ele><time>2026-04-26T17:41:27.465Z</time></trkpt><trkpt lat="42.0411956" lon="12.6413481"><ele>153.0</ele><time>2026-04-26T17:41:28.465Z</time></trkpt><trkpt lat="42.0411328" lon="12.6412427"><ele>153.0</ele><time>2026-04-26T17:41:29.47Z</time></trkpt><trkpt lat="42.0410566" lon="12.6411387"><ele>153.0</ele><time>2026-04-26T17:41:30.468Z</time></trkpt><trkpt lat="42.0409753" lon="12.6410285"><ele>153.0</ele><time>2026-04-26T17:41:31.46Z</time></trkpt><trkpt lat="42.0408882" lon="12.6409181"><ele>152.8</ele><time>2026-04-26T17:41:32.471Z</time></trkpt><trkpt lat="42.0408137" lon="12.6408114"><ele>152.60000000000002</ele><time>2026-04-26T17:41:33.47Z</time></trkpt><trkpt lat="42.0407513" lon="12.6407223"><ele>152.39999999999998</ele><time>2026-04-26T17:41:34.456Z</time></trkpt><trkpt lat="42.0406965" lon="12.6406661"><ele>152.2</ele><time>2026-04-26T17:41:35.463Z</time></trkpt><trkpt lat="42.0406025" lon="12.6405933"><ele>152.0</ele><time>2026-04-26T17:41:37.449Z</time></trkpt><trkpt lat="42.0405248" lon="12.6405634"><ele>152.79999999999998</ele><time>2026-04-26T17:41:38.455Z</time></trkpt><trkpt lat="42.0404336" lon="12.6405048"><ele>153.6</ele><time>2026-04-26T17:41:39.455Z</time></trkpt><trkpt lat="42.0403265" lon="12.6404505"><ele>154.39999999999998</ele><time>2026-04-26T17:41:40.453Z</time></trkpt><trkpt lat="42.0402235" lon="12.6404133"><ele>155.2</ele><time>2026-04-26T17:41:41.466Z</time></trkpt><trkpt lat="42.0401272" lon="12.6403833"><ele>156.0</ele><time>2026-04-26T17:41:42.46Z</time></trkpt><trkpt lat="42.0400347" lon="12.640348"><ele>156.5</ele><time>2026-04-26T17:41:43.464Z</time></trkpt><trkpt lat="42.0399544" lon="12.6403206"><ele>157.0</ele><time>2026-04-26T17:41:44.46Z</time></trkpt><trkpt lat="42.039883" lon="12.6402933"><ele>157.5</ele><time>2026-04-26T17:41:45.461Z</time></trkpt><trkpt lat="42.0398232" lon="12.6402596"><ele>158.0</ele><time>2026-04-26T17:41:46.455Z</time></trkpt><trkpt lat="42.0397386" lon="12.6402235"><ele>158.5</ele><time>2026-04-26T17:41:48.447Z</time></trkpt><trkpt lat="42.0396732" lon="12.6401955"><ele>159.0</ele><time>2026-04-26T17:41:50.454Z</time></trkpt><trkpt lat="42.0395894" lon="12.6401559"><ele>157.33333333333334</ele><time>2026-04-26T17:41:52.448Z</time></trkpt><trkpt lat="42.0394995" lon="12.6401111"><ele>155.66666666666666</ele><time>2026-04-26T17:41:54.459Z</time></trkpt><trkpt lat="42.0394319" lon="12.6400485"><ele>154.0</ele><time>2026-04-26T17:41:56.451Z</time></trkpt><trkpt lat="42.0393499" lon="12.6399925"><ele>152.33333333333331</ele><time>2026-04-26T17:41:58.45Z</time></trkpt><trkpt lat="42.0392562" lon="12.6399129"><ele>150.66666666666666</ele><time>2026-04-26T17:42:00.45Z</time></trkpt><trkpt lat="42.0392001" lon="12.6398675"><ele>149.0</ele><time>2026-04-26T17:42:01.453Z</time></trkpt><trkpt lat="42.039139" lon="12.6398146"><ele>148.5</ele><time>2026-04-26T17:42:02.465Z</time></trkpt><trkpt lat="42.0390679" lon="12.6397538"><ele>148.0</ele><time>2026-04-26T17:42:03.452Z</time></trkpt><trkpt lat="42.0389962" lon="12.6396995"><ele>147.5</ele><time>2026-04-26T17:42:04.461Z</time></trkpt><trkpt lat="42.0389153" lon="12.6396668"><ele>147.0</ele><time>2026-04-26T17:42:05.453Z</time></trkpt><trkpt lat="42.0388385" lon="12.6396289"><ele>146.5</ele><time>2026-04-26T17:42:06.444Z</time></trkpt><trkpt lat="42.0387619" lon="12.6396079"><ele>146.0</ele><time>2026-04-26T17:42:07.453Z</time></trkpt><trkpt lat="42.0386936" lon="12.6395695"><ele>146.0</ele><time>2026-04-26T17:42:08.441Z</time></trkpt><trkpt lat="42.0386289" lon="12.6395269"><ele>146.0</ele><time>2026-04-26T17:42:09.474Z</time></trkpt><trkpt lat="42.0385592" lon="12.6394333"><ele>146.0</ele><time>2026-04-26T17:42:11.455Z</time></trkpt><trkpt lat="42.0385231" lon="12.6393574"><ele>146.0</ele><time>2026-04-26T17:42:13.462Z</time></trkpt><trkpt lat="42.038474" lon="12.6392877"><ele>146.0</ele><time>2026-04-26T17:42:16.459Z</time></trkpt><trkpt lat="42.0384311" lon="12.6392226"><ele>146.0</ele><time>2026-04-26T17:42:28.454Z</time></trkpt><trkpt lat="42.0383669" lon="12.6391684"><ele>146.0</ele><time>2026-04-26T17:42:30.449Z</time></trkpt><trkpt lat="42.0382883" lon="12.6391206"><ele>146.16666666666666</ele><time>2026-04-26T17:42:32.455Z</time></trkpt><trkpt lat="42.0382248" lon="12.6390711"><ele>146.33333333333331</ele><time>2026-04-26T17:42:33.447Z</time></trkpt><trkpt lat="42.0381668" lon="12.6390223"><ele>146.5</ele><time>2026-04-26T17:42:34.448Z</time></trkpt><trkpt lat="42.0381131" lon="12.6389693"><ele>146.66666666666666</ele><time>2026-04-26T17:42:35.453Z</time></trkpt><trkpt lat="42.0380631" lon="12.6389136"><ele>146.83333333333334</ele><time>2026-04-26T17:42:36.453Z</time></trkpt><trkpt lat="42.0379519" lon="12.6388218"><ele>147.0</ele><time>2026-04-26T17:42:38.451Z</time></trkpt><trkpt lat="42.0378833" lon="12.6387693"><ele>147.0</ele><time>2026-04-26T17:42:39.458Z</time></trkpt><trkpt lat="42.0378178" lon="12.6387254"><ele>147.0</ele><time>2026-04-26T17:42:40.474Z</time></trkpt><trkpt lat="42.0377422" lon="12.6386805"><ele>147.0</ele><time>2026-04-26T17:42:41.469Z</time></trkpt><trkpt lat="42.0376641" lon="12.6386421"><ele>147.0</ele><time>2026-04-26T17:42:42.478Z</time></trkpt><trkpt lat="42.0375958" lon="12.6386055"><ele>147.0</ele><time>2026-04-26T17:42:43.455Z</time></trkpt><trkpt lat="42.0375249" lon="12.6385844"><ele>147.0</ele><time>2026-04-26T17:42:44.453Z</time></trkpt><trkpt lat="42.0374076" lon="12.638516"><ele>148.16666666666666</ele><time>2026-04-26T17:42:46.449Z</time></trkpt><trkpt lat="42.0373394" lon="12.6384656"><ele>149.33333333333334</ele><time>2026-04-26T17:42:47.444Z</time></trkpt><trkpt lat="42.0372899" lon="12.6383718"><ele>150.5</ele><time>2026-04-26T17:42:48.47Z</time></trkpt><trkpt lat="42.0372658" lon="12.6382923"><ele>151.66666666666669</ele><time>2026-04-26T17:42:49.461Z</time></trkpt><trkpt lat="42.0372236" lon="12.6381777"><ele>152.83333333333334</ele><time>2026-04-26T17:42:51.447Z</time></trkpt><trkpt lat="42.0371946" lon="12.6380901"><ele>154.0</ele><time>2026-04-26T17:42:53.458Z</time></trkpt><trkpt lat="42.0371085" lon="12.6379907"><ele>154.0</ele><time>2026-04-26T17:42:56.448Z</time></trkpt><trkpt lat="42.0370601" lon="12.6379277"><ele>154.0</ele><time>2026-04-26T17:42:57.446Z</time></trkpt><trkpt lat="42.036989" lon="12.6378762"><ele>154.0</ele><time>2026-04-26T17:42:58.453Z</time></trkpt><trkpt lat="42.0368924" lon="12.6377914"><ele>154.0</ele><time>2026-04-26T17:42:59.453Z</time></trkpt><trkpt lat="42.0367607" lon="12.6377528"><ele>154.0</ele><time>2026-04-26T17:43:00.473Z</time></trkpt><trkpt lat="42.0366632" lon="12.6377451"><ele>153.2</ele><time>2026-04-26T17:43:01.444Z</time></trkpt><trkpt lat="42.0365713" lon="12.637733"><ele>152.4</ele><time>2026-04-26T17:43:02.449Z</time></trkpt><trkpt lat="42.0364986" lon="12.6377232"><ele>151.6</ele><time>2026-04-26T17:43:03.456Z</time></trkpt><trkpt lat="42.0363923" lon="12.6377418"><ele>150.8</ele><time>2026-04-26T17:43:05.465Z</time></trkpt><trkpt lat="42.0363008" lon="12.6377451"><ele>150.0</ele><time>2026-04-26T17:43:07.46Z</time></trkpt><trkpt lat="42.0361899" lon="12.6377495"><ele>150.0</ele><time>2026-04-26T17:43:09.462Z</time></trkpt><trkpt lat="42.0360999" lon="12.6377579"><ele>150.0</ele><time>2026-04-26T17:43:11.467Z</time></trkpt><trkpt lat="42.0360032" lon="12.6377447"><ele>150.0</ele><time>2026-04-26T17:43:13.453Z</time></trkpt><trkpt lat="42.0358864" lon="12.6377382"><ele>150.0</ele><time>2026-04-26T17:43:15.446Z</time></trkpt><trkpt lat="42.0357828" lon="12.6377236"><ele>150.0</ele><time>2026-04-26T17:43:17.445Z</time></trkpt><trkpt lat="42.03568" lon="12.6376971"><ele>149.6</ele><time>2026-04-26T17:43:19.443Z</time></trkpt><trkpt lat="42.0356127" lon="12.63771"><ele>149.2</ele><time>2026-04-26T17:43:20.456Z</time></trkpt><trkpt lat="42.0354963" lon="12.6377315"><ele>148.8</ele><time>2026-04-26T17:43:22.452Z</time></trkpt><trkpt lat="42.0353823" lon="12.6377309"><ele>148.4</ele><time>2026-04-26T17:43:24.456Z</time></trkpt><trkpt lat="42.0352587" lon="12.6377128"><ele>148.0</ele><time>2026-04-26T17:43:26.456Z</time></trkpt><trkpt lat="42.0351321" lon="12.6377113"><ele>148.0</ele><time>2026-04-26T17:43:28.451Z</time></trkpt><trkpt lat="42.0350677" lon="12.6377179"><ele>148.0</ele><time>2026-04-26T17:43:29.447Z</time></trkpt><trkpt lat="42.0350039" lon="12.6377166"><ele>148.0</ele><time>2026-04-26T17:43:30.452Z</time></trkpt><trkpt lat="42.0349383" lon="12.6377209"><ele>148.0</ele><time>2026-04-26T17:43:31.445Z</time></trkpt><trkpt lat="42.0348654" lon="12.6377261"><ele>148.0</ele><time>2026-04-26T17:43:32.454Z</time></trkpt><trkpt lat="42.0348006" lon="12.6377141"><ele>148.0</ele><time>2026-04-26T17:43:33.442Z</time></trkpt><trkpt lat="42.0347292" lon="12.6377127"><ele>148.0</ele><time>2026-04-26T17:43:34.442Z</time></trkpt><trkpt lat="42.0346648" lon="12.637713"><ele>149.33333333333334</ele><time>2026-04-26T17:43:35.436Z</time></trkpt><trkpt lat="42.0345546" lon="12.6377231"><ele>150.66666666666669</ele><time>2026-04-26T17:43:37.443Z</time></trkpt><trkpt lat="42.0344845" lon="12.6377144"><ele>152.0</ele><time>2026-04-26T17:43:39.436Z</time></trkpt><trkpt lat="42.0344095" lon="12.6377385"><ele>153.33333333333334</ele><time>2026-04-26T17:43:41.442Z</time></trkpt><trkpt lat="42.0343469" lon="12.637774"><ele>154.66666666666666</ele><time>2026-04-26T17:43:42.439Z</time></trkpt><trkpt lat="42.0342884" lon="12.6378203"><ele>156.0</ele><time>2026-04-26T17:43:43.443Z</time></trkpt><trkpt lat="42.0342277" lon="12.637883"><ele>156.33333333333334</ele><time>2026-04-26T17:43:44.442Z</time></trkpt><trkpt lat="42.0341641" lon="12.6379352"><ele>156.66666666666666</ele><time>2026-04-26T17:43:45.441Z</time></trkpt><trkpt lat="42.0340978" lon="12.6379763"><ele>157.0</ele><time>2026-04-26T17:43:46.451Z</time></trkpt><trkpt lat="42.034028" lon="12.6380209"><ele>157.33333333333331</ele><time>2026-04-26T17:43:47.451Z</time></trkpt><trkpt lat="42.0339629" lon="12.6380567"><ele>157.66666666666666</ele><time>2026-04-26T17:43:48.453Z</time></trkpt><trkpt lat="42.0338941" lon="12.6381066"><ele>158.0</ele><time>2026-04-26T17:43:49.605Z</time></trkpt><trkpt lat="42.0337338" lon="12.6381793"><ele>154.6</ele><time>2026-04-26T17:43:51.451Z</time></trkpt><trkpt lat="42.0336494" lon="12.6382114"><ele>151.20000000000002</ele><time>2026-04-26T17:43:52.53Z</time></trkpt><trkpt lat="42.0335581" lon="12.6382623"><ele>147.8</ele><time>2026-04-26T17:43:53.444Z</time></trkpt><trkpt lat="42.0334683" lon="12.6383133"><ele>144.4</ele><time>2026-04-26T17:43:54.454Z</time></trkpt><trkpt lat="42.0333741" lon="12.6383789"><ele>141.0</ele><time>2026-04-26T17:43:55.446Z</time></trkpt><trkpt lat="42.0332746" lon="12.6384559"><ele>133.66666666666666</ele><time>2026-04-26T17:43:56.766Z</time></trkpt><trkpt lat="42.0330853" lon="12.6386701"><ele>126.33333333333333</ele><time>2026-04-26T17:43:58.449Z</time></trkpt><trkpt lat="42.0329975" lon="12.6388016"><ele>119.0</ele><time>2026-04-26T17:43:59.606Z</time></trkpt><trkpt lat="42.0329343" lon="12.6389531"><ele>119.0</ele><time>2026-04-26T17:44:00.608Z</time></trkpt><trkpt lat="42.0328684" lon="12.6391079"><ele>119.0</ele><time>2026-04-26T17:44:01.595Z</time></trkpt><trkpt lat="42.0328062" lon="12.6394134"><ele>119.0</ele><time>2026-04-26T17:44:03.674Z</time></trkpt><trkpt lat="42.0327621" lon="12.6397774"><ele>122.0</ele><time>2026-04-26T17:44:05.466Z</time></trkpt><trkpt lat="42.0327222" lon="12.6399732"><ele>125.0</ele><time>2026-04-26T17:44:06.446Z</time></trkpt><trkpt lat="42.0326687" lon="12.6401802"><ele>128.0</ele><time>2026-04-26T17:44:07.443Z</time></trkpt><trkpt lat="42.0326241" lon="12.6403608"><ele>126.66666666666666</ele><time>2026-04-26T17:44:08.458Z</time></trkpt><trkpt lat="42.0325776" lon="12.6405794"><ele>125.33333333333334</ele><time>2026-04-26T17:44:09.47Z</time></trkpt><trkpt lat="42.03253" lon="12.6407784"><ele>124.0</ele><time>2026-04-26T17:44:10.449Z</time></trkpt><trkpt lat="42.0324717" lon="12.6409874"><ele>126.25</ele><time>2026-04-26T17:44:11.449Z</time></trkpt><trkpt lat="42.0324037" lon="12.6411703"><ele>128.5</ele><time>2026-04-26T17:44:12.441Z</time></trkpt><trkpt lat="42.0323227" lon="12.6413179"><ele>130.75</ele><time>2026-04-26T17:44:13.469Z</time></trkpt><trkpt lat="42.0322404" lon="12.6414993"><ele>133.0</ele><time>2026-04-26T17:44:14.448Z</time></trkpt><trkpt lat="42.0322028" lon="12.6416406"><ele>133.0</ele><time>2026-04-26T17:44:15.446Z</time></trkpt><trkpt lat="42.0321588" lon="12.641833"><ele>133.0</ele><time>2026-04-26T17:44:16.448Z</time></trkpt><trkpt lat="42.0321365" lon="12.6420122"><ele>133.0</ele><time>2026-04-26T17:44:17.446Z</time></trkpt><trkpt lat="42.0321194" lon="12.6421803"><ele>133.0</ele><time>2026-04-26T17:44:18.445Z</time></trkpt><trkpt lat="42.0321852" lon="12.642336"><ele>135.20000000000002</ele><time>2026-04-26T17:44:19.449Z</time></trkpt><trkpt lat="42.0321791" lon="12.6424448"><ele>137.4</ele><time>2026-04-26T17:44:20.448Z</time></trkpt><trkpt lat="42.0321862" lon="12.6425858"><ele>139.60000000000002</ele><time>2026-04-26T17:44:21.442Z</time></trkpt><trkpt lat="42.0321573" lon="12.6427245"><ele>141.8</ele><time>2026-04-26T17:44:22.447Z</time></trkpt><trkpt lat="42.0321242" lon="12.6428444"><ele>144.0</ele><time>2026-04-26T17:44:23.443Z</time></trkpt><trkpt lat="42.0320547" lon="12.6429682"><ele>148.66666666666666</ele><time>2026-04-26T17:44:24.446Z</time></trkpt><trkpt lat="42.0319492" lon="12.6431241"><ele>153.33333333333331</ele><time>2026-04-26T17:44:25.45Z</time></trkpt><trkpt lat="42.0317951" lon="12.6433364"><ele>158.0</ele><time>2026-04-26T17:44:26.464Z</time></trkpt><trkpt lat="42.0316269" lon="12.6435939"><ele>160.5</ele><time>2026-04-26T17:44:27.437Z</time></trkpt><trkpt lat="42.0314716" lon="12.6438576"><ele>163.0</ele><time>2026-04-26T17:44:28.452Z</time></trkpt><trkpt lat="42.0313237" lon="12.6441044"><ele>163.0</ele><time>2026-04-26T17:44:29.452Z</time></trkpt><trkpt lat="42.031172" lon="12.6443135"><ele>163.0</ele><time>2026-04-26T17:44:30.45Z</time></trkpt><trkpt lat="42.0310431" lon="12.6445074"><ele>163.0</ele><time>2026-04-26T17:44:31.459Z</time></trkpt><trkpt lat="42.030904" lon="12.6446708"><ele>168.33333333333334</ele><time>2026-04-26T17:44:32.451Z</time></trkpt><trkpt lat="42.0307605" lon="12.6448662"><ele>173.66666666666666</ele><time>2026-04-26T17:44:33.446Z</time></trkpt><trkpt lat="42.0305697" lon="12.6449994"><ele>179.0</ele><time>2026-04-26T17:44:34.437Z</time></trkpt><trkpt lat="42.0303918" lon="12.6451712"><ele>180.66666666666666</ele><time>2026-04-26T17:44:35.456Z</time></trkpt><trkpt lat="42.0302176" lon="12.6452999"><ele>182.33333333333334</ele><time>2026-04-26T17:44:36.458Z</time></trkpt><trkpt lat="42.0300524" lon="12.6454212"><ele>184.0</ele><time>2026-04-26T17:44:37.455Z</time></trkpt><trkpt lat="42.0299063" lon="12.645517"><ele>185.0</ele><time>2026-04-26T17:44:38.467Z</time></trkpt><trkpt lat="42.0297726" lon="12.6456282"><ele>186.0</ele><time>2026-04-26T17:44:39.462Z</time></trkpt><trkpt lat="42.0296447" lon="12.6457375"><ele>187.0</ele><time>2026-04-26T17:44:40.453Z</time></trkpt><trkpt lat="42.029517" lon="12.6458449"><ele>187.0</ele><time>2026-04-26T17:44:41.455Z</time></trkpt><trkpt lat="42.0293942" lon="12.645952"><ele>187.0</ele><time>2026-04-26T17:44:42.457Z</time></trkpt><trkpt lat="42.0292814" lon="12.6460289"><ele>187.0</ele><time>2026-04-26T17:44:43.457Z</time></trkpt><trkpt lat="42.0291718" lon="12.6461026"><ele>187.0</ele><time>2026-04-26T17:44:44.461Z</time></trkpt><trkpt lat="42.0290812" lon="12.6461922"><ele>189.25</ele><time>2026-04-26T17:44:45.459Z</time></trkpt><trkpt lat="42.0289742" lon="12.6462805"><ele>191.5</ele><time>2026-04-26T17:44:46.458Z</time></trkpt><trkpt lat="42.0288695" lon="12.6463438"><ele>193.75</ele><time>2026-04-26T17:44:47.464Z</time></trkpt><trkpt lat="42.0287689" lon="12.6464132"><ele>196.0</ele><time>2026-04-26T17:44:48.471Z</time></trkpt><trkpt lat="42.0286634" lon="12.6465072"><ele>196.0</ele><time>2026-04-26T17:44:49.459Z</time></trkpt><trkpt lat="42.0285617" lon="12.6465808"><ele>196.0</ele><time>2026-04-26T17:44:50.514Z</time></trkpt><trkpt lat="42.0284636" lon="12.6466515"><ele>196.0</ele><time>2026-04-26T17:44:51.465Z</time></trkpt><trkpt lat="42.0283628" lon="12.6467222"><ele>196.0</ele><time>2026-04-26T17:44:52.466Z</time></trkpt><trkpt lat="42.0282609" lon="12.6467993"><ele>195.60000000000002</ele><time>2026-04-26T17:44:53.472Z</time></trkpt><trkpt lat="42.0281559" lon="12.6468928"><ele>195.2</ele><time>2026-04-26T17:44:54.459Z</time></trkpt><trkpt lat="42.0280636" lon="12.6469814"><ele>194.8</ele><time>2026-04-26T17:44:55.461Z</time></trkpt><trkpt lat="42.0279815" lon="12.6470594"><ele>194.39999999999998</ele><time>2026-04-26T17:44:56.466Z</time></trkpt><trkpt lat="42.0279117" lon="12.6471403"><ele>194.0</ele><time>2026-04-26T17:44:57.466Z</time></trkpt><trkpt lat="42.0278503" lon="12.6472208"><ele>194.0</ele><time>2026-04-26T17:44:58.464Z</time></trkpt><trkpt lat="42.027787" lon="12.6473056"><ele>194.0</ele><time>2026-04-26T17:44:59.469Z</time></trkpt><trkpt lat="42.0277307" lon="12.6473875"><ele>194.0</ele><time>2026-04-26T17:45:00.47Z</time></trkpt><trkpt lat="42.0276912" lon="12.6474632"><ele>194.0</ele><time>2026-04-26T17:45:01.442Z</time></trkpt><trkpt lat="42.02761" lon="12.6475743"><ele>194.0</ele><time>2026-04-26T17:45:03.447Z</time></trkpt><trkpt lat="42.0275343" lon="12.6476957"><ele>193.79999999999998</ele><time>2026-04-26T17:45:05.446Z</time></trkpt><trkpt lat="42.0274532" lon="12.6478097"><ele>193.6</ele><time>2026-04-26T17:45:07.446Z</time></trkpt><trkpt lat="42.0273821" lon="12.647914"><ele>193.4</ele><time>2026-04-26T17:45:09.448Z</time></trkpt><trkpt lat="42.0273209" lon="12.6480018"><ele>193.2</ele><time>2026-04-26T17:45:11.451Z</time></trkpt><trkpt lat="42.0272735" lon="12.6480798"><ele>193.0</ele><time>2026-04-26T17:45:13.448Z</time></trkpt><trkpt lat="42.0272156" lon="12.6481448"><ele>192.99999999999997</ele><time>2026-04-26T17:45:17.455Z</time></trkpt><trkpt lat="42.0271218" lon="12.6482736"><ele>193.0</ele><time>2026-04-26T17:45:20.449Z</time></trkpt><trkpt lat="42.0270782" lon="12.6483353"><ele>193.0</ele><time>2026-04-26T17:45:21.468Z</time></trkpt><trkpt lat="42.0270251" lon="12.6483963"><ele>193.0</ele><time>2026-04-26T17:45:22.47Z</time></trkpt><trkpt lat="42.026984" lon="12.6484717"><ele>192.99999999999997</ele><time>2026-04-26T17:45:23.443Z</time></trkpt><trkpt lat="42.0269072" lon="12.6485751"><ele>193.0</ele><time>2026-04-26T17:45:26.449Z</time></trkpt><trkpt lat="42.0268614" lon="12.6486458"><ele>193.0</ele><time>2026-04-26T17:45:28.433Z</time></trkpt><trkpt lat="42.0267557" lon="12.6487212"><ele>193.0</ele><time>2026-04-26T17:45:30.441Z</time></trkpt><trkpt lat="42.0266866" lon="12.6487627"><ele>193.0</ele><time>2026-04-26T17:45:31.442Z</time></trkpt><trkpt lat="42.0266059" lon="12.6487964"><ele>193.0</ele><time>2026-04-26T17:45:32.445Z</time></trkpt><trkpt lat="42.0265152" lon="12.6488207"><ele>193.0</ele><time>2026-04-26T17:45:33.441Z</time></trkpt><trkpt lat="42.0263827" lon="12.64886"><ele>193.0</ele><time>2026-04-26T17:45:34.439Z</time></trkpt><trkpt lat="42.0262677" lon="12.6488782"><ele>193.0</ele><time>2026-04-26T17:45:35.443Z</time></trkpt><trkpt lat="42.0261555" lon="12.6488959"><ele>193.0</ele><time>2026-04-26T17:45:36.469Z</time></trkpt><trkpt lat="42.0260456" lon="12.6488971"><ele>193.0</ele><time>2026-04-26T17:45:37.465Z</time></trkpt><trkpt lat="42.0259296" lon="12.6488843"><ele>193.0</ele><time>2026-04-26T17:45:38.462Z</time></trkpt><trkpt lat="42.0258291" lon="12.6488622"><ele>193.0</ele><time>2026-04-26T17:45:39.437Z</time></trkpt><trkpt lat="42.0257282" lon="12.6488456"><ele>193.0</ele><time>2026-04-26T17:45:40.461Z</time></trkpt><trkpt lat="42.0256337" lon="12.6488318"><ele>193.0</ele><time>2026-04-26T17:45:41.431Z</time></trkpt><trkpt lat="42.0255602" lon="12.6487969"><ele>193.0</ele><time>2026-04-26T17:45:42.435Z</time></trkpt><trkpt lat="42.0254851" lon="12.6487529"><ele>193.33333333333331</ele><time>2026-04-26T17:45:43.44Z</time></trkpt><trkpt lat="42.0254122" lon="12.6487324"><ele>193.66666666666666</ele><time>2026-04-26T17:45:44.444Z</time></trkpt><trkpt lat="42.025339" lon="12.6487356"><ele>194.0</ele><time>2026-04-26T17:45:45.439Z</time></trkpt><trkpt lat="42.0252745" lon="12.6487513"><ele>194.33333333333331</ele><time>2026-04-26T17:45:46.45Z</time></trkpt><trkpt lat="42.0251647" lon="12.6488026"><ele>194.66666666666666</ele><time>2026-04-26T17:45:48.442Z</time></trkpt><trkpt lat="42.0251001" lon="12.6488317"><ele>195.0</ele><time>2026-04-26T17:45:49.456Z</time></trkpt><trkpt lat="42.0250333" lon="12.6488609"><ele>195.33333333333334</ele><time>2026-04-26T17:45:50.448Z</time></trkpt><trkpt lat="42.0249637" lon="12.6488976"><ele>195.66666666666669</ele><time>2026-04-26T17:45:51.443Z</time></trkpt><trkpt lat="42.0249007" lon="12.6489278"><ele>196.0</ele><time>2026-04-26T17:45:52.451Z</time></trkpt><trkpt lat="42.0247946" lon="12.6489629"><ele>196.33333333333334</ele><time>2026-04-26T17:45:54.537Z</time></trkpt><trkpt lat="42.0247079" lon="12.6490078"><ele>196.66666666666669</ele><time>2026-04-26T17:45:56.469Z</time></trkpt><trkpt lat="42.0246335" lon="12.649059"><ele>197.0</ele><time>2026-04-26T17:45:58.452Z</time></trkpt><trkpt lat="42.0245176" lon="12.6491078"><ele>197.00000000000003</ele><time>2026-04-26T17:46:00.446Z</time></trkpt><trkpt lat="42.0244448" lon="12.6491282"><ele>197.0</ele><time>2026-04-26T17:46:01.447Z</time></trkpt><trkpt lat="42.0243749" lon="12.6491498"><ele>197.0</ele><time>2026-04-26T17:46:02.445Z</time></trkpt><trkpt lat="42.0242973" lon="12.6491576"><ele>197.0</ele><time>2026-04-26T17:46:03.441Z</time></trkpt><trkpt lat="42.0242132" lon="12.6491581"><ele>197.00000000000003</ele><time>2026-04-26T17:46:04.446Z</time></trkpt><trkpt lat="42.0241282" lon="12.6491545"><ele>197.0</ele><time>2026-04-26T17:46:05.442Z</time></trkpt><trkpt lat="42.0240474" lon="12.649143"><ele>198.0</ele><time>2026-04-26T17:46:06.442Z</time></trkpt><trkpt lat="42.0239632" lon="12.6491151"><ele>199.0</ele><time>2026-04-26T17:46:07.438Z</time></trkpt><trkpt lat="42.0238748" lon="12.649048"><ele>200.0</ele><time>2026-04-26T17:46:08.44Z</time></trkpt><trkpt lat="42.0237668" lon="12.6489324"><ele>201.0</ele><time>2026-04-26T17:46:09.438Z</time></trkpt><trkpt lat="42.0236408" lon="12.648809"><ele>201.0</ele><time>2026-04-26T17:46:10.436Z</time></trkpt><trkpt lat="42.0235298" lon="12.6486649"><ele>201.0</ele><time>2026-04-26T17:46:11.446Z</time></trkpt><trkpt lat="42.0234195" lon="12.6485518"><ele>201.0</ele><time>2026-04-26T17:46:12.437Z</time></trkpt><trkpt lat="42.0233222" lon="12.6484497"><ele>201.0</ele><time>2026-04-26T17:46:13.46Z</time></trkpt><trkpt lat="42.0232419" lon="12.6483705"><ele>200.66666666666666</ele><time>2026-04-26T17:46:14.441Z</time></trkpt><trkpt lat="42.0231683" lon="12.6482846"><ele>200.33333333333331</ele><time>2026-04-26T17:46:15.445Z</time></trkpt><trkpt lat="42.0231256" lon="12.6482094"><ele>200.0</ele><time>2026-04-26T17:46:16.442Z</time></trkpt><trkpt lat="42.0230711" lon="12.6481339"><ele>199.66666666666666</ele><time>2026-04-26T17:46:17.438Z</time></trkpt><trkpt lat="42.0229971" lon="12.6480908"><ele>199.33333333333331</ele><time>2026-04-26T17:46:18.443Z</time></trkpt><trkpt lat="42.0229248" lon="12.6480402"><ele>199.0</ele><time>2026-04-26T17:46:19.445Z</time></trkpt><trkpt lat="42.0228516" lon="12.64798"><ele>198.99999999999997</ele><time>2026-04-26T17:46:20.441Z</time></trkpt><trkpt lat="42.0227877" lon="12.6479265"><ele>199.0</ele><time>2026-04-26T17:46:21.45Z</time></trkpt><trkpt lat="42.0227262" lon="12.6478763"><ele>199.0</ele><time>2026-04-26T17:46:22.444Z</time></trkpt><trkpt lat="42.0226648" lon="12.6478307"><ele>199.0</ele><time>2026-04-26T17:46:23.44Z</time></trkpt><trkpt lat="42.022609" lon="12.6477837"><ele>199.0</ele><time>2026-04-26T17:46:24.449Z</time></trkpt><trkpt lat="42.0225549" lon="12.6477388"><ele>198.99999999999997</ele><time>2026-04-26T17:46:25.442Z</time></trkpt><trkpt lat="42.0224798" lon="12.64768"><ele>199.0</ele><time>2026-04-26T17:46:26.435Z</time></trkpt><trkpt lat="42.0223914" lon="12.6476042"><ele>197.0</ele><time>2026-04-26T17:46:27.442Z</time></trkpt><trkpt lat="42.0223085" lon="12.6474963"><ele>195.0</ele><time>2026-04-26T17:46:28.443Z</time></trkpt><trkpt lat="42.0222293" lon="12.6473752"><ele>193.0</ele><time>2026-04-26T17:46:29.446Z</time></trkpt><trkpt lat="42.0221499" lon="12.6472705"><ele>191.0</ele><time>2026-04-26T17:46:30.445Z</time></trkpt><trkpt lat="42.0220796" lon="12.6471729"><ele>189.0</ele><time>2026-04-26T17:46:31.445Z</time></trkpt><trkpt lat="42.0220322" lon="12.6470793"><ele>189.0</ele><time>2026-04-26T17:46:32.446Z</time></trkpt><trkpt lat="42.0219891" lon="12.6469789"><ele>189.0</ele><time>2026-04-26T17:46:33.443Z</time></trkpt><trkpt lat="42.0219388" lon="12.6468724"><ele>189.0</ele><time>2026-04-26T17:46:34.436Z</time></trkpt><trkpt lat="42.0218952" lon="12.6467664"><ele>189.0</ele><time>2026-04-26T17:46:35.447Z</time></trkpt><trkpt lat="42.0218622" lon="12.646663"><ele>189.0</ele><time>2026-04-26T17:46:36.445Z</time></trkpt><trkpt lat="42.0218329" lon="12.6465747"><ele>189.0</ele><time>2026-04-26T17:46:37.443Z</time></trkpt><trkpt lat="42.0218062" lon="12.6464857"><ele>189.0</ele><time>2026-04-26T17:46:38.443Z</time></trkpt><trkpt lat="42.0217739" lon="12.6463851"><ele>189.0</ele><time>2026-04-26T17:46:39.442Z</time></trkpt><trkpt lat="42.0217224" lon="12.6462385"><ele>189.0</ele><time>2026-04-26T17:46:40.444Z</time></trkpt><trkpt lat="42.0216647" lon="12.646043"><ele>189.0</ele><time>2026-04-26T17:46:41.446Z</time></trkpt><trkpt lat="42.0215821" lon="12.6457296"><ele>190.0</ele><time>2026-04-26T17:46:42.447Z</time></trkpt><trkpt lat="42.0215118" lon="12.6454513"><ele>191.0</ele><time>2026-04-26T17:46:43.432Z</time></trkpt><trkpt lat="42.021433" lon="12.6452103"><ele>192.0</ele><time>2026-04-26T17:46:44.44Z</time></trkpt><trkpt lat="42.0213671" lon="12.644983"><ele>190.0</ele><time>2026-04-26T17:46:45.441Z</time></trkpt><trkpt lat="42.021277" lon="12.6447655"><ele>188.0</ele><time>2026-04-26T17:46:46.446Z</time></trkpt><trkpt lat="42.0211891" lon="12.6445502"><ele>186.0</ele><time>2026-04-26T17:46:47.449Z</time></trkpt><trkpt lat="42.0211137" lon="12.6443179"><ele>184.33333333333334</ele><time>2026-04-26T17:46:48.441Z</time></trkpt><trkpt lat="42.0210348" lon="12.6441044"><ele>182.66666666666669</ele><time>2026-04-26T17:46:49.437Z</time></trkpt><trkpt lat="42.0209606" lon="12.6439191"><ele>181.0</ele><time>2026-04-26T17:46:50.444Z</time></trkpt><trkpt lat="42.0209052" lon="12.6437497"><ele>180.5</ele><time>2026-04-26T17:46:51.439Z</time></trkpt><trkpt lat="42.020835" lon="12.6436048"><ele>180.0</ele><time>2026-04-26T17:46:52.443Z</time></trkpt><trkpt lat="42.0207495" lon="12.6434411"><ele>179.5</ele><time>2026-04-26T17:46:53.446Z</time></trkpt><trkpt lat="42.0206326" lon="12.6433062"><ele>179.0</ele><time>2026-04-26T17:46:54.457Z</time></trkpt><trkpt lat="42.0205009" lon="12.6431419"><ele>177.33333333333331</ele><time>2026-04-26T17:46:55.466Z</time></trkpt><trkpt lat="42.0203686" lon="12.6429887"><ele>175.66666666666666</ele><time>2026-04-26T17:46:56.442Z</time></trkpt><trkpt lat="42.020194" lon="12.6428602"><ele>174.0</ele><time>2026-04-26T17:46:57.461Z</time></trkpt><trkpt lat="42.0199767" lon="12.6427118"><ele>169.33333333333334</ele><time>2026-04-26T17:46:58.438Z</time></trkpt><trkpt lat="42.0197805" lon="12.6425236"><ele>164.66666666666669</ele><time>2026-04-26T17:46:59.432Z</time></trkpt><trkpt lat="42.0196001" lon="12.6423827"><ele>160.0</ele><time>2026-04-26T17:47:00.435Z</time></trkpt><trkpt lat="42.0194173" lon="12.6422491"><ele>160.0</ele><time>2026-04-26T17:47:01.435Z</time></trkpt><trkpt lat="42.019282" lon="12.6420812"><ele>160.0</ele><time>2026-04-26T17:47:02.434Z</time></trkpt><trkpt lat="42.0191315" lon="12.6419316"><ele>160.0</ele><time>2026-04-26T17:47:03.434Z</time></trkpt><trkpt lat="42.0189813" lon="12.6417689"><ele>159.66666666666669</ele><time>2026-04-26T17:47:04.435Z</time></trkpt><trkpt lat="42.0188142" lon="12.641585"><ele>159.33333333333334</ele><time>2026-04-26T17:47:05.442Z</time></trkpt><trkpt lat="42.0186888" lon="12.6413842"><ele>159.0</ele><time>2026-04-26T17:47:06.436Z</time></trkpt><trkpt lat="42.0185434" lon="12.6411894"><ele>160.66666666666666</ele><time>2026-04-26T17:47:07.444Z</time></trkpt><trkpt lat="42.0184277" lon="12.641005"><ele>162.33333333333331</ele><time>2026-04-26T17:47:08.436Z</time></trkpt><trkpt lat="42.0182774" lon="12.6408051"><ele>164.0</ele><time>2026-04-26T17:47:09.443Z</time></trkpt><trkpt lat="42.018115" lon="12.6406157"><ele>170.33333333333331</ele><time>2026-04-26T17:47:10.439Z</time></trkpt><trkpt lat="42.0180162" lon="12.6404061"><ele>176.66666666666666</ele><time>2026-04-26T17:47:11.442Z</time></trkpt><trkpt lat="42.0179117" lon="12.640228"><ele>183.0</ele><time>2026-04-26T17:47:12.446Z</time></trkpt><trkpt lat="42.0178172" lon="12.6400868"><ele>183.33333333333334</ele><time>2026-04-26T17:47:13.446Z</time></trkpt><trkpt lat="42.0176816" lon="12.6399532"><ele>183.66666666666669</ele><time>2026-04-26T17:47:14.443Z</time></trkpt><trkpt lat="42.0175812" lon="12.6398326"><ele>184.0</ele><time>2026-04-26T17:47:15.437Z</time></trkpt><trkpt lat="42.0174521" lon="12.6396882"><ele>186.25</ele><time>2026-04-26T17:47:16.429Z</time></trkpt><trkpt lat="42.0173348" lon="12.639632"><ele>188.5</ele><time>2026-04-26T17:47:17.433Z</time></trkpt><trkpt lat="42.0172353" lon="12.6395939"><ele>190.75</ele><time>2026-04-26T17:47:18.421Z</time></trkpt><trkpt lat="42.0171303" lon="12.6395729"><ele>193.0</ele><time>2026-04-26T17:47:19.43Z</time></trkpt><trkpt lat="42.0170052" lon="12.6395575"><ele>193.0</ele><time>2026-04-26T17:47:20.446Z</time></trkpt><trkpt lat="42.016901" lon="12.6395162"><ele>193.0</ele><time>2026-04-26T17:47:21.431Z</time></trkpt><trkpt lat="42.016784" lon="12.6394949"><ele>193.0</ele><time>2026-04-26T17:47:22.425Z</time></trkpt><trkpt lat="42.0166647" lon="12.6394564"><ele>193.0</ele><time>2026-04-26T17:47:23.433Z</time></trkpt><trkpt lat="42.0165501" lon="12.6394257"><ele>191.75</ele><time>2026-04-26T17:47:24.43Z</time></trkpt><trkpt lat="42.0164263" lon="12.6394243"><ele>190.5</ele><time>2026-04-26T17:47:25.434Z</time></trkpt><trkpt lat="42.01631" lon="12.6394331"><ele>189.25</ele><time>2026-04-26T17:47:26.424Z</time></trkpt><trkpt lat="42.0162003" lon="12.6394768"><ele>188.0</ele><time>2026-04-26T17:47:27.431Z</time></trkpt><trkpt lat="42.0160812" lon="12.6395241"><ele>188.0</ele><time>2026-04-26T17:47:28.424Z</time></trkpt><trkpt lat="42.0159382" lon="12.6395751"><ele>188.0</ele><time>2026-04-26T17:47:29.448Z</time></trkpt><trkpt lat="42.0157478" lon="12.6396473"><ele>188.0</ele><time>2026-04-26T17:47:30.431Z</time></trkpt><trkpt lat="42.0155802" lon="12.6397134"><ele>186.75</ele><time>2026-04-26T17:47:31.43Z</time></trkpt><trkpt lat="42.0154311" lon="12.6397751"><ele>185.5</ele><time>2026-04-26T17:47:32.424Z</time></trkpt><trkpt lat="42.0152693" lon="12.6398143"><ele>184.25</ele><time>2026-04-26T17:47:33.43Z</time></trkpt><trkpt lat="42.0151459" lon="12.6398418"><ele>183.0</ele><time>2026-04-26T17:47:34.474Z</time></trkpt><trkpt lat="42.0150498" lon="12.6398688"><ele>183.83333333333334</ele><time>2026-04-26T17:47:35.442Z</time></trkpt><trkpt lat="42.014944" lon="12.6398681"><ele>184.66666666666666</ele><time>2026-04-26T17:47:36.442Z</time></trkpt><trkpt lat="42.0148833" lon="12.6398243"><ele>185.5</ele><time>2026-04-26T17:47:37.443Z</time></trkpt><trkpt lat="42.0148241" lon="12.6397507"><ele>186.33333333333331</ele><time>2026-04-26T17:47:38.442Z</time></trkpt><trkpt lat="42.0147476" lon="12.6396785"><ele>187.16666666666666</ele><time>2026-04-26T17:47:39.435Z</time></trkpt><trkpt lat="42.014664" lon="12.6396048"><ele>188.0</ele><time>2026-04-26T17:47:40.441Z</time></trkpt><trkpt lat="42.0145871" lon="12.6395239"><ele>187.4</ele><time>2026-04-26T17:47:41.444Z</time></trkpt><trkpt lat="42.0145158" lon="12.6394441"><ele>186.8</ele><time>2026-04-26T17:47:42.44Z</time></trkpt><trkpt lat="42.0144475" lon="12.6393605"><ele>186.2</ele><time>2026-04-26T17:47:43.443Z</time></trkpt><trkpt lat="42.0143737" lon="12.6392772"><ele>185.6</ele><time>2026-04-26T17:47:44.445Z</time></trkpt><trkpt lat="42.0143097" lon="12.639201"><ele>185.0</ele><time>2026-04-26T17:47:45.44Z</time></trkpt><trkpt lat="42.0142392" lon="12.6391076"><ele>185.0</ele><time>2026-04-26T17:47:46.432Z</time></trkpt><trkpt lat="42.0141577" lon="12.6389955"><ele>185.0</ele><time>2026-04-26T17:47:47.438Z</time></trkpt><trkpt lat="42.014069" lon="12.638877"><ele>185.0</ele><time>2026-04-26T17:47:48.441Z</time></trkpt><trkpt lat="42.0139919" lon="12.6387578"><ele>185.0</ele><time>2026-04-26T17:47:49.444Z</time></trkpt><trkpt lat="42.0138994" lon="12.6386646"><ele>183.0</ele><time>2026-04-26T17:47:50.437Z</time></trkpt><trkpt lat="42.0137869" lon="12.6385549"><ele>181.0</ele><time>2026-04-26T17:47:51.433Z</time></trkpt><trkpt lat="42.0136374" lon="12.6384238"><ele>179.0</ele><time>2026-04-26T17:47:52.437Z</time></trkpt><trkpt lat="42.0134618" lon="12.6383061"><ele>177.33333333333331</ele><time>2026-04-26T17:47:53.433Z</time></trkpt><trkpt lat="42.0133068" lon="12.638201"><ele>175.66666666666666</ele><time>2026-04-26T17:47:54.441Z</time></trkpt><trkpt lat="42.0131505" lon="12.6381248"><ele>174.0</ele><time>2026-04-26T17:47:55.443Z</time></trkpt><trkpt lat="42.0130022" lon="12.6380809"><ele>174.0</ele><time>2026-04-26T17:47:56.435Z</time></trkpt><trkpt lat="42.0128714" lon="12.6380524"><ele>174.0</ele><time>2026-04-26T17:47:57.437Z</time></trkpt><trkpt lat="42.0127284" lon="12.6380265"><ele>174.0</ele><time>2026-04-26T17:47:58.436Z</time></trkpt><trkpt lat="42.0125996" lon="12.6379855"><ele>174.0</ele><time>2026-04-26T17:47:59.435Z</time></trkpt><trkpt lat="42.0124681" lon="12.6379858"><ele>172.0</ele><time>2026-04-26T17:48:00.438Z</time></trkpt><trkpt lat="42.0123536" lon="12.6380003"><ele>170.0</ele><time>2026-04-26T17:48:01.437Z</time></trkpt><trkpt lat="42.0122476" lon="12.6380216"><ele>168.0</ele><time>2026-04-26T17:48:02.446Z</time></trkpt><trkpt lat="42.012152" lon="12.63804"><ele>166.0</ele><time>2026-04-26T17:48:03.442Z</time></trkpt><trkpt lat="42.0120492" lon="12.638074"><ele>164.0</ele><time>2026-04-26T17:48:04.442Z</time></trkpt><trkpt lat="42.011944" lon="12.6381051"><ele>164.0</ele><time>2026-04-26T17:48:05.443Z</time></trkpt><trkpt lat="42.0118503" lon="12.6381386"><ele>164.0</ele><time>2026-04-26T17:48:06.442Z</time></trkpt><trkpt lat="42.0117619" lon="12.6381751"><ele>164.0</ele><time>2026-04-26T17:48:07.435Z</time></trkpt><trkpt lat="42.0116712" lon="12.6382137"><ele>164.0</ele><time>2026-04-26T17:48:08.444Z</time></trkpt><trkpt lat="42.0115855" lon="12.6382687"><ele>164.0</ele><time>2026-04-26T17:48:09.433Z</time></trkpt><trkpt lat="42.0114955" lon="12.6383095"><ele>162.2</ele><time>2026-04-26T17:48:10.439Z</time></trkpt><trkpt lat="42.0114087" lon="12.6383417"><ele>160.39999999999998</ele><time>2026-04-26T17:48:11.441Z</time></trkpt><trkpt lat="42.0113155" lon="12.638371"><ele>158.6</ele><time>2026-04-26T17:48:12.446Z</time></trkpt><trkpt lat="42.0112242" lon="12.6383915"><ele>156.8</ele><time>2026-04-26T17:48:13.432Z</time></trkpt><trkpt lat="42.0111314" lon="12.6384027"><ele>155.0</ele><time>2026-04-26T17:48:14.443Z</time></trkpt><trkpt lat="42.0110323" lon="12.6383991"><ele>155.0</ele><time>2026-04-26T17:48:15.454Z</time></trkpt><trkpt lat="42.0109303" lon="12.6383824"><ele>155.0</ele><time>2026-04-26T17:48:16.45Z</time></trkpt><trkpt lat="42.0108333" lon="12.6383482"><ele>155.0</ele><time>2026-04-26T17:48:17.456Z</time></trkpt><trkpt lat="42.0107347" lon="12.6382972"><ele>155.0</ele><time>2026-04-26T17:48:18.447Z</time></trkpt><trkpt lat="42.0106467" lon="12.6382232"><ele>155.0</ele><time>2026-04-26T17:48:19.448Z</time></trkpt><trkpt lat="42.0105612" lon="12.6381291"><ele>154.6</ele><time>2026-04-26T17:48:20.442Z</time></trkpt><trkpt lat="42.0104858" lon="12.6380089"><ele>154.2</ele><time>2026-04-26T17:48:21.442Z</time></trkpt><trkpt lat="42.0104173" lon="12.6378891"><ele>153.8</ele><time>2026-04-26T17:48:22.447Z</time></trkpt><trkpt lat="42.0103635" lon="12.637764"><ele>153.4</ele><time>2026-04-26T17:48:23.446Z</time></trkpt><trkpt lat="42.0103005" lon="12.6376498"><ele>153.0</ele><time>2026-04-26T17:48:24.451Z</time></trkpt><trkpt lat="42.0102396" lon="12.6375365"><ele>151.25</ele><time>2026-04-26T17:48:25.448Z</time></trkpt><trkpt lat="42.0101716" lon="12.6374172"><ele>149.5</ele><time>2026-04-26T17:48:26.442Z</time></trkpt><trkpt lat="42.0101034" lon="12.6372937"><ele>147.75</ele><time>2026-04-26T17:48:27.452Z</time></trkpt><trkpt lat="42.010034" lon="12.6371634"><ele>146.0</ele><time>2026-04-26T17:48:28.447Z</time></trkpt><trkpt lat="42.0099609" lon="12.6370494"><ele>145.8</ele><time>2026-04-26T17:48:29.44Z</time></trkpt><trkpt lat="42.0098857" lon="12.6369311"><ele>145.6</ele><time>2026-04-26T17:48:30.453Z</time></trkpt><trkpt lat="42.0098148" lon="12.6368231"><ele>145.4</ele><time>2026-04-26T17:48:31.443Z</time></trkpt><trkpt lat="42.0097466" lon="12.6367196"><ele>145.2</ele><time>2026-04-26T17:48:32.444Z</time></trkpt><trkpt lat="42.0096795" lon="12.6366252"><ele>145.0</ele><time>2026-04-26T17:48:33.456Z</time></trkpt><trkpt lat="42.0096115" lon="12.6365303"><ele>145.0</ele><time>2026-04-26T17:48:34.442Z</time></trkpt><trkpt lat="42.0095409" lon="12.6364374"><ele>145.0</ele><time>2026-04-26T17:48:35.455Z</time></trkpt><trkpt lat="42.0094639" lon="12.6363413"><ele>145.0</ele><time>2026-04-26T17:48:36.446Z</time></trkpt><trkpt lat="42.0093879" lon="12.6362504"><ele>145.0</ele><time>2026-04-26T17:48:37.476Z</time></trkpt><trkpt lat="42.009318" lon="12.6361643"><ele>145.0</ele><time>2026-04-26T17:48:38.454Z</time></trkpt><trkpt lat="42.009244" lon="12.6360834"><ele>145.8</ele><time>2026-04-26T17:48:39.446Z</time></trkpt><trkpt lat="42.0091619" lon="12.6359992"><ele>146.6</ele><time>2026-04-26T17:48:40.454Z</time></trkpt><trkpt lat="42.0090722" lon="12.6359166"><ele>147.4</ele><time>2026-04-26T17:48:41.453Z</time></trkpt><trkpt lat="42.0089931" lon="12.6358438"><ele>148.2</ele><time>2026-04-26T17:48:42.468Z</time></trkpt><trkpt lat="42.0088969" lon="12.6357863"><ele>149.0</ele><time>2026-04-26T17:48:43.449Z</time></trkpt><trkpt lat="42.0087943" lon="12.6357419"><ele>149.0</ele><time>2026-04-26T17:48:44.443Z</time></trkpt><trkpt lat="42.0086952" lon="12.6357143"><ele>149.0</ele><time>2026-04-26T17:48:45.445Z</time></trkpt><trkpt lat="42.0086021" lon="12.6356921"><ele>149.0</ele><time>2026-04-26T17:48:46.46Z</time></trkpt><trkpt lat="42.0085198" lon="12.6356583"><ele>149.0</ele><time>2026-04-26T17:48:47.438Z</time></trkpt><trkpt lat="42.0084396" lon="12.6356267"><ele>149.0</ele><time>2026-04-26T17:48:48.452Z</time></trkpt><trkpt lat="42.008347" lon="12.6355949"><ele>148.2</ele><time>2026-04-26T17:48:49.453Z</time></trkpt><trkpt lat="42.008248" lon="12.6355645"><ele>147.4</ele><time>2026-04-26T17:48:50.443Z</time></trkpt><trkpt lat="42.0081767" lon="12.6355285"><ele>146.6</ele><time>2026-04-26T17:48:51.455Z</time></trkpt><trkpt lat="42.0080994" lon="12.6354943"><ele>145.8</ele><time>2026-04-26T17:48:52.447Z</time></trkpt><trkpt lat="42.008011" lon="12.6354529"><ele>145.0</ele><time>2026-04-26T17:48:53.459Z</time></trkpt><trkpt lat="42.0079127" lon="12.6354136"><ele>145.0</ele><time>2026-04-26T17:48:54.455Z</time></trkpt><trkpt lat="42.0078" lon="12.6353593"><ele>145.0</ele><time>2026-04-26T17:48:55.444Z</time></trkpt><trkpt lat="42.0076907" lon="12.6352987"><ele>145.0</ele><time>2026-04-26T17:48:56.45Z</time></trkpt><trkpt lat="42.0075727" lon="12.635252"><ele>145.0</ele><time>2026-04-26T17:48:57.467Z</time></trkpt><trkpt lat="42.0074532" lon="12.6352053"><ele>147.25</ele><time>2026-04-26T17:48:58.446Z</time></trkpt><trkpt lat="42.0073442" lon="12.6351465"><ele>149.5</ele><time>2026-04-26T17:48:59.454Z</time></trkpt><trkpt lat="42.0072433" lon="12.6350875"><ele>151.75</ele><time>2026-04-26T17:49:00.456Z</time></trkpt><trkpt lat="42.0071397" lon="12.6350175"><ele>154.0</ele><time>2026-04-26T17:49:01.445Z</time></trkpt><trkpt lat="42.0070287" lon="12.634942"><ele>154.0</ele><time>2026-04-26T17:49:02.46Z</time></trkpt><trkpt lat="42.0069186" lon="12.6348719"><ele>154.0</ele><time>2026-04-26T17:49:03.454Z</time></trkpt><trkpt lat="42.006815" lon="12.6348123"><ele>154.0</ele><time>2026-04-26T17:49:04.446Z</time></trkpt><trkpt lat="42.00671" lon="12.6347668"><ele>154.0</ele><time>2026-04-26T17:49:05.449Z</time></trkpt><trkpt lat="42.0065974" lon="12.6347346"><ele>154.8</ele><time>2026-04-26T17:49:06.449Z</time></trkpt><trkpt lat="42.0064832" lon="12.6347236"><ele>155.60000000000002</ele><time>2026-04-26T17:49:07.444Z</time></trkpt><trkpt lat="42.0063717" lon="12.6347101"><ele>156.4</ele><time>2026-04-26T17:49:08.45Z</time></trkpt><trkpt lat="42.0062626" lon="12.6346812"><ele>157.20000000000002</ele><time>2026-04-26T17:49:09.452Z</time></trkpt><trkpt lat="42.0061659" lon="12.6346462"><ele>158.0</ele><time>2026-04-26T17:49:10.447Z</time></trkpt><trkpt lat="42.0060725" lon="12.6346103"><ele>158.0</ele><time>2026-04-26T17:49:11.458Z</time></trkpt><trkpt lat="42.0059721" lon="12.6345711"><ele>158.0</ele><time>2026-04-26T17:49:12.46Z</time></trkpt><trkpt lat="42.0058595" lon="12.6345329"><ele>158.0</ele><time>2026-04-26T17:49:13.447Z</time></trkpt><trkpt lat="42.005732" lon="12.6344873"><ele>158.0</ele><time>2026-04-26T17:49:14.445Z</time></trkpt><trkpt lat="42.0056046" lon="12.6344286"><ele>156.0</ele><time>2026-04-26T17:49:15.449Z</time></trkpt><trkpt lat="42.0054882" lon="12.6343681"><ele>154.0</ele><time>2026-04-26T17:49:16.459Z</time></trkpt><trkpt lat="42.0053695" lon="12.6343076"><ele>152.0</ele><time>2026-04-26T17:49:17.449Z</time></trkpt><trkpt lat="42.0052503" lon="12.6342532"><ele>150.0</ele><time>2026-04-26T17:49:18.449Z</time></trkpt><trkpt lat="42.0051349" lon="12.6341915"><ele>150.0</ele><time>2026-04-26T17:49:19.442Z</time></trkpt><trkpt lat="42.0050157" lon="12.6341271"><ele>150.0</ele><time>2026-04-26T17:49:20.45Z</time></trkpt><trkpt lat="42.0048945" lon="12.6340666"><ele>150.0</ele><time>2026-04-26T17:49:21.441Z</time></trkpt><trkpt lat="42.0047768" lon="12.6340074"><ele>150.0</ele><time>2026-04-26T17:49:22.449Z</time></trkpt><trkpt lat="42.0046509" lon="12.633957"><ele>149.0</ele><time>2026-04-26T17:49:23.446Z</time></trkpt><trkpt lat="42.0045275" lon="12.6339073"><ele>148.0</ele><time>2026-04-26T17:49:24.444Z</time></trkpt><trkpt lat="42.004368" lon="12.6338591"><ele>147.0</ele><time>2026-04-26T17:49:25.44Z</time></trkpt><trkpt lat="42.0041804" lon="12.6338018"><ele>148.66666666666666</ele><time>2026-04-26T17:49:26.428Z</time></trkpt><trkpt lat="42.0039706" lon="12.6337908"><ele>150.33333333333331</ele><time>2026-04-26T17:49:27.439Z</time></trkpt><trkpt lat="42.0037703" lon="12.633758"><ele>152.0</ele><time>2026-04-26T17:49:28.434Z</time></trkpt><trkpt lat="42.0035888" lon="12.6337276"><ele>152.0</ele><time>2026-04-26T17:49:29.439Z</time></trkpt><trkpt lat="42.0034577" lon="12.633672"><ele>152.0</ele><time>2026-04-26T17:49:30.447Z</time></trkpt><trkpt lat="42.0033211" lon="12.6335987"><ele>152.0</ele><time>2026-04-26T17:49:31.443Z</time></trkpt><trkpt lat="42.0032213" lon="12.633527"><ele>152.0</ele><time>2026-04-26T17:49:32.44Z</time></trkpt><trkpt lat="42.0031274" lon="12.6334666"><ele>150.25</ele><time>2026-04-26T17:49:33.443Z</time></trkpt><trkpt lat="42.0030119" lon="12.6333915"><ele>148.5</ele><time>2026-04-26T17:49:34.448Z</time></trkpt><trkpt lat="42.0028801" lon="12.6333011"><ele>146.75</ele><time>2026-04-26T17:49:35.446Z</time></trkpt><trkpt lat="42.002764" lon="12.6332313"><ele>145.0</ele><time>2026-04-26T17:49:36.44Z</time></trkpt><trkpt lat="42.0026585" lon="12.6332029"><ele>145.0</ele><time>2026-04-26T17:49:37.448Z</time></trkpt><trkpt lat="42.002548" lon="12.6331736"><ele>145.0</ele><time>2026-04-26T17:49:38.441Z</time></trkpt><trkpt lat="42.0024312" lon="12.633147"><ele>145.0</ele><time>2026-04-26T17:49:39.438Z</time></trkpt><trkpt lat="42.0023245" lon="12.6331153"><ele>145.0</ele><time>2026-04-26T17:49:40.442Z</time></trkpt><trkpt lat="42.0022159" lon="12.6330718"><ele>145.6</ele><time>2026-04-26T17:49:41.448Z</time></trkpt><trkpt lat="42.0021131" lon="12.633038"><ele>146.2</ele><time>2026-04-26T17:49:42.436Z</time></trkpt><trkpt lat="42.0020096" lon="12.6330062"><ele>146.8</ele><time>2026-04-26T17:49:43.441Z</time></trkpt><trkpt lat="42.0019052" lon="12.6329684"><ele>147.4</ele><time>2026-04-26T17:49:44.438Z</time></trkpt><trkpt lat="42.0017989" lon="12.6329148"><ele>148.0</ele><time>2026-04-26T17:49:45.435Z</time></trkpt><trkpt lat="42.0016906" lon="12.6328536"><ele>147.75</ele><time>2026-04-26T17:49:46.438Z</time></trkpt><trkpt lat="42.0015805" lon="12.6327867"><ele>147.5</ele><time>2026-04-26T17:49:47.439Z</time></trkpt><trkpt lat="42.0014769" lon="12.632716"><ele>147.25</ele><time>2026-04-26T17:49:48.436Z</time></trkpt><trkpt lat="42.0013716" lon="12.6326477"><ele>147.0</ele><time>2026-04-26T17:49:49.44Z</time></trkpt><trkpt lat="42.0012797" lon="12.6325733"><ele>147.0</ele><time>2026-04-26T17:49:50.433Z</time></trkpt><trkpt lat="42.0011884" lon="12.6325116"><ele>147.0</ele><time>2026-04-26T17:49:51.44Z</time></trkpt><trkpt lat="42.0011041" lon="12.6324597"><ele>147.0</ele><time>2026-04-26T17:49:52.44Z</time></trkpt><trkpt lat="42.00102" lon="12.6324133"><ele>147.0</ele><time>2026-04-26T17:49:53.439Z</time></trkpt><trkpt lat="42.0009406" lon="12.6323601"><ele>147.0</ele><time>2026-04-26T17:49:54.442Z</time></trkpt><trkpt lat="42.0008821" lon="12.6322994"><ele>147.0</ele><time>2026-04-26T17:49:55.431Z</time></trkpt><trkpt lat="42.0007958" lon="12.6322096"><ele>146.79999999999998</ele><time>2026-04-26T17:49:57.439Z</time></trkpt><trkpt lat="42.0007466" lon="12.6321481"><ele>146.6</ele><time>2026-04-26T17:49:59.434Z</time></trkpt><trkpt lat="42.0006971" lon="12.6320339"><ele>146.39999999999998</ele><time>2026-04-26T17:50:02.432Z</time></trkpt><trkpt lat="42.0006064" lon="12.6319135"><ele>146.2</ele><time>2026-04-26T17:50:04.437Z</time></trkpt><trkpt lat="42.0005388" lon="12.631807"><ele>146.0</ele><time>2026-04-26T17:50:05.431Z</time></trkpt><trkpt lat="42.0004614" lon="12.6316564"><ele>146.0</ele><time>2026-04-26T17:50:06.446Z</time></trkpt><trkpt lat="42.0003532" lon="12.6314527"><ele>146.0</ele><time>2026-04-26T17:50:07.421Z</time></trkpt><trkpt lat="42.0002309" lon="12.6311706"><ele>146.0</ele><time>2026-04-26T17:50:08.434Z</time></trkpt><trkpt lat="42.000103" lon="12.6309136"><ele>148.0</ele><time>2026-04-26T17:50:09.451Z</time></trkpt><trkpt lat="41.9999549" lon="12.630696"><ele>150.0</ele><time>2026-04-26T17:50:10.42Z</time></trkpt><trkpt lat="41.9998221" lon="12.6304784"><ele>152.0</ele><time>2026-04-26T17:50:11.447Z</time></trkpt><trkpt lat="41.9996982" lon="12.6303181"><ele>152.5</ele><time>2026-04-26T17:50:12.448Z</time></trkpt><trkpt lat="41.9996171" lon="12.6301594"><ele>153.0</ele><time>2026-04-26T17:50:13.436Z</time></trkpt><trkpt lat="41.9995288" lon="12.6300259"><ele>153.5</ele><time>2026-04-26T17:50:14.427Z</time></trkpt><trkpt lat="41.9994689" lon="12.6299088"><ele>154.0</ele><time>2026-04-26T17:50:15.434Z</time></trkpt><trkpt lat="41.9994238" lon="12.6297583"><ele>154.0</ele><time>2026-04-26T17:50:16.423Z</time></trkpt><trkpt lat="41.9994261" lon="12.6296251"><ele>154.0</ele><time>2026-04-26T17:50:17.432Z</time></trkpt><trkpt lat="41.9994351" lon="12.629526"><ele>154.0</ele><time>2026-04-26T17:50:18.435Z</time></trkpt><trkpt lat="41.9994404" lon="12.6294272"><ele>154.0</ele><time>2026-04-26T17:50:20.432Z</time></trkpt><trkpt lat="41.999453" lon="12.6293266"><ele>154.0</ele><time>2026-04-26T17:50:27.437Z</time></trkpt><trkpt lat="41.9994845" lon="12.6291932"><ele>154.0</ele><time>2026-04-26T17:50:30.441Z</time></trkpt><trkpt lat="41.9995135" lon="12.629076"><ele>154.0</ele><time>2026-04-26T17:50:32.444Z</time></trkpt><trkpt lat="41.999601" lon="12.6289373"><ele>154.0</ele><time>2026-04-26T17:50:34.444Z</time></trkpt><trkpt lat="41.9996797" lon="12.628855"><ele>154.0</ele><time>2026-04-26T17:50:35.461Z</time></trkpt><trkpt lat="41.9997451" lon="12.6287721"><ele>154.0</ele><time>2026-04-26T17:50:36.436Z</time></trkpt><trkpt lat="41.9997863" lon="12.6286907"><ele>154.0</ele><time>2026-04-26T17:50:37.432Z</time></trkpt><trkpt lat="41.9997937" lon="12.6285903"><ele>153.66666666666669</ele><time>2026-04-26T17:50:38.438Z</time></trkpt><trkpt lat="41.9997829" lon="12.6285009"><ele>153.33333333333334</ele><time>2026-04-26T17:50:39.43Z</time></trkpt><trkpt lat="41.9997175" lon="12.6283853"><ele>153.0</ele><time>2026-04-26T17:50:41.439Z</time></trkpt><trkpt lat="41.9996447" lon="12.6283742"><ele>152.66666666666666</ele><time>2026-04-26T17:50:42.428Z</time></trkpt><trkpt lat="41.9995571" lon="12.6283913"><ele>152.33333333333331</ele><time>2026-04-26T17:50:43.431Z</time></trkpt><trkpt lat="41.9994794" lon="12.6284168"><ele>152.0</ele><time>2026-04-26T17:50:44.431Z</time></trkpt><trkpt lat="41.9994161" lon="12.628442"><ele>152.0</ele><time>2026-04-26T17:50:45.425Z</time></trkpt><trkpt lat="41.9993159" lon="12.6284847"><ele>152.0</ele><time>2026-04-26T17:50:46.451Z</time></trkpt><trkpt lat="41.9991773" lon="12.6285058"><ele>152.0</ele><time>2026-04-26T17:50:47.434Z</time></trkpt><trkpt lat="41.9990278" lon="12.6284812"><ele>152.0</ele><time>2026-04-26T17:50:48.429Z</time></trkpt><trkpt lat="41.9988669" lon="12.6284348"><ele>150.0</ele><time>2026-04-26T17:50:49.44Z</time></trkpt><trkpt lat="41.9986499" lon="12.6283636"><ele>148.0</ele><time>2026-04-26T17:50:50.423Z</time></trkpt><trkpt lat="41.9984441" lon="12.6282975"><ele>146.0</ele><time>2026-04-26T17:50:51.432Z</time></trkpt><trkpt lat="41.9982655" lon="12.6282195"><ele>143.66666666666666</ele><time>2026-04-26T17:50:52.421Z</time></trkpt><trkpt lat="41.9980935" lon="12.6281092"><ele>141.33333333333334</ele><time>2026-04-26T17:50:53.428Z</time></trkpt><trkpt lat="41.9978484" lon="12.6280005"><ele>139.0</ele><time>2026-04-26T17:50:54.432Z</time></trkpt><trkpt lat="41.9976272" lon="12.6278624"><ele>137.5</ele><time>2026-04-26T17:50:55.434Z</time></trkpt><trkpt lat="41.9974105" lon="12.6277064"><ele>136.0</ele><time>2026-04-26T17:50:56.426Z</time></trkpt><trkpt lat="41.9971754" lon="12.627556"><ele>136.0</ele><time>2026-04-26T17:50:57.431Z</time></trkpt><trkpt lat="41.9969276" lon="12.6273735"><ele>136.0</ele><time>2026-04-26T17:50:58.431Z</time></trkpt><trkpt lat="41.9966973" lon="12.6272"><ele>136.0</ele><time>2026-04-26T17:50:59.439Z</time></trkpt><trkpt lat="41.9964715" lon="12.6270413"><ele>136.0</ele><time>2026-04-26T17:51:00.428Z</time></trkpt><trkpt lat="41.9962671" lon="12.6269192"><ele>136.0</ele><time>2026-04-26T17:51:01.433Z</time></trkpt><trkpt lat="41.9960537" lon="12.626862"><ele>136.0</ele><time>2026-04-26T17:51:02.429Z</time></trkpt><trkpt lat="41.9958339" lon="12.6268044"><ele>136.0</ele><time>2026-04-26T17:51:03.407Z</time></trkpt><trkpt lat="41.995668" lon="12.6267708"><ele>136.33333333333334</ele><time>2026-04-26T17:51:04.41Z</time></trkpt><trkpt lat="41.9954546" lon="12.6266947"><ele>136.66666666666666</ele><time>2026-04-26T17:51:05.398Z</time></trkpt><trkpt lat="41.9952411" lon="12.6266186"><ele>137.0</ele><time>2026-04-26T17:51:06.377Z</time></trkpt><trkpt lat="41.9950301" lon="12.6265401"><ele>113.0</ele><time>2026-04-26T17:51:07.385Z</time></trkpt><trkpt lat="41.9931256" lon="12.6237409"><ele>109.66666666666666</ele><time>2026-04-26T17:51:22.43Z</time></trkpt><trkpt lat="41.9929271" lon="12.6235898"><ele>106.33333333333334</ele><time>2026-04-26T17:51:23.431Z</time></trkpt><trkpt lat="41.992738" lon="12.623485"><ele>103.0</ele><time>2026-04-26T17:51:24.459Z</time></trkpt><trkpt lat="41.9925966" lon="12.6233293"><ele>101.66666666666667</ele><time>2026-04-26T17:51:25.433Z</time></trkpt><trkpt lat="41.9924237" lon="12.6232156"><ele>100.33333333333334</ele><time>2026-04-26T17:51:26.43Z</time></trkpt><trkpt lat="41.9921884" lon="12.6231638"><ele>99.0</ele><time>2026-04-26T17:51:27.425Z</time></trkpt><trkpt lat="41.9919745" lon="12.6230835"><ele>99.0</ele><time>2026-04-26T17:51:28.428Z</time></trkpt><trkpt lat="41.9917387" lon="12.6230071"><ele>99.0</ele><time>2026-04-26T17:51:29.426Z</time></trkpt><trkpt lat="41.9914972" lon="12.6229767"><ele>95.5</ele><time>2026-04-26T17:51:30.43Z</time></trkpt><trkpt lat="41.9912632" lon="12.6229685"><ele>92.0</ele><time>2026-04-26T17:51:31.425Z</time></trkpt><trkpt lat="41.9910204" lon="12.6229663"><ele>90.0</ele><time>2026-04-26T17:51:32.424Z</time></trkpt><trkpt lat="41.9907815" lon="12.6230241"><ele>88.0</ele><time>2026-04-26T17:51:33.422Z</time></trkpt><trkpt lat="41.990528" lon="12.6230961"><ele>88.0</ele><time>2026-04-26T17:51:34.419Z</time></trkpt><trkpt lat="41.9902875" lon="12.6231814"><ele>88.0</ele><time>2026-04-26T17:51:35.424Z</time></trkpt><trkpt lat="41.9900711" lon="12.62331"><ele>88.0</ele><time>2026-04-26T17:51:36.418Z</time></trkpt><trkpt lat="41.9898547" lon="12.6234963"><ele>88.0</ele><time>2026-04-26T17:51:37.5Z</time></trkpt><trkpt lat="41.9896107" lon="12.6236921"><ele>82.0</ele><time>2026-04-26T17:51:38.586Z</time></trkpt><trkpt lat="41.9891623" lon="12.6242131"><ele>82.0</ele><time>2026-04-26T17:51:40.414Z</time></trkpt><trkpt lat="41.9889273" lon="12.6244462"><ele>82.0</ele><time>2026-04-26T17:51:41.416Z</time></trkpt><trkpt lat="41.9886963" lon="12.6246734"><ele>80.5</ele><time>2026-04-26T17:51:42.416Z</time></trkpt><trkpt lat="41.9885165" lon="12.6248802"><ele>79.0</ele><time>2026-04-26T17:51:43.461Z</time></trkpt><trkpt lat="41.988334" lon="12.6250728"><ele>79.0</ele><time>2026-04-26T17:51:44.427Z</time></trkpt><trkpt lat="41.9880944" lon="12.625256"><ele>79.0</ele><time>2026-04-26T17:51:45.419Z</time></trkpt><trkpt lat="41.9879006" lon="12.6254341"><ele>80.33333333333333</ele><time>2026-04-26T17:51:46.426Z</time></trkpt><trkpt lat="41.9877197" lon="12.6256062"><ele>81.66666666666667</ele><time>2026-04-26T17:51:47.425Z</time></trkpt><trkpt lat="41.9875274" lon="12.6257574"><ele>83.0</ele><time>2026-04-26T17:51:48.425Z</time></trkpt><trkpt lat="41.9873578" lon="12.6258912"><ele>82.33333333333334</ele><time>2026-04-26T17:51:49.423Z</time></trkpt><trkpt lat="41.9871763" lon="12.6260048"><ele>81.66666666666667</ele><time>2026-04-26T17:51:50.428Z</time></trkpt><trkpt lat="41.9870236" lon="12.6260918"><ele>81.0</ele><time>2026-04-26T17:51:51.428Z</time></trkpt><trkpt lat="41.9868298" lon="12.6261719"><ele>79.66666666666667</ele><time>2026-04-26T17:51:52.431Z</time></trkpt><trkpt lat="41.9866522" lon="12.6262423"><ele>78.33333333333334</ele><time>2026-04-26T17:51:53.43Z</time></trkpt><trkpt lat="41.9864592" lon="12.6263253"><ele>77.0</ele><time>2026-04-26T17:51:54.43Z</time></trkpt><trkpt lat="41.9862333" lon="12.6263992"><ele>77.0</ele><time>2026-04-26T17:51:55.452Z</time></trkpt><trkpt lat="41.9859801" lon="12.626476"><ele>77.0</ele><time>2026-04-26T17:51:56.43Z</time></trkpt><trkpt lat="41.9857351" lon="12.6265601"><ele>75.0</ele><time>2026-04-26T17:51:57.43Z</time></trkpt><trkpt lat="41.9854641" lon="12.6266247"><ele>73.0</ele><time>2026-04-26T17:51:58.428Z</time></trkpt><trkpt lat="41.9852048" lon="12.6266955"><ele>70.0</ele><time>2026-04-26T17:51:59.425Z</time></trkpt><trkpt lat="41.9849516" lon="12.6267703"><ele>67.0</ele><time>2026-04-26T17:52:00.429Z</time></trkpt><trkpt lat="41.9847028" lon="12.6268453"><ele>67.0</ele><time>2026-04-26T17:52:01.428Z</time></trkpt><trkpt lat="41.9844628" lon="12.6269271"><ele>67.0</ele><time>2026-04-26T17:52:02.442Z</time></trkpt><trkpt lat="41.9842172" lon="12.6270023"><ele>68.5</ele><time>2026-04-26T17:52:03.421Z</time></trkpt><trkpt lat="41.9839559" lon="12.6270716"><ele>70.0</ele><time>2026-04-26T17:52:04.435Z</time></trkpt><trkpt lat="41.9836866" lon="12.6271431"><ele>70.0</ele><time>2026-04-26T17:52:05.436Z</time></trkpt><trkpt lat="41.9834293" lon="12.6272349"><ele>70.0</ele><time>2026-04-26T17:52:06.427Z</time></trkpt><trkpt lat="41.9832024" lon="12.6273196"><ele>69.0</ele><time>2026-04-26T17:52:07.43Z</time></trkpt><trkpt lat="41.9829661" lon="12.6273946"><ele>68.0</ele><time>2026-04-26T17:52:08.425Z</time></trkpt><trkpt lat="41.9827239" lon="12.6274636"><ele>66.66666666666667</ele><time>2026-04-26T17:52:09.426Z</time></trkpt><trkpt lat="41.9825046" lon="12.6275148"><ele>65.33333333333333</ele><time>2026-04-26T17:52:10.429Z</time></trkpt><trkpt lat="41.9822961" lon="12.6275493"><ele>64.0</ele><time>2026-04-26T17:52:11.435Z</time></trkpt><trkpt lat="41.9821041" lon="12.6275652"><ele>64.0</ele><time>2026-04-26T17:52:12.433Z</time></trkpt><trkpt lat="41.9818974" lon="12.6275865"><ele>64.0</ele><time>2026-04-26T17:52:13.432Z</time></trkpt><trkpt lat="41.9816983" lon="12.6275853"><ele>64.0</ele><time>2026-04-26T17:52:14.426Z</time></trkpt><trkpt lat="41.9815176" lon="12.6275954"><ele>63.666666666666664</ele><time>2026-04-26T17:52:15.434Z</time></trkpt><trkpt lat="41.9813466" lon="12.6275696"><ele>63.33333333333333</ele><time>2026-04-26T17:52:16.433Z</time></trkpt><trkpt lat="41.9811607" lon="12.6275515"><ele>63.0</ele><time>2026-04-26T17:52:17.432Z</time></trkpt><trkpt lat="41.9809593" lon="12.6274907"><ele>62.5</ele><time>2026-04-26T17:52:18.419Z</time></trkpt><trkpt lat="41.9807446" lon="12.6274447"><ele>62.0</ele><time>2026-04-26T17:52:19.435Z</time></trkpt><trkpt lat="41.9804927" lon="12.6273723"><ele>62.0</ele><time>2026-04-26T17:52:20.434Z</time></trkpt><trkpt lat="41.9802743" lon="12.6273012"><ele>62.0</ele><time>2026-04-26T17:52:21.429Z</time></trkpt><trkpt lat="41.9800541" lon="12.6272244"><ele>61.0</ele><time>2026-04-26T17:52:22.433Z</time></trkpt><trkpt lat="41.9798469" lon="12.6271532"><ele>60.0</ele><time>2026-04-26T17:52:23.43Z</time></trkpt><trkpt lat="41.9796187" lon="12.6270483"><ele>59.66666666666667</ele><time>2026-04-26T17:52:24.425Z</time></trkpt><trkpt lat="41.9794105" lon="12.6269251"><ele>59.333333333333336</ele><time>2026-04-26T17:52:25.426Z</time></trkpt><trkpt lat="41.9792107" lon="12.6268119"><ele>59.0</ele><time>2026-04-26T17:52:26.422Z</time></trkpt><trkpt lat="41.9790091" lon="12.6266943"><ele>57.5</ele><time>2026-04-26T17:52:27.423Z</time></trkpt><trkpt lat="41.9787987" lon="12.6265675"><ele>56.0</ele><time>2026-04-26T17:52:28.424Z</time></trkpt><trkpt lat="41.978584" lon="12.6264654"><ele>56.0</ele><time>2026-04-26T17:52:29.423Z</time></trkpt><trkpt lat="41.9783782" lon="12.6263391"><ele>56.0</ele><time>2026-04-26T17:52:30.43Z</time></trkpt><trkpt lat="41.9781627" lon="12.6262399"><ele>56.66666666666667</ele><time>2026-04-26T17:52:31.425Z</time></trkpt><trkpt lat="41.9779629" lon="12.6261273"><ele>57.33333333333333</ele><time>2026-04-26T17:52:32.427Z</time></trkpt><trkpt lat="41.9777489" lon="12.6260897"><ele>58.0</ele><time>2026-04-26T17:52:33.427Z</time></trkpt><trkpt lat="41.9775139" lon="12.6260534"><ele>55.0</ele><time>2026-04-26T17:52:34.432Z</time></trkpt><trkpt lat="41.9772661" lon="12.6260204"><ele>52.0</ele><time>2026-04-26T17:52:35.428Z</time></trkpt><trkpt lat="41.9770099" lon="12.6259815"><ele>52.0</ele><time>2026-04-26T17:52:36.447Z</time></trkpt><trkpt lat="41.9767792" lon="12.6259484"><ele>52.0</ele><time>2026-04-26T17:52:37.424Z</time></trkpt><trkpt lat="41.9765585" lon="12.6259138"><ele>52.666666666666664</ele><time>2026-04-26T17:52:38.425Z</time></trkpt><trkpt lat="41.9763283" lon="12.6258771"><ele>53.33333333333333</ele><time>2026-04-26T17:52:39.428Z</time></trkpt><trkpt lat="41.976119" lon="12.6258451"><ele>54.0</ele><time>2026-04-26T17:52:40.423Z</time></trkpt><trkpt lat="41.9758718" lon="12.6258167"><ele>55.0</ele><time>2026-04-26T17:52:41.418Z</time></trkpt><trkpt lat="41.9756414" lon="12.6257626"><ele>56.0</ele><time>2026-04-26T17:52:42.427Z</time></trkpt><trkpt lat="41.9754803" lon="12.6256787"><ele>57.0</ele><time>2026-04-26T17:52:43.422Z</time></trkpt><trkpt lat="41.9753284" lon="12.6256172"><ele>57.0</ele><time>2026-04-26T17:52:44.425Z</time></trkpt><trkpt lat="41.9751578" lon="12.6255293"><ele>57.0</ele><time>2026-04-26T17:52:45.427Z</time></trkpt><trkpt lat="41.9749942" lon="12.6254321"><ele>57.0</ele><time>2026-04-26T17:52:46.418Z</time></trkpt><trkpt lat="41.974832" lon="12.6253476"><ele>54.33333333333333</ele><time>2026-04-26T17:52:47.429Z</time></trkpt><trkpt lat="41.9746871" lon="12.6252369"><ele>51.666666666666664</ele><time>2026-04-26T17:52:48.425Z</time></trkpt><trkpt lat="41.9745115" lon="12.6251004"><ele>49.0</ele><time>2026-04-26T17:52:49.451Z</time></trkpt><trkpt lat="41.9743164" lon="12.6249517"><ele>48.0</ele><time>2026-04-26T17:52:50.444Z</time></trkpt><trkpt lat="41.9741349" lon="12.6248168"><ele>47.0</ele><time>2026-04-26T17:52:51.43Z</time></trkpt><trkpt lat="41.973949" lon="12.6246951"><ele>46.0</ele><time>2026-04-26T17:52:52.426Z</time></trkpt><trkpt lat="41.9737245" lon="12.6245862"><ele>46.0</ele><time>2026-04-26T17:52:53.434Z</time></trkpt><trkpt lat="41.9734745" lon="12.624505"><ele>46.0</ele><time>2026-04-26T17:52:54.424Z</time></trkpt><trkpt lat="41.9732435" lon="12.6244392"><ele>45.333333333333336</ele><time>2026-04-26T17:52:55.432Z</time></trkpt><trkpt lat="41.9730589" lon="12.6243669"><ele>44.666666666666664</ele><time>2026-04-26T17:52:56.427Z</time></trkpt><trkpt lat="41.9728823" lon="12.6243178"><ele>44.0</ele><time>2026-04-26T17:52:57.416Z</time></trkpt><trkpt lat="41.9726904" lon="12.6242799"><ele>45.5</ele><time>2026-04-26T17:52:58.425Z</time></trkpt><trkpt lat="41.97247" lon="12.6242677"><ele>47.0</ele><time>2026-04-26T17:52:59.423Z</time></trkpt><trkpt lat="41.9722251" lon="12.6242411"><ele>47.0</ele><time>2026-04-26T17:53:00.43Z</time></trkpt><trkpt lat="41.9719668" lon="12.6242103"><ele>47.0</ele><time>2026-04-26T17:53:01.425Z</time></trkpt><trkpt lat="41.9717217" lon="12.624176"><ele>50.5</ele><time>2026-04-26T17:53:02.422Z</time></trkpt><trkpt lat="41.9714871" lon="12.624107"><ele>54.0</ele><time>2026-04-26T17:53:03.425Z</time></trkpt><trkpt lat="41.9712452" lon="12.6240467"><ele>54.0</ele><time>2026-04-26T17:53:04.426Z</time></trkpt><trkpt lat="41.9710302" lon="12.6239865"><ele>54.0</ele><time>2026-04-26T17:53:05.432Z</time></trkpt><trkpt lat="41.970825" lon="12.6238769"><ele>54.0</ele><time>2026-04-26T17:53:06.427Z</time></trkpt><trkpt lat="41.9706556" lon="12.6237608"><ele>60.66666666666667</ele><time>2026-04-26T17:53:07.426Z</time></trkpt><trkpt lat="41.9704601" lon="12.6235816"><ele>67.33333333333334</ele><time>2026-04-26T17:53:08.421Z</time></trkpt><trkpt lat="41.9703089" lon="12.6233876"><ele>74.0</ele><time>2026-04-26T17:53:09.425Z</time></trkpt><trkpt lat="41.9702004" lon="12.6231779"><ele>74.0</ele><time>2026-04-26T17:53:10.431Z</time></trkpt><trkpt lat="41.9700893" lon="12.6229809"><ele>74.0</ele><time>2026-04-26T17:53:11.426Z</time></trkpt><trkpt lat="41.9700085" lon="12.6227442"><ele>74.0</ele><time>2026-04-26T17:53:12.426Z</time></trkpt><trkpt lat="41.9699307" lon="12.6224997"><ele>72.66666666666667</ele><time>2026-04-26T17:53:13.431Z</time></trkpt><trkpt lat="41.9698484" lon="12.6222339"><ele>71.33333333333333</ele><time>2026-04-26T17:53:14.434Z</time></trkpt><trkpt lat="41.9698018" lon="12.6219611"><ele>70.0</ele><time>2026-04-26T17:53:15.432Z</time></trkpt><trkpt lat="41.9697824" lon="12.6216659"><ele>70.0</ele><time>2026-04-26T17:53:16.433Z</time></trkpt><trkpt lat="41.9697513" lon="12.6213512"><ele>70.0</ele><time>2026-04-26T17:53:17.434Z</time></trkpt><trkpt lat="41.9697452" lon="12.6210443"><ele>70.33333333333333</ele><time>2026-04-26T17:53:18.461Z</time></trkpt><trkpt lat="41.9697344" lon="12.6207624"><ele>70.66666666666667</ele><time>2026-04-26T17:53:19.454Z</time></trkpt><trkpt lat="41.9697021" lon="12.6205201"><ele>71.0</ele><time>2026-04-26T17:53:20.437Z</time></trkpt><trkpt lat="41.969651" lon="12.620272"><ele>71.0</ele><time>2026-04-26T17:53:21.432Z</time></trkpt><trkpt lat="41.9695734" lon="12.6200013"><ele>71.0</ele><time>2026-04-26T17:53:22.439Z</time></trkpt><trkpt lat="41.9694981" lon="12.6197609"><ele>71.0</ele><time>2026-04-26T17:53:23.44Z</time></trkpt><trkpt lat="41.9694151" lon="12.6195172"><ele>71.0</ele><time>2026-04-26T17:53:24.441Z</time></trkpt><trkpt lat="41.9693356" lon="12.6193448"><ele>71.0</ele><time>2026-04-26T17:53:25.436Z</time></trkpt><trkpt lat="41.9692505" lon="12.6192021"><ele>71.0</ele><time>2026-04-26T17:53:26.434Z</time></trkpt><trkpt lat="41.9691632" lon="12.6191009"><ele>71.0</ele><time>2026-04-26T17:53:27.424Z</time></trkpt><trkpt lat="41.9690972" lon="12.6190183"><ele>70.8</ele><time>2026-04-26T17:53:28.435Z</time></trkpt><trkpt lat="41.9690479" lon="12.6189458"><ele>70.6</ele><time>2026-04-26T17:53:29.433Z</time></trkpt><trkpt lat="41.9689952" lon="12.6188838"><ele>70.4</ele><time>2026-04-26T17:53:30.441Z</time></trkpt><trkpt lat="41.9689956" lon="12.6187768"><ele>70.2</ele><time>2026-04-26T17:53:31.433Z</time></trkpt><trkpt lat="41.9689949" lon="12.6186124"><ele>70.0</ele><time>2026-04-26T17:53:33.434Z</time></trkpt><trkpt lat="41.9689685" lon="12.618449"><ele>71.2</ele><time>2026-04-26T17:53:34.434Z</time></trkpt><trkpt lat="41.9689395" lon="12.6183122"><ele>72.4</ele><time>2026-04-26T17:53:35.431Z</time></trkpt><trkpt lat="41.9689175" lon="12.6181812"><ele>73.6</ele><time>2026-04-26T17:53:36.426Z</time></trkpt><trkpt lat="41.9689106" lon="12.618054"><ele>74.8</ele><time>2026-04-26T17:53:37.426Z</time></trkpt><trkpt lat="41.9689278" lon="12.6179267"><ele>76.0</ele><time>2026-04-26T17:53:38.428Z</time></trkpt><trkpt lat="41.9689653" lon="12.6177976"><ele>76.75</ele><time>2026-04-26T17:53:39.431Z</time></trkpt><trkpt lat="41.9690106" lon="12.6176561"><ele>77.5</ele><time>2026-04-26T17:53:40.434Z</time></trkpt><trkpt lat="41.9690809" lon="12.6174958"><ele>78.25</ele><time>2026-04-26T17:53:41.434Z</time></trkpt><trkpt lat="41.969164" lon="12.6173384"><ele>79.0</ele><time>2026-04-26T17:53:42.433Z</time></trkpt><trkpt lat="41.9692597" lon="12.6171837"><ele>79.0</ele><time>2026-04-26T17:53:43.433Z</time></trkpt><trkpt lat="41.9694007" lon="12.6170067"><ele>79.0</ele><time>2026-04-26T17:53:44.424Z</time></trkpt><trkpt lat="41.9696091" lon="12.61685"><ele>79.0</ele><time>2026-04-26T17:53:45.428Z</time></trkpt><trkpt lat="41.9698459" lon="12.6167269"><ele>80.5</ele><time>2026-04-26T17:53:46.424Z</time></trkpt><trkpt lat="41.9700659" lon="12.6165917"><ele>82.0</ele><time>2026-04-26T17:53:47.426Z</time></trkpt><trkpt lat="41.9702749" lon="12.6164556"><ele>82.0</ele><time>2026-04-26T17:53:48.423Z</time></trkpt><trkpt lat="41.9704582" lon="12.6162857"><ele>82.0</ele><time>2026-04-26T17:53:49.424Z</time></trkpt><trkpt lat="41.9706344" lon="12.6161321"><ele>82.0</ele><time>2026-04-26T17:53:50.456Z</time></trkpt><trkpt lat="41.9708152" lon="12.6159992"><ele>82.33333333333333</ele><time>2026-04-26T17:53:51.426Z</time></trkpt><trkpt lat="41.9709724" lon="12.6158487"><ele>82.66666666666667</ele><time>2026-04-26T17:53:52.428Z</time></trkpt><trkpt lat="41.9711016" lon="12.6156962"><ele>83.0</ele><time>2026-04-26T17:53:53.445Z</time></trkpt><trkpt lat="41.9712401" lon="12.6155343"><ele>83.0</ele><time>2026-04-26T17:53:54.432Z</time></trkpt><trkpt lat="41.9713386" lon="12.6153613"><ele>83.0</ele><time>2026-04-26T17:53:55.455Z</time></trkpt><trkpt lat="41.9714279" lon="12.6151713"><ele>83.0</ele><time>2026-04-26T17:53:56.427Z</time></trkpt><trkpt lat="41.9714809" lon="12.6149294"><ele>82.33333333333334</ele><time>2026-04-26T17:53:57.423Z</time></trkpt><trkpt lat="41.9715248" lon="12.614702"><ele>81.66666666666667</ele><time>2026-04-26T17:53:58.428Z</time></trkpt><trkpt lat="41.9715337" lon="12.6144941"><ele>81.0</ele><time>2026-04-26T17:53:59.426Z</time></trkpt><trkpt lat="41.971505" lon="12.6142613"><ele>81.0</ele><time>2026-04-26T17:54:00.431Z</time></trkpt><trkpt lat="41.9714554" lon="12.6139973"><ele>81.0</ele><time>2026-04-26T17:54:01.419Z</time></trkpt><trkpt lat="41.971372" lon="12.6138019"><ele>81.0</ele><time>2026-04-26T17:54:02.427Z</time></trkpt><trkpt lat="41.9712297" lon="12.6136552"><ele>81.0</ele><time>2026-04-26T17:54:03.417Z</time></trkpt><trkpt lat="41.9710938" lon="12.6135152"><ele>81.0</ele><time>2026-04-26T17:54:04.445Z</time></trkpt><trkpt lat="41.970971" lon="12.6133913"><ele>81.0</ele><time>2026-04-26T17:54:05.429Z</time></trkpt><trkpt lat="41.970848" lon="12.6132977"><ele>81.25</ele><time>2026-04-26T17:54:06.425Z</time></trkpt><trkpt lat="41.9707211" lon="12.6132331"><ele>81.5</ele><time>2026-04-26T17:54:07.427Z</time></trkpt><trkpt lat="41.9705916" lon="12.6132235"><ele>81.75</ele><time>2026-04-26T17:54:08.428Z</time></trkpt><trkpt lat="41.9704715" lon="12.6131978"><ele>82.0</ele><time>2026-04-26T17:54:09.423Z</time></trkpt><trkpt lat="41.9703566" lon="12.6131647"><ele>82.0</ele><time>2026-04-26T17:54:10.425Z</time></trkpt><trkpt lat="41.9702734" lon="12.6130916"><ele>82.0</ele><time>2026-04-26T17:54:11.428Z</time></trkpt><trkpt lat="41.9702188" lon="12.6129845"><ele>82.0</ele><time>2026-04-26T17:54:12.426Z</time></trkpt><trkpt lat="41.9701613" lon="12.6128586"><ele>82.0</ele><time>2026-04-26T17:54:13.432Z</time></trkpt><trkpt lat="41.9701577" lon="12.6127452"><ele>82.0</ele><time>2026-04-26T17:54:14.427Z</time></trkpt><trkpt lat="41.9701595" lon="12.6126274"><ele>82.0</ele><time>2026-04-26T17:54:15.427Z</time></trkpt><trkpt lat="41.9701865" lon="12.6125161"><ele>82.0</ele><time>2026-04-26T17:54:16.428Z</time></trkpt><trkpt lat="41.9702349" lon="12.6124052"><ele>82.0</ele><time>2026-04-26T17:54:17.426Z</time></trkpt><trkpt lat="41.9702903" lon="12.6122989"><ele>82.0</ele><time>2026-04-26T17:54:18.425Z</time></trkpt><trkpt lat="41.9703395" lon="12.6122045"><ele>82.0</ele><time>2026-04-26T17:54:19.423Z</time></trkpt><trkpt lat="41.9703765" lon="12.6121084"><ele>82.0</ele><time>2026-04-26T17:54:20.444Z</time></trkpt><trkpt lat="41.970386" lon="12.6119775"><ele>81.39999999999999</ele><time>2026-04-26T17:54:21.421Z</time></trkpt><trkpt lat="41.9703734" lon="12.6118438"><ele>80.8</ele><time>2026-04-26T17:54:22.422Z</time></trkpt><trkpt lat="41.9703452" lon="12.6117352"><ele>80.2</ele><time>2026-04-26T17:54:23.423Z</time></trkpt><trkpt lat="41.9702858" lon="12.6116686"><ele>79.6</ele><time>2026-04-26T17:54:24.422Z</time></trkpt><trkpt lat="41.9702003" lon="12.6116608"><ele>79.0</ele><time>2026-04-26T17:54:25.426Z</time></trkpt><trkpt lat="41.9700967" lon="12.6116912"><ele>79.2</ele><time>2026-04-26T17:54:26.419Z</time></trkpt><trkpt lat="41.9700087" lon="12.6117505"><ele>79.4</ele><time>2026-04-26T17:54:27.418Z</time></trkpt><trkpt lat="41.9699324" lon="12.6118395"><ele>79.6</ele><time>2026-04-26T17:54:28.419Z</time></trkpt><trkpt lat="41.9698762" lon="12.6119356"><ele>79.8</ele><time>2026-04-26T17:54:29.429Z</time></trkpt><trkpt lat="41.969841" lon="12.6120525"><ele>80.0</ele><time>2026-04-26T17:54:30.431Z</time></trkpt><trkpt lat="41.9698173" lon="12.612186"><ele>80.0</ele><time>2026-04-26T17:54:31.431Z</time></trkpt><trkpt lat="41.9698198" lon="12.6123051"><ele>80.0</ele><time>2026-04-26T17:54:32.423Z</time></trkpt><trkpt lat="41.96984" lon="12.6124023"><ele>80.0</ele><time>2026-04-26T17:54:33.428Z</time></trkpt><trkpt lat="41.9698687" lon="12.6125078"><ele>80.0</ele><time>2026-04-26T17:54:34.421Z</time></trkpt><trkpt lat="41.9699179" lon="12.6125822"><ele>80.0</ele><time>2026-04-26T17:54:35.42Z</time></trkpt><trkpt lat="41.9699568" lon="12.6126497"><ele>80.0</ele><time>2026-04-26T17:54:36.426Z</time></trkpt><trkpt lat="41.9700657" lon="12.6126509"><ele>80.4</ele><time>2026-04-26T17:54:37.428Z</time></trkpt><trkpt lat="41.9701471" lon="12.6125928"><ele>80.8</ele><time>2026-04-26T17:54:38.42Z</time></trkpt><trkpt lat="41.9702285" lon="12.6124988"><ele>81.19999999999999</ele><time>2026-04-26T17:54:39.419Z</time></trkpt><trkpt lat="41.9702873" lon="12.6123632"><ele>81.6</ele><time>2026-04-26T17:54:40.441Z</time></trkpt><trkpt lat="41.9703299" lon="12.6121974"><ele>82.0</ele><time>2026-04-26T17:54:41.422Z</time></trkpt><trkpt lat="41.9703223" lon="12.6120231"><ele>81.25</ele><time>2026-04-26T17:54:42.42Z</time></trkpt><trkpt lat="41.9703005" lon="12.6118597"><ele>80.5</ele><time>2026-04-26T17:54:43.447Z</time></trkpt><trkpt lat="41.9702509" lon="12.61172"><ele>79.75</ele><time>2026-04-26T17:54:44.427Z</time></trkpt><trkpt lat="41.9702193" lon="12.611573"><ele>79.0</ele><time>2026-04-26T17:54:45.435Z</time></trkpt><trkpt lat="41.9701962" lon="12.611411"><ele>79.0</ele><time>2026-04-26T17:54:46.429Z</time></trkpt><trkpt lat="41.9701921" lon="12.6112305"><ele>79.0</ele><time>2026-04-26T17:54:47.431Z</time></trkpt><trkpt lat="41.9701945" lon="12.6110114"><ele>79.0</ele><time>2026-04-26T17:54:48.425Z</time></trkpt><trkpt lat="41.9701887" lon="12.6107454"><ele>78.0</ele><time>2026-04-26T17:54:49.42Z</time></trkpt><trkpt lat="41.9701515" lon="12.6103701"><ele>77.0</ele><time>2026-04-26T17:54:50.424Z</time></trkpt><trkpt lat="41.9700984" lon="12.6100254"><ele>76.0</ele><time>2026-04-26T17:54:51.423Z</time></trkpt><trkpt lat="41.9700417" lon="12.609705"><ele>75.0</ele><time>2026-04-26T17:54:52.428Z</time></trkpt><trkpt lat="41.9699733" lon="12.6093898"><ele>74.0</ele><time>2026-04-26T17:54:53.426Z</time></trkpt><trkpt lat="41.9698996" lon="12.6091002"><ele>73.0</ele><time>2026-04-26T17:54:54.424Z</time></trkpt><trkpt lat="41.9698589" lon="12.6088624"><ele>72.0</ele><time>2026-04-26T17:54:55.425Z</time></trkpt><trkpt lat="41.9698173" lon="12.6086214"><ele>71.33333333333333</ele><time>2026-04-26T17:54:56.428Z</time></trkpt><trkpt lat="41.9697724" lon="12.6083865"><ele>70.66666666666666</ele><time>2026-04-26T17:54:57.421Z</time></trkpt><trkpt lat="41.969692" lon="12.6081104"><ele>70.0</ele><time>2026-04-26T17:54:58.427Z</time></trkpt><trkpt lat="41.9696108" lon="12.607841"><ele>68.5</ele><time>2026-04-26T17:54:59.423Z</time></trkpt><trkpt lat="41.9695441" lon="12.6075371"><ele>67.0</ele><time>2026-04-26T17:55:00.422Z</time></trkpt><trkpt lat="41.9694737" lon="12.6072401"><ele>66.66666666666666</ele><time>2026-04-26T17:55:01.417Z</time></trkpt><trkpt lat="41.9693771" lon="12.6069321"><ele>66.33333333333333</ele><time>2026-04-26T17:55:02.414Z</time></trkpt><trkpt lat="41.9693096" lon="12.6066785"><ele>66.0</ele><time>2026-04-26T17:55:03.419Z</time></trkpt><trkpt lat="41.9692473" lon="12.6064524"><ele>68.33333333333333</ele><time>2026-04-26T17:55:04.416Z</time></trkpt><trkpt lat="41.9691885" lon="12.6062301"><ele>70.66666666666666</ele><time>2026-04-26T17:55:05.427Z</time></trkpt><trkpt lat="41.96913" lon="12.6060048"><ele>73.0</ele><time>2026-04-26T17:55:06.426Z</time></trkpt><trkpt lat="41.9690692" lon="12.6057724"><ele>73.0</ele><time>2026-04-26T17:55:07.422Z</time></trkpt><trkpt lat="41.968997" lon="12.6054734"><ele>73.0</ele><time>2026-04-26T17:55:08.429Z</time></trkpt><trkpt lat="41.9689157" lon="12.6051646"><ele>73.0</ele><time>2026-04-26T17:55:09.428Z</time></trkpt><trkpt lat="41.9688334" lon="12.604907"><ele>73.0</ele><time>2026-04-26T17:55:10.427Z</time></trkpt><trkpt lat="41.968761" lon="12.6046682"><ele>73.0</ele><time>2026-04-26T17:55:11.424Z</time></trkpt><trkpt lat="41.9686878" lon="12.6044477"><ele>73.33333333333333</ele><time>2026-04-26T17:55:12.441Z</time></trkpt><trkpt lat="41.9686224" lon="12.6042284"><ele>73.66666666666667</ele><time>2026-04-26T17:55:13.421Z</time></trkpt><trkpt lat="41.9685597" lon="12.6040039"><ele>74.0</ele><time>2026-04-26T17:55:14.424Z</time></trkpt><trkpt lat="41.9684963" lon="12.6037848"><ele>74.25</ele><time>2026-04-26T17:55:15.435Z</time></trkpt><trkpt lat="41.9684643" lon="12.6035896"><ele>74.5</ele><time>2026-04-26T17:55:16.429Z</time></trkpt><trkpt lat="41.9684272" lon="12.6034164"><ele>74.75</ele><time>2026-04-26T17:55:17.446Z</time></trkpt><trkpt lat="41.9683975" lon="12.6032494"><ele>75.0</ele><time>2026-04-26T17:55:18.428Z</time></trkpt><trkpt lat="41.9683359" lon="12.6030067"><ele>75.33333333333333</ele><time>2026-04-26T17:55:19.436Z</time></trkpt><trkpt lat="41.9682734" lon="12.6027824"><ele>75.66666666666666</ele><time>2026-04-26T17:55:20.447Z</time></trkpt><trkpt lat="41.9682257" lon="12.6025553"><ele>76.0</ele><time>2026-04-26T17:55:21.434Z</time></trkpt><trkpt lat="41.9681683" lon="12.602402"><ele>76.0</ele><time>2026-04-26T17:55:22.427Z</time></trkpt><trkpt lat="41.9680992" lon="12.6022435"><ele>76.0</ele><time>2026-04-26T17:55:23.43Z</time></trkpt><trkpt lat="41.968004" lon="12.602088"><ele>76.0</ele><time>2026-04-26T17:55:24.431Z</time></trkpt><trkpt lat="41.9678944" lon="12.6019276"><ele>76.0</ele><time>2026-04-26T17:55:25.431Z</time></trkpt><trkpt lat="41.9677799" lon="12.6017226"><ele>76.0</ele><time>2026-04-26T17:55:26.419Z</time></trkpt><trkpt lat="41.9676549" lon="12.6015027"><ele>76.0</ele><time>2026-04-26T17:55:27.438Z</time></trkpt><trkpt lat="41.9675292" lon="12.6012674"><ele>76.0</ele><time>2026-04-26T17:55:28.419Z</time></trkpt><trkpt lat="41.9674043" lon="12.6010302"><ele>76.0</ele><time>2026-04-26T17:55:29.432Z</time></trkpt><trkpt lat="41.9672811" lon="12.6007744"><ele>76.0</ele><time>2026-04-26T17:55:30.429Z</time></trkpt><trkpt lat="41.9671522" lon="12.6004997"><ele>75.5</ele><time>2026-04-26T17:55:31.418Z</time></trkpt><trkpt lat="41.9670132" lon="12.6002161"><ele>75.0</ele><time>2026-04-26T17:55:32.417Z</time></trkpt><trkpt lat="41.9669244" lon="12.5999694"><ele>75.0</ele><time>2026-04-26T17:55:33.409Z</time></trkpt><trkpt lat="41.9667735" lon="12.5997343"><ele>75.0</ele><time>2026-04-26T17:55:34.417Z</time></trkpt><trkpt lat="41.9666629" lon="12.5995819"><ele>75.0</ele><time>2026-04-26T17:55:35.41Z</time></trkpt><trkpt lat="41.9665689" lon="12.5994161"><ele>74.0</ele><time>2026-04-26T17:55:36.412Z</time></trkpt><trkpt lat="41.9664928" lon="12.5992513"><ele>73.0</ele><time>2026-04-26T17:55:37.408Z</time></trkpt><trkpt lat="41.9664588" lon="12.5991075"><ele>72.0</ele><time>2026-04-26T17:55:38.418Z</time></trkpt><trkpt lat="41.9664031" lon="12.5990033"><ele>71.0</ele><time>2026-04-26T17:55:39.408Z</time></trkpt><trkpt lat="41.9663454" lon="12.5988886"><ele>71.0</ele><time>2026-04-26T17:55:40.415Z</time></trkpt><trkpt lat="41.9662682" lon="12.5987621"><ele>71.0</ele><time>2026-04-26T17:55:41.413Z</time></trkpt><trkpt lat="41.9661972" lon="12.5986354"><ele>71.0</ele><time>2026-04-26T17:55:42.421Z</time></trkpt><trkpt lat="41.9661373" lon="12.598505"><ele>71.0</ele><time>2026-04-26T17:55:43.413Z</time></trkpt><trkpt lat="41.9660739" lon="12.5984131"><ele>71.0</ele><time>2026-04-26T17:55:44.427Z</time></trkpt><trkpt lat="41.9659965" lon="12.5982933"><ele>70.6</ele><time>2026-04-26T17:55:45.416Z</time></trkpt><trkpt lat="41.965924" lon="12.5981769"><ele>70.19999999999999</ele><time>2026-04-26T17:55:46.418Z</time></trkpt><trkpt lat="41.9658598" lon="12.5980686"><ele>69.80000000000001</ele><time>2026-04-26T17:55:47.418Z</time></trkpt><trkpt lat="41.9658033" lon="12.5979693"><ele>69.4</ele><time>2026-04-26T17:55:48.5Z</time></trkpt><trkpt lat="41.9657443" lon="12.597886"><ele>69.0</ele><time>2026-04-26T17:55:49.418Z</time></trkpt><trkpt lat="41.9656901" lon="12.5978071"><ele>68.83333333333333</ele><time>2026-04-26T17:55:50.418Z</time></trkpt><trkpt lat="41.9656398" lon="12.5977366"><ele>68.66666666666667</ele><time>2026-04-26T17:55:51.582Z</time></trkpt><trkpt lat="41.9655835" lon="12.5976752"><ele>68.5</ele><time>2026-04-26T17:55:52.486Z</time></trkpt><trkpt lat="41.9655265" lon="12.5976133"><ele>68.33333333333334</ele><time>2026-04-26T17:55:53.422Z</time></trkpt><trkpt lat="41.9654699" lon="12.5975649"><ele>68.16666666666667</ele><time>2026-04-26T17:55:54.416Z</time></trkpt><trkpt lat="41.9653914" lon="12.5974905"><ele>68.0</ele><time>2026-04-26T17:55:56.418Z</time></trkpt><trkpt lat="41.9653274" lon="12.5974262"><ele>68.0</ele><time>2026-04-26T17:55:58.427Z</time></trkpt><trkpt lat="41.9652743" lon="12.5973698"><ele>68.0</ele><time>2026-04-26T17:56:00.472Z</time></trkpt><trkpt lat="41.9652247" lon="12.5972994"><ele>68.0</ele><time>2026-04-26T17:56:02.423Z</time></trkpt><trkpt lat="41.9651309" lon="12.5971994"><ele>68.0</ele><time>2026-04-26T17:56:04.426Z</time></trkpt><trkpt lat="41.9650473" lon="12.5971022"><ele>68.0</ele><time>2026-04-26T17:56:06.432Z</time></trkpt><trkpt lat="41.9649748" lon="12.5970132"><ele>67.6</ele><time>2026-04-26T17:56:08.433Z</time></trkpt><trkpt lat="41.9649296" lon="12.5969379"><ele>67.19999999999999</ele><time>2026-04-26T17:56:10.422Z</time></trkpt><trkpt lat="41.9648531" lon="12.5968708"><ele>66.8</ele><time>2026-04-26T17:56:12.42Z</time></trkpt><trkpt lat="41.9647739" lon="12.5967659"><ele>66.39999999999999</ele><time>2026-04-26T17:56:14.452Z</time></trkpt><trkpt lat="41.9646873" lon="12.5966605"><ele>66.0</ele><time>2026-04-26T17:56:16.432Z</time></trkpt><trkpt lat="41.9646354" lon="12.596606"><ele>66.0</ele><time>2026-04-26T17:56:17.435Z</time></trkpt><trkpt lat="41.964585" lon="12.5965547"><ele>66.0</ele><time>2026-04-26T17:56:18.438Z</time></trkpt><trkpt lat="41.9645357" lon="12.5964948"><ele>66.0</ele><time>2026-04-26T17:56:19.436Z</time></trkpt><trkpt lat="41.9644788" lon="12.5964242"><ele>66.0</ele><time>2026-04-26T17:56:20.423Z</time></trkpt><trkpt lat="41.9644185" lon="12.5963586"><ele>66.0</ele><time>2026-04-26T17:56:21.437Z</time></trkpt><trkpt lat="41.9643513" lon="12.5962856"><ele>66.0</ele><time>2026-04-26T17:56:22.437Z</time></trkpt><trkpt lat="41.9642851" lon="12.5962062"><ele>65.8</ele><time>2026-04-26T17:56:23.431Z</time></trkpt><trkpt lat="41.9642082" lon="12.5961147"><ele>65.6</ele><time>2026-04-26T17:56:24.43Z</time></trkpt><trkpt lat="41.9641441" lon="12.5960271"><ele>65.4</ele><time>2026-04-26T17:56:25.432Z</time></trkpt><trkpt lat="41.9640776" lon="12.5959453"><ele>65.2</ele><time>2026-04-26T17:56:26.428Z</time></trkpt><trkpt lat="41.9639973" lon="12.5958532"><ele>65.0</ele><time>2026-04-26T17:56:27.452Z</time></trkpt><trkpt lat="41.9639127" lon="12.5957594"><ele>64.5</ele><time>2026-04-26T17:56:28.444Z</time></trkpt><trkpt lat="41.9638014" lon="12.5956465"><ele>64.0</ele><time>2026-04-26T17:56:29.44Z</time></trkpt><trkpt lat="41.9636964" lon="12.5955192"><ele>63.5</ele><time>2026-04-26T17:56:30.433Z</time></trkpt><trkpt lat="41.96359" lon="12.5954036"><ele>63.0</ele><time>2026-04-26T17:56:31.43Z</time></trkpt><trkpt lat="41.9634878" lon="12.5952942"><ele>62.75</ele><time>2026-04-26T17:56:32.431Z</time></trkpt><trkpt lat="41.9633875" lon="12.5951913"><ele>62.5</ele><time>2026-04-26T17:56:33.429Z</time></trkpt><trkpt lat="41.9632924" lon="12.5950764"><ele>62.25</ele><time>2026-04-26T17:56:34.457Z</time></trkpt><trkpt lat="41.9631974" lon="12.5949631"><ele>62.0</ele><time>2026-04-26T17:56:35.429Z</time></trkpt><trkpt lat="41.9630997" lon="12.5948515"><ele>62.0</ele><time>2026-04-26T17:56:36.427Z</time></trkpt><trkpt lat="41.9630068" lon="12.5947457"><ele>62.0</ele><time>2026-04-26T17:56:37.428Z</time></trkpt><trkpt lat="41.9629131" lon="12.5946525"><ele>62.0</ele><time>2026-04-26T17:56:38.435Z</time></trkpt><trkpt lat="41.9628214" lon="12.5945614"><ele>62.0</ele><time>2026-04-26T17:56:39.428Z</time></trkpt><trkpt lat="41.9627369" lon="12.5944713"><ele>62.0</ele><time>2026-04-26T17:56:40.453Z</time></trkpt><trkpt lat="41.9626544" lon="12.59438"><ele>62.0</ele><time>2026-04-26T17:56:41.437Z</time></trkpt><trkpt lat="41.9625831" lon="12.5942787"><ele>62.0</ele><time>2026-04-26T17:56:42.442Z</time></trkpt><trkpt lat="41.962523" lon="12.5941898"><ele>62.0</ele><time>2026-04-26T17:56:43.424Z</time></trkpt><trkpt lat="41.9624732" lon="12.5941263"><ele>62.0</ele><time>2026-04-26T17:56:44.421Z</time></trkpt><trkpt lat="41.9623927" lon="12.5940771"><ele>62.0</ele><time>2026-04-26T17:56:46.423Z</time></trkpt><trkpt lat="41.9624054" lon="12.594197"><ele>62.0</ele><time>2026-04-26T17:56:49.416Z</time></trkpt><trkpt lat="41.9624768" lon="12.5942868"><ele>62.0</ele><time>2026-04-26T17:56:54.424Z</time></trkpt><trkpt lat="41.9625489" lon="12.594402"><ele>62.0</ele><time>2026-04-26T17:56:56.434Z</time></trkpt><trkpt lat="41.9626055" lon="12.5945008"><ele>62.0</ele><time>2026-04-26T17:56:57.43Z</time></trkpt><trkpt lat="41.9626788" lon="12.5945865"><ele>62.0</ele><time>2026-04-26T17:56:58.433Z</time></trkpt><trkpt lat="41.9627621" lon="12.59467"><ele>62.0</ele><time>2026-04-26T17:56:59.436Z</time></trkpt><trkpt lat="41.9628358" lon="12.5947608"><ele>62.0</ele><time>2026-04-26T17:57:00.442Z</time></trkpt><trkpt lat="41.9629077" lon="12.5948484"><ele>62.0</ele><time>2026-04-26T17:57:01.427Z</time></trkpt><trkpt lat="41.9629735" lon="12.5949255"><ele>62.0</ele><time>2026-04-26T17:57:02.438Z</time></trkpt><trkpt lat="41.9630286" lon="12.5949739"><ele>62.0</ele><time>2026-04-26T17:57:03.431Z</time></trkpt><trkpt lat="41.9631161" lon="12.5950029"><ele>62.0</ele><time>2026-04-26T17:57:05.595Z</time></trkpt><trkpt lat="41.9632862" lon="12.5951408"><ele>62.0</ele><time>2026-04-26T17:57:08.576Z</time></trkpt><trkpt lat="41.9634956" lon="12.5953545"><ele>62.25</ele><time>2026-04-26T17:57:10.427Z</time></trkpt><trkpt lat="41.9635961" lon="12.5954729"><ele>62.5</ele><time>2026-04-26T17:57:11.447Z</time></trkpt><trkpt lat="41.9636818" lon="12.5955769"><ele>62.75</ele><time>2026-04-26T17:57:12.425Z</time></trkpt><trkpt lat="41.9637755" lon="12.5956882"><ele>63.0</ele><time>2026-04-26T17:57:13.594Z</time></trkpt><trkpt lat="41.9639578" lon="12.5959364"><ele>63.0</ele><time>2026-04-26T17:57:15.449Z</time></trkpt><trkpt lat="41.96404" lon="12.596027"><ele>63.0</ele><time>2026-04-26T17:57:16.432Z</time></trkpt><trkpt lat="41.9641101" lon="12.5961022"><ele>63.0</ele><time>2026-04-26T17:57:17.425Z</time></trkpt><trkpt lat="41.9641795" lon="12.5961917"><ele>63.0</ele><time>2026-04-26T17:57:18.424Z</time></trkpt><trkpt lat="41.9642339" lon="12.5962555"><ele>63.0</ele><time>2026-04-26T17:57:19.574Z</time></trkpt><trkpt lat="41.964272" lon="12.5965039"><ele>63.75</ele><time>2026-04-26T17:57:22.42Z</time></trkpt><trkpt lat="41.9642383" lon="12.596651"><ele>64.5</ele><time>2026-04-26T17:57:23.429Z</time></trkpt><trkpt lat="41.9642443" lon="12.5967825"><ele>65.25</ele><time>2026-04-26T17:57:24.441Z</time></trkpt><trkpt lat="41.9641936" lon="12.5969776"><ele>66.0</ele><time>2026-04-26T17:57:25.435Z</time></trkpt><trkpt lat="41.9641276" lon="12.5971698"><ele>66.66666666666667</ele><time>2026-04-26T17:57:26.453Z</time></trkpt><trkpt lat="41.964045" lon="12.5974167"><ele>67.33333333333334</ele><time>2026-04-26T17:57:27.437Z</time></trkpt><trkpt lat="41.96395" lon="12.5976532"><ele>68.0</ele><time>2026-04-26T17:57:28.424Z</time></trkpt><trkpt lat="41.9638543" lon="12.5978838"><ele>68.33333333333334</ele><time>2026-04-26T17:57:29.43Z</time></trkpt><trkpt lat="41.9637503" lon="12.5980997"><ele>68.66666666666667</ele><time>2026-04-26T17:57:30.435Z</time></trkpt><trkpt lat="41.9636267" lon="12.5983335"><ele>69.0</ele><time>2026-04-26T17:57:31.44Z</time></trkpt><trkpt lat="41.9634884" lon="12.5985543"><ele>68.5</ele><time>2026-04-26T17:57:32.433Z</time></trkpt><trkpt lat="41.96338" lon="12.5988154"><ele>68.0</ele><time>2026-04-26T17:57:33.43Z</time></trkpt><trkpt lat="41.9632645" lon="12.5990981"><ele>67.33333333333334</ele><time>2026-04-26T17:57:34.423Z</time></trkpt><trkpt lat="41.9631502" lon="12.5993484"><ele>66.66666666666667</ele><time>2026-04-26T17:57:35.431Z</time></trkpt><trkpt lat="41.9630685" lon="12.5995974"><ele>66.0</ele><time>2026-04-26T17:57:36.431Z</time></trkpt><trkpt lat="41.963007" lon="12.5998426"><ele>65.33333333333333</ele><time>2026-04-26T17:57:37.429Z</time></trkpt><trkpt lat="41.9629237" lon="12.6000858"><ele>64.66666666666666</ele><time>2026-04-26T17:57:38.427Z</time></trkpt><trkpt lat="41.9628314" lon="12.6003382"><ele>64.0</ele><time>2026-04-26T17:57:39.428Z</time></trkpt><trkpt lat="41.9627485" lon="12.6005788"><ele>64.33333333333333</ele><time>2026-04-26T17:57:40.428Z</time></trkpt><trkpt lat="41.9626947" lon="12.6008146"><ele>64.66666666666667</ele><time>2026-04-26T17:57:41.504Z</time></trkpt><trkpt lat="41.9625843" lon="12.6010294"><ele>65.0</ele><time>2026-04-26T17:57:42.422Z</time></trkpt><trkpt lat="41.9624612" lon="12.6012349"><ele>65.0</ele><time>2026-04-26T17:57:43.443Z</time></trkpt><trkpt lat="41.9623125" lon="12.6014509"><ele>65.0</ele><time>2026-04-26T17:57:44.471Z</time></trkpt><trkpt lat="41.9621469" lon="12.601689"><ele>65.0</ele><time>2026-04-26T17:57:45.426Z</time></trkpt><trkpt lat="41.9620005" lon="12.6019293"><ele>65.0</ele><time>2026-04-26T17:57:46.424Z</time></trkpt><trkpt lat="41.961842" lon="12.6021224"><ele>65.0</ele><time>2026-04-26T17:57:47.455Z</time></trkpt><trkpt lat="41.9617123" lon="12.6023089"><ele>65.33333333333334</ele><time>2026-04-26T17:57:48.433Z</time></trkpt><trkpt lat="41.9615787" lon="12.6024812"><ele>65.66666666666667</ele><time>2026-04-26T17:57:49.433Z</time></trkpt><trkpt lat="41.9614413" lon="12.602638"><ele>66.0</ele><time>2026-04-26T17:57:50.432Z</time></trkpt><trkpt lat="41.9613303" lon="12.6028031"><ele>66.33333333333333</ele><time>2026-04-26T17:57:51.43Z</time></trkpt><trkpt lat="41.9612232" lon="12.6029589"><ele>66.66666666666666</ele><time>2026-04-26T17:57:52.427Z</time></trkpt><trkpt lat="41.9611132" lon="12.6031125"><ele>67.0</ele><time>2026-04-26T17:57:53.432Z</time></trkpt><trkpt lat="41.9610018" lon="12.6032214"><ele>67.0</ele><time>2026-04-26T17:57:54.427Z</time></trkpt><trkpt lat="41.9609091" lon="12.6033277"><ele>67.0</ele><time>2026-04-26T17:57:55.423Z</time></trkpt><trkpt lat="41.960823" lon="12.6034367"><ele>67.0</ele><time>2026-04-26T17:57:56.425Z</time></trkpt><trkpt lat="41.9607532" lon="12.6036095"><ele>67.0</ele><time>2026-04-26T17:57:57.423Z</time></trkpt><trkpt lat="41.9606866" lon="12.6038455"><ele>66.33333333333333</ele><time>2026-04-26T17:57:58.42Z</time></trkpt><trkpt lat="41.9606516" lon="12.6041427"><ele>65.66666666666667</ele><time>2026-04-26T17:57:59.419Z</time></trkpt><trkpt lat="41.9606039" lon="12.6044038"><ele>65.0</ele><time>2026-04-26T17:58:00.426Z</time></trkpt><trkpt lat="41.9605396" lon="12.6046723"><ele>64.33333333333334</ele><time>2026-04-26T17:58:01.44Z</time></trkpt><trkpt lat="41.9604725" lon="12.6049264"><ele>63.66666666666667</ele><time>2026-04-26T17:58:02.437Z</time></trkpt><trkpt lat="41.960431" lon="12.6051555"><ele>63.0</ele><time>2026-04-26T17:58:03.43Z</time></trkpt><trkpt lat="41.9603775" lon="12.6053731"><ele>62.66666666666667</ele><time>2026-04-26T17:58:04.427Z</time></trkpt><trkpt lat="41.9603168" lon="12.605567"><ele>62.333333333333336</ele><time>2026-04-26T17:58:05.433Z</time></trkpt><trkpt lat="41.9602355" lon="12.6057428"><ele>62.0</ele><time>2026-04-26T17:58:06.438Z</time></trkpt><trkpt lat="41.9601754" lon="12.6059171"><ele>62.0</ele><time>2026-04-26T17:58:07.425Z</time></trkpt><trkpt lat="41.9601021" lon="12.6060891"><ele>62.0</ele><time>2026-04-26T17:58:08.433Z</time></trkpt><trkpt lat="41.9600655" lon="12.6062679"><ele>62.0</ele><time>2026-04-26T17:58:09.428Z</time></trkpt><trkpt lat="41.9600195" lon="12.6064526"><ele>62.0</ele><time>2026-04-26T17:58:10.429Z</time></trkpt><trkpt lat="41.9599719" lon="12.6066174"><ele>61.5</ele><time>2026-04-26T17:58:11.436Z</time></trkpt><trkpt lat="41.9599246" lon="12.6067664"><ele>61.0</ele><time>2026-04-26T17:58:12.427Z</time></trkpt><trkpt lat="41.9598814" lon="12.6069064"><ele>60.5</ele><time>2026-04-26T17:58:13.435Z</time></trkpt><trkpt lat="41.9598146" lon="12.6070477"><ele>60.0</ele><time>2026-04-26T17:58:14.433Z</time></trkpt><trkpt lat="41.9597764" lon="12.6071981"><ele>60.0</ele><time>2026-04-26T17:58:15.43Z</time></trkpt><trkpt lat="41.9596851" lon="12.607305"><ele>60.0</ele><time>2026-04-26T17:58:16.425Z</time></trkpt><trkpt lat="41.959627" lon="12.6074144"><ele>60.0</ele><time>2026-04-26T17:58:17.431Z</time></trkpt><trkpt lat="41.9595549" lon="12.6074781"><ele>60.0</ele><time>2026-04-26T17:58:18.429Z</time></trkpt><trkpt lat="41.9594967" lon="12.6075161"><ele>60.0</ele><time>2026-04-26T17:58:19.417Z</time></trkpt><trkpt lat="41.9594201" lon="12.6075428"><ele>60.0</ele><time>2026-04-26T17:58:20.435Z</time></trkpt><trkpt lat="41.9593322" lon="12.6075443"><ele>60.0</ele><time>2026-04-26T17:58:21.419Z</time></trkpt><trkpt lat="41.9592293" lon="12.607466"><ele>60.0</ele><time>2026-04-26T17:58:22.454Z</time></trkpt><trkpt lat="41.959146" lon="12.6073217"><ele>60.0</ele><time>2026-04-26T17:58:23.441Z</time></trkpt><trkpt lat="41.9590671" lon="12.6071519"><ele>59.66666666666667</ele><time>2026-04-26T17:58:24.428Z</time></trkpt><trkpt lat="41.9589911" lon="12.6069553"><ele>59.333333333333336</ele><time>2026-04-26T17:58:25.43Z</time></trkpt><trkpt lat="41.9588985" lon="12.6066933"><ele>59.0</ele><time>2026-04-26T17:58:26.424Z</time></trkpt><trkpt lat="41.9587969" lon="12.6064135"><ele>58.5</ele><time>2026-04-26T17:58:27.44Z</time></trkpt><trkpt lat="41.9587149" lon="12.6061147"><ele>58.0</ele><time>2026-04-26T17:58:28.43Z</time></trkpt><trkpt lat="41.9586441" lon="12.6058342"><ele>58.0</ele><time>2026-04-26T17:58:29.439Z</time></trkpt><trkpt lat="41.9585417" lon="12.6055752"><ele>58.0</ele><time>2026-04-26T17:58:30.513Z</time></trkpt><trkpt lat="41.9584491" lon="12.6053119"><ele>58.0</ele><time>2026-04-26T17:58:31.451Z</time></trkpt><trkpt lat="41.958344" lon="12.6050208"><ele>56.0</ele><time>2026-04-26T17:58:32.434Z</time></trkpt><trkpt lat="41.9582307" lon="12.6047495"><ele>54.0</ele><time>2026-04-26T17:58:33.429Z</time></trkpt><trkpt lat="41.9581193" lon="12.604494"><ele>54.0</ele><time>2026-04-26T17:58:34.417Z</time></trkpt><trkpt lat="41.957965" lon="12.604222"><ele>54.0</ele><time>2026-04-26T17:58:35.428Z</time></trkpt><trkpt lat="41.9578254" lon="12.6040046"><ele>54.0</ele><time>2026-04-26T17:58:36.423Z</time></trkpt><trkpt lat="41.9576678" lon="12.6038183"><ele>54.0</ele><time>2026-04-26T17:58:37.448Z</time></trkpt><trkpt lat="41.957494" lon="12.6036757"><ele>54.0</ele><time>2026-04-26T17:58:38.432Z</time></trkpt><trkpt lat="41.9572873" lon="12.6035547"><ele>54.5</ele><time>2026-04-26T17:58:39.43Z</time></trkpt><trkpt lat="41.9570762" lon="12.6034463"><ele>55.0</ele><time>2026-04-26T17:58:40.433Z</time></trkpt><trkpt lat="41.9568286" lon="12.6033675"><ele>56.0</ele><time>2026-04-26T17:58:41.433Z</time></trkpt><trkpt lat="41.9566005" lon="12.6033077"><ele>57.0</ele><time>2026-04-26T17:58:42.433Z</time></trkpt><trkpt lat="41.956326" lon="12.6032508"><ele>57.0</ele><time>2026-04-26T17:58:43.434Z</time></trkpt><trkpt lat="41.9560546" lon="12.6031978"><ele>57.0</ele><time>2026-04-26T17:58:44.435Z</time></trkpt><trkpt lat="41.9558041" lon="12.6031421"><ele>57.5</ele><time>2026-04-26T17:58:45.431Z</time></trkpt><trkpt lat="41.9555448" lon="12.6030656"><ele>58.0</ele><time>2026-04-26T17:58:46.434Z</time></trkpt><trkpt lat="41.9552848" lon="12.6029781"><ele>58.0</ele><time>2026-04-26T17:58:47.431Z</time></trkpt><trkpt lat="41.9550323" lon="12.6028723"><ele>58.0</ele><time>2026-04-26T17:58:48.444Z</time></trkpt><trkpt lat="41.9547644" lon="12.6027616"><ele>58.0</ele><time>2026-04-26T17:58:49.43Z</time></trkpt><trkpt lat="41.9545264" lon="12.6026128"><ele>58.0</ele><time>2026-04-26T17:58:50.435Z</time></trkpt><trkpt lat="41.954303" lon="12.6024755"><ele>56.0</ele><time>2026-04-26T17:58:51.453Z</time></trkpt><trkpt lat="41.9540858" lon="12.6023337"><ele>54.0</ele><time>2026-04-26T17:58:52.433Z</time></trkpt><trkpt lat="41.9538822" lon="12.6021782"><ele>57.0</ele><time>2026-04-26T17:58:53.427Z</time></trkpt><trkpt lat="41.953669" lon="12.601997"><ele>60.0</ele><time>2026-04-26T17:58:54.439Z</time></trkpt><trkpt lat="41.9534251" lon="12.6018189"><ele>55.5</ele><time>2026-04-26T17:58:55.434Z</time></trkpt><trkpt lat="41.9531706" lon="12.601641"><ele>51.0</ele><time>2026-04-26T17:58:56.431Z</time></trkpt><trkpt lat="41.9529119" lon="12.6014686"><ele>51.0</ele><time>2026-04-26T17:58:57.434Z</time></trkpt><trkpt lat="41.9526847" lon="12.6013151"><ele>51.0</ele><time>2026-04-26T17:58:58.438Z</time></trkpt><trkpt lat="41.9524797" lon="12.6011532"><ele>50.5</ele><time>2026-04-26T17:58:59.436Z</time></trkpt><trkpt lat="41.952277" lon="12.6009976"><ele>50.0</ele><time>2026-04-26T17:59:00.441Z</time></trkpt><trkpt lat="41.952072" lon="12.6008385"><ele>50.0</ele><time>2026-04-26T17:59:01.452Z</time></trkpt><trkpt lat="41.9518595" lon="12.600679"><ele>50.0</ele><time>2026-04-26T17:59:02.439Z</time></trkpt><trkpt lat="41.9516169" lon="12.6005139"><ele>49.0</ele><time>2026-04-26T17:59:03.435Z</time></trkpt><trkpt lat="41.9513564" lon="12.6003292"><ele>48.0</ele><time>2026-04-26T17:59:04.423Z</time></trkpt><trkpt lat="41.9511006" lon="12.6001415"><ele>48.5</ele><time>2026-04-26T17:59:05.441Z</time></trkpt><trkpt lat="41.9508341" lon="12.5999384"><ele>49.0</ele><time>2026-04-26T17:59:06.43Z</time></trkpt><trkpt lat="41.9505741" lon="12.5997286"><ele>49.0</ele><time>2026-04-26T17:59:07.429Z</time></trkpt><trkpt lat="41.9503437" lon="12.5995575"><ele>49.0</ele><time>2026-04-26T17:59:08.428Z</time></trkpt><trkpt lat="41.9501185" lon="12.5994043"><ele>48.5</ele><time>2026-04-26T17:59:09.438Z</time></trkpt><trkpt lat="41.9499129" lon="12.5992676"><ele>48.0</ele><time>2026-04-26T17:59:10.435Z</time></trkpt><trkpt lat="41.9496977" lon="12.5991057"><ele>48.0</ele><time>2026-04-26T17:59:11.435Z</time></trkpt><trkpt lat="41.9495119" lon="12.5989256"><ele>48.0</ele><time>2026-04-26T17:59:12.434Z</time></trkpt><trkpt lat="41.9493434" lon="12.5987381"><ele>48.0</ele><time>2026-04-26T17:59:13.427Z</time></trkpt><trkpt lat="41.9491375" lon="12.5985138"><ele>47.5</ele><time>2026-04-26T17:59:14.431Z</time></trkpt><trkpt lat="41.9489281" lon="12.5982888"><ele>47.0</ele><time>2026-04-26T17:59:15.425Z</time></trkpt><trkpt lat="41.9487046" lon="12.5980484"><ele>46.0</ele><time>2026-04-26T17:59:16.43Z</time></trkpt><trkpt lat="41.9485434" lon="12.5977929"><ele>45.0</ele><time>2026-04-26T17:59:17.431Z</time></trkpt><trkpt lat="41.9484286" lon="12.5975274"><ele>45.0</ele><time>2026-04-26T17:59:18.437Z</time></trkpt><trkpt lat="41.9483194" lon="12.597251"><ele>45.0</ele><time>2026-04-26T17:59:19.421Z</time></trkpt><trkpt lat="41.9481966" lon="12.5969331"><ele>43.5</ele><time>2026-04-26T17:59:20.436Z</time></trkpt><trkpt lat="41.9480519" lon="12.5966458"><ele>42.0</ele><time>2026-04-26T17:59:21.43Z</time></trkpt><trkpt lat="41.94791" lon="12.5963734"><ele>41.0</ele><time>2026-04-26T17:59:22.431Z</time></trkpt><trkpt lat="41.9477694" lon="12.5961171"><ele>40.0</ele><time>2026-04-26T17:59:23.426Z</time></trkpt><trkpt lat="41.947638" lon="12.5958725"><ele>39.66666666666667</ele><time>2026-04-26T17:59:24.43Z</time></trkpt><trkpt lat="41.9475196" lon="12.5956276"><ele>39.333333333333336</ele><time>2026-04-26T17:59:25.425Z</time></trkpt><trkpt lat="41.9474059" lon="12.5953919"><ele>39.0</ele><time>2026-04-26T17:59:26.437Z</time></trkpt><trkpt lat="41.9473112" lon="12.5951385"><ele>39.333333333333336</ele><time>2026-04-26T17:59:27.429Z</time></trkpt><trkpt lat="41.9472185" lon="12.5949054"><ele>39.66666666666667</ele><time>2026-04-26T17:59:28.432Z</time></trkpt><trkpt lat="41.9471349" lon="12.594673"><ele>40.0</ele><time>2026-04-26T17:59:29.435Z</time></trkpt><trkpt lat="41.9470702" lon="12.5944482"><ele>40.0</ele><time>2026-04-26T17:59:30.433Z</time></trkpt><trkpt lat="41.9470166" lon="12.5942368"><ele>40.0</ele><time>2026-04-26T17:59:31.437Z</time></trkpt><trkpt lat="41.9469605" lon="12.5940238"><ele>40.0</ele><time>2026-04-26T17:59:32.457Z</time></trkpt><trkpt lat="41.9468996" lon="12.5938083"><ele>40.0</ele><time>2026-04-26T17:59:33.433Z</time></trkpt><trkpt lat="41.9468264" lon="12.5935879"><ele>40.0</ele><time>2026-04-26T17:59:34.432Z</time></trkpt><trkpt lat="41.9467578" lon="12.5933568"><ele>40.0</ele><time>2026-04-26T17:59:35.441Z</time></trkpt><trkpt lat="41.9466801" lon="12.5931285"><ele>40.0</ele><time>2026-04-26T17:59:36.442Z</time></trkpt><trkpt lat="41.9465932" lon="12.5929101"><ele>40.0</ele><time>2026-04-26T17:59:37.441Z</time></trkpt><trkpt lat="41.9464939" lon="12.592697"><ele>40.0</ele><time>2026-04-26T17:59:38.446Z</time></trkpt><trkpt lat="41.9464043" lon="12.5924786"><ele>40.66666666666667</ele><time>2026-04-26T17:59:39.438Z</time></trkpt><trkpt lat="41.9463116" lon="12.5922485"><ele>41.333333333333336</ele><time>2026-04-26T17:59:40.433Z</time></trkpt><trkpt lat="41.9462211" lon="12.5920345"><ele>42.0</ele><time>2026-04-26T17:59:41.432Z</time></trkpt><trkpt lat="41.9461491" lon="12.5918528"><ele>42.0</ele><time>2026-04-26T17:59:42.436Z</time></trkpt><trkpt lat="41.946062" lon="12.5916595"><ele>42.0</ele><time>2026-04-26T17:59:43.429Z</time></trkpt><trkpt lat="41.9459695" lon="12.5914532"><ele>42.0</ele><time>2026-04-26T17:59:44.435Z</time></trkpt><trkpt lat="41.9458479" lon="12.5912501"><ele>41.75</ele><time>2026-04-26T17:59:45.422Z</time></trkpt><trkpt lat="41.94577" lon="12.5910883"><ele>41.5</ele><time>2026-04-26T17:59:46.435Z</time></trkpt><trkpt lat="41.9456846" lon="12.5909227"><ele>41.25</ele><time>2026-04-26T17:59:47.429Z</time></trkpt><trkpt lat="41.9455933" lon="12.5907697"><ele>41.0</ele><time>2026-04-26T17:59:48.427Z</time></trkpt><trkpt lat="41.9455313" lon="12.5905761"><ele>41.0</ele><time>2026-04-26T17:59:49.425Z</time></trkpt><trkpt lat="41.945441" lon="12.5904083"><ele>41.0</ele><time>2026-04-26T17:59:50.421Z</time></trkpt><trkpt lat="41.9453843" lon="12.5902541"><ele>41.0</ele><time>2026-04-26T17:59:51.423Z</time></trkpt><trkpt lat="41.9453127" lon="12.5901135"><ele>41.0</ele><time>2026-04-26T17:59:52.433Z</time></trkpt><trkpt lat="41.9452481" lon="12.5899687"><ele>41.0</ele><time>2026-04-26T17:59:53.426Z</time></trkpt><trkpt lat="41.9451861" lon="12.5898327"><ele>41.0</ele><time>2026-04-26T17:59:54.433Z</time></trkpt><trkpt lat="41.9451504" lon="12.5896991"><ele>41.0</ele><time>2026-04-26T17:59:55.431Z</time></trkpt><trkpt lat="41.9451404" lon="12.5895637"><ele>41.0</ele><time>2026-04-26T17:59:56.427Z</time></trkpt><trkpt lat="41.9451433" lon="12.589414"><ele>41.0</ele><time>2026-04-26T17:59:57.418Z</time></trkpt><trkpt lat="41.9451604" lon="12.5892833"><ele>41.166666666666664</ele><time>2026-04-26T17:59:58.423Z</time></trkpt><trkpt lat="41.9451988" lon="12.5891724"><ele>41.33333333333333</ele><time>2026-04-26T17:59:59.428Z</time></trkpt><trkpt lat="41.9452445" lon="12.5890789"><ele>41.5</ele><time>2026-04-26T18:00:00.421Z</time></trkpt><trkpt lat="41.945294" lon="12.5889905"><ele>41.666666666666664</ele><time>2026-04-26T18:00:01.512Z</time></trkpt><trkpt lat="41.9453342" lon="12.5889129"><ele>41.833333333333336</ele><time>2026-04-26T18:00:02.428Z</time></trkpt><trkpt lat="41.9453844" lon="12.5888408"><ele>42.0</ele><time>2026-04-26T18:00:03.421Z</time></trkpt><trkpt lat="41.945426" lon="12.5887723"><ele>42.0</ele><time>2026-04-26T18:00:04.422Z</time></trkpt><trkpt lat="41.9454673" lon="12.5887066"><ele>42.0</ele><time>2026-04-26T18:00:05.44Z</time></trkpt><trkpt lat="41.9455214" lon="12.5886037"><ele>42.0</ele><time>2026-04-26T18:00:07.429Z</time></trkpt><trkpt lat="41.9455371" lon="12.5884751"><ele>42.0</ele><time>2026-04-26T18:00:09.439Z</time></trkpt><trkpt lat="41.9455116" lon="12.5883855"><ele>42.0</ele><time>2026-04-26T18:00:10.426Z</time></trkpt><trkpt lat="41.94545" lon="12.5882823"><ele>42.0</ele><time>2026-04-26T18:00:11.429Z</time></trkpt><trkpt lat="41.9453669" lon="12.5881987"><ele>42.25</ele><time>2026-04-26T18:00:12.412Z</time></trkpt><trkpt lat="41.9452667" lon="12.5881354"><ele>42.5</ele><time>2026-04-26T18:00:13.441Z</time></trkpt><trkpt lat="41.945154" lon="12.5880854"><ele>42.75</ele><time>2026-04-26T18:00:14.424Z</time></trkpt><trkpt lat="41.9450294" lon="12.588048"><ele>43.0</ele><time>2026-04-26T18:00:15.42Z</time></trkpt><trkpt lat="41.9449047" lon="12.5880161"><ele>42.4</ele><time>2026-04-26T18:00:16.433Z</time></trkpt><trkpt lat="41.9447803" lon="12.5879909"><ele>41.8</ele><time>2026-04-26T18:00:17.431Z</time></trkpt><trkpt lat="41.9446619" lon="12.5879759"><ele>41.2</ele><time>2026-04-26T18:00:18.43Z</time></trkpt><trkpt lat="41.9445572" lon="12.5879689"><ele>40.6</ele><time>2026-04-26T18:00:19.433Z</time></trkpt><trkpt lat="41.9444632" lon="12.5879604"><ele>40.0</ele><time>2026-04-26T18:00:20.424Z</time></trkpt><trkpt lat="41.9443735" lon="12.5879298"><ele>40.0</ele><time>2026-04-26T18:00:21.426Z</time></trkpt><trkpt lat="41.944308" lon="12.5878485"><ele>40.0</ele><time>2026-04-26T18:00:22.455Z</time></trkpt><trkpt lat="41.9442767" lon="12.5877659"><ele>40.0</ele><time>2026-04-26T18:00:23.446Z</time></trkpt><trkpt lat="41.9442799" lon="12.5876778"><ele>40.0</ele><time>2026-04-26T18:00:24.431Z</time></trkpt><trkpt lat="41.9443113" lon="12.5875865"><ele>40.0</ele><time>2026-04-26T18:00:25.428Z</time></trkpt><trkpt lat="41.9443563" lon="12.5874968"><ele>40.0</ele><time>2026-04-26T18:00:26.432Z</time></trkpt><trkpt lat="41.9444194" lon="12.5873942"><ele>40.6</ele><time>2026-04-26T18:00:27.421Z</time></trkpt><trkpt lat="41.9444777" lon="12.5872723"><ele>41.2</ele><time>2026-04-26T18:00:28.428Z</time></trkpt><trkpt lat="41.9445332" lon="12.5871531"><ele>41.8</ele><time>2026-04-26T18:00:29.432Z</time></trkpt><trkpt lat="41.9445859" lon="12.5870433"><ele>42.4</ele><time>2026-04-26T18:00:30.43Z</time></trkpt><trkpt lat="41.9446266" lon="12.5869485"><ele>43.0</ele><time>2026-04-26T18:00:31.433Z</time></trkpt><trkpt lat="41.9446557" lon="12.586871"><ele>43.333333333333336</ele><time>2026-04-26T18:00:32.427Z</time></trkpt><trkpt lat="41.9446518" lon="12.5867361"><ele>43.66666666666667</ele><time>2026-04-26T18:00:34.418Z</time></trkpt><trkpt lat="41.9445792" lon="12.5866573"><ele>44.0</ele><time>2026-04-26T18:00:36.441Z</time></trkpt><trkpt lat="41.944519" lon="12.5866215"><ele>44.333333333333336</ele><time>2026-04-26T18:00:37.423Z</time></trkpt><trkpt lat="41.9444706" lon="12.5865559"><ele>44.666666666666664</ele><time>2026-04-26T18:00:38.425Z</time></trkpt><trkpt lat="41.944415" lon="12.5864801"><ele>45.0</ele><time>2026-04-26T18:00:39.428Z</time></trkpt><trkpt lat="41.9443684" lon="12.5864006"><ele>45.0</ele><time>2026-04-26T18:00:40.427Z</time></trkpt><trkpt lat="41.9443207" lon="12.586321"><ele>45.0</ele><time>2026-04-26T18:00:41.421Z</time></trkpt><trkpt lat="41.9442652" lon="12.5862455"><ele>45.0</ele><time>2026-04-26T18:00:42.436Z</time></trkpt><trkpt lat="41.9442002" lon="12.5861797"><ele>45.0</ele><time>2026-04-26T18:00:43.422Z</time></trkpt><trkpt lat="41.944124" lon="12.5861311"><ele>45.0</ele><time>2026-04-26T18:00:44.432Z</time></trkpt><trkpt lat="41.9440412" lon="12.5861022"><ele>45.0</ele><time>2026-04-26T18:00:45.439Z</time></trkpt><trkpt lat="41.9439535" lon="12.5860866"><ele>43.833333333333336</ele><time>2026-04-26T18:00:46.424Z</time></trkpt><trkpt lat="41.9438645" lon="12.5860717"><ele>42.666666666666664</ele><time>2026-04-26T18:00:47.422Z</time></trkpt><trkpt lat="41.9437861" lon="12.5860501"><ele>41.5</ele><time>2026-04-26T18:00:48.421Z</time></trkpt><trkpt lat="41.9437148" lon="12.5860198"><ele>40.33333333333333</ele><time>2026-04-26T18:00:49.43Z</time></trkpt><trkpt lat="41.9436432" lon="12.5859964"><ele>39.166666666666664</ele><time>2026-04-26T18:00:50.43Z</time></trkpt><trkpt lat="41.9435646" lon="12.5859859"><ele>38.0</ele><time>2026-04-26T18:00:51.455Z</time></trkpt><trkpt lat="41.9434904" lon="12.5859922"><ele>38.0</ele><time>2026-04-26T18:00:52.434Z</time></trkpt><trkpt lat="41.9434155" lon="12.5860164"><ele>38.0</ele><time>2026-04-26T18:00:53.431Z</time></trkpt><trkpt lat="41.9433453" lon="12.5860472"><ele>38.0</ele><time>2026-04-26T18:00:54.433Z</time></trkpt><trkpt lat="41.943282" lon="12.5860747"><ele>38.0</ele><time>2026-04-26T18:00:55.427Z</time></trkpt><trkpt lat="41.9431612" lon="12.5861085"><ele>38.0</ele><time>2026-04-26T18:00:57.432Z</time></trkpt><trkpt lat="41.9430954" lon="12.5861098"><ele>38.0</ele><time>2026-04-26T18:00:58.428Z</time></trkpt><trkpt lat="41.943026" lon="12.5861045"><ele>37.83333333333333</ele><time>2026-04-26T18:00:59.436Z</time></trkpt><trkpt lat="41.9429486" lon="12.5860989"><ele>37.666666666666664</ele><time>2026-04-26T18:01:00.431Z</time></trkpt><trkpt lat="41.942875" lon="12.5860903"><ele>37.5</ele><time>2026-04-26T18:01:01.439Z</time></trkpt><trkpt lat="41.9427934" lon="12.586064"><ele>37.333333333333336</ele><time>2026-04-26T18:01:02.436Z</time></trkpt><trkpt lat="41.9427038" lon="12.5860317"><ele>37.16666666666667</ele><time>2026-04-26T18:01:03.433Z</time></trkpt><trkpt lat="41.9426057" lon="12.5859975"><ele>37.0</ele><time>2026-04-26T18:01:04.427Z</time></trkpt><trkpt lat="41.9425026" lon="12.5859545"><ele>36.800000000000004</ele><time>2026-04-26T18:01:05.436Z</time></trkpt><trkpt lat="41.9423953" lon="12.5859141"><ele>36.6</ele><time>2026-04-26T18:01:06.429Z</time></trkpt><trkpt lat="41.9422949" lon="12.5858762"><ele>36.400000000000006</ele><time>2026-04-26T18:01:07.427Z</time></trkpt><trkpt lat="41.9422104" lon="12.5858376"><ele>36.2</ele><time>2026-04-26T18:01:08.426Z</time></trkpt><trkpt lat="41.9421396" lon="12.5858027"><ele>36.0</ele><time>2026-04-26T18:01:09.445Z</time></trkpt><trkpt lat="41.9420717" lon="12.5857682"><ele>36.0</ele><time>2026-04-26T18:01:10.427Z</time></trkpt><trkpt lat="41.9420114" lon="12.5857324"><ele>36.0</ele><time>2026-04-26T18:01:11.423Z</time></trkpt><trkpt lat="41.9419147" lon="12.5856574"><ele>36.0</ele><time>2026-04-26T18:01:13.433Z</time></trkpt><trkpt lat="41.9418588" lon="12.5856111"><ele>36.0</ele><time>2026-04-26T18:01:14.424Z</time></trkpt><trkpt lat="41.9417908" lon="12.5855431"><ele>36.0</ele><time>2026-04-26T18:01:15.422Z</time></trkpt><trkpt lat="41.9417028" lon="12.5854583"><ele>36.0</ele><time>2026-04-26T18:01:16.415Z</time></trkpt><trkpt lat="41.9416196" lon="12.585355"><ele>37.0</ele><time>2026-04-26T18:01:17.415Z</time></trkpt><trkpt lat="41.9415065" lon="12.5852416"><ele>38.0</ele><time>2026-04-26T18:01:18.423Z</time></trkpt><trkpt lat="41.9414035" lon="12.5851417"><ele>39.0</ele><time>2026-04-26T18:01:19.428Z</time></trkpt><trkpt lat="41.9413126" lon="12.5850439"><ele>40.0</ele><time>2026-04-26T18:01:20.437Z</time></trkpt><trkpt lat="41.941227" lon="12.5849496"><ele>40.0</ele><time>2026-04-26T18:01:21.43Z</time></trkpt><trkpt lat="41.941157" lon="12.5848664"><ele>40.0</ele><time>2026-04-26T18:01:22.421Z</time></trkpt><trkpt lat="41.9410859" lon="12.5847804"><ele>40.0</ele><time>2026-04-26T18:01:23.431Z</time></trkpt><trkpt lat="41.9410209" lon="12.5847083"><ele>40.0</ele><time>2026-04-26T18:01:24.418Z</time></trkpt><trkpt lat="41.9409698" lon="12.5846462"><ele>40.0</ele><time>2026-04-26T18:01:25.42Z</time></trkpt><trkpt lat="41.9408869" lon="12.5845359"><ele>39.25</ele><time>2026-04-26T18:01:27.442Z</time></trkpt><trkpt lat="41.9408285" lon="12.584454"><ele>38.5</ele><time>2026-04-26T18:01:28.429Z</time></trkpt><trkpt lat="41.940753" lon="12.5843487"><ele>37.75</ele><time>2026-04-26T18:01:29.444Z</time></trkpt><trkpt lat="41.9406501" lon="12.5842222"><ele>37.0</ele><time>2026-04-26T18:01:30.438Z</time></trkpt><trkpt lat="41.940529" lon="12.5840936"><ele>37.0</ele><time>2026-04-26T18:01:31.437Z</time></trkpt><trkpt lat="41.9403801" lon="12.5839224"><ele>37.0</ele><time>2026-04-26T18:01:32.435Z</time></trkpt><trkpt lat="41.9402304" lon="12.5837558"><ele>37.0</ele><time>2026-04-26T18:01:33.433Z</time></trkpt><trkpt lat="41.9401081" lon="12.5836134"><ele>37.0</ele><time>2026-04-26T18:01:34.437Z</time></trkpt><trkpt lat="41.9400127" lon="12.5834911"><ele>37.0</ele><time>2026-04-26T18:01:35.44Z</time></trkpt><trkpt lat="41.9398994" lon="12.5833676"><ele>37.0</ele><time>2026-04-26T18:01:36.432Z</time></trkpt><trkpt lat="41.9397598" lon="12.5832481"><ele>37.0</ele><time>2026-04-26T18:01:37.437Z</time></trkpt><trkpt lat="41.9396268" lon="12.5831253"><ele>37.0</ele><time>2026-04-26T18:01:38.435Z</time></trkpt><trkpt lat="41.9395437" lon="12.5830304"><ele>37.0</ele><time>2026-04-26T18:01:39.426Z</time></trkpt><trkpt lat="41.9394376" lon="12.5828792"><ele>37.0</ele><time>2026-04-26T18:01:40.432Z</time></trkpt><trkpt lat="41.9393585" lon="12.5827815"><ele>37.0</ele><time>2026-04-26T18:01:41.421Z</time></trkpt><trkpt lat="41.9392856" lon="12.5827307"><ele>37.4</ele><time>2026-04-26T18:01:42.422Z</time></trkpt><trkpt lat="41.9391979" lon="12.5826587"><ele>37.800000000000004</ele><time>2026-04-26T18:01:43.424Z</time></trkpt><trkpt lat="41.9391081" lon="12.5825921"><ele>38.2</ele><time>2026-04-26T18:01:44.425Z</time></trkpt><trkpt lat="41.9390277" lon="12.5825211"><ele>38.6</ele><time>2026-04-26T18:01:45.425Z</time></trkpt><trkpt lat="41.9389197" lon="12.5824205"><ele>39.0</ele><time>2026-04-26T18:01:46.431Z</time></trkpt><trkpt lat="41.9388153" lon="12.5822859"><ele>39.0</ele><time>2026-04-26T18:01:47.431Z</time></trkpt><trkpt lat="41.9386764" lon="12.58211"><ele>39.0</ele><time>2026-04-26T18:01:48.431Z</time></trkpt><trkpt lat="41.9385459" lon="12.5819631"><ele>39.0</ele><time>2026-04-26T18:01:49.443Z</time></trkpt><trkpt lat="41.9384216" lon="12.5818506"><ele>39.5</ele><time>2026-04-26T18:01:50.426Z</time></trkpt><trkpt lat="41.9383001" lon="12.5817617"><ele>40.0</ele><time>2026-04-26T18:01:51.425Z</time></trkpt><trkpt lat="41.9382125" lon="12.5816638"><ele>40.5</ele><time>2026-04-26T18:01:52.432Z</time></trkpt><trkpt lat="41.9380935" lon="12.5815356"><ele>41.0</ele><time>2026-04-26T18:01:53.422Z</time></trkpt><trkpt lat="41.937963" lon="12.5813925"><ele>41.0</ele><time>2026-04-26T18:01:54.432Z</time></trkpt><trkpt lat="41.9378414" lon="12.58124"><ele>41.0</ele><time>2026-04-26T18:01:55.428Z</time></trkpt><trkpt lat="41.9377083" lon="12.5810935"><ele>41.0</ele><time>2026-04-26T18:01:56.431Z</time></trkpt><trkpt lat="41.9375771" lon="12.5809618"><ele>41.166666666666664</ele><time>2026-04-26T18:01:57.421Z</time></trkpt><trkpt lat="41.9375017" lon="12.5808569"><ele>41.33333333333333</ele><time>2026-04-26T18:01:58.429Z</time></trkpt><trkpt lat="41.9374399" lon="12.5807659"><ele>41.5</ele><time>2026-04-26T18:01:59.425Z</time></trkpt><trkpt lat="41.9373868" lon="12.5806833"><ele>41.666666666666664</ele><time>2026-04-26T18:02:00.428Z</time></trkpt><trkpt lat="41.9373376" lon="12.5805945"><ele>41.833333333333336</ele><time>2026-04-26T18:02:02.428Z</time></trkpt><trkpt lat="41.9372817" lon="12.5805391"><ele>42.0</ele><time>2026-04-26T18:02:11.424Z</time></trkpt><trkpt lat="41.9372115" lon="12.5805118"><ele>42.0</ele><time>2026-04-26T18:02:15.436Z</time></trkpt><trkpt lat="41.9371209" lon="12.5806432"><ele>42.0</ele><time>2026-04-26T18:02:17.421Z</time></trkpt><trkpt lat="41.937032" lon="12.580788"><ele>42.0</ele><time>2026-04-26T18:02:18.42Z</time></trkpt><trkpt lat="41.9369337" lon="12.580943"><ele>42.0</ele><time>2026-04-26T18:02:19.424Z</time></trkpt><trkpt lat="41.936815" lon="12.5811062"><ele>41.666666666666664</ele><time>2026-04-26T18:02:20.43Z</time></trkpt><trkpt lat="41.936705" lon="12.5812575"><ele>41.33333333333333</ele><time>2026-04-26T18:02:21.428Z</time></trkpt><trkpt lat="41.9365932" lon="12.5813964"><ele>41.0</ele><time>2026-04-26T18:02:22.427Z</time></trkpt><trkpt lat="41.9364858" lon="12.5815397"><ele>41.0</ele><time>2026-04-26T18:02:23.437Z</time></trkpt><trkpt lat="41.9363795" lon="12.5816608"><ele>41.0</ele><time>2026-04-26T18:02:24.424Z</time></trkpt><trkpt lat="41.9362602" lon="12.5817477"><ele>41.0</ele><time>2026-04-26T18:02:25.431Z</time></trkpt><trkpt lat="41.936128" lon="12.5818576"><ele>41.0</ele><time>2026-04-26T18:02:26.428Z</time></trkpt><trkpt lat="41.9359874" lon="12.5819752"><ele>41.0</ele><time>2026-04-26T18:02:27.427Z</time></trkpt><trkpt lat="41.9358472" lon="12.5820825"><ele>41.0</ele><time>2026-04-26T18:02:28.426Z</time></trkpt><trkpt lat="41.9357311" lon="12.5821745"><ele>41.0</ele><time>2026-04-26T18:02:29.459Z</time></trkpt><trkpt lat="41.9356076" lon="12.5822604"><ele>41.0</ele><time>2026-04-26T18:02:30.423Z</time></trkpt><trkpt lat="41.9354867" lon="12.5823529"><ele>41.0</ele><time>2026-04-26T18:02:31.432Z</time></trkpt><trkpt lat="41.9353736" lon="12.5824335"><ele>41.0</ele><time>2026-04-26T18:02:32.424Z</time></trkpt><trkpt lat="41.9352812" lon="12.5825167"><ele>41.0</ele><time>2026-04-26T18:02:33.423Z</time></trkpt><trkpt lat="41.9351858" lon="12.5825932"><ele>41.0</ele><time>2026-04-26T18:02:34.429Z</time></trkpt><trkpt lat="41.9350912" lon="12.5826613"><ele>40.5</ele><time>2026-04-26T18:02:35.418Z</time></trkpt><trkpt lat="41.935001" lon="12.5827394"><ele>40.0</ele><time>2026-04-26T18:02:36.418Z</time></trkpt><trkpt lat="41.9348969" lon="12.5828061"><ele>39.5</ele><time>2026-04-26T18:02:37.416Z</time></trkpt><trkpt lat="41.9347753" lon="12.5828865"><ele>39.0</ele><time>2026-04-26T18:02:38.416Z</time></trkpt><trkpt lat="41.9346585" lon="12.5829717"><ele>39.0</ele><time>2026-04-26T18:02:39.429Z</time></trkpt><trkpt lat="41.9345425" lon="12.5830645"><ele>39.0</ele><time>2026-04-26T18:02:40.435Z</time></trkpt><trkpt lat="41.9344206" lon="12.5831657"><ele>39.0</ele><time>2026-04-26T18:02:41.451Z</time></trkpt><trkpt lat="41.9343077" lon="12.5832578"><ele>39.0</ele><time>2026-04-26T18:02:42.425Z</time></trkpt><trkpt lat="41.9341983" lon="12.5833496"><ele>37.8</ele><time>2026-04-26T18:02:43.436Z</time></trkpt><trkpt lat="41.9340864" lon="12.583447"><ele>36.599999999999994</ele><time>2026-04-26T18:02:44.422Z</time></trkpt><trkpt lat="41.9340035" lon="12.5835236"><ele>35.4</ele><time>2026-04-26T18:02:45.425Z</time></trkpt><trkpt lat="41.9339195" lon="12.5835878"><ele>34.199999999999996</ele><time>2026-04-26T18:02:46.431Z</time></trkpt><trkpt lat="41.9338387" lon="12.5836458"><ele>33.0</ele><time>2026-04-26T18:02:47.446Z</time></trkpt><trkpt lat="41.9337614" lon="12.5836871"><ele>33.0</ele><time>2026-04-26T18:02:48.424Z</time></trkpt><trkpt lat="41.933672" lon="12.5837013"><ele>33.0</ele><time>2026-04-26T18:02:49.428Z</time></trkpt><trkpt lat="41.9335705" lon="12.5837087"><ele>33.0</ele><time>2026-04-26T18:02:50.434Z</time></trkpt><trkpt lat="41.9334828" lon="12.5837325"><ele>33.0</ele><time>2026-04-26T18:02:51.457Z</time></trkpt><trkpt lat="41.9334063" lon="12.5837833"><ele>33.0</ele><time>2026-04-26T18:02:52.429Z</time></trkpt><trkpt lat="41.9333368" lon="12.5838346"><ele>33.0</ele><time>2026-04-26T18:02:53.433Z</time></trkpt><trkpt lat="41.9332851" lon="12.5839288"><ele>33.0</ele><time>2026-04-26T18:02:54.453Z</time></trkpt><trkpt lat="41.9332258" lon="12.5840352"><ele>33.0</ele><time>2026-04-26T18:02:55.45Z</time></trkpt><trkpt lat="41.9331581" lon="12.5841364"><ele>33.0</ele><time>2026-04-26T18:02:56.424Z</time></trkpt><trkpt lat="41.9330798" lon="12.5842232"><ele>33.0</ele><time>2026-04-26T18:02:57.434Z</time></trkpt><trkpt lat="41.9329993" lon="12.5842996"><ele>33.0</ele><time>2026-04-26T18:02:58.424Z</time></trkpt><trkpt lat="41.9329173" lon="12.5843362"><ele>33.0</ele><time>2026-04-26T18:02:59.437Z</time></trkpt><trkpt lat="41.93283" lon="12.5843417"><ele>33.0</ele><time>2026-04-26T18:03:00.431Z</time></trkpt><trkpt lat="41.9327482" lon="12.5843058"><ele>33.0</ele><time>2026-04-26T18:03:01.427Z</time></trkpt><trkpt lat="41.9326849" lon="12.5842451"><ele>33.0</ele><time>2026-04-26T18:03:02.428Z</time></trkpt><trkpt lat="41.9326414" lon="12.5841665"><ele>33.0</ele><time>2026-04-26T18:03:03.415Z</time></trkpt><trkpt lat="41.9326073" lon="12.5840617"><ele>33.0</ele><time>2026-04-26T18:03:04.428Z</time></trkpt><trkpt lat="41.9325919" lon="12.5839284"><ele>33.0</ele><time>2026-04-26T18:03:05.432Z</time></trkpt><trkpt lat="41.9326027" lon="12.5837471"><ele>33.0</ele><time>2026-04-26T18:03:06.424Z</time></trkpt><trkpt lat="41.9326314" lon="12.5835341"><ele>33.0</ele><time>2026-04-26T18:03:07.433Z</time></trkpt><trkpt lat="41.9326483" lon="12.5833294"><ele>32.4</ele><time>2026-04-26T18:03:08.429Z</time></trkpt><trkpt lat="41.9326873" lon="12.5831152"><ele>31.799999999999997</ele><time>2026-04-26T18:03:09.433Z</time></trkpt><trkpt lat="41.9327118" lon="12.5829929"><ele>31.2</ele><time>2026-04-26T18:03:10.433Z</time></trkpt><trkpt lat="41.9327144" lon="12.5828777"><ele>30.6</ele><time>2026-04-26T18:03:12.428Z</time></trkpt><trkpt lat="41.9326684" lon="12.5827997"><ele>30.0</ele><time>2026-04-26T18:03:14.418Z</time></trkpt><trkpt lat="41.9325709" lon="12.5827568"><ele>30.75</ele><time>2026-04-26T18:03:16.429Z</time></trkpt><trkpt lat="41.9324618" lon="12.5827327"><ele>31.5</ele><time>2026-04-26T18:03:18.419Z</time></trkpt><trkpt lat="41.9323738" lon="12.5825861"><ele>32.25</ele><time>2026-04-26T18:03:20.439Z</time></trkpt><trkpt lat="41.9323231" lon="12.5824283"><ele>33.0</ele><time>2026-04-26T18:03:21.423Z</time></trkpt><trkpt lat="41.9322627" lon="12.5822059"><ele>34.5</ele><time>2026-04-26T18:03:22.464Z</time></trkpt><trkpt lat="41.9322278" lon="12.5818764"><ele>36.0</ele><time>2026-04-26T18:03:23.432Z</time></trkpt><trkpt lat="41.9321905" lon="12.5815636"><ele>36.0</ele><time>2026-04-26T18:03:24.445Z</time></trkpt><trkpt lat="41.9321393" lon="12.5812736"><ele>36.0</ele><time>2026-04-26T18:03:25.424Z</time></trkpt><trkpt lat="41.9320698" lon="12.5810108"><ele>36.0</ele><time>2026-04-26T18:03:26.413Z</time></trkpt><trkpt lat="41.9320308" lon="12.5807899"><ele>36.0</ele><time>2026-04-26T18:03:27.425Z</time></trkpt><trkpt lat="41.9320031" lon="12.5805658"><ele>36.0</ele><time>2026-04-26T18:03:28.422Z</time></trkpt><trkpt lat="41.9319589" lon="12.5803556"><ele>36.0</ele><time>2026-04-26T18:03:29.437Z</time></trkpt><trkpt lat="41.9318961" lon="12.5801582"><ele>36.0</ele><time>2026-04-26T18:03:30.449Z</time></trkpt><trkpt lat="41.9318376" lon="12.5799799"><ele>36.0</ele><time>2026-04-26T18:03:31.417Z</time></trkpt><trkpt lat="41.9317934" lon="12.5798133"><ele>36.0</ele><time>2026-04-26T18:03:32.419Z</time></trkpt><trkpt lat="41.9317564" lon="12.5796866"><ele>36.0</ele><time>2026-04-26T18:03:33.42Z</time></trkpt><trkpt lat="41.9317264" lon="12.57959"><ele>36.0</ele><time>2026-04-26T18:03:34.423Z</time></trkpt><trkpt lat="41.9316863" lon="12.5794715"><ele>36.0</ele><time>2026-04-26T18:03:36.426Z</time></trkpt><trkpt lat="41.9316341" lon="12.5793425"><ele>36.0</ele><time>2026-04-26T18:03:39.451Z</time></trkpt><trkpt lat="41.931599" lon="12.5792333"><ele>36.0</ele><time>2026-04-26T18:03:40.444Z</time></trkpt><trkpt lat="41.9315563" lon="12.5790987"><ele>36.0</ele><time>2026-04-26T18:03:41.436Z</time></trkpt><trkpt lat="41.9314988" lon="12.5789566"><ele>36.0</ele><time>2026-04-26T18:03:42.418Z</time></trkpt><trkpt lat="41.931434" lon="12.5787949"><ele>36.0</ele><time>2026-04-26T18:03:43.415Z</time></trkpt><trkpt lat="41.9313657" lon="12.5786408"><ele>36.0</ele><time>2026-04-26T18:03:44.428Z</time></trkpt><trkpt lat="41.9312991" lon="12.578502"><ele>36.0</ele><time>2026-04-26T18:03:45.42Z</time></trkpt><trkpt lat="41.9312252" lon="12.5783835"><ele>35.666666666666664</ele><time>2026-04-26T18:03:46.433Z</time></trkpt><trkpt lat="41.9311348" lon="12.5782635"><ele>35.33333333333333</ele><time>2026-04-26T18:03:47.42Z</time></trkpt><trkpt lat="41.9310241" lon="12.578135"><ele>35.0</ele><time>2026-04-26T18:03:48.42Z</time></trkpt><trkpt lat="41.9308692" lon="12.578005"><ele>35.0</ele><time>2026-04-26T18:03:49.428Z</time></trkpt><trkpt lat="41.930727" lon="12.577879"><ele>35.0</ele><time>2026-04-26T18:03:50.429Z</time></trkpt><trkpt lat="41.9306006" lon="12.577778"><ele>35.0</ele><time>2026-04-26T18:03:51.421Z</time></trkpt><trkpt lat="41.9304783" lon="12.5776919"><ele>35.0</ele><time>2026-04-26T18:03:52.431Z</time></trkpt><trkpt lat="41.9303663" lon="12.5776137"><ele>35.0</ele><time>2026-04-26T18:03:53.433Z</time></trkpt><trkpt lat="41.9302716" lon="12.5775637"><ele>35.0</ele><time>2026-04-26T18:03:54.423Z</time></trkpt><trkpt lat="41.930134" lon="12.5774882"><ele>35.0</ele><time>2026-04-26T18:03:55.425Z</time></trkpt><trkpt lat="41.9299841" lon="12.5774477"><ele>35.0</ele><time>2026-04-26T18:03:56.431Z</time></trkpt><trkpt lat="41.9297879" lon="12.5773884"><ele>35.0</ele><time>2026-04-26T18:03:57.42Z</time></trkpt><trkpt lat="41.9295632" lon="12.5773198"><ele>35.0</ele><time>2026-04-26T18:03:58.419Z</time></trkpt><trkpt lat="41.9293441" lon="12.5772351"><ele>34.666666666666664</ele><time>2026-04-26T18:03:59.417Z</time></trkpt><trkpt lat="41.9291232" lon="12.5771203"><ele>34.333333333333336</ele><time>2026-04-26T18:04:00.414Z</time></trkpt><trkpt lat="41.9289353" lon="12.5769938"><ele>34.0</ele><time>2026-04-26T18:04:01.425Z</time></trkpt><trkpt lat="41.9287586" lon="12.576808"><ele>34.0</ele><time>2026-04-26T18:04:02.422Z</time></trkpt><trkpt lat="41.9285806" lon="12.5765936"><ele>34.0</ele><time>2026-04-26T18:04:03.427Z</time></trkpt><trkpt lat="41.9284126" lon="12.576388"><ele>34.0</ele><time>2026-04-26T18:04:04.417Z</time></trkpt><trkpt lat="41.9282801" lon="12.5762055"><ele>34.0</ele><time>2026-04-26T18:04:05.431Z</time></trkpt><trkpt lat="41.9281392" lon="12.5759763"><ele>34.0</ele><time>2026-04-26T18:04:06.438Z</time></trkpt><trkpt lat="41.9279696" lon="12.5757569"><ele>34.0</ele><time>2026-04-26T18:04:07.419Z</time></trkpt><trkpt lat="41.9278156" lon="12.5755461"><ele>34.0</ele><time>2026-04-26T18:04:08.431Z</time></trkpt><trkpt lat="41.9276424" lon="12.5753654"><ele>34.0</ele><time>2026-04-26T18:04:09.422Z</time></trkpt><trkpt lat="41.9274819" lon="12.5751867"><ele>32.66666666666667</ele><time>2026-04-26T18:04:10.429Z</time></trkpt><trkpt lat="41.9273151" lon="12.5750042"><ele>31.333333333333336</ele><time>2026-04-26T18:04:11.434Z</time></trkpt><trkpt lat="41.9271721" lon="12.5748664"><ele>30.0</ele><time>2026-04-26T18:04:12.435Z</time></trkpt><trkpt lat="41.9270235" lon="12.5747427"><ele>30.0</ele><time>2026-04-26T18:04:13.43Z</time></trkpt><trkpt lat="41.9269026" lon="12.5746361"><ele>30.0</ele><time>2026-04-26T18:04:14.424Z</time></trkpt><trkpt lat="41.9267684" lon="12.574511"><ele>30.0</ele><time>2026-04-26T18:04:15.434Z</time></trkpt><trkpt lat="41.9266155" lon="12.574347"><ele>29.333333333333336</ele><time>2026-04-26T18:04:16.428Z</time></trkpt><trkpt lat="41.9264604" lon="12.5742025"><ele>28.666666666666668</ele><time>2026-04-26T18:04:17.428Z</time></trkpt><trkpt lat="41.9263181" lon="12.5740823"><ele>28.0</ele><time>2026-04-26T18:04:18.437Z</time></trkpt><trkpt lat="41.9261589" lon="12.5739765"><ele>28.0</ele><time>2026-04-26T18:04:19.436Z</time></trkpt><trkpt lat="41.925988" lon="12.573867"><ele>28.0</ele><time>2026-04-26T18:04:20.429Z</time></trkpt><trkpt lat="41.9258458" lon="12.5737615"><ele>28.0</ele><time>2026-04-26T18:04:21.424Z</time></trkpt><trkpt lat="41.9257165" lon="12.5736354"><ele>28.333333333333336</ele><time>2026-04-26T18:04:22.421Z</time></trkpt><trkpt lat="41.9255884" lon="12.5734747"><ele>28.666666666666664</ele><time>2026-04-26T18:04:23.422Z</time></trkpt><trkpt lat="41.9254742" lon="12.5733032"><ele>29.0</ele><time>2026-04-26T18:04:24.428Z</time></trkpt><trkpt lat="41.925391" lon="12.5730952"><ele>29.0</ele><time>2026-04-26T18:04:25.413Z</time></trkpt><trkpt lat="41.9253204" lon="12.5728712"><ele>29.0</ele><time>2026-04-26T18:04:26.424Z</time></trkpt><trkpt lat="41.9252559" lon="12.5726717"><ele>29.0</ele><time>2026-04-26T18:04:27.431Z</time></trkpt><trkpt lat="41.9252353" lon="12.572461"><ele>29.75</ele><time>2026-04-26T18:04:28.43Z</time></trkpt><trkpt lat="41.925178" lon="12.5722439"><ele>30.5</ele><time>2026-04-26T18:04:29.429Z</time></trkpt><trkpt lat="41.9251005" lon="12.5720915"><ele>31.25</ele><time>2026-04-26T18:04:30.42Z</time></trkpt><trkpt lat="41.9250164" lon="12.5719415"><ele>32.0</ele><time>2026-04-26T18:04:31.438Z</time></trkpt><trkpt lat="41.9249065" lon="12.5718179"><ele>32.6</ele><time>2026-04-26T18:04:32.428Z</time></trkpt><trkpt lat="41.924824" lon="12.5717065"><ele>33.2</ele><time>2026-04-26T18:04:33.416Z</time></trkpt><trkpt lat="41.9247788" lon="12.5715974"><ele>33.8</ele><time>2026-04-26T18:04:34.425Z</time></trkpt><trkpt lat="41.9247581" lon="12.5714778"><ele>34.4</ele><time>2026-04-26T18:04:35.425Z</time></trkpt><trkpt lat="41.924707" lon="12.5713347"><ele>35.0</ele><time>2026-04-26T18:04:36.43Z</time></trkpt><trkpt lat="41.9246715" lon="12.5711988"><ele>35.5</ele><time>2026-04-26T18:04:37.425Z</time></trkpt><trkpt lat="41.9246247" lon="12.5710532"><ele>36.0</ele><time>2026-04-26T18:04:38.426Z</time></trkpt><trkpt lat="41.9245719" lon="12.5708961"><ele>36.5</ele><time>2026-04-26T18:04:39.425Z</time></trkpt><trkpt lat="41.9245169" lon="12.5707314"><ele>37.0</ele><time>2026-04-26T18:04:40.417Z</time></trkpt><trkpt lat="41.9244634" lon="12.5705643"><ele>37.0</ele><time>2026-04-26T18:04:41.419Z</time></trkpt><trkpt lat="41.9244101" lon="12.5703988"><ele>37.0</ele><time>2026-04-26T18:04:42.416Z</time></trkpt><trkpt lat="41.9243518" lon="12.5702227"><ele>37.0</ele><time>2026-04-26T18:04:43.433Z</time></trkpt><trkpt lat="41.9242745" lon="12.5700312"><ele>37.0</ele><time>2026-04-26T18:04:44.423Z</time></trkpt><trkpt lat="41.9242362" lon="12.5698847"><ele>36.800000000000004</ele><time>2026-04-26T18:04:45.416Z</time></trkpt><trkpt lat="41.924222" lon="12.5697405"><ele>36.6</ele><time>2026-04-26T18:04:46.424Z</time></trkpt><trkpt lat="41.9242222" lon="12.569611"><ele>36.400000000000006</ele><time>2026-04-26T18:04:47.42Z</time></trkpt><trkpt lat="41.9242259" lon="12.5694638"><ele>36.2</ele><time>2026-04-26T18:04:48.421Z</time></trkpt><trkpt lat="41.9242474" lon="12.5693171"><ele>36.0</ele><time>2026-04-26T18:04:49.418Z</time></trkpt><trkpt lat="41.9242667" lon="12.5691545"><ele>36.0</ele><time>2026-04-26T18:04:50.417Z</time></trkpt><trkpt lat="41.9242731" lon="12.5690152"><ele>36.0</ele><time>2026-04-26T18:04:51.422Z</time></trkpt><trkpt lat="41.924282" lon="12.5688827"><ele>36.0</ele><time>2026-04-26T18:04:52.419Z</time></trkpt><trkpt lat="41.9242786" lon="12.5687361"><ele>36.0</ele><time>2026-04-26T18:04:53.422Z</time></trkpt><trkpt lat="41.924273" lon="12.5685781"><ele>36.0</ele><time>2026-04-26T18:04:54.423Z</time></trkpt><trkpt lat="41.9242564" lon="12.5684159"><ele>33.5</ele><time>2026-04-26T18:04:55.414Z</time></trkpt><trkpt lat="41.9242272" lon="12.5682469"><ele>31.0</ele><time>2026-04-26T18:04:56.423Z</time></trkpt><trkpt lat="41.9241843" lon="12.568073"><ele>28.5</ele><time>2026-04-26T18:04:57.421Z</time></trkpt><trkpt lat="41.9241291" lon="12.5679089"><ele>26.0</ele><time>2026-04-26T18:04:58.426Z</time></trkpt><trkpt lat="41.9240746" lon="12.5677571"><ele>26.0</ele><time>2026-04-26T18:04:59.419Z</time></trkpt><trkpt lat="41.9240176" lon="12.5676138"><ele>26.0</ele><time>2026-04-26T18:05:00.419Z</time></trkpt><trkpt lat="41.9239475" lon="12.5674806"><ele>26.0</ele><time>2026-04-26T18:05:01.421Z</time></trkpt><trkpt lat="41.9238633" lon="12.5673424"><ele>26.0</ele><time>2026-04-26T18:05:02.424Z</time></trkpt><trkpt lat="41.9237658" lon="12.5671862"><ele>25.0</ele><time>2026-04-26T18:05:03.418Z</time></trkpt><trkpt lat="41.923648" lon="12.5670187"><ele>24.0</ele><time>2026-04-26T18:05:04.447Z</time></trkpt><trkpt lat="41.923496" lon="12.5668275"><ele>23.0</ele><time>2026-04-26T18:05:05.418Z</time></trkpt><trkpt lat="41.9233325" lon="12.5666337"><ele>22.333333333333336</ele><time>2026-04-26T18:05:06.419Z</time></trkpt><trkpt lat="41.9231696" lon="12.5664571"><ele>21.666666666666668</ele><time>2026-04-26T18:05:07.444Z</time></trkpt><trkpt lat="41.9230443" lon="12.5663063"><ele>21.0</ele><time>2026-04-26T18:05:08.413Z</time></trkpt><trkpt lat="41.922931" lon="12.5661588"><ele>21.0</ele><time>2026-04-26T18:05:09.417Z</time></trkpt><trkpt lat="41.9228339" lon="12.566017"><ele>21.0</ele><time>2026-04-26T18:05:10.413Z</time></trkpt><trkpt lat="41.9227481" lon="12.5658991"><ele>21.0</ele><time>2026-04-26T18:05:11.416Z</time></trkpt><trkpt lat="41.9226383" lon="12.5657715"><ele>21.0</ele><time>2026-04-26T18:05:12.412Z</time></trkpt><trkpt lat="41.9225593" lon="12.5656511"><ele>21.75</ele><time>2026-04-26T18:05:13.42Z</time></trkpt><trkpt lat="41.9224593" lon="12.565542"><ele>22.5</ele><time>2026-04-26T18:05:14.422Z</time></trkpt><trkpt lat="41.9223596" lon="12.5654615"><ele>23.25</ele><time>2026-04-26T18:05:15.418Z</time></trkpt><trkpt lat="41.9222657" lon="12.565384"><ele>24.0</ele><time>2026-04-26T18:05:16.415Z</time></trkpt><trkpt lat="41.9221831" lon="12.5653065"><ele>24.166666666666668</ele><time>2026-04-26T18:05:17.416Z</time></trkpt><trkpt lat="41.9221003" lon="12.5652331"><ele>24.333333333333336</ele><time>2026-04-26T18:05:18.411Z</time></trkpt><trkpt lat="41.9220321" lon="12.5651593"><ele>24.5</ele><time>2026-04-26T18:05:19.418Z</time></trkpt><trkpt lat="41.9219784" lon="12.5650741"><ele>24.666666666666668</ele><time>2026-04-26T18:05:20.414Z</time></trkpt><trkpt lat="41.9219229" lon="12.5649974"><ele>24.833333333333336</ele><time>2026-04-26T18:05:21.414Z</time></trkpt><trkpt lat="41.921878" lon="12.5649191"><ele>25.0</ele><time>2026-04-26T18:05:22.419Z</time></trkpt><trkpt lat="41.9218353" lon="12.5648314"><ele>25.000000000000004</ele><time>2026-04-26T18:05:23.422Z</time></trkpt><trkpt lat="41.9218257" lon="12.5647313"><ele>25.0</ele><time>2026-04-26T18:05:24.419Z</time></trkpt><trkpt lat="41.9218455" lon="12.5646324"><ele>25.0</ele><time>2026-04-26T18:05:25.426Z</time></trkpt><trkpt lat="41.9218872" lon="12.5645356"><ele>25.0</ele><time>2026-04-26T18:05:26.423Z</time></trkpt><trkpt lat="41.9219511" lon="12.5644559"><ele>25.000000000000004</ele><time>2026-04-26T18:05:27.429Z</time></trkpt><trkpt lat="41.9220325" lon="12.5643907"><ele>25.0</ele><time>2026-04-26T18:05:28.426Z</time></trkpt><trkpt lat="41.9221266" lon="12.5643349"><ele>25.2</ele><time>2026-04-26T18:05:29.424Z</time></trkpt><trkpt lat="41.9222112" lon="12.5642887"><ele>25.4</ele><time>2026-04-26T18:05:30.426Z</time></trkpt><trkpt lat="41.9223018" lon="12.564249"><ele>25.6</ele><time>2026-04-26T18:05:31.432Z</time></trkpt><trkpt lat="41.9223946" lon="12.564222"><ele>25.8</ele><time>2026-04-26T18:05:32.428Z</time></trkpt><trkpt lat="41.9224934" lon="12.5642071"><ele>26.0</ele><time>2026-04-26T18:05:33.426Z</time></trkpt><trkpt lat="41.9226012" lon="12.5642118"><ele>26.0</ele><time>2026-04-26T18:05:34.423Z</time></trkpt><trkpt lat="41.9227084" lon="12.5642235"><ele>26.0</ele><time>2026-04-26T18:05:35.425Z</time></trkpt><trkpt lat="41.9228024" lon="12.564262"><ele>26.0</ele><time>2026-04-26T18:05:36.421Z</time></trkpt><trkpt lat="41.9229079" lon="12.564322"><ele>26.0</ele><time>2026-04-26T18:05:37.425Z</time></trkpt><trkpt lat="41.9229977" lon="12.5643988"><ele>26.0</ele><time>2026-04-26T18:05:38.427Z</time></trkpt><trkpt lat="41.9230491" lon="12.5644985"><ele>25.6</ele><time>2026-04-26T18:05:39.427Z</time></trkpt><trkpt lat="41.9230791" lon="12.5646092"><ele>25.200000000000003</ele><time>2026-04-26T18:05:40.421Z</time></trkpt><trkpt lat="41.9230902" lon="12.5647225"><ele>24.799999999999997</ele><time>2026-04-26T18:05:41.423Z</time></trkpt><trkpt lat="41.9230831" lon="12.5648517"><ele>24.4</ele><time>2026-04-26T18:05:42.424Z</time></trkpt><trkpt lat="41.9230524" lon="12.5649917"><ele>24.0</ele><time>2026-04-26T18:05:43.421Z</time></trkpt><trkpt lat="41.9229941" lon="12.5651401"><ele>24.0</ele><time>2026-04-26T18:05:44.428Z</time></trkpt><trkpt lat="41.9229274" lon="12.5652746"><ele>24.0</ele><time>2026-04-26T18:05:45.433Z</time></trkpt><trkpt lat="41.9228587" lon="12.5653956"><ele>24.0</ele><time>2026-04-26T18:05:46.43Z</time></trkpt><trkpt lat="41.9227915" lon="12.565506"><ele>24.0</ele><time>2026-04-26T18:05:47.429Z</time></trkpt><trkpt lat="41.9227173" lon="12.565618"><ele>24.0</ele><time>2026-04-26T18:05:48.426Z</time></trkpt><trkpt lat="41.9226305" lon="12.5657355"><ele>24.0</ele><time>2026-04-26T18:05:49.43Z</time></trkpt><trkpt lat="41.9225511" lon="12.5658491"><ele>24.0</ele><time>2026-04-26T18:05:50.417Z</time></trkpt><trkpt lat="41.9224567" lon="12.5659583"><ele>24.0</ele><time>2026-04-26T18:05:51.421Z</time></trkpt><trkpt lat="41.9223569" lon="12.5660653"><ele>24.0</ele><time>2026-04-26T18:05:52.417Z</time></trkpt><trkpt lat="41.9222424" lon="12.5661527"><ele>24.0</ele><time>2026-04-26T18:05:53.421Z</time></trkpt><trkpt lat="41.9220953" lon="12.5662205"><ele>24.0</ele><time>2026-04-26T18:05:54.424Z</time></trkpt><trkpt lat="41.9219421" lon="12.5662813"><ele>24.0</ele><time>2026-04-26T18:05:55.42Z</time></trkpt><trkpt lat="41.9217775" lon="12.5663429"><ele>22.5</ele><time>2026-04-26T18:05:56.419Z</time></trkpt><trkpt lat="41.921583" lon="12.5664314"><ele>21.0</ele><time>2026-04-26T18:05:57.45Z</time></trkpt><trkpt lat="41.9213418" lon="12.5664976"><ele>21.0</ele><time>2026-04-26T18:05:58.426Z</time></trkpt><trkpt lat="41.9210508" lon="12.5665327"><ele>21.0</ele><time>2026-04-26T18:05:59.428Z</time></trkpt><trkpt lat="41.9207679" lon="12.5665552"><ele>23.0</ele><time>2026-04-26T18:06:00.419Z</time></trkpt><trkpt lat="41.9204945" lon="12.5666346"><ele>25.0</ele><time>2026-04-26T18:06:01.427Z</time></trkpt><trkpt lat="41.9202816" lon="12.56672"><ele>25.0</ele><time>2026-04-26T18:06:02.424Z</time></trkpt><trkpt lat="41.920084" lon="12.5667995"><ele>25.0</ele><time>2026-04-26T18:06:03.426Z</time></trkpt><trkpt lat="41.9198908" lon="12.5668751"><ele>25.0</ele><time>2026-04-26T18:06:04.422Z</time></trkpt><trkpt lat="41.9196936" lon="12.5669627"><ele>25.0</ele><time>2026-04-26T18:06:05.415Z</time></trkpt><trkpt lat="41.919498" lon="12.5670591"><ele>25.0</ele><time>2026-04-26T18:06:06.423Z</time></trkpt><trkpt lat="41.9193267" lon="12.5671562"><ele>25.0</ele><time>2026-04-26T18:06:07.455Z</time></trkpt><trkpt lat="41.9191919" lon="12.5672438"><ele>25.0</ele><time>2026-04-26T18:06:08.426Z</time></trkpt><trkpt lat="41.91909" lon="12.5673127"><ele>25.0</ele><time>2026-04-26T18:06:09.431Z</time></trkpt><trkpt lat="41.9189799" lon="12.5673863"><ele>25.0</ele><time>2026-04-26T18:06:10.428Z</time></trkpt><trkpt lat="41.9188835" lon="12.5674401"><ele>25.0</ele><time>2026-04-26T18:06:11.432Z</time></trkpt><trkpt lat="41.9187724" lon="12.5674779"><ele>25.0</ele><time>2026-04-26T18:06:12.426Z</time></trkpt><trkpt lat="41.9186647" lon="12.5675204"><ele>25.0</ele><time>2026-04-26T18:06:13.428Z</time></trkpt><trkpt lat="41.9185332" lon="12.5675986"><ele>25.0</ele><time>2026-04-26T18:06:14.426Z</time></trkpt><trkpt lat="41.9184283" lon="12.567656"><ele>25.0</ele><time>2026-04-26T18:06:15.419Z</time></trkpt><trkpt lat="41.9182998" lon="12.567725"><ele>25.0</ele><time>2026-04-26T18:06:16.428Z</time></trkpt><trkpt lat="41.9181694" lon="12.5677914"><ele>25.0</ele><time>2026-04-26T18:06:17.421Z</time></trkpt><trkpt lat="41.9180544" lon="12.567855"><ele>25.0</ele><time>2026-04-26T18:06:18.433Z</time></trkpt><trkpt lat="41.917945" lon="12.5679142"><ele>25.0</ele><time>2026-04-26T18:06:19.42Z</time></trkpt><trkpt lat="41.9178414" lon="12.567973"><ele>25.0</ele><time>2026-04-26T18:06:20.416Z</time></trkpt><trkpt lat="41.9177433" lon="12.5680166"><ele>25.0</ele><time>2026-04-26T18:06:21.426Z</time></trkpt><trkpt lat="41.917638" lon="12.568064"><ele>25.0</ele><time>2026-04-26T18:06:22.421Z</time></trkpt><trkpt lat="41.9175298" lon="12.5681263"><ele>25.0</ele><time>2026-04-26T18:06:23.426Z</time></trkpt><trkpt lat="41.9174228" lon="12.5681879"><ele>25.0</ele><time>2026-04-26T18:06:24.422Z</time></trkpt><trkpt lat="41.9173068" lon="12.5682717"><ele>24.75</ele><time>2026-04-26T18:06:25.425Z</time></trkpt><trkpt lat="41.9171905" lon="12.5683485"><ele>24.5</ele><time>2026-04-26T18:06:26.42Z</time></trkpt><trkpt lat="41.9170793" lon="12.5684146"><ele>24.25</ele><time>2026-04-26T18:06:27.416Z</time></trkpt><trkpt lat="41.9169706" lon="12.5684682"><ele>24.0</ele><time>2026-04-26T18:06:28.421Z</time></trkpt><trkpt lat="41.9168608" lon="12.5685279"><ele>24.0</ele><time>2026-04-26T18:06:29.425Z</time></trkpt><trkpt lat="41.9167488" lon="12.5685889"><ele>24.0</ele><time>2026-04-26T18:06:30.43Z</time></trkpt><trkpt lat="41.9166371" lon="12.568651"><ele>24.0</ele><time>2026-04-26T18:06:31.431Z</time></trkpt><trkpt lat="41.9165152" lon="12.5687164"><ele>24.0</ele><time>2026-04-26T18:06:32.433Z</time></trkpt><trkpt lat="41.9163786" lon="12.5687873"><ele>24.0</ele><time>2026-04-26T18:06:33.434Z</time></trkpt><trkpt lat="41.9162248" lon="12.5688846"><ele>24.0</ele><time>2026-04-26T18:06:34.436Z</time></trkpt><trkpt lat="41.9160741" lon="12.5689825"><ele>24.0</ele><time>2026-04-26T18:06:35.441Z</time></trkpt><trkpt lat="41.9159428" lon="12.5690521"><ele>24.5</ele><time>2026-04-26T18:06:36.443Z</time></trkpt><trkpt lat="41.9157989" lon="12.5690736"><ele>25.0</ele><time>2026-04-26T18:06:37.441Z</time></trkpt><trkpt lat="41.9156626" lon="12.5691126"><ele>25.5</ele><time>2026-04-26T18:06:38.43Z</time></trkpt><trkpt lat="41.9155495" lon="12.5691719"><ele>26.0</ele><time>2026-04-26T18:06:39.432Z</time></trkpt><trkpt lat="41.9154348" lon="12.5692261"><ele>26.0</ele><time>2026-04-26T18:06:40.438Z</time></trkpt><trkpt lat="41.9153394" lon="12.569289"><ele>26.0</ele><time>2026-04-26T18:06:41.423Z</time></trkpt><trkpt lat="41.9152334" lon="12.5693394"><ele>26.0</ele><time>2026-04-26T18:06:42.426Z</time></trkpt><trkpt lat="41.9151366" lon="12.5693922"><ele>26.0</ele><time>2026-04-26T18:06:43.429Z</time></trkpt><trkpt lat="41.9150188" lon="12.5694651"><ele>26.25</ele><time>2026-04-26T18:06:44.427Z</time></trkpt><trkpt lat="41.9148957" lon="12.5695277"><ele>26.5</ele><time>2026-04-26T18:06:45.432Z</time></trkpt><trkpt lat="41.9147811" lon="12.5695841"><ele>26.75</ele><time>2026-04-26T18:06:46.433Z</time></trkpt><trkpt lat="41.9146862" lon="12.5696411"><ele>27.0</ele><time>2026-04-26T18:06:47.426Z</time></trkpt><trkpt lat="41.9146001" lon="12.5696983"><ele>27.0</ele><time>2026-04-26T18:06:48.428Z</time></trkpt><trkpt lat="41.9145208" lon="12.5697515"><ele>27.000000000000004</ele><time>2026-04-26T18:06:49.434Z</time></trkpt><trkpt lat="41.9144531" lon="12.5697942"><ele>27.000000000000004</ele><time>2026-04-26T18:06:50.422Z</time></trkpt><trkpt lat="41.9143901" lon="12.5698489"><ele>27.0</ele><time>2026-04-26T18:06:52.435Z</time></trkpt><trkpt lat="41.9143017" lon="12.5699224"><ele>27.0</ele><time>2026-04-26T18:07:43.422Z</time></trkpt><trkpt lat="41.9141954" lon="12.569982"><ele>26.75</ele><time>2026-04-26T18:07:45.423Z</time></trkpt><trkpt lat="41.9140885" lon="12.5700383"><ele>26.5</ele><time>2026-04-26T18:07:46.429Z</time></trkpt><trkpt lat="41.9139615" lon="12.5701066"><ele>26.25</ele><time>2026-04-26T18:07:47.428Z</time></trkpt><trkpt lat="41.9138354" lon="12.5701745"><ele>26.0</ele><time>2026-04-26T18:07:48.427Z</time></trkpt><trkpt lat="41.9136872" lon="12.5702497"><ele>26.0</ele><time>2026-04-26T18:07:49.426Z</time></trkpt><trkpt lat="41.91353" lon="12.5703358"><ele>26.0</ele><time>2026-04-26T18:07:50.43Z</time></trkpt><trkpt lat="41.9133372" lon="12.5704692"><ele>26.0</ele><time>2026-04-26T18:07:51.42Z</time></trkpt><trkpt lat="41.9131277" lon="12.5705715"><ele>28.5</ele><time>2026-04-26T18:07:52.423Z</time></trkpt><trkpt lat="41.9129394" lon="12.5706752"><ele>31.0</ele><time>2026-04-26T18:07:53.415Z</time></trkpt><trkpt lat="41.9127012" lon="12.5708315"><ele>29.5</ele><time>2026-04-26T18:07:54.41Z</time></trkpt><trkpt lat="41.9124937" lon="12.5709984"><ele>28.0</ele><time>2026-04-26T18:07:55.422Z</time></trkpt><trkpt lat="41.9123138" lon="12.5711399"><ele>30.333333333333336</ele><time>2026-04-26T18:07:56.45Z</time></trkpt><trkpt lat="41.9121569" lon="12.5712466"><ele>32.666666666666664</ele><time>2026-04-26T18:07:57.422Z</time></trkpt><trkpt lat="41.9120087" lon="12.5713395"><ele>35.0</ele><time>2026-04-26T18:07:58.426Z</time></trkpt><trkpt lat="41.9118343" lon="12.5714189"><ele>34.666666666666664</ele><time>2026-04-26T18:07:59.428Z</time></trkpt><trkpt lat="41.9116815" lon="12.5714988"><ele>34.333333333333336</ele><time>2026-04-26T18:08:00.425Z</time></trkpt><trkpt lat="41.9115325" lon="12.571547"><ele>34.0</ele><time>2026-04-26T18:08:01.435Z</time></trkpt><trkpt lat="41.9113901" lon="12.5715865"><ele>34.0</ele><time>2026-04-26T18:08:02.428Z</time></trkpt><trkpt lat="41.9112452" lon="12.571649"><ele>34.0</ele><time>2026-04-26T18:08:03.433Z</time></trkpt><trkpt lat="41.911153" lon="12.5717333"><ele>34.0</ele><time>2026-04-26T18:08:04.434Z</time></trkpt><trkpt lat="41.9110605" lon="12.5718175"><ele>34.0</ele><time>2026-04-26T18:08:05.431Z</time></trkpt><trkpt lat="41.9109794" lon="12.5718634"><ele>34.0</ele><time>2026-04-26T18:08:06.43Z</time></trkpt><trkpt lat="41.9109151" lon="12.5718993"><ele>34.0</ele><time>2026-04-26T18:08:07.417Z</time></trkpt><trkpt lat="41.9108003" lon="12.5719457"><ele>34.0</ele><time>2026-04-26T18:08:08.424Z</time></trkpt><trkpt lat="41.910697" lon="12.5719485"><ele>34.0</ele><time>2026-04-26T18:08:09.424Z</time></trkpt><trkpt lat="41.9106138" lon="12.5719658"><ele>34.0</ele><time>2026-04-26T18:08:10.421Z</time></trkpt><trkpt lat="41.9104717" lon="12.572024"><ele>33.25</ele><time>2026-04-26T18:08:19.42Z</time></trkpt><trkpt lat="41.9103244" lon="12.5720911"><ele>32.5</ele><time>2026-04-26T18:08:21.421Z</time></trkpt><trkpt lat="41.9102014" lon="12.572131"><ele>31.75</ele><time>2026-04-26T18:08:22.418Z</time></trkpt><trkpt lat="41.9100942" lon="12.5721546"><ele>31.0</ele><time>2026-04-26T18:08:23.434Z</time></trkpt><trkpt lat="41.9099535" lon="12.57218"><ele>30.666666666666668</ele><time>2026-04-26T18:08:24.43Z</time></trkpt><trkpt lat="41.9098262" lon="12.5722023"><ele>30.333333333333336</ele><time>2026-04-26T18:08:25.424Z</time></trkpt><trkpt lat="41.9096453" lon="12.5722583"><ele>30.0</ele><time>2026-04-26T18:08:26.427Z</time></trkpt><trkpt lat="41.9094566" lon="12.5723221"><ele>30.0</ele><time>2026-04-26T18:08:27.416Z</time></trkpt><trkpt lat="41.9092712" lon="12.5723879"><ele>30.0</ele><time>2026-04-26T18:08:28.421Z</time></trkpt><trkpt lat="41.9091056" lon="12.5724409"><ele>30.0</ele><time>2026-04-26T18:08:29.425Z</time></trkpt><trkpt lat="41.9089317" lon="12.5724744"><ele>29.666666666666664</ele><time>2026-04-26T18:08:30.427Z</time></trkpt><trkpt lat="41.9087537" lon="12.572501"><ele>29.333333333333332</ele><time>2026-04-26T18:08:31.429Z</time></trkpt><trkpt lat="41.9085719" lon="12.5725299"><ele>29.0</ele><time>2026-04-26T18:08:32.422Z</time></trkpt><trkpt lat="41.9084035" lon="12.5725494"><ele>29.0</ele><time>2026-04-26T18:08:33.445Z</time></trkpt><trkpt lat="41.9082452" lon="12.5725745"><ele>29.0</ele><time>2026-04-26T18:08:34.446Z</time></trkpt><trkpt lat="41.9080806" lon="12.5726097"><ele>29.0</ele><time>2026-04-26T18:08:35.424Z</time></trkpt><trkpt lat="41.9079185" lon="12.5726695"><ele>29.0</ele><time>2026-04-26T18:08:36.431Z</time></trkpt><trkpt lat="41.9077655" lon="12.5727073"><ele>29.0</ele><time>2026-04-26T18:08:37.432Z</time></trkpt><trkpt lat="41.9076031" lon="12.5727282"><ele>29.0</ele><time>2026-04-26T18:08:38.431Z</time></trkpt><trkpt lat="41.9074135" lon="12.5727787"><ele>29.666666666666664</ele><time>2026-04-26T18:08:39.422Z</time></trkpt><trkpt lat="41.9072458" lon="12.5728081"><ele>30.333333333333336</ele><time>2026-04-26T18:08:40.432Z</time></trkpt><trkpt lat="41.9070669" lon="12.572883"><ele>31.0</ele><time>2026-04-26T18:08:41.426Z</time></trkpt><trkpt lat="41.9068835" lon="12.5729579"><ele>28.666666666666668</ele><time>2026-04-26T18:08:42.425Z</time></trkpt><trkpt lat="41.9067019" lon="12.573019"><ele>26.333333333333336</ele><time>2026-04-26T18:08:43.521Z</time></trkpt><trkpt lat="41.9065406" lon="12.573055"><ele>24.0</ele><time>2026-04-26T18:08:44.455Z</time></trkpt><trkpt lat="41.9063375" lon="12.573097"><ele>24.0</ele><time>2026-04-26T18:08:45.425Z</time></trkpt><trkpt lat="41.9061368" lon="12.5731623"><ele>24.0</ele><time>2026-04-26T18:08:46.431Z</time></trkpt><trkpt lat="41.9059344" lon="12.5732428"><ele>24.0</ele><time>2026-04-26T18:08:47.435Z</time></trkpt><trkpt lat="41.9057361" lon="12.5733104"><ele>25.0</ele><time>2026-04-26T18:08:48.43Z</time></trkpt><trkpt lat="41.9055028" lon="12.5733828"><ele>26.0</ele><time>2026-04-26T18:08:49.431Z</time></trkpt><trkpt lat="41.9052704" lon="12.5734317"><ele>26.666666666666664</ele><time>2026-04-26T18:08:50.433Z</time></trkpt><trkpt lat="41.905064" lon="12.5735104"><ele>27.333333333333336</ele><time>2026-04-26T18:08:51.432Z</time></trkpt><trkpt lat="41.9048774" lon="12.5736005"><ele>28.0</ele><time>2026-04-26T18:08:52.429Z</time></trkpt><trkpt lat="41.904693" lon="12.5736563"><ele>28.0</ele><time>2026-04-26T18:08:53.435Z</time></trkpt><trkpt lat="41.9045004" lon="12.5736816"><ele>28.0</ele><time>2026-04-26T18:08:54.438Z</time></trkpt><trkpt lat="41.9043163" lon="12.5737192"><ele>28.0</ele><time>2026-04-26T18:08:55.429Z</time></trkpt><trkpt lat="41.9041601" lon="12.5737524"><ele>28.666666666666668</ele><time>2026-04-26T18:08:56.438Z</time></trkpt><trkpt lat="41.9039909" lon="12.5737965"><ele>29.333333333333336</ele><time>2026-04-26T18:08:57.433Z</time></trkpt><trkpt lat="41.9038262" lon="12.5738321"><ele>30.0</ele><time>2026-04-26T18:08:58.434Z</time></trkpt><trkpt lat="41.9036027" lon="12.573873"><ele>30.0</ele><time>2026-04-26T18:08:59.439Z</time></trkpt><trkpt lat="41.9033868" lon="12.5739127"><ele>30.0</ele><time>2026-04-26T18:09:00.44Z</time></trkpt><trkpt lat="41.9032007" lon="12.5739656"><ele>30.0</ele><time>2026-04-26T18:09:01.457Z</time></trkpt><trkpt lat="41.90304" lon="12.5739921"><ele>30.0</ele><time>2026-04-26T18:09:02.44Z</time></trkpt><trkpt lat="41.9028955" lon="12.5739823"><ele>30.0</ele><time>2026-04-26T18:09:03.44Z</time></trkpt><trkpt lat="41.9027328" lon="12.5739534"><ele>30.0</ele><time>2026-04-26T18:09:04.436Z</time></trkpt><trkpt lat="41.9026055" lon="12.5739603"><ele>30.0</ele><time>2026-04-26T18:09:05.436Z</time></trkpt><trkpt lat="41.9024377" lon="12.5739618"><ele>29.666666666666664</ele><time>2026-04-26T18:09:06.434Z</time></trkpt><trkpt lat="41.9022341" lon="12.5739868"><ele>29.333333333333332</ele><time>2026-04-26T18:09:07.437Z</time></trkpt><trkpt lat="41.9020519" lon="12.574014"><ele>29.0</ele><time>2026-04-26T18:09:08.443Z</time></trkpt><trkpt lat="41.9018743" lon="12.574057"><ele>29.333333333333332</ele><time>2026-04-26T18:09:09.433Z</time></trkpt><trkpt lat="41.9017047" lon="12.5741022"><ele>29.666666666666664</ele><time>2026-04-26T18:09:10.438Z</time></trkpt><trkpt lat="41.9015418" lon="12.5741066"><ele>30.0</ele><time>2026-04-26T18:09:11.438Z</time></trkpt><trkpt lat="41.9013847" lon="12.5740965"><ele>30.0</ele><time>2026-04-26T18:09:12.439Z</time></trkpt><trkpt lat="41.9012247" lon="12.5740958"><ele>30.0</ele><time>2026-04-26T18:09:13.442Z</time></trkpt><trkpt lat="41.9010654" lon="12.5740965"><ele>30.0</ele><time>2026-04-26T18:09:14.435Z</time></trkpt><trkpt lat="41.9008865" lon="12.5741252"><ele>29.666666666666664</ele><time>2026-04-26T18:09:15.438Z</time></trkpt><trkpt lat="41.9007049" lon="12.5741637"><ele>29.333333333333332</ele><time>2026-04-26T18:09:16.442Z</time></trkpt><trkpt lat="41.9005128" lon="12.5741958"><ele>29.0</ele><time>2026-04-26T18:09:17.439Z</time></trkpt><trkpt lat="41.9003162" lon="12.5741945"><ele>29.0</ele><time>2026-04-26T18:09:18.447Z</time></trkpt><trkpt lat="41.9001295" lon="12.5742134"><ele>29.0</ele><time>2026-04-26T18:09:19.459Z</time></trkpt><trkpt lat="41.8999444" lon="12.5742617"><ele>29.0</ele><time>2026-04-26T18:09:20.457Z</time></trkpt><trkpt lat="41.8997963" lon="12.5743079"><ele>28.75</ele><time>2026-04-26T18:09:21.453Z</time></trkpt><trkpt lat="41.899663" lon="12.5743433"><ele>28.5</ele><time>2026-04-26T18:09:22.441Z</time></trkpt><trkpt lat="41.8995478" lon="12.5743587"><ele>28.25</ele><time>2026-04-26T18:09:23.434Z</time></trkpt><trkpt lat="41.8994468" lon="12.5743564"><ele>28.0</ele><time>2026-04-26T18:09:24.439Z</time></trkpt><trkpt lat="41.8993358" lon="12.5743407"><ele>28.5</ele><time>2026-04-26T18:09:25.432Z</time></trkpt><trkpt lat="41.8992176" lon="12.5743285"><ele>29.0</ele><time>2026-04-26T18:09:26.427Z</time></trkpt><trkpt lat="41.8990888" lon="12.5743175"><ele>29.5</ele><time>2026-04-26T18:09:27.437Z</time></trkpt><trkpt lat="41.8989474" lon="12.5743229"><ele>30.0</ele><time>2026-04-26T18:09:28.436Z</time></trkpt><trkpt lat="41.8988076" lon="12.5743391"><ele>30.0</ele><time>2026-04-26T18:09:29.437Z</time></trkpt><trkpt lat="41.8986397" lon="12.5743567"><ele>30.0</ele><time>2026-04-26T18:09:30.441Z</time></trkpt><trkpt lat="41.898471" lon="12.574374"><ele>30.0</ele><time>2026-04-26T18:09:31.437Z</time></trkpt><trkpt lat="41.8983146" lon="12.5743954"><ele>30.0</ele><time>2026-04-26T18:09:32.434Z</time></trkpt><trkpt lat="41.8981649" lon="12.5743865"><ele>30.0</ele><time>2026-04-26T18:09:33.433Z</time></trkpt><trkpt lat="41.8980161" lon="12.5743773"><ele>30.0</ele><time>2026-04-26T18:09:34.436Z</time></trkpt><trkpt lat="41.8978724" lon="12.5743811"><ele>30.0</ele><time>2026-04-26T18:09:35.438Z</time></trkpt><trkpt lat="41.897724" lon="12.5743901"><ele>30.0</ele><time>2026-04-26T18:09:36.441Z</time></trkpt><trkpt lat="41.8975697" lon="12.5743748"><ele>30.0</ele><time>2026-04-26T18:09:37.436Z</time></trkpt><trkpt lat="41.897416" lon="12.574358"><ele>30.0</ele><time>2026-04-26T18:09:38.436Z</time></trkpt><trkpt lat="41.8972747" lon="12.5743436"><ele>30.0</ele><time>2026-04-26T18:09:39.439Z</time></trkpt><trkpt lat="41.8971249" lon="12.5743642"><ele>30.0</ele><time>2026-04-26T18:09:40.433Z</time></trkpt><trkpt lat="41.8969724" lon="12.5743629"><ele>30.0</ele><time>2026-04-26T18:09:41.435Z</time></trkpt><trkpt lat="41.8967857" lon="12.574365"><ele>29.333333333333336</ele><time>2026-04-26T18:09:42.435Z</time></trkpt><trkpt lat="41.896621" lon="12.5743464"><ele>28.666666666666668</ele><time>2026-04-26T18:09:43.423Z</time></trkpt><trkpt lat="41.8964784" lon="12.5743074"><ele>28.0</ele><time>2026-04-26T18:09:44.423Z</time></trkpt><trkpt lat="41.8963163" lon="12.5743067"><ele>28.0</ele><time>2026-04-26T18:09:45.43Z</time></trkpt><trkpt lat="41.8961731" lon="12.5743051"><ele>28.0</ele><time>2026-04-26T18:09:46.428Z</time></trkpt><trkpt lat="41.8960372" lon="12.5743136"><ele>28.0</ele><time>2026-04-26T18:09:47.421Z</time></trkpt><trkpt lat="41.8959144" lon="12.5743157"><ele>28.0</ele><time>2026-04-26T18:09:48.434Z</time></trkpt><trkpt lat="41.8958074" lon="12.5743143"><ele>28.0</ele><time>2026-04-26T18:09:49.429Z</time></trkpt><trkpt lat="41.8957052" lon="12.5742924"><ele>27.999999999999996</ele><time>2026-04-26T18:09:50.435Z</time></trkpt><trkpt lat="41.8956139" lon="12.5742922"><ele>27.999999999999996</ele><time>2026-04-26T18:09:51.439Z</time></trkpt><trkpt lat="41.8955166" lon="12.5743147"><ele>28.0</ele><time>2026-04-26T18:09:52.426Z</time></trkpt><trkpt lat="41.8954288" lon="12.5743134"><ele>28.0</ele><time>2026-04-26T18:09:53.443Z</time></trkpt><trkpt lat="41.8953407" lon="12.5743017"><ele>28.000000000000004</ele><time>2026-04-26T18:09:54.448Z</time></trkpt><trkpt lat="41.8952671" lon="12.5742803"><ele>28.0</ele><time>2026-04-26T18:09:55.424Z</time></trkpt><trkpt lat="41.8951884" lon="12.5742559"><ele>28.0</ele><time>2026-04-26T18:09:56.426Z</time></trkpt><trkpt lat="41.8951392" lon="12.5742006"><ele>28.0</ele><time>2026-04-26T18:09:57.419Z</time></trkpt><trkpt lat="41.895058" lon="12.5741237"><ele>28.000000000000004</ele><time>2026-04-26T18:09:59.427Z</time></trkpt><trkpt lat="41.8950364" lon="12.5739972"><ele>28.0</ele><time>2026-04-26T18:10:01.437Z</time></trkpt><trkpt lat="41.8950408" lon="12.5738179"><ele>27.599999999999998</ele><time>2026-04-26T18:10:03.423Z</time></trkpt><trkpt lat="41.8950343" lon="12.5737233"><ele>27.199999999999996</ele><time>2026-04-26T18:10:04.426Z</time></trkpt><trkpt lat="41.8950025" lon="12.5736211"><ele>26.8</ele><time>2026-04-26T18:10:06.417Z</time></trkpt><trkpt lat="41.8949287" lon="12.5737172"><ele>26.4</ele><time>2026-04-26T18:10:10.43Z</time></trkpt><trkpt lat="41.8949209" lon="12.5738402"><ele>26.0</ele><time>2026-04-26T18:10:11.434Z</time></trkpt><trkpt lat="41.8949212" lon="12.5740123"><ele>26.0</ele><time>2026-04-26T18:10:12.428Z</time></trkpt><trkpt lat="41.8949228" lon="12.5741778"><ele>26.0</ele><time>2026-04-26T18:10:13.424Z</time></trkpt><trkpt lat="41.8949118" lon="12.5743592"><ele>26.0</ele><time>2026-04-26T18:10:14.426Z</time></trkpt><trkpt lat="41.8948829" lon="12.5745289"><ele>26.0</ele><time>2026-04-26T18:10:15.415Z</time></trkpt><trkpt lat="41.8948368" lon="12.5746491"><ele>26.200000000000003</ele><time>2026-04-26T18:10:16.427Z</time></trkpt><trkpt lat="41.8947896" lon="12.5747064"><ele>26.400000000000002</ele><time>2026-04-26T18:10:17.429Z</time></trkpt><trkpt lat="41.8947069" lon="12.5747343"><ele>26.6</ele><time>2026-04-26T18:10:18.428Z</time></trkpt><trkpt lat="41.8946094" lon="12.5747205"><ele>26.8</ele><time>2026-04-26T18:10:19.423Z</time></trkpt><trkpt lat="41.8944878" lon="12.574675"><ele>27.0</ele><time>2026-04-26T18:10:20.573Z</time></trkpt><trkpt lat="41.894302" lon="12.5746198"><ele>28.333333333333336</ele><time>2026-04-26T18:10:22.406Z</time></trkpt><trkpt lat="41.8941788" lon="12.5745934"><ele>29.666666666666668</ele><time>2026-04-26T18:10:23.419Z</time></trkpt><trkpt lat="41.8940052" lon="12.5745126"><ele>31.0</ele><time>2026-04-26T18:10:24.427Z</time></trkpt><trkpt lat="41.8938669" lon="12.5744629"><ele>31.0</ele><time>2026-04-26T18:10:25.43Z</time></trkpt><trkpt lat="41.8937407" lon="12.5744312"><ele>31.0</ele><time>2026-04-26T18:10:26.422Z</time></trkpt><trkpt lat="41.8935948" lon="12.5743987"><ele>31.0</ele><time>2026-04-26T18:10:27.426Z</time></trkpt><trkpt lat="41.8934634" lon="12.5743837"><ele>31.0</ele><time>2026-04-26T18:10:28.427Z</time></trkpt><trkpt lat="41.893324" lon="12.5743735"><ele>31.5</ele><time>2026-04-26T18:10:29.418Z</time></trkpt><trkpt lat="41.8931732" lon="12.5743548"><ele>32.0</ele><time>2026-04-26T18:10:30.436Z</time></trkpt><trkpt lat="41.8930287" lon="12.5743604"><ele>32.5</ele><time>2026-04-26T18:10:31.429Z</time></trkpt><trkpt lat="41.8929001" lon="12.5743509"><ele>33.0</ele><time>2026-04-26T18:10:32.425Z</time></trkpt><trkpt lat="41.8927503" lon="12.5743442"><ele>33.0</ele><time>2026-04-26T18:10:33.428Z</time></trkpt><trkpt lat="41.8926111" lon="12.5743467"><ele>33.0</ele><time>2026-04-26T18:10:34.423Z</time></trkpt><trkpt lat="41.8924743" lon="12.5743341"><ele>33.0</ele><time>2026-04-26T18:10:35.456Z</time></trkpt><trkpt lat="41.8923576" lon="12.5743111"><ele>33.0</ele><time>2026-04-26T18:10:36.419Z</time></trkpt><trkpt lat="41.8922203" lon="12.5742859"><ele>33.666666666666664</ele><time>2026-04-26T18:10:37.427Z</time></trkpt><trkpt lat="41.8920931" lon="12.5742587"><ele>34.33333333333333</ele><time>2026-04-26T18:10:38.421Z</time></trkpt><trkpt lat="41.8918587" lon="12.5742342"><ele>35.0</ele><time>2026-04-26T18:10:40.427Z</time></trkpt><trkpt lat="41.8917314" lon="12.5742269"><ele>35.0</ele><time>2026-04-26T18:10:41.425Z</time></trkpt><trkpt lat="41.891623" lon="12.5742118"><ele>35.0</ele><time>2026-04-26T18:10:42.429Z</time></trkpt><trkpt lat="41.8915089" lon="12.5741998"><ele>35.0</ele><time>2026-04-26T18:10:43.433Z</time></trkpt><trkpt lat="41.8913885" lon="12.5741838"><ele>35.0</ele><time>2026-04-26T18:10:44.428Z</time></trkpt><trkpt lat="41.8912636" lon="12.5741793"><ele>35.0</ele><time>2026-04-26T18:10:45.433Z</time></trkpt><trkpt lat="41.891148" lon="12.5741767"><ele>35.0</ele><time>2026-04-26T18:10:46.434Z</time></trkpt><trkpt lat="41.8910472" lon="12.5741648"><ele>35.0</ele><time>2026-04-26T18:10:47.436Z</time></trkpt><trkpt lat="41.8909552" lon="12.5741447"><ele>35.0</ele><time>2026-04-26T18:10:48.436Z</time></trkpt><trkpt lat="41.8907948" lon="12.5740998"><ele>34.8</ele><time>2026-04-26T18:10:50.433Z</time></trkpt><trkpt lat="41.8907088" lon="12.5740796"><ele>34.6</ele><time>2026-04-26T18:10:51.438Z</time></trkpt><trkpt lat="41.8906378" lon="12.5740609"><ele>34.4</ele><time>2026-04-26T18:10:52.433Z</time></trkpt><trkpt lat="41.89053" lon="12.5740228"><ele>34.2</ele><time>2026-04-26T18:10:54.427Z</time></trkpt><trkpt lat="41.8904339" lon="12.5739943"><ele>34.0</ele><time>2026-04-26T18:10:56.429Z</time></trkpt><trkpt lat="41.8903551" lon="12.5739679"><ele>34.0</ele><time>2026-04-26T18:10:58.451Z</time></trkpt><trkpt lat="41.8902677" lon="12.5739352"><ele>34.0</ele><time>2026-04-26T18:11:24.433Z</time></trkpt><trkpt lat="41.8902039" lon="12.5739068"><ele>34.0</ele><time>2026-04-26T18:11:25.422Z</time></trkpt><trkpt lat="41.8901039" lon="12.5738709"><ele>34.0</ele><time>2026-04-26T18:11:26.432Z</time></trkpt><trkpt lat="41.889974" lon="12.5737973"><ele>34.0</ele><time>2026-04-26T18:11:27.432Z</time></trkpt><trkpt lat="41.8897949" lon="12.573735"><ele>34.0</ele><time>2026-04-26T18:11:28.428Z</time></trkpt><trkpt lat="41.8895631" lon="12.5736991"><ele>34.0</ele><time>2026-04-26T18:11:29.426Z</time></trkpt><trkpt lat="41.8893099" lon="12.5736563"><ele>33.66666666666667</ele><time>2026-04-26T18:11:30.419Z</time></trkpt><trkpt lat="41.88907" lon="12.5736301"><ele>33.333333333333336</ele><time>2026-04-26T18:11:31.432Z</time></trkpt><trkpt lat="41.8888768" lon="12.5736083"><ele>33.0</ele><time>2026-04-26T18:11:32.434Z</time></trkpt><trkpt lat="41.8887146" lon="12.5735878"><ele>33.0</ele><time>2026-04-26T18:11:33.422Z</time></trkpt><trkpt lat="41.888546" lon="12.5735676"><ele>33.0</ele><time>2026-04-26T18:11:34.43Z</time></trkpt><trkpt lat="41.8883912" lon="12.5734946"><ele>33.0</ele><time>2026-04-26T18:11:35.425Z</time></trkpt><trkpt lat="41.8882189" lon="12.5734428"><ele>33.0</ele><time>2026-04-26T18:11:36.43Z</time></trkpt><trkpt lat="41.887999" lon="12.5733951"><ele>33.0</ele><time>2026-04-26T18:11:37.426Z</time></trkpt><trkpt lat="41.8877559" lon="12.5733719"><ele>32.333333333333336</ele><time>2026-04-26T18:11:38.427Z</time></trkpt><trkpt lat="41.887558" lon="12.5733777"><ele>31.666666666666668</ele><time>2026-04-26T18:11:39.418Z</time></trkpt><trkpt lat="41.8873798" lon="12.573358"><ele>31.0</ele><time>2026-04-26T18:11:40.43Z</time></trkpt><trkpt lat="41.8871916" lon="12.5733382"><ele>31.0</ele><time>2026-04-26T18:11:41.425Z</time></trkpt><trkpt lat="41.8869993" lon="12.5733321"><ele>31.0</ele><time>2026-04-26T18:11:42.425Z</time></trkpt><trkpt lat="41.8867896" lon="12.5732921"><ele>31.0</ele><time>2026-04-26T18:11:43.426Z</time></trkpt><trkpt lat="41.8866151" lon="12.5732875"><ele>30.0</ele><time>2026-04-26T18:11:44.425Z</time></trkpt><trkpt lat="41.8864329" lon="12.5732524"><ele>29.0</ele><time>2026-04-26T18:11:45.424Z</time></trkpt><trkpt lat="41.8862628" lon="12.5732201"><ele>28.0</ele><time>2026-04-26T18:11:46.427Z</time></trkpt><trkpt lat="41.8861133" lon="12.5732312"><ele>28.0</ele><time>2026-04-26T18:11:47.43Z</time></trkpt><trkpt lat="41.8859649" lon="12.5732062"><ele>28.0</ele><time>2026-04-26T18:11:48.43Z</time></trkpt><trkpt lat="41.8858079" lon="12.5731719"><ele>28.0</ele><time>2026-04-26T18:11:49.42Z</time></trkpt><trkpt lat="41.8856634" lon="12.5731697"><ele>28.333333333333336</ele><time>2026-04-26T18:11:50.428Z</time></trkpt><trkpt lat="41.885497" lon="12.5731664"><ele>28.666666666666664</ele><time>2026-04-26T18:11:51.42Z</time></trkpt><trkpt lat="41.8853443" lon="12.5731291"><ele>29.0</ele><time>2026-04-26T18:11:52.419Z</time></trkpt><trkpt lat="41.8851554" lon="12.5731038"><ele>30.0</ele><time>2026-04-26T18:11:53.421Z</time></trkpt><trkpt lat="41.8848827" lon="12.5731129"><ele>31.0</ele><time>2026-04-26T18:11:54.423Z</time></trkpt><trkpt lat="41.8846698" lon="12.5731344"><ele>31.0</ele><time>2026-04-26T18:11:55.426Z</time></trkpt><trkpt lat="41.8844783" lon="12.5731043"><ele>31.0</ele><time>2026-04-26T18:11:56.424Z</time></trkpt><trkpt lat="41.8842321" lon="12.5730881"><ele>31.0</ele><time>2026-04-26T18:11:57.438Z</time></trkpt><trkpt lat="41.8839802" lon="12.5730876"><ele>33.0</ele><time>2026-04-26T18:11:58.584Z</time></trkpt><trkpt lat="41.8835185" lon="12.5731275"><ele>33.0</ele><time>2026-04-26T18:12:00.438Z</time></trkpt><trkpt lat="41.8832636" lon="12.5731877"><ele>33.0</ele><time>2026-04-26T18:12:01.431Z</time></trkpt><trkpt lat="41.8830451" lon="12.5732291"><ele>33.0</ele><time>2026-04-26T18:12:02.425Z</time></trkpt><trkpt lat="41.8828782" lon="12.5732568"><ele>33.0</ele><time>2026-04-26T18:12:03.43Z</time></trkpt><trkpt lat="41.882777" lon="12.5732616"><ele>33.0</ele><time>2026-04-26T18:12:04.42Z</time></trkpt><trkpt lat="41.8826898" lon="12.5731907"><ele>33.0</ele><time>2026-04-26T18:12:05.422Z</time></trkpt><trkpt lat="41.8825489" lon="12.5731248"><ele>33.0</ele><time>2026-04-26T18:12:07.414Z</time></trkpt><trkpt lat="41.8824255" lon="12.5731095"><ele>33.0</ele><time>2026-04-26T18:12:08.413Z</time></trkpt><trkpt lat="41.8821869" lon="12.573078"><ele>33.0</ele><time>2026-04-26T18:12:10.416Z</time></trkpt><trkpt lat="41.8820815" lon="12.5730734"><ele>33.0</ele><time>2026-04-26T18:12:11.426Z</time></trkpt><trkpt lat="41.8819708" lon="12.573095"><ele>33.0</ele><time>2026-04-26T18:12:12.412Z</time></trkpt><trkpt lat="41.8818769" lon="12.5731206"><ele>33.0</ele><time>2026-04-26T18:12:13.421Z</time></trkpt><trkpt lat="41.8818055" lon="12.5731426"><ele>33.0</ele><time>2026-04-26T18:12:14.422Z</time></trkpt><trkpt lat="41.8817186" lon="12.5731519"><ele>33.0</ele><time>2026-04-26T18:12:16.427Z</time></trkpt><trkpt lat="41.88164" lon="12.5731334"><ele>33.0</ele><time>2026-04-26T18:12:18.441Z</time></trkpt><trkpt lat="41.8815624" lon="12.5731078"><ele>33.4</ele><time>2026-04-26T18:12:20.425Z</time></trkpt><trkpt lat="41.8814766" lon="12.5730833"><ele>33.8</ele><time>2026-04-26T18:12:28.433Z</time></trkpt><trkpt lat="41.8813944" lon="12.5730723"><ele>34.2</ele><time>2026-04-26T18:12:30.428Z</time></trkpt><trkpt lat="41.8812587" lon="12.57302"><ele>34.6</ele><time>2026-04-26T18:12:32.433Z</time></trkpt><trkpt lat="41.8811564" lon="12.5729664"><ele>35.0</ele><time>2026-04-26T18:12:33.426Z</time></trkpt><trkpt lat="41.8810304" lon="12.5729369"><ele>35.0</ele><time>2026-04-26T18:12:34.429Z</time></trkpt><trkpt lat="41.8808952" lon="12.5729217"><ele>35.0</ele><time>2026-04-26T18:12:35.428Z</time></trkpt><trkpt lat="41.8807345" lon="12.5729203"><ele>35.0</ele><time>2026-04-26T18:12:36.428Z</time></trkpt><trkpt lat="41.8805442" lon="12.5729043"><ele>35.0</ele><time>2026-04-26T18:12:37.425Z</time></trkpt><trkpt lat="41.8803589" lon="12.5728701"><ele>35.0</ele><time>2026-04-26T18:12:38.432Z</time></trkpt><trkpt lat="41.8802023" lon="12.5728309"><ele>35.0</ele><time>2026-04-26T18:12:39.427Z</time></trkpt><trkpt lat="41.8800528" lon="12.5728322"><ele>36.33333333333333</ele><time>2026-04-26T18:12:40.435Z</time></trkpt><trkpt lat="41.8798774" lon="12.5728203"><ele>37.666666666666664</ele><time>2026-04-26T18:12:41.43Z</time></trkpt><trkpt lat="41.8796959" lon="12.5727926"><ele>39.0</ele><time>2026-04-26T18:12:42.421Z</time></trkpt><trkpt lat="41.87951" lon="12.572779"><ele>39.0</ele><time>2026-04-26T18:12:43.427Z</time></trkpt><trkpt lat="41.8793162" lon="12.5727755"><ele>39.0</ele><time>2026-04-26T18:12:44.427Z</time></trkpt><trkpt lat="41.8791431" lon="12.5727231"><ele>39.0</ele><time>2026-04-26T18:12:45.43Z</time></trkpt><trkpt lat="41.87896" lon="12.5726775"><ele>38.666666666666664</ele><time>2026-04-26T18:12:46.428Z</time></trkpt><trkpt lat="41.8787928" lon="12.5726351"><ele>38.33333333333333</ele><time>2026-04-26T18:12:47.428Z</time></trkpt><trkpt lat="41.878639" lon="12.5725873"><ele>38.0</ele><time>2026-04-26T18:12:48.434Z</time></trkpt><trkpt lat="41.8785083" lon="12.5725372"><ele>37.75</ele><time>2026-04-26T18:12:49.426Z</time></trkpt><trkpt lat="41.8782763" lon="12.5725201"><ele>37.5</ele><time>2026-04-26T18:12:51.432Z</time></trkpt><trkpt lat="41.8782122" lon="12.5725145"><ele>37.25</ele><time>2026-04-26T18:12:52.419Z</time></trkpt><trkpt lat="41.8780984" lon="12.5725199"><ele>37.0</ele><time>2026-04-26T18:12:53.424Z</time></trkpt><trkpt lat="41.8779944" lon="12.5724952"><ele>37.0</ele><time>2026-04-26T18:12:54.43Z</time></trkpt><trkpt lat="41.8779067" lon="12.5724508"><ele>37.0</ele><time>2026-04-26T18:12:55.421Z</time></trkpt><trkpt lat="41.877805" lon="12.5723512"><ele>37.0</ele><time>2026-04-26T18:12:56.429Z</time></trkpt><trkpt lat="41.8777271" lon="12.5722457"><ele>37.0</ele><time>2026-04-26T18:12:57.431Z</time></trkpt><trkpt lat="41.8776338" lon="12.5721418"><ele>37.0</ele><time>2026-04-26T18:12:58.429Z</time></trkpt><trkpt lat="41.8775339" lon="12.572031"><ele>37.0</ele><time>2026-04-26T18:12:59.433Z</time></trkpt><trkpt lat="41.8774439" lon="12.5719204"><ele>37.0</ele><time>2026-04-26T18:13:00.432Z</time></trkpt><trkpt lat="41.8772814" lon="12.571793"><ele>37.0</ele><time>2026-04-26T18:13:01.427Z</time></trkpt><trkpt lat="41.877153" lon="12.5717162"><ele>37.0</ele><time>2026-04-26T18:13:02.428Z</time></trkpt><trkpt lat="41.8770379" lon="12.5716441"><ele>37.0</ele><time>2026-04-26T18:13:03.434Z</time></trkpt><trkpt lat="41.8769231" lon="12.5715631"><ele>37.0</ele><time>2026-04-26T18:13:04.452Z</time></trkpt><trkpt lat="41.8768174" lon="12.5714386"><ele>37.0</ele><time>2026-04-26T18:13:05.447Z</time></trkpt><trkpt lat="41.8766566" lon="12.5713129"><ele>38.0</ele><time>2026-04-26T18:13:06.431Z</time></trkpt><trkpt lat="41.8764715" lon="12.5711872"><ele>39.0</ele><time>2026-04-26T18:13:07.422Z</time></trkpt><trkpt lat="41.8763123" lon="12.571119"><ele>40.0</ele><time>2026-04-26T18:13:08.424Z</time></trkpt><trkpt lat="41.8761538" lon="12.5710417"><ele>40.0</ele><time>2026-04-26T18:13:09.424Z</time></trkpt><trkpt lat="41.8760172" lon="12.5709433"><ele>40.0</ele><time>2026-04-26T18:13:10.424Z</time></trkpt><trkpt lat="41.875895" lon="12.5708823"><ele>40.0</ele><time>2026-04-26T18:13:11.428Z</time></trkpt><trkpt lat="41.8757861" lon="12.5708201"><ele>40.0</ele><time>2026-04-26T18:13:12.431Z</time></trkpt><trkpt lat="41.8756893" lon="12.570734"><ele>39.6</ele><time>2026-04-26T18:13:13.421Z</time></trkpt><trkpt lat="41.8755801" lon="12.570674"><ele>39.2</ele><time>2026-04-26T18:13:14.429Z</time></trkpt><trkpt lat="41.8754867" lon="12.5706799"><ele>38.8</ele><time>2026-04-26T18:13:15.421Z</time></trkpt><trkpt lat="41.8754148" lon="12.5706938"><ele>38.4</ele><time>2026-04-26T18:13:16.427Z</time></trkpt><trkpt lat="41.8753103" lon="12.5707717"><ele>38.0</ele><time>2026-04-26T18:13:18.429Z</time></trkpt><trkpt lat="41.8752803" lon="12.5708491"><ele>38.0</ele><time>2026-04-26T18:13:19.42Z</time></trkpt><trkpt lat="41.8752753" lon="12.570959"><ele>38.0</ele><time>2026-04-26T18:13:20.431Z</time></trkpt><trkpt lat="41.8753235" lon="12.571087"><ele>38.0</ele><time>2026-04-26T18:13:21.435Z</time></trkpt><trkpt lat="41.8753854" lon="12.5712316"><ele>38.0</ele><time>2026-04-26T18:13:22.423Z</time></trkpt><trkpt lat="41.8754894" lon="12.5713586"><ele>37.666666666666664</ele><time>2026-04-26T18:13:23.423Z</time></trkpt><trkpt lat="41.8755913" lon="12.5714857"><ele>37.333333333333336</ele><time>2026-04-26T18:13:24.416Z</time></trkpt><trkpt lat="41.8757075" lon="12.5716254"><ele>37.0</ele><time>2026-04-26T18:13:25.422Z</time></trkpt><trkpt lat="41.8758569" lon="12.571771"><ele>37.0</ele><time>2026-04-26T18:13:26.413Z</time></trkpt><trkpt lat="41.8761037" lon="12.5719294"><ele>37.0</ele><time>2026-04-26T18:13:27.424Z</time></trkpt><trkpt lat="41.8763297" lon="12.5720707"><ele>36.5</ele><time>2026-04-26T18:13:28.416Z</time></trkpt><trkpt lat="41.8765933" lon="12.5721679"><ele>36.0</ele><time>2026-04-26T18:13:29.424Z</time></trkpt><trkpt lat="41.8768459" lon="12.5722468"><ele>36.0</ele><time>2026-04-26T18:13:30.418Z</time></trkpt><trkpt lat="41.8770923" lon="12.5723471"><ele>36.0</ele><time>2026-04-26T18:13:31.423Z</time></trkpt><trkpt lat="41.8772915" lon="12.5724204"><ele>36.0</ele><time>2026-04-26T18:13:32.418Z</time></trkpt><trkpt lat="41.8774633" lon="12.5724755"><ele>36.0</ele><time>2026-04-26T18:13:33.42Z</time></trkpt><trkpt lat="41.8776183" lon="12.5725258"><ele>36.0</ele><time>2026-04-26T18:13:34.419Z</time></trkpt><trkpt lat="41.8777437" lon="12.5725815"><ele>36.2</ele><time>2026-04-26T18:13:35.418Z</time></trkpt><trkpt lat="41.8778611" lon="12.5726103"><ele>36.400000000000006</ele><time>2026-04-26T18:13:36.424Z</time></trkpt><trkpt lat="41.8779652" lon="12.5726384"><ele>36.6</ele><time>2026-04-26T18:13:37.502Z</time></trkpt><trkpt lat="41.8780678" lon="12.5726871"><ele>36.800000000000004</ele><time>2026-04-26T18:13:38.581Z</time></trkpt><trkpt lat="41.8781631" lon="12.5727145"><ele>37.0</ele><time>2026-04-26T18:13:39.576Z</time></trkpt><trkpt lat="41.878293" lon="12.5728518"><ele>36.5</ele><time>2026-04-26T18:13:41.424Z</time></trkpt><trkpt lat="41.8783402" lon="12.5729881"><ele>36.0</ele><time>2026-04-26T18:13:42.429Z</time></trkpt><trkpt lat="41.878365" lon="12.5731318"><ele>35.5</ele><time>2026-04-26T18:13:43.42Z</time></trkpt><trkpt lat="41.8783791" lon="12.5733072"><ele>35.0</ele><time>2026-04-26T18:13:44.422Z</time></trkpt><trkpt lat="41.8784083" lon="12.5735075"><ele>36.0</ele><time>2026-04-26T18:13:45.431Z</time></trkpt><trkpt lat="41.8784344" lon="12.5738343"><ele>37.0</ele><time>2026-04-26T18:13:47.422Z</time></trkpt><trkpt lat="41.878459" lon="12.5740087"><ele>38.0</ele><time>2026-04-26T18:13:48.424Z</time></trkpt><trkpt lat="41.8784768" lon="12.5741719"><ele>38.0</ele><time>2026-04-26T18:13:49.419Z</time></trkpt><trkpt lat="41.8785017" lon="12.5743542"><ele>38.0</ele><time>2026-04-26T18:13:50.434Z</time></trkpt><trkpt lat="41.878542" lon="12.5745468"><ele>38.0</ele><time>2026-04-26T18:13:51.467Z</time></trkpt><trkpt lat="41.8785899" lon="12.5747516"><ele>38.0</ele><time>2026-04-26T18:13:52.429Z</time></trkpt><trkpt lat="41.8786305" lon="12.5749581"><ele>39.25</ele><time>2026-04-26T18:13:53.434Z</time></trkpt><trkpt lat="41.8786833" lon="12.5751366"><ele>40.5</ele><time>2026-04-26T18:13:54.429Z</time></trkpt><trkpt lat="41.8787148" lon="12.5752923"><ele>41.75</ele><time>2026-04-26T18:13:55.428Z</time></trkpt><trkpt lat="41.8787582" lon="12.5754338"><ele>43.0</ele><time>2026-04-26T18:13:56.435Z</time></trkpt><trkpt lat="41.8787786" lon="12.5755584"><ele>43.0</ele><time>2026-04-26T18:13:57.437Z</time></trkpt><trkpt lat="41.8788375" lon="12.5757325"><ele>43.0</ele><time>2026-04-26T18:13:58.437Z</time></trkpt><trkpt lat="41.8788719" lon="12.5758768"><ele>43.0</ele><time>2026-04-26T18:13:59.434Z</time></trkpt><trkpt lat="41.8788913" lon="12.5759984"><ele>43.0</ele><time>2026-04-26T18:14:00.441Z</time></trkpt><trkpt lat="41.8789148" lon="12.5761135"><ele>43.0</ele><time>2026-04-26T18:14:01.437Z</time></trkpt><trkpt lat="41.8789322" lon="12.5762111"><ele>43.8</ele><time>2026-04-26T18:14:02.43Z</time></trkpt><trkpt lat="41.8789331" lon="12.5763147"><ele>44.599999999999994</ele><time>2026-04-26T18:14:03.437Z</time></trkpt><trkpt lat="41.8789365" lon="12.5764155"><ele>45.400000000000006</ele><time>2026-04-26T18:14:04.432Z</time></trkpt><trkpt lat="41.8789447" lon="12.5765104"><ele>46.2</ele><time>2026-04-26T18:14:05.432Z</time></trkpt><trkpt lat="41.8789381" lon="12.5766614"><ele>47.0</ele><time>2026-04-26T18:14:07.43Z</time></trkpt><trkpt lat="41.8788401" lon="12.576749"><ele>47.0</ele><time>2026-04-26T18:14:09.416Z</time></trkpt><trkpt lat="41.8787524" lon="12.5767688"><ele>47.0</ele><time>2026-04-26T18:14:10.428Z</time></trkpt><trkpt lat="41.8786366" lon="12.5767924"><ele>47.0</ele><time>2026-04-26T18:14:11.418Z</time></trkpt><trkpt lat="41.8785119" lon="12.5768326"><ele>47.0</ele><time>2026-04-26T18:14:12.414Z</time></trkpt><trkpt lat="41.8783603" lon="12.5768693"><ele>48.0</ele><time>2026-04-26T18:14:13.426Z</time></trkpt><trkpt lat="41.8782568" lon="12.5769109"><ele>49.0</ele><time>2026-04-26T18:14:14.414Z</time></trkpt><trkpt lat="41.8781285" lon="12.5769552"><ele>50.0</ele><time>2026-04-26T18:14:15.425Z</time></trkpt><trkpt lat="41.8779973" lon="12.5769979"><ele>51.0</ele><time>2026-04-26T18:14:16.419Z</time></trkpt><trkpt lat="41.8778917" lon="12.577034"><ele>55.0</ele><time>2026-04-26T18:14:17.418Z</time></trkpt><trkpt lat="41.8777903" lon="12.5770669"><ele>55.0</ele><time>2026-04-26T18:14:18.446Z</time></trkpt><trkpt lat="41.8777105" lon="12.577108"><ele>55.0</ele><time>2026-04-26T18:14:19.418Z</time></trkpt><trkpt lat="41.8776273" lon="12.5771518"><ele>55.0</ele><time>2026-04-26T18:14:21.416Z</time></trkpt><trkpt lat="41.8775595" lon="12.5770879"><ele>53.0</ele><time>2026-04-26T18:14:25.5Z</time></trkpt><trkpt lat="41.8774867" lon="12.5770971"><ele>53.0</ele><time>2026-04-26T18:14:28.417Z</time></trkpt></trkseg></trk></gpx>